<?xml version="1.0" encoding="UTF-8" standalone="no" ?><gpx xmlns="http://www.topografix.com/GPX/1/1" xmlns:gpxx="http://www.garmin.com/xmlschemas/GpxExtensions/v3" xmlns:wptx1="http://www.garmin.com/xmlschemas/WaypointExtension/v1" xmlns:gpxtpx="http://www.garmin.com/xmlschemas/TrackPointExtension/v1" creator="GuideVTT.com" version="1.1" xmlns:xsi="http://www.w3.org/2001/XMLSchema-instance" xsi:schemaLocation="http://www.topografix.com/GPX/1/1 http://www.topografix.com/GPX/1/1/gpx.xsd http://www.garmin.com/xmlschemas/GpxExtensions/v3 http://www8.garmin.com/xmlschemas/GpxExtensionsv3.xsd http://www.garmin.com/xmlschemas/WaypointExtension/v1 http://www8.garmin.com/xmlschemas/WaypointExtensionv1.xsd http://www.garmin.com/xmlschemas/TrackPointExtension/v1 http://www.garmin.com/xmlschemas/TrackPointExtensionv1.xsd">
<metadata><link href="http://www.garmin.com"><text>Garmin International</text></link><time>2013-06-22T15:13:50Z</time></metadata>
<trk><name>col_de_cou.gpx</name><extensions><gpxx:TrackExtension><gpxx:DisplayColor>Cyan</gpxx:DisplayColor></gpxx:TrackExtension></extensions><trkseg>
<trkpt lat="46.24207282" lon="7.37962109"><ele>513.481445</ele><time>2007-08-03T12:23:30Z</time></trkpt>
<trkpt lat="46.24218539" lon="7.37974917"><ele>512.039429</ele><time>2007-08-03T12:23:32Z</time></trkpt>
<trkpt lat="46.24228916" lon="7.37987850"><ele>513.481445</ele><time>2007-08-03T12:23:34Z</time></trkpt>
<trkpt lat="46.24239662" lon="7.38000976"><ele>514.442627</ele><time>2007-08-03T12:23:36Z</time></trkpt>
<trkpt lat="46.24290498" lon="7.38066657"><ele>514.92334</ele><time>2007-08-03T12:23:46Z</time></trkpt>
<trkpt lat="46.24321067" lon="7.38130627"><ele>514.442627</ele><time>2007-08-03T12:23:54Z</time></trkpt>
<trkpt lat="46.24353664" lon="7.38198588"><ele>514.442627</ele><time>2007-08-03T12:24:02Z</time></trkpt>
<trkpt lat="46.24369774" lon="7.38243976"><ele>514.92334</ele><time>2007-08-03T12:24:07Z</time></trkpt>
<trkpt lat="46.24371316" lon="7.38282759"><ele>515.404053</ele><time>2007-08-03T12:24:11Z</time></trkpt>
<trkpt lat="46.24374853" lon="7.38307603"><ele>514.442627</ele><time>2007-08-03T12:24:14Z</time></trkpt>
<trkpt lat="46.24389824" lon="7.38318734"><ele>513.962036</ele><time>2007-08-03T12:24:17Z</time></trkpt>
<trkpt lat="46.24397317" lon="7.38335087"><ele>513.962036</ele><time>2007-08-03T12:24:19Z</time></trkpt>
<trkpt lat="46.24412572" lon="7.38390726"><ele>514.442627</ele><time>2007-08-03T12:24:25Z</time></trkpt>
<trkpt lat="46.24418666" lon="7.38420255"><ele>514.92334</ele><time>2007-08-03T12:24:28Z</time></trkpt>
<trkpt lat="46.24422932" lon="7.38450330"><ele>513.962036</ele><time>2007-08-03T12:24:31Z</time></trkpt>
<trkpt lat="46.24432077" lon="7.38540905"><ele>513.962036</ele><time>2007-08-03T12:24:40Z</time></trkpt>
<trkpt lat="46.24438413" lon="7.38610097"><ele>512.52002</ele><time>2007-08-03T12:24:47Z</time></trkpt>
<trkpt lat="46.24445865" lon="7.38688149"><ele>512.52002</ele><time>2007-08-03T12:24:55Z</time></trkpt>
<trkpt lat="46.24452864" lon="7.38780820"><ele>513.481445</ele><time>2007-08-03T12:25:04Z</time></trkpt>
<trkpt lat="46.24455202" lon="7.38856944"><ele>513.000732</ele><time>2007-08-03T12:25:11Z</time></trkpt>
<trkpt lat="46.24454515" lon="7.38945650"><ele>513.481445</ele><time>2007-08-03T12:25:19Z</time></trkpt>
<trkpt lat="46.24451824" lon="7.39043676"><ele>513.481445</ele><time>2007-08-03T12:25:28Z</time></trkpt>
<trkpt lat="46.24447944" lon="7.39155139"><ele>513.481445</ele><time>2007-08-03T12:25:38Z</time></trkpt>
<trkpt lat="46.24444398" lon="7.39222085"><ele>514.92334</ele><time>2007-08-03T12:25:44Z</time></trkpt>
<trkpt lat="46.24436670" lon="7.39323523"><ele>515.404053</ele><time>2007-08-03T12:25:53Z</time></trkpt>
<trkpt lat="46.24431867" lon="7.39411675"><ele>515.404053</ele><time>2007-08-03T12:26:01Z</time></trkpt>
<trkpt lat="46.24431976" lon="7.39498948"><ele>514.92334</ele><time>2007-08-03T12:26:09Z</time></trkpt>
<trkpt lat="46.24432060" lon="7.39585055"><ele>514.92334</ele><time>2007-08-03T12:26:17Z</time></trkpt>
<trkpt lat="46.24432764" lon="7.39681179"><ele>514.442627</ele><time>2007-08-03T12:26:26Z</time></trkpt>
<trkpt lat="46.24433032" lon="7.39766423"><ele>513.962036</ele><time>2007-08-03T12:26:34Z</time></trkpt>
<trkpt lat="46.24430744" lon="7.39852739"><ele>514.442627</ele><time>2007-08-03T12:26:42Z</time></trkpt>
<trkpt lat="46.24425698" lon="7.39936818"><ele>513.962036</ele><time>2007-08-03T12:26:50Z</time></trkpt>
<trkpt lat="46.24420895" lon="7.40011275"><ele>513.962036</ele><time>2007-08-03T12:26:57Z</time></trkpt>
<trkpt lat="46.24415405" lon="7.40118538"><ele>513.962036</ele><time>2007-08-03T12:27:07Z</time></trkpt>
<trkpt lat="46.24410376" lon="7.40202533"><ele>514.92334</ele><time>2007-08-03T12:27:15Z</time></trkpt>
<trkpt lat="46.24405464" lon="7.40286419"><ele>514.92334</ele><time>2007-08-03T12:27:23Z</time></trkpt>
<trkpt lat="46.24397619" lon="7.40361345"><ele>514.92334</ele><time>2007-08-03T12:27:30Z</time></trkpt>
<trkpt lat="46.24388600" lon="7.40434955"><ele>514.442627</ele><time>2007-08-03T12:27:37Z</time></trkpt>
<trkpt lat="46.24380545" lon="7.40507777"><ele>514.92334</ele><time>2007-08-03T12:27:44Z</time></trkpt>
<trkpt lat="46.24364418" lon="7.40580272"><ele>514.92334</ele><time>2007-08-03T12:27:51Z</time></trkpt>
<trkpt lat="46.24340722" lon="7.40629767"><ele>514.442627</ele><time>2007-08-03T12:27:56Z</time></trkpt>
<trkpt lat="46.24314462" lon="7.40678885"><ele>513.962036</ele><time>2007-08-03T12:28:01Z</time></trkpt>
<trkpt lat="46.24305644" lon="7.40692958"><ele>513.962036</ele><time>2007-08-03T12:28:03Z</time></trkpt>
<trkpt lat="46.24285737" lon="7.40731146"><ele>512.52002</ele><time>2007-08-03T12:28:07Z</time></trkpt>
<trkpt lat="46.24272376" lon="7.40758739"><ele>513.962036</ele><time>2007-08-03T12:28:10Z</time></trkpt>
<trkpt lat="46.24246325" lon="7.40811386"><ele>514.442627</ele><time>2007-08-03T12:28:16Z</time></trkpt>
<trkpt lat="46.24205606" lon="7.40886907"><ele>514.442627</ele><time>2007-08-03T12:28:25Z</time></trkpt>
<trkpt lat="46.24171953" lon="7.40957038"><ele>515.404053</ele><time>2007-08-03T12:28:33Z</time></trkpt>
<trkpt lat="46.24146212" lon="7.41020473"><ele>515.884644</ele><time>2007-08-03T12:28:40Z</time></trkpt>
<trkpt lat="46.24111209" lon="7.41074268"><ele>515.404053</ele><time>2007-08-03T12:28:47Z</time></trkpt>
<trkpt lat="46.24072418" lon="7.41133553"><ele>515.884644</ele><time>2007-08-03T12:28:55Z</time></trkpt>
<trkpt lat="46.24042855" lon="7.41193316"><ele>515.404053</ele><time>2007-08-03T12:29:02Z</time></trkpt>
<trkpt lat="46.24016418" lon="7.41268728"><ele>516.365234</ele><time>2007-08-03T12:29:10Z</time></trkpt>
<trkpt lat="46.23997333" lon="7.41334626"><ele>515.884644</ele><time>2007-08-03T12:29:17Z</time></trkpt>
<trkpt lat="46.23977132" lon="7.41422544"><ele>515.884644</ele><time>2007-08-03T12:29:26Z</time></trkpt>
<trkpt lat="46.23962715" lon="7.41513278"><ele>516.365234</ele><time>2007-08-03T12:29:35Z</time></trkpt>
<trkpt lat="46.23957166" lon="7.41573846"><ele>515.884644</ele><time>2007-08-03T12:29:41Z</time></trkpt>
<trkpt lat="46.23952724" lon="7.41665175"><ele>515.884644</ele><time>2007-08-03T12:29:50Z</time></trkpt>
<trkpt lat="46.23956538" lon="7.41726723"><ele>516.365234</ele><time>2007-08-03T12:29:56Z</time></trkpt>
<trkpt lat="46.23961047" lon="7.41768289"><ele>516.845947</ele><time>2007-08-03T12:30:00Z</time></trkpt>
<trkpt lat="46.23971952" lon="7.41849418"><ele>516.845947</ele><time>2007-08-03T12:30:08Z</time></trkpt>
<trkpt lat="46.23984165" lon="7.41917823"><ele>516.845947</ele><time>2007-08-03T12:30:15Z</time></trkpt>
<trkpt lat="46.24001088" lon="7.41976856"><ele>516.845947</ele><time>2007-08-03T12:30:21Z</time></trkpt>
<trkpt lat="46.24014306" lon="7.42025480"><ele>517.807251</ele><time>2007-08-03T12:30:26Z</time></trkpt>
<trkpt lat="46.24034758" lon="7.42082217"><ele>517.32666</ele><time>2007-08-03T12:30:32Z</time></trkpt>
<trkpt lat="46.24064706" lon="7.42142592"><ele>516.845947</ele><time>2007-08-03T12:30:39Z</time></trkpt>
<trkpt lat="46.24083029" lon="7.42175809"><ele>515.404053</ele><time>2007-08-03T12:30:43Z</time></trkpt>
<trkpt lat="46.24099709" lon="7.42199128"><ele>514.92334</ele><time>2007-08-03T12:30:46Z</time></trkpt>
<trkpt lat="46.24123279" lon="7.42241548"><ele>517.32666</ele><time>2007-08-03T12:30:51Z</time></trkpt>
<trkpt lat="46.24143966" lon="7.42273232"><ele>516.365234</ele><time>2007-08-03T12:30:55Z</time></trkpt>
<trkpt lat="46.24175297" lon="7.42331872"><ele>516.845947</ele><time>2007-08-03T12:31:02Z</time></trkpt>
<trkpt lat="46.24213703" lon="7.42390989"><ele>517.807251</ele><time>2007-08-03T12:31:10Z</time></trkpt>
<trkpt lat="46.24254028" lon="7.42453015"><ele>516.845947</ele><time>2007-08-03T12:31:18Z</time></trkpt>
<trkpt lat="46.24296005" lon="7.42514522"><ele>517.32666</ele><time>2007-08-03T12:31:26Z</time></trkpt>
<trkpt lat="46.24336540" lon="7.42573505"><ele>517.32666</ele><time>2007-08-03T12:31:34Z</time></trkpt>
<trkpt lat="46.24376806" lon="7.42636227"><ele>517.807251</ele><time>2007-08-03T12:31:42Z</time></trkpt>
<trkpt lat="46.24411675" lon="7.42690927"><ele>518.287842</ele><time>2007-08-03T12:31:49Z</time></trkpt>
<trkpt lat="46.24444356" lon="7.42746667"><ele>518.287842</ele><time>2007-08-03T12:31:56Z</time></trkpt>
<trkpt lat="46.24479527" lon="7.42801116"><ele>519.249268</ele><time>2007-08-03T12:32:03Z</time></trkpt>
<trkpt lat="46.24535610" lon="7.42888103"><ele>519.249268</ele><time>2007-08-03T12:32:14Z</time></trkpt>
<trkpt lat="46.24580973" lon="7.42957673"><ele>519.249268</ele><time>2007-08-03T12:32:23Z</time></trkpt>
<trkpt lat="46.24626948" lon="7.43026924"><ele>517.807251</ele><time>2007-08-03T12:32:32Z</time></trkpt>
<trkpt lat="46.24682989" lon="7.43112856"><ele>517.32666</ele><time>2007-08-03T12:32:43Z</time></trkpt>
<trkpt lat="46.24718486" lon="7.43167489"><ele>517.807251</ele><time>2007-08-03T12:32:50Z</time></trkpt>
<trkpt lat="46.24775014" lon="7.43252129"><ele>518.287842</ele><time>2007-08-03T12:33:01Z</time></trkpt>
<trkpt lat="46.24811928" lon="7.43308053"><ele>517.807251</ele><time>2007-08-03T12:33:08Z</time></trkpt>
<trkpt lat="46.24863803" lon="7.43387396"><ele>518.768555</ele><time>2007-08-03T12:33:18Z</time></trkpt>
<trkpt lat="46.24905327" lon="7.43450822"><ele>518.768555</ele><time>2007-08-03T12:33:26Z</time></trkpt>
<trkpt lat="46.24946918" lon="7.43513653"><ele>519.249268</ele><time>2007-08-03T12:33:34Z</time></trkpt>
<trkpt lat="46.24982525" lon="7.43568437"><ele>519.249268</ele><time>2007-08-03T12:33:41Z</time></trkpt>
<trkpt lat="46.25030427" lon="7.43637948"><ele>519.729858</ele><time>2007-08-03T12:33:50Z</time></trkpt>
<trkpt lat="46.25067542" lon="7.43691970"><ele>518.768555</ele><time>2007-08-03T12:33:57Z</time></trkpt>
<trkpt lat="46.25125579" lon="7.43780734"><ele>519.729858</ele><time>2007-08-03T12:34:08Z</time></trkpt>
<trkpt lat="46.25173347" lon="7.43854034"><ele>520.691284</ele><time>2007-08-03T12:34:17Z</time></trkpt>
<trkpt lat="46.25214812" lon="7.43917686"><ele>520.210571</ele><time>2007-08-03T12:34:25Z</time></trkpt>
<trkpt lat="46.25256839" lon="7.43981640"><ele>520.691284</ele><time>2007-08-03T12:34:33Z</time></trkpt>
<trkpt lat="46.25304624" lon="7.44054059"><ele>520.691284</ele><time>2007-08-03T12:34:42Z</time></trkpt>
<trkpt lat="46.25342745" lon="7.44110847"><ele>520.210571</ele><time>2007-08-03T12:34:49Z</time></trkpt>
<trkpt lat="46.25380305" lon="7.44164952"><ele>520.691284</ele><time>2007-08-03T12:34:56Z</time></trkpt>
<trkpt lat="46.25428953" lon="7.44236249"><ele>519.729858</ele><time>2007-08-03T12:35:05Z</time></trkpt>
<trkpt lat="46.25482539" lon="7.44316262"><ele>519.729858</ele><time>2007-08-03T12:35:15Z</time></trkpt>
<trkpt lat="46.25532118" lon="7.44388648"><ele>520.691284</ele><time>2007-08-03T12:35:24Z</time></trkpt>
<trkpt lat="46.25592702" lon="7.44479533"><ele>520.210571</ele><time>2007-08-03T12:35:35Z</time></trkpt>
<trkpt lat="46.25641007" lon="7.44553420"><ele>521.171997</ele><time>2007-08-03T12:35:44Z</time></trkpt>
<trkpt lat="46.25694366" lon="7.44635914"><ele>520.691284</ele><time>2007-08-03T12:35:54Z</time></trkpt>
<trkpt lat="46.25758605" lon="7.44734176"><ele>521.652588</ele><time>2007-08-03T12:36:06Z</time></trkpt>
<trkpt lat="46.25817647" lon="7.44824164"><ele>521.652588</ele><time>2007-08-03T12:36:17Z</time></trkpt>
<trkpt lat="46.25872373" lon="7.44906558"><ele>522.133179</ele><time>2007-08-03T12:36:27Z</time></trkpt>
<trkpt lat="46.25919982" lon="7.44979572"><ele>522.613892</ele><time>2007-08-03T12:36:36Z</time></trkpt>
<trkpt lat="46.25972989" lon="7.45060349"><ele>522.613892</ele><time>2007-08-03T12:36:46Z</time></trkpt>
<trkpt lat="46.26014538" lon="7.45125770"><ele>523.575195</ele><time>2007-08-03T12:36:54Z</time></trkpt>
<trkpt lat="46.26061812" lon="7.45198349"><ele>524.536499</ele><time>2007-08-03T12:37:03Z</time></trkpt>
<trkpt lat="46.26086430" lon="7.45237039"><ele>523.575195</ele><time>2007-08-03T12:37:08Z</time></trkpt>
<trkpt lat="46.26127962" lon="7.45300222"><ele>523.575195</ele><time>2007-08-03T12:37:16Z</time></trkpt>
<trkpt lat="46.26192226" lon="7.45398014"><ele>524.055786</ele><time>2007-08-03T12:37:28Z</time></trkpt>
<trkpt lat="46.26237094" lon="7.45474130"><ele>524.055786</ele><time>2007-08-03T12:37:37Z</time></trkpt>
<trkpt lat="46.26275375" lon="7.45543993"><ele>524.055786</ele><time>2007-08-03T12:37:45Z</time></trkpt>
<trkpt lat="46.26325984" lon="7.45642665"><ele>524.536499</ele><time>2007-08-03T12:37:56Z</time></trkpt>
<trkpt lat="46.26366377" lon="7.45724212"><ele>525.497803</ele><time>2007-08-03T12:38:05Z</time></trkpt>
<trkpt lat="46.26406987" lon="7.45816958"><ele>525.497803</ele><time>2007-08-03T12:38:15Z</time></trkpt>
<trkpt lat="46.26453348" lon="7.45930365"><ele>525.017212</ele><time>2007-08-03T12:38:27Z</time></trkpt>
<trkpt lat="46.26471402" lon="7.45978570"><ele>525.017212</ele><time>2007-08-03T12:38:32Z</time></trkpt>
<trkpt lat="46.26481117" lon="7.46019624"><ele>525.497803</ele><time>2007-08-03T12:38:36Z</time></trkpt>
<trkpt lat="46.26485358" lon="7.46028383"><ele>524.536499</ele><time>2007-08-03T12:38:37Z</time></trkpt>
<trkpt lat="46.26494519" lon="7.46045474"><ele>524.055786</ele><time>2007-08-03T12:38:39Z</time></trkpt>
<trkpt lat="46.26512188" lon="7.46105103"><ele>525.017212</ele><time>2007-08-03T12:38:45Z</time></trkpt>
<trkpt lat="46.26521618" lon="7.46169317"><ele>522.613892</ele><time>2007-08-03T12:38:51Z</time></trkpt>
<trkpt lat="46.26531710" lon="7.46208795"><ele>524.055786</ele><time>2007-08-03T12:38:55Z</time></trkpt>
<trkpt lat="46.26540645" lon="7.46225065"><ele>525.017212</ele><time>2007-08-03T12:38:57Z</time></trkpt>
<trkpt lat="46.26552673" lon="7.46264183"><ele>525.978394</ele><time>2007-08-03T12:39:01Z</time></trkpt>
<trkpt lat="46.26557535" lon="7.46284149"><ele>525.497803</ele><time>2007-08-03T12:39:03Z</time></trkpt>
<trkpt lat="46.26570183" lon="7.46335119"><ele>525.978394</ele><time>2007-08-03T12:39:08Z</time></trkpt>
<trkpt lat="46.26580819" lon="7.46397749"><ele>525.017212</ele><time>2007-08-03T12:39:14Z</time></trkpt>
<trkpt lat="46.26602302" lon="7.46504316"><ele>525.978394</ele><time>2007-08-03T12:39:24Z</time></trkpt>
<trkpt lat="46.26619276" lon="7.46586752"><ele>526.459106</ele><time>2007-08-03T12:39:32Z</time></trkpt>
<trkpt lat="46.26635352" lon="7.46657663"><ele>525.978394</ele><time>2007-08-03T12:39:39Z</time></trkpt>
<trkpt lat="46.26647715" lon="7.46719848"><ele>527.42041</ele><time>2007-08-03T12:39:45Z</time></trkpt>
<trkpt lat="46.26664789" lon="7.46791832"><ele>527.42041</ele><time>2007-08-03T12:39:52Z</time></trkpt>
<trkpt lat="46.26677547" lon="7.46850003"><ele>527.901001</ele><time>2007-08-03T12:39:58Z</time></trkpt>
<trkpt lat="46.26700253" lon="7.46931198"><ele>527.901001</ele><time>2007-08-03T12:40:06Z</time></trkpt>
<trkpt lat="46.26727184" lon="7.47032627"><ele>525.978394</ele><time>2007-08-03T12:40:16Z</time></trkpt>
<trkpt lat="46.26750603" lon="7.47114359"><ele>526.459106</ele><time>2007-08-03T12:40:24Z</time></trkpt>
<trkpt lat="46.26775732" lon="7.47205404"><ele>526.459106</ele><time>2007-08-03T12:40:33Z</time></trkpt>
<trkpt lat="46.26787224" lon="7.47253876"><ele>527.42041</ele><time>2007-08-03T12:40:38Z</time></trkpt>
<trkpt lat="46.26803694" lon="7.47311527"><ele>527.901001</ele><time>2007-08-03T12:40:44Z</time></trkpt>
<trkpt lat="46.26814582" lon="7.47350159"><ele>526.939819</ele><time>2007-08-03T12:40:48Z</time></trkpt>
<trkpt lat="46.26833299" lon="7.47410442"><ele>526.459106</ele><time>2007-08-03T12:40:54Z</time></trkpt>
<trkpt lat="46.26862979" lon="7.47510497"><ele>526.939819</ele><time>2007-08-03T12:41:04Z</time></trkpt>
<trkpt lat="46.26883624" lon="7.47580846"><ele>526.939819</ele><time>2007-08-03T12:41:11Z</time></trkpt>
<trkpt lat="46.26896339" lon="7.47630383"><ele>526.939819</ele><time>2007-08-03T12:41:16Z</time></trkpt>
<trkpt lat="46.26902089" lon="7.47650810"><ele>526.939819</ele><time>2007-08-03T12:41:18Z</time></trkpt>
<trkpt lat="46.26921535" lon="7.47720044"><ele>527.42041</ele><time>2007-08-03T12:41:25Z</time></trkpt>
<trkpt lat="46.26946497" lon="7.47807073"><ele>526.939819</ele><time>2007-08-03T12:41:34Z</time></trkpt>
<trkpt lat="46.26977258" lon="7.47916306"><ele>526.939819</ele><time>2007-08-03T12:41:45Z</time></trkpt>
<trkpt lat="46.26998615" lon="7.47985373"><ele>527.901001</ele><time>2007-08-03T12:41:52Z</time></trkpt>
<trkpt lat="46.27014717" lon="7.48043996"><ele>528.381836</ele><time>2007-08-03T12:41:58Z</time></trkpt>
<trkpt lat="46.27037684" lon="7.48123163"><ele>529.34314</ele><time>2007-08-03T12:42:06Z</time></trkpt>
<trkpt lat="46.27070943" lon="7.48240376"><ele>529.34314</ele><time>2007-08-03T12:42:18Z</time></trkpt>
<trkpt lat="46.27095896" lon="7.48329459"><ele>528.862549</ele><time>2007-08-03T12:42:27Z</time></trkpt>
<trkpt lat="46.27119826" lon="7.48417175"><ele>529.34314</ele><time>2007-08-03T12:42:36Z</time></trkpt>
<trkpt lat="46.27131619" lon="7.48471314"><ele>528.862549</ele><time>2007-08-03T12:42:42Z</time></trkpt>
<trkpt lat="46.27148895" lon="7.48519912"><ele>529.34314</ele><time>2007-08-03T12:42:47Z</time></trkpt>
<trkpt lat="46.27171073" lon="7.48564437"><ele>528.381836</ele><time>2007-08-03T12:42:52Z</time></trkpt>
<trkpt lat="46.27190938" lon="7.48621283"><ele>529.82373</ele><time>2007-08-03T12:42:58Z</time></trkpt>
<trkpt lat="46.27218976" lon="7.48718455"><ele>529.34314</ele><time>2007-08-03T12:43:08Z</time></trkpt>
<trkpt lat="46.27230308" lon="7.48764714"><ele>528.862549</ele><time>2007-08-03T12:43:13Z</time></trkpt>
<trkpt lat="46.27244272" lon="7.48813514"><ele>529.34314</ele><time>2007-08-03T12:43:18Z</time></trkpt>
<trkpt lat="46.27266367" lon="7.48891683"><ele>529.82373</ele><time>2007-08-03T12:43:26Z</time></trkpt>
<trkpt lat="46.27294027" lon="7.48990539"><ele>528.862549</ele><time>2007-08-03T12:43:36Z</time></trkpt>
<trkpt lat="46.27309366" lon="7.49048878"><ele>528.862549</ele><time>2007-08-03T12:43:42Z</time></trkpt>
<trkpt lat="46.27322434" lon="7.49098188"><ele>529.82373</ele><time>2007-08-03T12:43:47Z</time></trkpt>
<trkpt lat="46.27341829" lon="7.49179769"><ele>529.82373</ele><time>2007-08-03T12:43:55Z</time></trkpt>
<trkpt lat="46.27360412" lon="7.49277117"><ele>530.304443</ele><time>2007-08-03T12:44:04Z</time></trkpt>
<trkpt lat="46.27376094" lon="7.49382159"><ele>529.34314</ele><time>2007-08-03T12:44:14Z</time></trkpt>
<trkpt lat="46.27392498" lon="7.49496915"><ele>529.82373</ele><time>2007-08-03T12:44:25Z</time></trkpt>
<trkpt lat="46.27407149" lon="7.49603743"><ele>530.785156</ele><time>2007-08-03T12:44:35Z</time></trkpt>
<trkpt lat="46.27423595" lon="7.49700076"><ele>531.265747</ele><time>2007-08-03T12:44:44Z</time></trkpt>
<trkpt lat="46.27439135" lon="7.49794289"><ele>531.265747</ele><time>2007-08-03T12:44:53Z</time></trkpt>
<trkpt lat="46.27454658" lon="7.49878778"><ele>531.746338</ele><time>2007-08-03T12:45:01Z</time></trkpt>
<trkpt lat="46.27468522" lon="7.49961969"><ele>532.707764</ele><time>2007-08-03T12:45:09Z</time></trkpt>
<trkpt lat="46.27478614" lon="7.50009645"><ele>532.227051</ele><time>2007-08-03T12:45:14Z</time></trkpt>
<trkpt lat="46.27492326" lon="7.50068385"><ele>531.746338</ele><time>2007-08-03T12:45:20Z</time></trkpt>
<trkpt lat="46.27500214" lon="7.50106523"><ele>532.227051</ele><time>2007-08-03T12:45:24Z</time></trkpt>
<trkpt lat="46.27512686" lon="7.50157845"><ele>531.746338</ele><time>2007-08-03T12:45:29Z</time></trkpt>
<trkpt lat="46.27540807" lon="7.50272979"><ele>531.265747</ele><time>2007-08-03T12:45:40Z</time></trkpt>
<trkpt lat="46.27550488" lon="7.50322617"><ele>531.746338</ele><time>2007-08-03T12:45:45Z</time></trkpt>
<trkpt lat="46.27557697" lon="7.50373679"><ele>531.746338</ele><time>2007-08-03T12:45:50Z</time></trkpt>
<trkpt lat="46.27558803" lon="7.50383276"><ele>531.746338</ele><time>2007-08-03T12:45:51Z</time></trkpt>
<trkpt lat="46.27567705" lon="7.50444389"><ele>532.707764</ele><time>2007-08-03T12:45:57Z</time></trkpt>
<trkpt lat="46.27581912" lon="7.50527705"><ele>532.707764</ele><time>2007-08-03T12:46:05Z</time></trkpt>
<trkpt lat="46.27593915" lon="7.50609336"><ele>531.746338</ele><time>2007-08-03T12:46:13Z</time></trkpt>
<trkpt lat="46.27605088" lon="7.50673902"><ele>531.746338</ele><time>2007-08-03T12:46:19Z</time></trkpt>
<trkpt lat="46.27618985" lon="7.50749482"><ele>531.746338</ele><time>2007-08-03T12:46:26Z</time></trkpt>
<trkpt lat="46.27631843" lon="7.50824106"><ele>532.227051</ele><time>2007-08-03T12:46:33Z</time></trkpt>
<trkpt lat="46.27629169" lon="7.50869469"><ele>533.668945</ele><time>2007-08-03T12:46:38Z</time></trkpt>
<trkpt lat="46.27631298" lon="7.50890222"><ele>532.707764</ele><time>2007-08-03T12:46:41Z</time></trkpt>
<trkpt lat="46.27634467" lon="7.50897414"><ele>533.188354</ele><time>2007-08-03T12:46:42Z</time></trkpt>
<trkpt lat="46.27649873" lon="7.50929383"><ele>533.188354</ele><time>2007-08-03T12:46:46Z</time></trkpt>
<trkpt lat="46.27663082" lon="7.50989707"><ele>532.707764</ele><time>2007-08-03T12:46:52Z</time></trkpt>
<trkpt lat="46.27679125" lon="7.51062118"><ele>532.227051</ele><time>2007-08-03T12:46:59Z</time></trkpt>
<trkpt lat="46.27691665" lon="7.51127606"><ele>532.707764</ele><time>2007-08-03T12:47:05Z</time></trkpt>
<trkpt lat="46.27705067" lon="7.51203672"><ele>535.110962</ele><time>2007-08-03T12:47:12Z</time></trkpt>
<trkpt lat="46.27721404" lon="7.51301338"><ele>533.668945</ele><time>2007-08-03T12:47:21Z</time></trkpt>
<trkpt lat="46.27738805" lon="7.51410018"><ele>533.188354</ele><time>2007-08-03T12:47:31Z</time></trkpt>
<trkpt lat="46.27751084" lon="7.51499302"><ele>532.227051</ele><time>2007-08-03T12:47:39Z</time></trkpt>
<trkpt lat="46.27756172" lon="7.51573289"><ele>532.227051</ele><time>2007-08-03T12:47:45Z</time></trkpt>
<trkpt lat="46.27767957" lon="7.51641274"><ele>531.746338</ele><time>2007-08-03T12:47:50Z</time></trkpt>
<trkpt lat="46.27775517" lon="7.51665289"><ele>532.707764</ele><time>2007-08-03T12:47:52Z</time></trkpt>
<trkpt lat="46.27796832" lon="7.51743693"><ele>534.149658</ele><time>2007-08-03T12:47:59Z</time></trkpt>
<trkpt lat="46.27810487" lon="7.51831275"><ele>535.110962</ele><time>2007-08-03T12:48:07Z</time></trkpt>
<trkpt lat="46.27826806" lon="7.51925337"><ele>534.149658</ele><time>2007-08-03T12:48:16Z</time></trkpt>
<trkpt lat="46.27847518" lon="7.52039063"><ele>532.707764</ele><time>2007-08-03T12:48:27Z</time></trkpt>
<trkpt lat="46.27861398" lon="7.52120853"><ele>534.149658</ele><time>2007-08-03T12:48:35Z</time></trkpt>
<trkpt lat="46.27877450" lon="7.52201119"><ele>534.149658</ele><time>2007-08-03T12:48:43Z</time></trkpt>
<trkpt lat="46.27886703" lon="7.52251712"><ele>534.149658</ele><time>2007-08-03T12:48:48Z</time></trkpt>
<trkpt lat="46.27897105" lon="7.52303135"><ele>535.110962</ele><time>2007-08-03T12:48:53Z</time></trkpt>
<trkpt lat="46.27905018" lon="7.52371187"><ele>535.591553</ele><time>2007-08-03T12:49:00Z</time></trkpt>
<trkpt lat="46.27916283" lon="7.52451042"><ele>535.591553</ele><time>2007-08-03T12:49:08Z</time></trkpt>
<trkpt lat="46.27933139" lon="7.52531525"><ele>534.630371</ele><time>2007-08-03T12:49:16Z</time></trkpt>
<trkpt lat="46.27939853" lon="7.52579344"><ele>535.591553</ele><time>2007-08-03T12:49:21Z</time></trkpt>
<trkpt lat="46.27951839" lon="7.52640959"><ele>536.553101</ele><time>2007-08-03T12:49:27Z</time></trkpt>
<trkpt lat="46.27961394" lon="7.52700764"><ele>535.110962</ele><time>2007-08-03T12:49:33Z</time></trkpt>
<trkpt lat="46.27970858" lon="7.52741835"><ele>536.072388</ele><time>2007-08-03T12:49:37Z</time></trkpt>
<trkpt lat="46.27990253" lon="7.52853935"><ele>535.110962</ele><time>2007-08-03T12:49:48Z</time></trkpt>
<trkpt lat="46.28003614" lon="7.52937066"><ele>535.591553</ele><time>2007-08-03T12:49:56Z</time></trkpt>
<trkpt lat="46.28015868" lon="7.53011280"><ele>535.591553</ele><time>2007-08-03T12:50:03Z</time></trkpt>
<trkpt lat="46.28031123" lon="7.53106993"><ele>536.553101</ele><time>2007-08-03T12:50:12Z</time></trkpt>
<trkpt lat="46.28039044" lon="7.53158776"><ele>535.591553</ele><time>2007-08-03T12:50:17Z</time></trkpt>
<trkpt lat="46.28050569" lon="7.53241807"><ele>535.110962</ele><time>2007-08-03T12:50:25Z</time></trkpt>
<trkpt lat="46.28058222" lon="7.53304806"><ele>536.072388</ele><time>2007-08-03T12:50:31Z</time></trkpt>
<trkpt lat="46.28069647" lon="7.53377586"><ele>536.553101</ele><time>2007-08-03T12:50:38Z</time></trkpt>
<trkpt lat="46.28085740" lon="7.53470197"><ele>536.072388</ele><time>2007-08-03T12:50:47Z</time></trkpt>
<trkpt lat="46.28101196" lon="7.53551192"><ele>536.072388</ele><time>2007-08-03T12:50:55Z</time></trkpt>
<trkpt lat="46.28110869" lon="7.53603755"><ele>536.072388</ele><time>2007-08-03T12:51:00Z</time></trkpt>
<trkpt lat="46.28103694" lon="7.53627006"><ele>535.110962</ele><time>2007-08-03T12:51:04Z</time></trkpt>
<trkpt lat="46.28059018" lon="7.53640283"><ele>535.591553</ele><time>2007-08-03T12:51:13Z</time></trkpt>
<trkpt lat="46.28030059" lon="7.53650266"><ele>535.110962</ele><time>2007-08-03T12:51:19Z</time></trkpt>
<trkpt lat="46.27995308" lon="7.53667449"><ele>535.110962</ele><time>2007-08-03T12:51:26Z</time></trkpt>
<trkpt lat="46.27990153" lon="7.53670215"><ele>535.591553</ele><time>2007-08-03T12:51:27Z</time></trkpt>
<trkpt lat="46.27961646" lon="7.53688336"><ele>534.630371</ele><time>2007-08-03T12:51:33Z</time></trkpt>
<trkpt lat="46.27948109" lon="7.53700549"><ele>535.591553</ele><time>2007-08-03T12:51:36Z</time></trkpt>
<trkpt lat="46.27928043" lon="7.53715678"><ele>535.591553</ele><time>2007-08-03T12:51:40Z</time></trkpt>
<trkpt lat="46.27894448" lon="7.53744705"><ele>536.553101</ele><time>2007-08-03T12:51:47Z</time></trkpt>
<trkpt lat="46.27863955" lon="7.53777176"><ele>537.514282</ele><time>2007-08-03T12:51:55Z</time></trkpt>
<trkpt lat="46.27857023" lon="7.53782046"><ele>538.475708</ele><time>2007-08-03T12:51:59Z</time></trkpt>
<trkpt lat="46.27858398" lon="7.53799556"><ele>537.994995</ele><time>2007-08-03T12:52:03Z</time></trkpt>
<trkpt lat="46.27873410" lon="7.53847366"><ele>538.475708</ele><time>2007-08-03T12:52:11Z</time></trkpt>
<trkpt lat="46.27892252" lon="7.53900482"><ele>539.43689</ele><time>2007-08-03T12:52:20Z</time></trkpt>
<trkpt lat="46.27904314" lon="7.53939835"><ele>540.398315</ele><time>2007-08-03T12:52:27Z</time></trkpt>
<trkpt lat="46.27903752" lon="7.53944605"><ele>539.917603</ele><time>2007-08-03T12:52:28Z</time></trkpt>
<trkpt lat="46.27896728" lon="7.53955677"><ele>540.398315</ele><time>2007-08-03T12:52:32Z</time></trkpt>
<trkpt lat="46.27879369" lon="7.53958074"><ele>541.359497</ele><time>2007-08-03T12:52:38Z</time></trkpt>
<trkpt lat="46.27873275" lon="7.53942928"><ele>542.801514</ele><time>2007-08-03T12:52:42Z</time></trkpt>
<trkpt lat="46.27868934" lon="7.53916869"><ele>544.724243</ele><time>2007-08-03T12:52:48Z</time></trkpt>
<trkpt lat="46.27863360" lon="7.53895344"><ele>546.16626</ele><time>2007-08-03T12:52:53Z</time></trkpt>
<trkpt lat="46.27857015" lon="7.53874079"><ele>548.569336</ele><time>2007-08-03T12:52:58Z</time></trkpt>
<trkpt lat="46.27849672" lon="7.53849386"><ele>550.011475</ele><time>2007-08-03T12:53:04Z</time></trkpt>
<trkpt lat="46.27848272" lon="7.53841650"><ele>550.972656</ele><time>2007-08-03T12:53:06Z</time></trkpt>
<trkpt lat="46.27845464" lon="7.53827518"><ele>551.934082</ele><time>2007-08-03T12:53:10Z</time></trkpt>
<trkpt lat="46.27837074" lon="7.53793512"><ele>553.856689</ele><time>2007-08-03T12:53:19Z</time></trkpt>
<trkpt lat="46.27831584" lon="7.53776698"><ele>553.856689</ele><time>2007-08-03T12:53:24Z</time></trkpt>
<trkpt lat="46.27822674" lon="7.53755584"><ele>555.298584</ele><time>2007-08-03T12:53:30Z</time></trkpt>
<trkpt lat="46.27814267" lon="7.53734554"><ele>557.702148</ele><time>2007-08-03T12:53:36Z</time></trkpt>
<trkpt lat="46.27806388" lon="7.53715167"><ele>558.66333</ele><time>2007-08-03T12:53:41Z</time></trkpt>
<trkpt lat="46.27797855" lon="7.53689116"><ele>561.06665</ele><time>2007-08-03T12:53:48Z</time></trkpt>
<trkpt lat="46.27790756" lon="7.53669226"><ele>561.547363</ele><time>2007-08-03T12:53:53Z</time></trkpt>
<trkpt lat="46.27785006" lon="7.53647357"><ele>562.989258</ele><time>2007-08-03T12:53:59Z</time></trkpt>
<trkpt lat="46.27779013" lon="7.53626595"><ele>564.431152</ele><time>2007-08-03T12:54:04Z</time></trkpt>
<trkpt lat="46.27765677" lon="7.53594727"><ele>565.873291</ele><time>2007-08-03T12:54:12Z</time></trkpt>
<trkpt lat="46.27753112" lon="7.53576337"><ele>567.315186</ele><time>2007-08-03T12:54:18Z</time></trkpt>
<trkpt lat="46.27739802" lon="7.53555877"><ele>568.276367</ele><time>2007-08-03T12:54:25Z</time></trkpt>
<trkpt lat="46.27734446" lon="7.53535316"><ele>570.198975</ele><time>2007-08-03T12:54:30Z</time></trkpt>
<trkpt lat="46.27728269" lon="7.53506893"><ele>571.1604</ele><time>2007-08-03T12:54:37Z</time></trkpt>
<trkpt lat="46.27717406" lon="7.53470876"><ele>574.044434</ele><time>2007-08-03T12:54:46Z</time></trkpt>
<trkpt lat="46.27706090" lon="7.53440014"><ele>576.447754</ele><time>2007-08-03T12:54:54Z</time></trkpt>
<trkpt lat="46.27694523" lon="7.53413443"><ele>577.40918</ele><time>2007-08-03T12:55:01Z</time></trkpt>
<trkpt lat="46.27677809" lon="7.53369246"><ele>580.773682</ele><time>2007-08-03T12:55:12Z</time></trkpt>
<trkpt lat="46.27663686" lon="7.53347964"><ele>580.773682</ele><time>2007-08-03T12:55:19Z</time></trkpt>
<trkpt lat="46.27653846" lon="7.53325844"><ele>582.215576</ele><time>2007-08-03T12:55:25Z</time></trkpt>
<trkpt lat="46.27648573" lon="7.53299567"><ele>582.215576</ele><time>2007-08-03T12:55:31Z</time></trkpt>
<trkpt lat="46.27644114" lon="7.53269526"><ele>583.657471</ele><time>2007-08-03T12:55:38Z</time></trkpt>
<trkpt lat="46.27629178" lon="7.53228857"><ele>584.138184</ele><time>2007-08-03T12:55:48Z</time></trkpt>
<trkpt lat="46.27624668" lon="7.53213434"><ele>585.099609</ele><time>2007-08-03T12:55:52Z</time></trkpt>
<trkpt lat="46.27617460" lon="7.53193636"><ele>586.060791</ele><time>2007-08-03T12:55:57Z</time></trkpt>
<trkpt lat="46.27609178" lon="7.53167912"><ele>587.502686</ele><time>2007-08-03T12:56:03Z</time></trkpt>
<trkpt lat="46.27599950" lon="7.53136732"><ele>588.464355</ele><time>2007-08-03T12:56:10Z</time></trkpt>
<trkpt lat="46.27583253" lon="7.53104009"><ele>589.90625</ele><time>2007-08-03T12:56:18Z</time></trkpt>
<trkpt lat="46.27563589" lon="7.53066064"><ele>590.867432</ele><time>2007-08-03T12:56:27Z</time></trkpt>
<trkpt lat="46.27557018" lon="7.53053432"><ele>590.867432</ele><time>2007-08-03T12:56:30Z</time></trkpt>
<trkpt lat="46.27550622" lon="7.53035235"><ele>591.828857</ele><time>2007-08-03T12:56:34Z</time></trkpt>
<trkpt lat="46.27528327" lon="7.52997265"><ele>593.751465</ele><time>2007-08-03T12:56:44Z</time></trkpt>
<trkpt lat="46.27514086" lon="7.52975112"><ele>594.232178</ele><time>2007-08-03T12:56:50Z</time></trkpt>
<trkpt lat="46.27492310" lon="7.52942523"><ele>595.674072</ele><time>2007-08-03T12:56:59Z</time></trkpt>
<trkpt lat="46.27479904" lon="7.52924100"><ele>597.59668</ele><time>2007-08-03T12:57:05Z</time></trkpt>
<trkpt lat="46.27469913" lon="7.52903002"><ele>597.59668</ele><time>2007-08-03T12:57:11Z</time></trkpt>
<trkpt lat="46.27459947" lon="7.52882618"><ele>599.519287</ele><time>2007-08-03T12:57:17Z</time></trkpt>
<trkpt lat="46.27448657" lon="7.52856474"><ele>601.441895</ele><time>2007-08-03T12:57:24Z</time></trkpt>
<trkpt lat="46.27433829" lon="7.52828739"><ele>603.364502</ele><time>2007-08-03T12:57:32Z</time></trkpt>
<trkpt lat="46.27423192" lon="7.52804247"><ele>604.806641</ele><time>2007-08-03T12:57:39Z</time></trkpt>
<trkpt lat="46.27406714" lon="7.52776603"><ele>605.768066</ele><time>2007-08-03T12:57:47Z</time></trkpt>
<trkpt lat="46.27390855" lon="7.52744115"><ele>606.729248</ele><time>2007-08-03T12:57:56Z</time></trkpt>
<trkpt lat="46.27373965" lon="7.52718114"><ele>608.651855</ele><time>2007-08-03T12:58:04Z</time></trkpt>
<trkpt lat="46.27353564" lon="7.52692910"><ele>611.055176</ele><time>2007-08-03T12:58:12Z</time></trkpt>
<trkpt lat="46.27338686" lon="7.52675048"><ele>611.535889</ele><time>2007-08-03T12:58:18Z</time></trkpt>
<trkpt lat="46.27332324" lon="7.52663146"><ele>612.016602</ele><time>2007-08-03T12:58:22Z</time></trkpt>
<trkpt lat="46.27314798" lon="7.52643457"><ele>613.938965</ele><time>2007-08-03T12:58:28Z</time></trkpt>
<trkpt lat="46.27301076" lon="7.52626483"><ele>615.861816</ele><time>2007-08-03T12:58:34Z</time></trkpt>
<trkpt lat="46.27285587" lon="7.52610373"><ele>617.78418</ele><time>2007-08-03T12:58:41Z</time></trkpt>
<trkpt lat="46.27272544" lon="7.52601597"><ele>620.668457</ele><time>2007-08-03T12:58:47Z</time></trkpt>
<trkpt lat="46.27270583" lon="7.52600885"><ele>621.14917</ele><time>2007-08-03T12:58:48Z</time></trkpt>
<trkpt lat="46.27250969" lon="7.52601539"><ele>622.110352</ele><time>2007-08-03T12:58:57Z</time></trkpt>
<trkpt lat="46.27229277" lon="7.52615796"><ele>623.071777</ele><time>2007-08-03T12:59:07Z</time></trkpt>
<trkpt lat="46.27218096" lon="7.52629719"><ele>624.513672</ele><time>2007-08-03T12:59:13Z</time></trkpt>
<trkpt lat="46.27204894" lon="7.52658804"><ele>626.916992</ele><time>2007-08-03T12:59:23Z</time></trkpt>
<trkpt lat="46.27199840" lon="7.52690714"><ele>628.8396</ele><time>2007-08-03T12:59:32Z</time></trkpt>
<trkpt lat="46.27199194" lon="7.52698107"><ele>629.800781</ele><time>2007-08-03T12:59:34Z</time></trkpt>
<trkpt lat="46.27197174" lon="7.52724267"><ele>630.762207</ele><time>2007-08-03T12:59:41Z</time></trkpt>
<trkpt lat="46.27195967" lon="7.52740125"><ele>632.204102</ele><time>2007-08-03T12:59:45Z</time></trkpt>
<trkpt lat="46.27192983" lon="7.52783476"><ele>634.607422</ele><time>2007-08-03T12:59:56Z</time></trkpt>
<trkpt lat="46.27190955" lon="7.52810709"><ele>636.049561</ele><time>2007-08-03T13:00:03Z</time></trkpt>
<trkpt lat="46.27188415" lon="7.52849509"><ele>638.452881</ele><time>2007-08-03T13:00:13Z</time></trkpt>
<trkpt lat="46.27191709" lon="7.52868712"><ele>639.414063</ele><time>2007-08-03T13:00:18Z</time></trkpt>
<trkpt lat="46.27206285" lon="7.52892919"><ele>640.375488</ele><time>2007-08-03T13:00:26Z</time></trkpt>
<trkpt lat="46.27224776" lon="7.52905307"><ele>642.298096</ele><time>2007-08-03T13:00:34Z</time></trkpt>
<trkpt lat="46.27243225" lon="7.52913287"><ele>644.220703</ele><time>2007-08-03T13:00:41Z</time></trkpt>
<trkpt lat="46.27265294" lon="7.52910848"><ele>645.181885</ele><time>2007-08-03T13:00:49Z</time></trkpt>
<trkpt lat="46.27291027" lon="7.52909222"><ele>647.585205</ele><time>2007-08-03T13:00:58Z</time></trkpt>
<trkpt lat="46.27296567" lon="7.52910898"><ele>648.546387</ele><time>2007-08-03T13:01:00Z</time></trkpt>
<trkpt lat="46.27321092" lon="7.52921216"><ele>649.988525</ele><time>2007-08-03T13:01:09Z</time></trkpt>
<trkpt lat="46.27351234" lon="7.52934929"><ele>651.911133</ele><time>2007-08-03T13:01:20Z</time></trkpt>
<trkpt lat="46.27379498" lon="7.52948055"><ele>654.795166</ele><time>2007-08-03T13:01:30Z</time></trkpt>
<trkpt lat="46.27397242" lon="7.52965875"><ele>655.756592</ele><time>2007-08-03T13:01:37Z</time></trkpt>
<trkpt lat="46.27410586" lon="7.52996947"><ele>657.198486</ele><time>2007-08-03T13:01:45Z</time></trkpt>
<trkpt lat="46.27422145" lon="7.53028555"><ele>658.159912</ele><time>2007-08-03T13:01:53Z</time></trkpt>
<trkpt lat="46.27437970" lon="7.53071353"><ele>659.121094</ele><time>2007-08-03T13:02:04Z</time></trkpt>
<trkpt lat="46.27442496" lon="7.53083146"><ele>660.082275</ele><time>2007-08-03T13:02:07Z</time></trkpt>
<trkpt lat="46.27460970" lon="7.53127344"><ele>662.485596</ele><time>2007-08-03T13:02:18Z</time></trkpt>
<trkpt lat="46.27480944" lon="7.53173025"><ele>662.966309</ele><time>2007-08-03T13:02:29Z</time></trkpt>
<trkpt lat="46.27499526" lon="7.53219729"><ele>665.850342</ele><time>2007-08-03T13:02:40Z</time></trkpt>
<trkpt lat="46.27516885" lon="7.53260314"><ele>668.253662</ele><time>2007-08-03T13:02:50Z</time></trkpt>
<trkpt lat="46.27531135" lon="7.53299139"><ele>669.695801</ele><time>2007-08-03T13:02:59Z</time></trkpt>
<trkpt lat="46.27542224" lon="7.53339465"><ele>671.137695</ele><time>2007-08-03T13:03:08Z</time></trkpt>
<trkpt lat="46.27546088" lon="7.53376924"><ele>672.57959</ele><time>2007-08-03T13:03:16Z</time></trkpt>
<trkpt lat="46.27548468" lon="7.53415279"><ele>674.502197</ele><time>2007-08-03T13:03:25Z</time></trkpt>
<trkpt lat="46.27548896" lon="7.53419512"><ele>674.98291</ele><time>2007-08-03T13:03:26Z</time></trkpt>
<trkpt lat="46.27550430" lon="7.53458035"><ele>677.866699</ele><time>2007-08-03T13:03:35Z</time></trkpt>
<trkpt lat="46.27550262" lon="7.53513859"><ele>680.27002</ele><time>2007-08-03T13:03:48Z</time></trkpt>
<trkpt lat="46.27557504" lon="7.53553069"><ele>681.231445</ele><time>2007-08-03T13:03:58Z</time></trkpt>
<trkpt lat="46.27562852" lon="7.53587997"><ele>683.153809</ele><time>2007-08-03T13:04:07Z</time></trkpt>
<trkpt lat="46.27566674" lon="7.53612413"><ele>686.038086</ele><time>2007-08-03T13:04:13Z</time></trkpt>
<trkpt lat="46.27567629" lon="7.53616017"><ele>686.518799</ele><time>2007-08-03T13:04:14Z</time></trkpt>
<trkpt lat="46.27573782" lon="7.53643434"><ele>686.999268</ele><time>2007-08-03T13:04:22Z</time></trkpt>
<trkpt lat="46.27581334" lon="7.53666460"><ele>688.922119</ele><time>2007-08-03T13:04:29Z</time></trkpt>
<trkpt lat="46.27593999" lon="7.53697716"><ele>692.286621</ele><time>2007-08-03T13:04:39Z</time></trkpt>
<trkpt lat="46.27604543" lon="7.53726189"><ele>694.689697</ele><time>2007-08-03T13:04:48Z</time></trkpt>
<trkpt lat="46.27613914" lon="7.53750899"><ele>695.651123</ele><time>2007-08-03T13:04:56Z</time></trkpt>
<trkpt lat="46.27617502" lon="7.53770948"><ele>699.015625</ele><time>2007-08-03T13:05:02Z</time></trkpt>
<trkpt lat="46.27617619" lon="7.53774159"><ele>698.534912</ele><time>2007-08-03T13:05:03Z</time></trkpt>
<trkpt lat="46.27615792" lon="7.53795449"><ele>701.419189</ele><time>2007-08-03T13:05:09Z</time></trkpt>
<trkpt lat="46.27616135" lon="7.53814953"><ele>702.380371</ele><time>2007-08-03T13:05:15Z</time></trkpt>
<trkpt lat="46.27617720" lon="7.53824643"><ele>703.341797</ele><time>2007-08-03T13:05:18Z</time></trkpt>
<trkpt lat="46.27624442" lon="7.53834609"><ele>703.82251</ele><time>2007-08-03T13:05:22Z</time></trkpt>
<trkpt lat="46.27643703" lon="7.53857424"><ele>705.264404</ele><time>2007-08-03T13:05:31Z</time></trkpt>
<trkpt lat="46.27660199" lon="7.53882067"><ele>708.148438</ele><time>2007-08-03T13:05:40Z</time></trkpt>
<trkpt lat="46.27666536" lon="7.53903768"><ele>710.070801</ele><time>2007-08-03T13:05:47Z</time></trkpt>
<trkpt lat="46.27667977" lon="7.53912946"><ele>711.032227</ele><time>2007-08-03T13:05:50Z</time></trkpt>
<trkpt lat="46.27667332" lon="7.53931428"><ele>714.396729</ele><time>2007-08-03T13:05:56Z</time></trkpt>
<trkpt lat="46.27658305" lon="7.53944093"><ele>714.877441</ele><time>2007-08-03T13:06:02Z</time></trkpt>
<trkpt lat="46.27644399" lon="7.53948192"><ele>716.800293</ele><time>2007-08-03T13:06:09Z</time></trkpt>
<trkpt lat="46.27642354" lon="7.53947999"><ele>716.800293</ele><time>2007-08-03T13:06:10Z</time></trkpt>
<trkpt lat="46.27635540" lon="7.53945384"><ele>718.7229</ele><time>2007-08-03T13:06:14Z</time></trkpt>
<trkpt lat="46.27626286" lon="7.53932107"><ele>720.645508</ele><time>2007-08-03T13:06:21Z</time></trkpt>
<trkpt lat="46.27621123" lon="7.53920993"><ele>721.126221</ele><time>2007-08-03T13:06:25Z</time></trkpt>
<trkpt lat="46.27616487" lon="7.53903743"><ele>722.087402</ele><time>2007-08-03T13:06:31Z</time></trkpt>
<trkpt lat="46.27611944" lon="7.53884180"><ele>722.568115</ele><time>2007-08-03T13:06:36Z</time></trkpt>
<trkpt lat="46.27604669" lon="7.53860685"><ele>723.529541</ele><time>2007-08-03T13:06:42Z</time></trkpt>
<trkpt lat="46.27595566" lon="7.53839035"><ele>725.932617</ele><time>2007-08-03T13:06:48Z</time></trkpt>
<trkpt lat="46.27584846" lon="7.53818155"><ele>725.451904</ele><time>2007-08-03T13:06:54Z</time></trkpt>
<trkpt lat="46.27570965" lon="7.53790135"><ele>727.855225</ele><time>2007-08-03T13:07:02Z</time></trkpt>
<trkpt lat="46.27563288" lon="7.53771166"><ele>729.777832</ele><time>2007-08-03T13:07:07Z</time></trkpt>
<trkpt lat="46.27553707" lon="7.53749860"><ele>731.219971</ele><time>2007-08-03T13:07:13Z</time></trkpt>
<trkpt lat="46.27535828" lon="7.53725812"><ele>732.181396</ele><time>2007-08-03T13:07:21Z</time></trkpt>
<trkpt lat="46.27515729" lon="7.53696458"><ele>734.584717</ele><time>2007-08-03T13:07:31Z</time></trkpt>
<trkpt lat="46.27501437" lon="7.53677582"><ele>735.545898</ele><time>2007-08-03T13:07:38Z</time></trkpt>
<trkpt lat="46.27479066" lon="7.53660173"><ele>736.987793</ele><time>2007-08-03T13:07:47Z</time></trkpt>
<trkpt lat="46.27467600" lon="7.53645916"><ele>738.429932</ele><time>2007-08-03T13:07:53Z</time></trkpt>
<trkpt lat="46.27456309" lon="7.53627324"><ele>740.352539</ele><time>2007-08-03T13:08:00Z</time></trkpt>
<trkpt lat="46.27449319" lon="7.53617694"><ele>741.794434</ele><time>2007-08-03T13:08:04Z</time></trkpt>
<trkpt lat="46.27437299" lon="7.53600402"><ele>743.236328</ele><time>2007-08-03T13:08:11Z</time></trkpt>
<trkpt lat="46.27421508" lon="7.53572264"><ele>745.639648</ele><time>2007-08-03T13:08:21Z</time></trkpt>
<trkpt lat="46.27410008" lon="7.53557989"><ele>747.081543</ele><time>2007-08-03T13:08:27Z</time></trkpt>
<trkpt lat="46.27397485" lon="7.53539977"><ele>748.523682</ele><time>2007-08-03T13:08:34Z</time></trkpt>
<trkpt lat="46.27389413" lon="7.53519743"><ele>750.446533</ele><time>2007-08-03T13:08:41Z</time></trkpt>
<trkpt lat="46.27379078" lon="7.53500062"><ele>750.927002</ele><time>2007-08-03T13:08:48Z</time></trkpt>
<trkpt lat="46.27368534" lon="7.53494639"><ele>751.888428</ele><time>2007-08-03T13:08:53Z</time></trkpt>
<trkpt lat="46.27364066" lon="7.53501495"><ele>751.888428</ele><time>2007-08-03T13:08:56Z</time></trkpt>
<trkpt lat="46.27369598" lon="7.53516516"><ele>753.811035</ele><time>2007-08-03T13:09:01Z</time></trkpt>
<trkpt lat="46.27383487" lon="7.53534906"><ele>755.733643</ele><time>2007-08-03T13:09:09Z</time></trkpt>
<trkpt lat="46.27393864" lon="7.53553572"><ele>757.65625</ele><time>2007-08-03T13:09:16Z</time></trkpt>
<trkpt lat="46.27408675" lon="7.53578466"><ele>759.578857</ele><time>2007-08-03T13:09:26Z</time></trkpt>
<trkpt lat="46.27416797" lon="7.53601374"><ele>761.020752</ele><time>2007-08-03T13:09:34Z</time></trkpt>
<trkpt lat="46.27426495" lon="7.53620694"><ele>762.462646</ele><time>2007-08-03T13:09:41Z</time></trkpt>
<trkpt lat="46.27440308" lon="7.53647408"><ele>763.424072</ele><time>2007-08-03T13:09:51Z</time></trkpt>
<trkpt lat="46.27449755" lon="7.53662118"><ele>764.866211</ele><time>2007-08-03T13:09:58Z</time></trkpt>
<trkpt lat="46.27462386" lon="7.53685663"><ele>766.308105</ele><time>2007-08-03T13:10:07Z</time></trkpt>
<trkpt lat="46.27476392" lon="7.53716860"><ele>768.230713</ele><time>2007-08-03T13:10:18Z</time></trkpt>
<trkpt lat="46.27488404" lon="7.53741427"><ele>771.114746</ele><time>2007-08-03T13:10:26Z</time></trkpt>
<trkpt lat="46.27496157" lon="7.53770747"><ele>773.518066</ele><time>2007-08-03T13:10:35Z</time></trkpt>
<trkpt lat="46.27496257" lon="7.53774108"><ele>773.518066</ele><time>2007-08-03T13:10:36Z</time></trkpt>
<trkpt lat="46.27505125" lon="7.53800226"><ele>775.44043</ele><time>2007-08-03T13:10:44Z</time></trkpt>
<trkpt lat="46.27520515" lon="7.53824249"><ele>776.882568</ele><time>2007-08-03T13:10:52Z</time></trkpt>
<trkpt lat="46.27530565" lon="7.53845715"><ele>779.285645</ele><time>2007-08-03T13:10:59Z</time></trkpt>
<trkpt lat="46.27534688" lon="7.53872059"><ele>781.20874</ele><time>2007-08-03T13:11:07Z</time></trkpt>
<trkpt lat="46.27534127" lon="7.53901949"><ele>783.131104</ele><time>2007-08-03T13:11:15Z</time></trkpt>
<trkpt lat="46.27529584" lon="7.53925066"><ele>785.053955</ele><time>2007-08-03T13:11:22Z</time></trkpt>
<trkpt lat="46.27523222" lon="7.53947455"><ele>786.49585</ele><time>2007-08-03T13:11:29Z</time></trkpt>
<trkpt lat="46.27517615" lon="7.53967035"><ele>787.937744</ele><time>2007-08-03T13:11:35Z</time></trkpt>
<trkpt lat="46.27515854" lon="7.53991904"><ele>789.860352</ele><time>2007-08-03T13:11:42Z</time></trkpt>
<trkpt lat="46.27512409" lon="7.54017158"><ele>791.782959</ele><time>2007-08-03T13:11:49Z</time></trkpt>
<trkpt lat="46.27503759" lon="7.54017804"><ele>792.744385</ele><time>2007-08-03T13:11:53Z</time></trkpt>
<trkpt lat="46.27502125" lon="7.54010336"><ele>793.705566</ele><time>2007-08-03T13:11:55Z</time></trkpt>
<trkpt lat="46.27502619" lon="7.53981477"><ele>795.628174</ele><time>2007-08-03T13:12:03Z</time></trkpt>
<trkpt lat="46.27499183" lon="7.53962416"><ele>797.070313</ele><time>2007-08-03T13:12:10Z</time></trkpt>
<trkpt lat="46.27493843" lon="7.53944119"><ele>799.473633</ele><time>2007-08-03T13:12:17Z</time></trkpt>
<trkpt lat="46.27489787" lon="7.53929366"><ele>800.435059</ele><time>2007-08-03T13:12:23Z</time></trkpt>
<trkpt lat="46.27485545" lon="7.53913466"><ele>802.838135</ele><time>2007-08-03T13:12:29Z</time></trkpt>
<trkpt lat="46.27483400" lon="7.53897599"><ele>803.799561</ele><time>2007-08-03T13:12:35Z</time></trkpt>
<trkpt lat="46.27480047" lon="7.53878673"><ele>804.760742</ele><time>2007-08-03T13:12:42Z</time></trkpt>
<trkpt lat="46.27478790" lon="7.53870894"><ele>805.722168</ele><time>2007-08-03T13:12:45Z</time></trkpt>
<trkpt lat="46.27474749" lon="7.53850794"><ele>807.164063</ele><time>2007-08-03T13:12:52Z</time></trkpt>
<trkpt lat="46.27472386" lon="7.53841206"><ele>807.644775</ele><time>2007-08-03T13:12:55Z</time></trkpt>
<trkpt lat="46.27471397" lon="7.53823528"><ele>810.047852</ele><time>2007-08-03T13:13:01Z</time></trkpt>
<trkpt lat="46.27468404" lon="7.53802816"><ele>813.412842</ele><time>2007-08-03T13:13:09Z</time></trkpt>
<trkpt lat="46.27463283" lon="7.53782272"><ele>814.374023</ele><time>2007-08-03T13:13:17Z</time></trkpt>
<trkpt lat="46.27453979" lon="7.53768442"><ele>816.296631</ele><time>2007-08-03T13:13:24Z</time></trkpt>
<trkpt lat="46.27442353" lon="7.53758200"><ele>817.738525</ele><time>2007-08-03T13:13:31Z</time></trkpt>
<trkpt lat="46.27430719" lon="7.53749189"><ele>818.699951</ele><time>2007-08-03T13:13:38Z</time></trkpt>
<trkpt lat="46.27421206" lon="7.53736147"><ele>820.141846</ele><time>2007-08-03T13:13:44Z</time></trkpt>
<trkpt lat="46.27413159" lon="7.53719903"><ele>822.064453</ele><time>2007-08-03T13:13:50Z</time></trkpt>
<trkpt lat="46.27406764" lon="7.53705620"><ele>823.025879</ele><time>2007-08-03T13:13:55Z</time></trkpt>
<trkpt lat="46.27398818" lon="7.53688068"><ele>825.428955</ele><time>2007-08-03T13:14:02Z</time></trkpt>
<trkpt lat="46.27390972" lon="7.53671723"><ele>826.390381</ele><time>2007-08-03T13:14:08Z</time></trkpt>
<trkpt lat="46.27381442" lon="7.53656804"><ele>829.274414</ele><time>2007-08-03T13:14:15Z</time></trkpt>
<trkpt lat="46.27372473" lon="7.53644298"><ele>830.716553</ele><time>2007-08-03T13:14:22Z</time></trkpt>
<trkpt lat="46.27365248" lon="7.53634902"><ele>832.158447</ele><time>2007-08-03T13:14:27Z</time></trkpt>
<trkpt lat="46.27353857" lon="7.53619445"><ele>833.600342</ele><time>2007-08-03T13:14:35Z</time></trkpt>
<trkpt lat="46.27342726" lon="7.53615405"><ele>834.561768</ele><time>2007-08-03T13:14:41Z</time></trkpt>
<trkpt lat="46.27329608" lon="7.53611642"><ele>836.003662</ele><time>2007-08-03T13:14:49Z</time></trkpt>
<trkpt lat="46.27319374" lon="7.53607443"><ele>837.92627</ele><time>2007-08-03T13:14:56Z</time></trkpt>
<trkpt lat="46.27316566" lon="7.53606345"><ele>838.406982</ele><time>2007-08-03T13:14:58Z</time></trkpt>
<trkpt lat="46.27308243" lon="7.53600536"><ele>839.848877</ele><time>2007-08-03T13:15:04Z</time></trkpt>
<trkpt lat="46.27305058" lon="7.53597938"><ele>840.810059</ele><time>2007-08-03T13:15:06Z</time></trkpt>
<trkpt lat="46.27299333" lon="7.53593135"><ele>841.290771</ele><time>2007-08-03T13:15:09Z</time></trkpt>
<trkpt lat="46.27291999" lon="7.53586689"><ele>843.213379</ele><time>2007-08-03T13:15:13Z</time></trkpt>
<trkpt lat="46.27277758" lon="7.53572247"><ele>844.655518</ele><time>2007-08-03T13:15:21Z</time></trkpt>
<trkpt lat="46.27267038" lon="7.53561124"><ele>845.616943</ele><time>2007-08-03T13:15:28Z</time></trkpt>
<trkpt lat="46.27254942" lon="7.53549339"><ele>847.539551</ele><time>2007-08-03T13:15:36Z</time></trkpt>
<trkpt lat="46.27250508" lon="7.53545182"><ele>848.500732</ele><time>2007-08-03T13:15:40Z</time></trkpt>
<trkpt lat="46.27239604" lon="7.53537747"><ele>851.384766</ele><time>2007-08-03T13:15:48Z</time></trkpt>
<trkpt lat="46.27238355" lon="7.53537102"><ele>851.384766</ele><time>2007-08-03T13:15:49Z</time></trkpt>
<trkpt lat="46.27230308" lon="7.53528326"><ele>853.307373</ele><time>2007-08-03T13:15:55Z</time></trkpt>
<trkpt lat="46.27224533" lon="7.53512585"><ele>854.268799</ele><time>2007-08-03T13:16:01Z</time></trkpt>
<trkpt lat="46.27218775" lon="7.53495988"><ele>856.191162</ele><time>2007-08-03T13:16:08Z</time></trkpt>
<trkpt lat="46.27209362" lon="7.53481228"><ele>858.114014</ele><time>2007-08-03T13:16:16Z</time></trkpt>
<trkpt lat="46.27195674" lon="7.53471773"><ele>859.555908</ele><time>2007-08-03T13:16:24Z</time></trkpt>
<trkpt lat="46.27190528" lon="7.53466635"><ele>860.517334</ele><time>2007-08-03T13:16:29Z</time></trkpt>
<trkpt lat="46.27185029" lon="7.53451003"><ele>861.959473</ele><time>2007-08-03T13:16:36Z</time></trkpt>
<trkpt lat="46.27181542" lon="7.53434859"><ele>863.401367</ele><time>2007-08-03T13:16:43Z</time></trkpt>
<trkpt lat="46.27172087" lon="7.53426217"><ele>864.843262</ele><time>2007-08-03T13:16:49Z</time></trkpt>
<trkpt lat="46.27160353" lon="7.53431666"><ele>864.843262</ele><time>2007-08-03T13:16:55Z</time></trkpt>
<trkpt lat="46.27157042" lon="7.53441238"><ele>865.804688</ele><time>2007-08-03T13:16:59Z</time></trkpt>
<trkpt lat="46.27160219" lon="7.53458379"><ele>868.688477</ele><time>2007-08-03T13:17:06Z</time></trkpt>
<trkpt lat="46.27164594" lon="7.53474195"><ele>869.649902</ele><time>2007-08-03T13:17:12Z</time></trkpt>
<trkpt lat="46.27171149" lon="7.53499668"><ele>871.091797</ele><time>2007-08-03T13:17:21Z</time></trkpt>
<trkpt lat="46.27172666" lon="7.53508813"><ele>872.533691</ele><time>2007-08-03T13:17:24Z</time></trkpt>
<trkpt lat="46.27178307" lon="7.53534914"><ele>873.014404</ele><time>2007-08-03T13:17:33Z</time></trkpt>
<trkpt lat="46.27183747" lon="7.53550638"><ele>873.975586</ele><time>2007-08-03T13:17:40Z</time></trkpt>
<trkpt lat="46.27195146" lon="7.53566246"><ele>874.937012</ele><time>2007-08-03T13:17:49Z</time></trkpt>
<trkpt lat="46.27202095" lon="7.53573119"><ele>875.898193</ele><time>2007-08-03T13:17:54Z</time></trkpt>
<trkpt lat="46.27212446" lon="7.53587586"><ele>879.262939</ele><time>2007-08-03T13:18:01Z</time></trkpt>
<trkpt lat="46.27219705" lon="7.53598072"><ele>880.705078</ele><time>2007-08-03T13:18:07Z</time></trkpt>
<trkpt lat="46.27228523" lon="7.53616017"><ele>882.627686</ele><time>2007-08-03T13:18:15Z</time></trkpt>
<trkpt lat="46.27231716" lon="7.53621574"><ele>883.108154</ele><time>2007-08-03T13:18:18Z</time></trkpt>
<trkpt lat="46.27237508" lon="7.53635539"><ele>885.031006</ele><time>2007-08-03T13:18:23Z</time></trkpt>
<trkpt lat="46.27243124" lon="7.53651733"><ele>886.4729</ele><time>2007-08-03T13:18:29Z</time></trkpt>
<trkpt lat="46.27245689" lon="7.53661229"><ele>887.914795</ele><time>2007-08-03T13:18:34Z</time></trkpt>
<trkpt lat="46.27247483" lon="7.53679384"><ele>888.876221</ele><time>2007-08-03T13:18:41Z</time></trkpt>
<trkpt lat="46.27250768" lon="7.53695327"><ele>889.837402</ele><time>2007-08-03T13:18:47Z</time></trkpt>
<trkpt lat="46.27253694" lon="7.53714505"><ele>891.76001</ele><time>2007-08-03T13:18:54Z</time></trkpt>
<trkpt lat="46.27253987" lon="7.53733523"><ele>893.202148</ele><time>2007-08-03T13:19:01Z</time></trkpt>
<trkpt lat="46.27253518" lon="7.53741846"><ele>894.644043</ele><time>2007-08-03T13:19:04Z</time></trkpt>
<trkpt lat="46.27253098" lon="7.53756473"><ele>896.086182</ele><time>2007-08-03T13:19:10Z</time></trkpt>
<trkpt lat="46.27254565" lon="7.53763589"><ele>897.047363</ele><time>2007-08-03T13:19:13Z</time></trkpt>
<trkpt lat="46.27257977" lon="7.53782256"><ele>898.489258</ele><time>2007-08-03T13:19:21Z</time></trkpt>
<trkpt lat="46.27258999" lon="7.53785105"><ele>899.450684</ele><time>2007-08-03T13:19:22Z</time></trkpt>
<trkpt lat="46.27260843" lon="7.53796790"><ele>899.931396</ele><time>2007-08-03T13:19:27Z</time></trkpt>
<trkpt lat="46.27261589" lon="7.53804317"><ele>901.373291</ele><time>2007-08-03T13:19:30Z</time></trkpt>
<trkpt lat="46.27263609" lon="7.53812372"><ele>902.815186</ele><time>2007-08-03T13:19:33Z</time></trkpt>
<trkpt lat="46.27267968" lon="7.53827032"><ele>904.257324</ele><time>2007-08-03T13:19:39Z</time></trkpt>
<trkpt lat="46.27275730" lon="7.53843988"><ele>906.179688</ele><time>2007-08-03T13:19:46Z</time></trkpt>
<trkpt lat="46.27281119" lon="7.53867877"><ele>907.621826</ele><time>2007-08-03T13:19:55Z</time></trkpt>
<trkpt lat="46.27284640" lon="7.53889083"><ele>909.063965</ele><time>2007-08-03T13:20:02Z</time></trkpt>
<trkpt lat="46.27286919" lon="7.53912234"><ele>910.986572</ele><time>2007-08-03T13:20:10Z</time></trkpt>
<trkpt lat="46.27288143" lon="7.53933859"><ele>912.428467</ele><time>2007-08-03T13:20:18Z</time></trkpt>
<trkpt lat="46.27286626" lon="7.53959248"><ele>913.870361</ele><time>2007-08-03T13:20:28Z</time></trkpt>
<trkpt lat="46.27286224" lon="7.53977713"><ele>915.3125</ele><time>2007-08-03T13:20:35Z</time></trkpt>
<trkpt lat="46.27285729" lon="7.53985257"><ele>915.793213</ele><time>2007-08-03T13:20:38Z</time></trkpt>
<trkpt lat="46.27285335" lon="7.53994293"><ele>916.754395</ele><time>2007-08-03T13:20:42Z</time></trkpt>
<trkpt lat="46.27283567" lon="7.54011459"><ele>919.157715</ele><time>2007-08-03T13:20:49Z</time></trkpt>
<trkpt lat="46.27274757" lon="7.54024367"><ele>920.599609</ele><time>2007-08-03T13:20:55Z</time></trkpt>
<trkpt lat="46.27260734" lon="7.54035054"><ele>923.00293</ele><time>2007-08-03T13:21:03Z</time></trkpt>
<trkpt lat="46.27249888" lon="7.54042849"><ele>924.445068</ele><time>2007-08-03T13:21:09Z</time></trkpt>
<trkpt lat="46.27242789" lon="7.54054768"><ele>925.40625</ele><time>2007-08-03T13:21:15Z</time></trkpt>
<trkpt lat="46.27236452" lon="7.54069420"><ele>926.848389</ele><time>2007-08-03T13:21:22Z</time></trkpt>
<trkpt lat="46.27224600" lon="7.54081925"><ele>928.290283</ele><time>2007-08-03T13:21:30Z</time></trkpt>
<trkpt lat="46.27211667" lon="7.54086276"><ele>929.732178</ele><time>2007-08-03T13:21:38Z</time></trkpt>
<trkpt lat="46.27200795" lon="7.54079520"><ele>931.174316</ele><time>2007-08-03T13:21:44Z</time></trkpt>
<trkpt lat="46.27188499" lon="7.54063837"><ele>932.616211</ele><time>2007-08-03T13:21:52Z</time></trkpt>
<trkpt lat="46.27173965" lon="7.54046679"><ele>934.058105</ele><time>2007-08-03T13:22:02Z</time></trkpt>
<trkpt lat="46.27156405" lon="7.54036563"><ele>935.019531</ele><time>2007-08-03T13:22:12Z</time></trkpt>
<trkpt lat="46.27136623" lon="7.54035624"><ele>936.461426</ele><time>2007-08-03T13:22:22Z</time></trkpt>
<trkpt lat="46.27121117" lon="7.54038247"><ele>937.422607</ele><time>2007-08-03T13:22:30Z</time></trkpt>
<trkpt lat="46.27102048" lon="7.54042824"><ele>937.90332</ele><time>2007-08-03T13:22:40Z</time></trkpt>
<trkpt lat="46.27096533" lon="7.54044643"><ele>940.306885</ele><time>2007-08-03T13:22:43Z</time></trkpt>
<trkpt lat="46.27078964" lon="7.54049806"><ele>940.306885</ele><time>2007-08-03T13:22:52Z</time></trkpt>
<trkpt lat="46.27062393" lon="7.54047995"><ele>942.710205</ele><time>2007-08-03T13:23:00Z</time></trkpt>
<trkpt lat="46.27050474" lon="7.54034978"><ele>943.190674</ele><time>2007-08-03T13:23:07Z</time></trkpt>
<trkpt lat="46.27041346" lon="7.54016194"><ele>945.113281</ele><time>2007-08-03T13:23:14Z</time></trkpt>
<trkpt lat="46.27034632" lon="7.53993345"><ele>946.074707</ele><time>2007-08-03T13:23:21Z</time></trkpt>
<trkpt lat="46.27029805" lon="7.53976204"><ele>946.55542</ele><time>2007-08-03T13:23:26Z</time></trkpt>
<trkpt lat="46.27017768" lon="7.53952408"><ele>947.997314</ele><time>2007-08-03T13:23:34Z</time></trkpt>
<trkpt lat="46.27002622" lon="7.53939123"><ele>948.477783</ele><time>2007-08-03T13:23:41Z</time></trkpt>
<trkpt lat="46.26989647" lon="7.53932208"><ele>949.919922</ele><time>2007-08-03T13:23:47Z</time></trkpt>
<trkpt lat="46.26971039" lon="7.53918436"><ele>951.842529</ele><time>2007-08-03T13:23:55Z</time></trkpt>
<trkpt lat="46.26958005" lon="7.53895403"><ele>952.803711</ele><time>2007-08-03T13:24:03Z</time></trkpt>
<trkpt lat="46.26949514" lon="7.53867709"><ele>953.765137</ele><time>2007-08-03T13:24:11Z</time></trkpt>
<trkpt lat="46.26945223" lon="7.53836855"><ele>953.765137</ele><time>2007-08-03T13:24:18Z</time></trkpt>
<trkpt lat="46.26941535" lon="7.53802925"><ele>954.726318</ele><time>2007-08-03T13:24:25Z</time></trkpt>
<trkpt lat="46.26938324" lon="7.53777662"><ele>955.687744</ele><time>2007-08-03T13:24:30Z</time></trkpt>
<trkpt lat="46.26935642" lon="7.53755417"><ele>955.207031</ele><time>2007-08-03T13:24:35Z</time></trkpt>
<trkpt lat="46.26927872" lon="7.53728888"><ele>954.726318</ele><time>2007-08-03T13:24:40Z</time></trkpt>
<trkpt lat="46.26925676" lon="7.53723767"><ele>954.726318</ele><time>2007-08-03T13:24:41Z</time></trkpt>
<trkpt lat="46.26914914" lon="7.53700700"><ele>956.168457</ele><time>2007-08-03T13:24:48Z</time></trkpt>
<trkpt lat="46.26909533" lon="7.53686668"><ele>956.64917</ele><time>2007-08-03T13:24:53Z</time></trkpt>
<trkpt lat="46.26902115" lon="7.53674163"><ele>957.129883</ele><time>2007-08-03T13:24:57Z</time></trkpt>
<trkpt lat="46.26887740" lon="7.53650106"><ele>958.571777</ele><time>2007-08-03T13:25:04Z</time></trkpt>
<trkpt lat="46.26884580" lon="7.53643996"><ele>959.05249</ele><time>2007-08-03T13:25:06Z</time></trkpt>
<trkpt lat="46.26876122" lon="7.53626117"><ele>960.013672</ele><time>2007-08-03T13:25:12Z</time></trkpt>
<trkpt lat="46.26865955" lon="7.53604970"><ele>960.494385</ele><time>2007-08-03T13:25:18Z</time></trkpt>
<trkpt lat="46.26857783" lon="7.53587016"><ele>961.936523</ele><time>2007-08-03T13:25:23Z</time></trkpt>
<trkpt lat="46.26848429" lon="7.53562474"><ele>963.378418</ele><time>2007-08-03T13:25:30Z</time></trkpt>
<trkpt lat="46.26843265" lon="7.53544872"><ele>964.3396</ele><time>2007-08-03T13:25:35Z</time></trkpt>
<trkpt lat="46.26834464" lon="7.53532584"><ele>965.301025</ele><time>2007-08-03T13:25:40Z</time></trkpt>
<trkpt lat="46.26816217" lon="7.53527270"><ele>965.301025</ele><time>2007-08-03T13:25:46Z</time></trkpt>
<trkpt lat="46.26795748" lon="7.53517052"><ele>965.781738</ele><time>2007-08-03T13:25:52Z</time></trkpt>
<trkpt lat="46.26772949" lon="7.53494605"><ele>967.223633</ele><time>2007-08-03T13:26:00Z</time></trkpt>
<trkpt lat="46.26760335" lon="7.53474422"><ele>969.626953</ele><time>2007-08-03T13:26:06Z</time></trkpt>
<trkpt lat="46.26755909" lon="7.53462452"><ele>971.549316</ele><time>2007-08-03T13:26:09Z</time></trkpt>
<trkpt lat="46.26742188" lon="7.53436318"><ele>972.030273</ele><time>2007-08-03T13:26:16Z</time></trkpt>
<trkpt lat="46.26723723" lon="7.53398146"><ele>972.991699</ele><time>2007-08-03T13:26:24Z</time></trkpt>
<trkpt lat="46.26709658" lon="7.53364376"><ele>973.472412</ele><time>2007-08-03T13:26:31Z</time></trkpt>
<trkpt lat="46.26703849" lon="7.53343396"><ele>974.433594</ele><time>2007-08-03T13:26:36Z</time></trkpt>
<trkpt lat="46.26694528" lon="7.53327034"><ele>973.952881</ele><time>2007-08-03T13:26:41Z</time></trkpt>
<trkpt lat="46.26692014" lon="7.53322994"><ele>973.952881</ele><time>2007-08-03T13:26:42Z</time></trkpt>
<trkpt lat="46.26691578" lon="7.53301495"><ele>972.030273</ele><time>2007-08-03T13:26:47Z</time></trkpt>
<trkpt lat="46.26692894" lon="7.53300883"><ele>972.030273</ele><time>2007-08-03T13:26:48Z</time></trkpt>
<trkpt lat="46.26695585" lon="7.53301553"><ele>972.030273</ele><time>2007-08-03T13:27:00Z</time></trkpt>
<trkpt lat="46.26694495" lon="7.53300707"><ele>972.510986</ele><time>2007-08-03T13:27:01Z</time></trkpt>
<trkpt lat="46.26691109" lon="7.53307127"><ele>972.510986</ele><time>2007-08-03T13:27:04Z</time></trkpt>
<trkpt lat="46.26692098" lon="7.53312106"><ele>972.991699</ele><time>2007-08-03T13:27:06Z</time></trkpt>
<trkpt lat="46.26693548" lon="7.53317362"><ele>972.991699</ele><time>2007-08-03T13:27:09Z</time></trkpt>
<trkpt lat="46.26699164" lon="7.53330739"><ele>973.952881</ele><time>2007-08-03T13:27:17Z</time></trkpt>
<trkpt lat="46.26694595" lon="7.53334486"><ele>974.433594</ele><time>2007-08-03T13:27:21Z</time></trkpt>
<trkpt lat="46.26689935" lon="7.53334385"><ele>974.433594</ele><time>2007-08-03T13:27:23Z</time></trkpt>
<trkpt lat="46.26688334" lon="7.53345374"><ele>974.914307</ele><time>2007-08-03T13:27:28Z</time></trkpt>
<trkpt lat="46.26693657" lon="7.53366916"><ele>975.394775</ele><time>2007-08-03T13:27:37Z</time></trkpt>
<trkpt lat="46.26698627" lon="7.53380092"><ele>976.356201</ele><time>2007-08-03T13:27:43Z</time></trkpt>
<trkpt lat="46.26708023" lon="7.53402664"><ele>977.798096</ele><time>2007-08-03T13:27:52Z</time></trkpt>
<trkpt lat="46.26715148" lon="7.53419898"><ele>979.720703</ele><time>2007-08-03T13:27:59Z</time></trkpt>
<trkpt lat="46.26722826" lon="7.53437466"><ele>979.720703</ele><time>2007-08-03T13:28:06Z</time></trkpt>
<trkpt lat="46.26735482" lon="7.53458463"><ele>980.682129</ele><time>2007-08-03T13:28:14Z</time></trkpt>
<trkpt lat="46.26738190" lon="7.53464263"><ele>981.643311</ele><time>2007-08-03T13:28:16Z</time></trkpt>
<trkpt lat="46.26747276" lon="7.53493172"><ele>983.565918</ele><time>2007-08-03T13:28:24Z</time></trkpt>
<trkpt lat="46.26750042" lon="7.53527354"><ele>984.046631</ele><time>2007-08-03T13:28:33Z</time></trkpt>
<trkpt lat="46.26749673" lon="7.53558107"><ele>984.046631</ele><time>2007-08-03T13:28:41Z</time></trkpt>
<trkpt lat="46.26746865" lon="7.53587795"><ele>985.969238</ele><time>2007-08-03T13:28:49Z</time></trkpt>
<trkpt lat="46.26741878" lon="7.53625422"><ele>987.891846</ele><time>2007-08-03T13:28:59Z</time></trkpt>
<trkpt lat="46.26740646" lon="7.53652110"><ele>989.333984</ele><time>2007-08-03T13:29:06Z</time></trkpt>
<trkpt lat="46.26739833" lon="7.53679032"><ele>990.29541</ele><time>2007-08-03T13:29:13Z</time></trkpt>
<trkpt lat="46.26739422" lon="7.53682896"><ele>990.29541</ele><time>2007-08-03T13:29:14Z</time></trkpt>
<trkpt lat="46.26733672" lon="7.53712283"><ele>991.256592</ele><time>2007-08-03T13:29:22Z</time></trkpt>
<trkpt lat="46.26731903" lon="7.53733959"><ele>992.218018</ele><time>2007-08-03T13:29:28Z</time></trkpt>
<trkpt lat="46.26732239" lon="7.53756993"><ele>992.69873</ele><time>2007-08-03T13:29:34Z</time></trkpt>
<trkpt lat="46.26732649" lon="7.53776103"><ele>993.659912</ele><time>2007-08-03T13:29:39Z</time></trkpt>
<trkpt lat="46.26730638" lon="7.53813822"><ele>994.140625</ele><time>2007-08-03T13:29:49Z</time></trkpt>
<trkpt lat="46.26727914" lon="7.53852462"><ele>996.063232</ele><time>2007-08-03T13:29:59Z</time></trkpt>
<trkpt lat="46.26724376" lon="7.53890525"><ele>997.98584</ele><time>2007-08-03T13:30:09Z</time></trkpt>
<trkpt lat="46.26722272" lon="7.53913290"><ele>998.466309</ele><time>2007-08-03T13:30:15Z</time></trkpt>
<trkpt lat="46.26720512" lon="7.53940850"><ele>999.908447</ele><time>2007-08-03T13:30:22Z</time></trkpt>
<trkpt lat="46.26717637" lon="7.53970094"><ele>1000.869629</ele><time>2007-08-03T13:30:30Z</time></trkpt>
<trkpt lat="46.26715106" lon="7.53995843"><ele>1001.831055</ele><time>2007-08-03T13:30:37Z</time></trkpt>
<trkpt lat="46.26708652" lon="7.54021198"><ele>1003.272949</ele><time>2007-08-03T13:30:44Z</time></trkpt>
<trkpt lat="46.26700563" lon="7.54049043"><ele>1004.234619</ele><time>2007-08-03T13:30:52Z</time></trkpt>
<trkpt lat="46.26690170" lon="7.54068875"><ele>1005.676514</ele><time>2007-08-03T13:30:59Z</time></trkpt>
<trkpt lat="46.26674194" lon="7.54084767"><ele>1006.637695</ele><time>2007-08-03T13:31:06Z</time></trkpt>
<trkpt lat="46.26655762" lon="7.54101690"><ele>1008.560303</ele><time>2007-08-03T13:31:14Z</time></trkpt>
<trkpt lat="46.26636383" lon="7.54116685"><ele>1010.963623</ele><time>2007-08-03T13:31:22Z</time></trkpt>
<trkpt lat="46.26623777" lon="7.54126299"><ele>1011.925049</ele><time>2007-08-03T13:31:27Z</time></trkpt>
<trkpt lat="46.26603886" lon="7.54148033"><ele>1012.88623</ele><time>2007-08-03T13:31:36Z</time></trkpt>
<trkpt lat="46.26588388" lon="7.54165007"><ele>1014.328125</ele><time>2007-08-03T13:31:44Z</time></trkpt>
<trkpt lat="46.26567375" lon="7.54189566"><ele>1016.250732</ele><time>2007-08-03T13:31:55Z</time></trkpt>
<trkpt lat="46.26547946" lon="7.54210973"><ele>1018.654053</ele><time>2007-08-03T13:32:05Z</time></trkpt>
<trkpt lat="46.26530654" lon="7.54230277"><ele>1020.576904</ele><time>2007-08-03T13:32:14Z</time></trkpt>
<trkpt lat="46.26513286" lon="7.54249220"><ele>1022.018799</ele><time>2007-08-03T13:32:23Z</time></trkpt>
<trkpt lat="46.26491192" lon="7.54274265"><ele>1025.383301</ele><time>2007-08-03T13:32:35Z</time></trkpt>
<trkpt lat="46.26474336" lon="7.54297583"><ele>1026.825439</ele><time>2007-08-03T13:32:45Z</time></trkpt>
<trkpt lat="46.26465518" lon="7.54316392"><ele>1028.267334</ele><time>2007-08-03T13:32:52Z</time></trkpt>
<trkpt lat="46.26452585" lon="7.54331136"><ele>1029.228516</ele><time>2007-08-03T13:32:59Z</time></trkpt>
<trkpt lat="46.26438872" lon="7.54342309"><ele>1031.151367</ele><time>2007-08-03T13:33:06Z</time></trkpt>
<trkpt lat="46.26432694" lon="7.54363616"><ele>1032.593262</ele><time>2007-08-03T13:33:13Z</time></trkpt>
<trkpt lat="46.26425679" lon="7.54381377"><ele>1034.035156</ele><time>2007-08-03T13:33:19Z</time></trkpt>
<trkpt lat="46.26414145" lon="7.54407244"><ele>1034.515869</ele><time>2007-08-03T13:33:28Z</time></trkpt>
<trkpt lat="46.26400449" lon="7.54424930"><ele>1036.919189</ele><time>2007-08-03T13:33:35Z</time></trkpt>
<trkpt lat="46.26390433" lon="7.54448533"><ele>1037.399902</ele><time>2007-08-03T13:33:44Z</time></trkpt>
<trkpt lat="46.26382554" lon="7.54457594"><ele>1039.803223</ele><time>2007-08-03T13:33:50Z</time></trkpt>
<trkpt lat="46.26354827" lon="7.54512629"><ele>1043.167725</ele><time>2007-08-03T13:34:07Z</time></trkpt>
<trkpt lat="46.26358003" lon="7.54538546"><ele>1044.12915</ele><time>2007-08-03T13:34:14Z</time></trkpt>
<trkpt lat="46.26357869" lon="7.54542192"><ele>1044.609619</ele><time>2007-08-03T13:34:15Z</time></trkpt>
<trkpt lat="46.26364633" lon="7.54557238"><ele>1045.571045</ele><time>2007-08-03T13:34:19Z</time></trkpt>
<trkpt lat="46.26360325" lon="7.54572392"><ele>1046.532471</ele><time>2007-08-03T13:34:24Z</time></trkpt>
<trkpt lat="46.26359034" lon="7.54591973"><ele>1047.493652</ele><time>2007-08-03T13:34:30Z</time></trkpt>
<trkpt lat="46.26347098" lon="7.54615802"><ele>1048.935547</ele><time>2007-08-03T13:34:38Z</time></trkpt>
<trkpt lat="46.26339018" lon="7.54633128"><ele>1050.377686</ele><time>2007-08-03T13:34:44Z</time></trkpt>
<trkpt lat="46.26321902" lon="7.54653839"><ele>1052.300293</ele><time>2007-08-03T13:34:52Z</time></trkpt>
<trkpt lat="46.26305206" lon="7.54680812"><ele>1053.742432</ele><time>2007-08-03T13:35:02Z</time></trkpt>
<trkpt lat="46.26292373" lon="7.54705053"><ele>1056.145508</ele><time>2007-08-03T13:35:11Z</time></trkpt>
<trkpt lat="46.26288584" lon="7.54731917"><ele>1058.068359</ele><time>2007-08-03T13:35:20Z</time></trkpt>
<trkpt lat="46.26294435" lon="7.54760449"><ele>1059.029541</ele><time>2007-08-03T13:35:28Z</time></trkpt>
<trkpt lat="46.26294795" lon="7.54780054"><ele>1060.471436</ele><time>2007-08-03T13:35:34Z</time></trkpt>
<trkpt lat="46.26281904" lon="7.54806482"><ele>1061.913574</ele><time>2007-08-03T13:35:43Z</time></trkpt>
<trkpt lat="46.26270547" lon="7.54824989"><ele>1063.835938</ele><time>2007-08-03T13:35:50Z</time></trkpt>
<trkpt lat="46.26264118" lon="7.54840337"><ele>1065.278076</ele><time>2007-08-03T13:35:56Z</time></trkpt>
<trkpt lat="46.26257454" lon="7.54855977"><ele>1066.719971</ele><time>2007-08-03T13:36:02Z</time></trkpt>
<trkpt lat="46.26254453" lon="7.54867586"><ele>1068.642822</ele><time>2007-08-03T13:36:06Z</time></trkpt>
<trkpt lat="46.26256113" lon="7.54884560"><ele>1068.642822</ele><time>2007-08-03T13:36:11Z</time></trkpt>
<trkpt lat="46.26254906" lon="7.54891952"><ele>1071.046143</ele><time>2007-08-03T13:36:18Z</time></trkpt>
<trkpt lat="46.26245183" lon="7.54903972"><ele>1071.526611</ele><time>2007-08-03T13:36:22Z</time></trkpt>
<trkpt lat="46.26242492" lon="7.54907375"><ele>1072.488037</ele><time>2007-08-03T13:36:23Z</time></trkpt>
<trkpt lat="46.26244253" lon="7.54932554"><ele>1072.96875</ele><time>2007-08-03T13:36:29Z</time></trkpt>
<trkpt lat="46.26243624" lon="7.54955789"><ele>1073.929932</ele><time>2007-08-03T13:36:35Z</time></trkpt>
<trkpt lat="46.26241487" lon="7.54966727"><ele>1075.371826</ele><time>2007-08-03T13:36:40Z</time></trkpt>
<trkpt lat="46.26206769" lon="7.55015242"><ele>1079.697754</ele><time>2007-08-03T13:37:02Z</time></trkpt>
<trkpt lat="46.26182285" lon="7.55058384"><ele>1081.139893</ele><time>2007-08-03T13:37:10Z</time></trkpt>
<trkpt lat="46.26185085" lon="7.55063748"><ele>1082.101074</ele><time>2007-08-03T13:37:12Z</time></trkpt>
<trkpt lat="46.26190784" lon="7.55066405"><ele>1082.581787</ele><time>2007-08-03T13:37:16Z</time></trkpt>
<trkpt lat="46.26182687" lon="7.55075525"><ele>1083.062256</ele><time>2007-08-03T13:37:21Z</time></trkpt>
<trkpt lat="46.26167776" lon="7.55091827"><ele>1085.46582</ele><time>2007-08-03T13:37:29Z</time></trkpt>
<trkpt lat="46.26150752" lon="7.55109480"><ele>1086.427246</ele><time>2007-08-03T13:37:39Z</time></trkpt>
<trkpt lat="46.26137978" lon="7.55123318"><ele>1088.830566</ele><time>2007-08-03T13:37:47Z</time></trkpt>
<trkpt lat="46.26122304" lon="7.55140317"><ele>1090.272461</ele><time>2007-08-03T13:37:57Z</time></trkpt>
<trkpt lat="46.26105054" lon="7.55153669"><ele>1092.675781</ele><time>2007-08-03T13:38:07Z</time></trkpt>
<trkpt lat="46.26090227" lon="7.55162462"><ele>1095.55957</ele><time>2007-08-03T13:38:15Z</time></trkpt>
<trkpt lat="46.26088324" lon="7.55163426"><ele>1095.55957</ele><time>2007-08-03T13:38:16Z</time></trkpt>
<trkpt lat="46.26071627" lon="7.55163359"><ele>1098.443359</ele><time>2007-08-03T13:38:24Z</time></trkpt>
<trkpt lat="46.26059080" lon="7.55150534"><ele>1099.885498</ele><time>2007-08-03T13:38:31Z</time></trkpt>
<trkpt lat="46.26050983" lon="7.55128087"><ele>1101.327637</ele><time>2007-08-03T13:38:39Z</time></trkpt>
<trkpt lat="46.26044436" lon="7.55103512"><ele>1101.327637</ele><time>2007-08-03T13:38:48Z</time></trkpt>
<trkpt lat="46.26041176" lon="7.55089648"><ele>1104.21167</ele><time>2007-08-03T13:38:53Z</time></trkpt>
<trkpt lat="46.26034454" lon="7.55061854"><ele>1106.134033</ele><time>2007-08-03T13:39:02Z</time></trkpt>
<trkpt lat="46.26029584" lon="7.55040077"><ele>1108.056885</ele><time>2007-08-03T13:39:09Z</time></trkpt>
<trkpt lat="46.26023490" lon="7.55016357"><ele>1109.979248</ele><time>2007-08-03T13:39:17Z</time></trkpt>
<trkpt lat="46.26016734" lon="7.54991278"><ele>1111.9021</ele><time>2007-08-03T13:39:25Z</time></trkpt>
<trkpt lat="46.26010448" lon="7.54967306"><ele>1112.382568</ele><time>2007-08-03T13:39:34Z</time></trkpt>
<trkpt lat="46.26006676" lon="7.54953752"><ele>1114.305176</ele><time>2007-08-03T13:39:39Z</time></trkpt>
<trkpt lat="46.25996383" lon="7.54918272"><ele>1115.747314</ele><time>2007-08-03T13:39:52Z</time></trkpt>
<trkpt lat="46.25989334" lon="7.54899689"><ele>1115.747314</ele><time>2007-08-03T13:39:59Z</time></trkpt>
<trkpt lat="46.25980214" lon="7.54877418"><ele>1118.631348</ele><time>2007-08-03T13:40:08Z</time></trkpt>
<trkpt lat="46.25967013" lon="7.54850462"><ele>1121.515137</ele><time>2007-08-03T13:40:19Z</time></trkpt>
<trkpt lat="46.25952026" lon="7.54822148"><ele>1124.39917</ele><time>2007-08-03T13:40:31Z</time></trkpt>
<trkpt lat="46.25941423" lon="7.54802878"><ele>1125.841064</ele><time>2007-08-03T13:40:39Z</time></trkpt>
<trkpt lat="46.25925715" lon="7.54778872"><ele>1127.763672</ele><time>2007-08-03T13:40:50Z</time></trkpt>
<trkpt lat="46.25915087" lon="7.54760734"><ele>1130.166992</ele><time>2007-08-03T13:40:58Z</time></trkpt>
<trkpt lat="46.25903453" lon="7.54736083"><ele>1132.089844</ele><time>2007-08-03T13:41:08Z</time></trkpt>
<trkpt lat="46.25892389" lon="7.54712529"><ele>1133.051025</ele><time>2007-08-03T13:41:18Z</time></trkpt>
<trkpt lat="46.25880436" lon="7.54695606"><ele>1136.415771</ele><time>2007-08-03T13:41:26Z</time></trkpt>
<trkpt lat="46.25865005" lon="7.54670938"><ele>1137.376953</ele><time>2007-08-03T13:41:37Z</time></trkpt>
<trkpt lat="46.25855894" lon="7.54650964"><ele>1138.819092</ele><time>2007-08-03T13:41:45Z</time></trkpt>
<trkpt lat="46.25852642" lon="7.54643127"><ele>1139.780273</ele><time>2007-08-03T13:41:48Z</time></trkpt>
<trkpt lat="46.25846104" lon="7.54621452"><ele>1142.183594</ele><time>2007-08-03T13:41:56Z</time></trkpt>
<trkpt lat="46.25838853" lon="7.54601218"><ele>1144.106201</ele><time>2007-08-03T13:42:04Z</time></trkpt>
<trkpt lat="46.25831159" lon="7.54577614"><ele>1145.067383</ele><time>2007-08-03T13:42:13Z</time></trkpt>
<trkpt lat="46.25821939" lon="7.54547289"><ele>1147.470703</ele><time>2007-08-03T13:42:24Z</time></trkpt>
<trkpt lat="46.25812995" lon="7.54520232"><ele>1150.835449</ele><time>2007-08-03T13:42:34Z</time></trkpt>
<trkpt lat="46.25802560" lon="7.54497207"><ele>1151.796875</ele><time>2007-08-03T13:42:43Z</time></trkpt>
<trkpt lat="46.25796835" lon="7.54488288"><ele>1153.719482</ele><time>2007-08-03T13:42:47Z</time></trkpt>
<trkpt lat="46.25790775" lon="7.54480124"><ele>1154.680664</ele><time>2007-08-03T13:42:51Z</time></trkpt>
<trkpt lat="46.25784522" lon="7.54471952"><ele>1155.64209</ele><time>2007-08-03T13:42:55Z</time></trkpt>
<trkpt lat="46.25773508" lon="7.54453998"><ele>1157.083984</ele><time>2007-08-03T13:43:03Z</time></trkpt>
<trkpt lat="46.25765244" lon="7.54426983"><ele>1159.006592</ele><time>2007-08-03T13:43:12Z</time></trkpt>
<trkpt lat="46.25761975" lon="7.54402936"><ele>1160.448486</ele><time>2007-08-03T13:43:19Z</time></trkpt>
<trkpt lat="46.25761245" lon="7.54395803"><ele>1161.409912</ele><time>2007-08-03T13:43:21Z</time></trkpt>
<trkpt lat="46.25757976" lon="7.54363046"><ele>1161.890625</ele><time>2007-08-03T13:43:32Z</time></trkpt>
<trkpt lat="46.25753995" lon="7.54333508"><ele>1163.812988</ele><time>2007-08-03T13:43:42Z</time></trkpt>
<trkpt lat="46.25750894" lon="7.54306443"><ele>1165.736084</ele><time>2007-08-03T13:43:51Z</time></trkpt>
<trkpt lat="46.25748077" lon="7.54283099"><ele>1168.13916</ele><time>2007-08-03T13:43:59Z</time></trkpt>
<trkpt lat="46.25743015" lon="7.54256872"><ele>1168.619873</ele><time>2007-08-03T13:44:08Z</time></trkpt>
<trkpt lat="46.25736728" lon="7.54226413"><ele>1171.503662</ele><time>2007-08-03T13:44:19Z</time></trkpt>
<trkpt lat="46.25732437" lon="7.54207687"><ele>1173.426514</ele><time>2007-08-03T13:44:26Z</time></trkpt>
<trkpt lat="46.25727056" lon="7.54183506"><ele>1176.310303</ele><time>2007-08-03T13:44:35Z</time></trkpt>
<trkpt lat="46.25721012" lon="7.54155435"><ele>1178.713623</ele><time>2007-08-03T13:44:45Z</time></trkpt>
<trkpt lat="46.25712446" lon="7.54130473"><ele>1180.155762</ele><time>2007-08-03T13:44:54Z</time></trkpt>
<trkpt lat="46.25702715" lon="7.54108898"><ele>1182.078369</ele><time>2007-08-03T13:45:03Z</time></trkpt>
<trkpt lat="46.25689656" lon="7.54082445"><ele>1184.000977</ele><time>2007-08-03T13:45:14Z</time></trkpt>
<trkpt lat="46.25675096" lon="7.54061289"><ele>1185.923584</ele><time>2007-08-03T13:45:24Z</time></trkpt>
<trkpt lat="46.25661149" lon="7.54043779"><ele>1189.288086</ele><time>2007-08-03T13:45:33Z</time></trkpt>
<trkpt lat="46.25649498" lon="7.54026756"><ele>1189.768799</ele><time>2007-08-03T13:45:41Z</time></trkpt>
<trkpt lat="46.25633740" lon="7.54008944"><ele>1192.172119</ele><time>2007-08-03T13:45:51Z</time></trkpt>
<trkpt lat="46.25617546" lon="7.54004778"><ele>1194.094727</ele><time>2007-08-03T13:45:59Z</time></trkpt>
<trkpt lat="46.25592434" lon="7.54010889"><ele>1196.017578</ele><time>2007-08-03T13:46:11Z</time></trkpt>
<trkpt lat="46.25576106" lon="7.54015658"><ele>1197.459473</ele><time>2007-08-03T13:46:19Z</time></trkpt>
<trkpt lat="46.25554757" lon="7.54022104"><ele>1198.901367</ele><time>2007-08-03T13:46:30Z</time></trkpt>
<trkpt lat="46.25532839" lon="7.54034325"><ele>1201.304688</ele><time>2007-08-03T13:46:42Z</time></trkpt>
<trkpt lat="46.25519025" lon="7.54047392"><ele>1203.227295</ele><time>2007-08-03T13:46:50Z</time></trkpt>
<trkpt lat="46.25506838" lon="7.54062924"><ele>1206.111084</ele><time>2007-08-03T13:46:58Z</time></trkpt>
<trkpt lat="46.25503778" lon="7.54066234"><ele>1207.07251</ele><time>2007-08-03T13:47:00Z</time></trkpt>
<trkpt lat="46.25490242" lon="7.54082487"><ele>1208.033936</ele><time>2007-08-03T13:47:09Z</time></trkpt>
<trkpt lat="46.25479295" lon="7.54095563"><ele>1208.514404</ele><time>2007-08-03T13:47:17Z</time></trkpt>
<trkpt lat="46.25469446" lon="7.54106384"><ele>1210.917725</ele><time>2007-08-03T13:47:23Z</time></trkpt>
<trkpt lat="46.25456069" lon="7.54117180"><ele>1211.87915</ele><time>2007-08-03T13:47:30Z</time></trkpt>
<trkpt lat="46.25439724" lon="7.54124916"><ele>1213.321289</ele><time>2007-08-03T13:47:38Z</time></trkpt>
<trkpt lat="46.25423740" lon="7.54129979"><ele>1214.763184</ele><time>2007-08-03T13:47:46Z</time></trkpt>
<trkpt lat="46.25410387" lon="7.54136559"><ele>1215.724609</ele><time>2007-08-03T13:47:53Z</time></trkpt>
<trkpt lat="46.25399910" lon="7.54150137"><ele>1216.685791</ele><time>2007-08-03T13:48:00Z</time></trkpt>
<trkpt lat="46.25396842" lon="7.54166172"><ele>1217.646973</ele><time>2007-08-03T13:48:06Z</time></trkpt>
<trkpt lat="46.25394034" lon="7.54184235"><ele>1219.569824</ele><time>2007-08-03T13:48:12Z</time></trkpt>
<trkpt lat="46.25388712" lon="7.54208283"><ele>1221.492188</ele><time>2007-08-03T13:48:21Z</time></trkpt>
<trkpt lat="46.25377480" lon="7.54229732"><ele>1222.934326</ele><time>2007-08-03T13:48:30Z</time></trkpt>
<trkpt lat="46.25369098" lon="7.54247325"><ele>1224.856934</ele><time>2007-08-03T13:48:37Z</time></trkpt>
<trkpt lat="46.25360766" lon="7.54260150"><ele>1225.818115</ele><time>2007-08-03T13:48:43Z</time></trkpt>
<trkpt lat="46.25355050" lon="7.54254936"><ele>1227.260254</ele><time>2007-08-03T13:48:47Z</time></trkpt>
<trkpt lat="46.25356475" lon="7.54249228"><ele>1226.779541</ele><time>2007-08-03T13:48:49Z</time></trkpt>
<trkpt lat="46.25366349" lon="7.54221635"><ele>1229.182861</ele><time>2007-08-03T13:48:59Z</time></trkpt>
<trkpt lat="46.25371772" lon="7.54195919"><ele>1230.625</ele><time>2007-08-03T13:49:08Z</time></trkpt>
<trkpt lat="46.25370389" lon="7.54169508"><ele>1233.508789</ele><time>2007-08-03T13:49:17Z</time></trkpt>
<trkpt lat="46.25360917" lon="7.54144169"><ele>1234.950928</ele><time>2007-08-03T13:49:26Z</time></trkpt>
<trkpt lat="46.25355310" lon="7.54127054"><ele>1235.912109</ele><time>2007-08-03T13:49:32Z</time></trkpt>
<trkpt lat="46.25357196" lon="7.54113064"><ele>1236.873291</ele><time>2007-08-03T13:49:37Z</time></trkpt>
<trkpt lat="46.25366768" lon="7.54097868"><ele>1238.796143</ele><time>2007-08-03T13:49:44Z</time></trkpt>
<trkpt lat="46.25379718" lon="7.54085588"><ele>1240.718506</ele><time>2007-08-03T13:49:52Z</time></trkpt>
<trkpt lat="46.25389449" lon="7.54071976"><ele>1242.641357</ele><time>2007-08-03T13:49:59Z</time></trkpt>
<trkpt lat="46.25398058" lon="7.54052488"><ele>1242.641357</ele><time>2007-08-03T13:50:07Z</time></trkpt>
<trkpt lat="46.25407278" lon="7.54024669"><ele>1245.044678</ele><time>2007-08-03T13:50:18Z</time></trkpt>
<trkpt lat="46.25411008" lon="7.54008542"><ele>1246.006104</ele><time>2007-08-03T13:50:23Z</time></trkpt>
<trkpt lat="46.25418250" lon="7.53987528"><ele>1246.967285</ele><time>2007-08-03T13:50:30Z</time></trkpt>
<trkpt lat="46.25424737" lon="7.53967328"><ele>1249.370605</ele><time>2007-08-03T13:50:37Z</time></trkpt>
<trkpt lat="46.25429942" lon="7.53949936"><ele>1251.293213</ele><time>2007-08-03T13:50:43Z</time></trkpt>
<trkpt lat="46.25435952" lon="7.53933214"><ele>1252.254395</ele><time>2007-08-03T13:50:49Z</time></trkpt>
<trkpt lat="46.25442792" lon="7.53913156"><ele>1253.696533</ele><time>2007-08-03T13:50:56Z</time></trkpt>
<trkpt lat="46.25447620" lon="7.53891983"><ele>1255.138428</ele><time>2007-08-03T13:51:03Z</time></trkpt>
<trkpt lat="46.25449548" lon="7.53874549"><ele>1257.061035</ele><time>2007-08-03T13:51:09Z</time></trkpt>
<trkpt lat="46.25452548" lon="7.53852722"><ele>1258.50293</ele><time>2007-08-03T13:51:16Z</time></trkpt>
<trkpt lat="46.25456194" lon="7.53826269"><ele>1259.944824</ele><time>2007-08-03T13:51:25Z</time></trkpt>
<trkpt lat="46.25461768" lon="7.53794619"><ele>1262.348389</ele><time>2007-08-03T13:51:36Z</time></trkpt>
<trkpt lat="46.25468030" lon="7.53758510"><ele>1264.751709</ele><time>2007-08-03T13:51:47Z</time></trkpt>
<trkpt lat="46.25476613" lon="7.53724446"><ele>1266.193604</ele><time>2007-08-03T13:51:58Z</time></trkpt>
<trkpt lat="46.25483645" lon="7.53696995"><ele>1268.596924</ele><time>2007-08-03T13:52:07Z</time></trkpt>
<trkpt lat="46.25488473" lon="7.53674012"><ele>1269.55835</ele><time>2007-08-03T13:52:14Z</time></trkpt>
<trkpt lat="46.25493024" lon="7.53644273"><ele>1271.961426</ele><time>2007-08-03T13:52:23Z</time></trkpt>
<trkpt lat="46.25496126" lon="7.53615288"><ele>1274.845459</ele><time>2007-08-03T13:52:32Z</time></trkpt>
<trkpt lat="46.25499898" lon="7.53589254"><ele>1276.287598</ele><time>2007-08-03T13:52:40Z</time></trkpt>
<trkpt lat="46.25503133" lon="7.53577318"><ele>1277.729492</ele><time>2007-08-03T13:52:44Z</time></trkpt>
<trkpt lat="46.25507995" lon="7.53563496"><ele>1278.210205</ele><time>2007-08-03T13:52:49Z</time></trkpt>
<trkpt lat="46.25518179" lon="7.53538652"><ele>1280.132813</ele><time>2007-08-03T13:52:58Z</time></trkpt>
<trkpt lat="46.25523509" lon="7.53525543"><ele>1282.05542</ele><time>2007-08-03T13:53:03Z</time></trkpt>
<trkpt lat="46.25530014" lon="7.53509299"><ele>1283.497314</ele><time>2007-08-03T13:53:09Z</time></trkpt>
<trkpt lat="46.25542486" lon="7.53489325"><ele>1284.939453</ele><time>2007-08-03T13:53:18Z</time></trkpt>
<trkpt lat="46.25556014" lon="7.53474606"><ele>1287.342529</ele><time>2007-08-03T13:53:26Z</time></trkpt>
<trkpt lat="46.25569727" lon="7.53457054"><ele>1288.303955</ele><time>2007-08-03T13:53:35Z</time></trkpt>
<trkpt lat="46.25577405" lon="7.53433962"><ele>1289.265137</ele><time>2007-08-03T13:53:43Z</time></trkpt>
<trkpt lat="46.25581848" lon="7.53408213"><ele>1291.668457</ele><time>2007-08-03T13:53:51Z</time></trkpt>
<trkpt lat="46.25584253" lon="7.53381257"><ele>1293.110596</ele><time>2007-08-03T13:53:59Z</time></trkpt>
<trkpt lat="46.25586240" lon="7.53358006"><ele>1295.033203</ele><time>2007-08-03T13:54:06Z</time></trkpt>
<trkpt lat="46.25587245" lon="7.53344368"><ele>1296.955811</ele><time>2007-08-03T13:54:10Z</time></trkpt>
<trkpt lat="46.25589006" lon="7.53316046"><ele>1297.917236</ele><time>2007-08-03T13:54:18Z</time></trkpt>
<trkpt lat="46.25592560" lon="7.53268663"><ele>1300.801025</ele><time>2007-08-03T13:54:32Z</time></trkpt>
<trkpt lat="46.25594873" lon="7.53240097"><ele>1302.24292</ele><time>2007-08-03T13:54:41Z</time></trkpt>
<trkpt lat="46.25602484" lon="7.53207316"><ele>1304.64624</ele><time>2007-08-03T13:54:51Z</time></trkpt>
<trkpt lat="46.25614922" lon="7.53185959"><ele>1305.126953</ele><time>2007-08-03T13:54:59Z</time></trkpt>
<trkpt lat="46.25629993" lon="7.53164283"><ele>1307.530273</ele><time>2007-08-03T13:55:08Z</time></trkpt>
<trkpt lat="46.25640068" lon="7.53141643"><ele>1308.972412</ele><time>2007-08-03T13:55:16Z</time></trkpt>
<trkpt lat="46.25635517" lon="7.53127637"><ele>1308.972412</ele><time>2007-08-03T13:55:21Z</time></trkpt>
<trkpt lat="46.25632374" lon="7.53118417"><ele>1309.933594</ele><time>2007-08-03T13:55:24Z</time></trkpt>
<trkpt lat="46.25629088" lon="7.53091386"><ele>1313.29834</ele><time>2007-08-03T13:55:32Z</time></trkpt>
<trkpt lat="46.25624956" lon="7.53053332"><ele>1315.220947</ele><time>2007-08-03T13:55:43Z</time></trkpt>
<trkpt lat="46.25615434" lon="7.53017650"><ele>1315.70166</ele><time>2007-08-03T13:55:54Z</time></trkpt>
<trkpt lat="46.25604127" lon="7.52977165"><ele>1316.662842</ele><time>2007-08-03T13:56:06Z</time></trkpt>
<trkpt lat="46.25598209" lon="7.52956915"><ele>1317.143555</ele><time>2007-08-03T13:56:13Z</time></trkpt>
<trkpt lat="46.25597748" lon="7.52941685"><ele>1318.104736</ele><time>2007-08-03T13:56:19Z</time></trkpt>
<trkpt lat="46.25594756" lon="7.52938089"><ele>1318.585449</ele><time>2007-08-03T13:56:22Z</time></trkpt>
<trkpt lat="46.25573784" lon="7.52933437"><ele>1320.98877</ele><time>2007-08-03T13:56:33Z</time></trkpt>
<trkpt lat="46.25562418" lon="7.52934376"><ele>1321.469238</ele><time>2007-08-03T13:56:40Z</time></trkpt>
<trkpt lat="46.25559024" lon="7.52934619"><ele>1320.98877</ele><time>2007-08-03T13:56:42Z</time></trkpt>
<trkpt lat="46.25555553" lon="7.52936153"><ele>1322.430664</ele><time>2007-08-03T13:56:44Z</time></trkpt>
<trkpt lat="46.25542855" lon="7.52949849"><ele>1323.872559</ele><time>2007-08-03T13:56:53Z</time></trkpt>
<trkpt lat="46.25541857" lon="7.52951793"><ele>1323.872559</ele><time>2007-08-03T13:56:54Z</time></trkpt>
<trkpt lat="46.25537558" lon="7.52953889"><ele>1324.353516</ele><time>2007-08-03T13:59:20Z</time></trkpt>
<trkpt lat="46.25536753" lon="7.52958599"><ele>1324.353516</ele><time>2007-08-03T13:59:23Z</time></trkpt>
<trkpt lat="46.25533928" lon="7.52964844"><ele>1325.79541</ele><time>2007-08-03T13:59:26Z</time></trkpt>
<trkpt lat="46.25531883" lon="7.52968976"><ele>1326.276123</ele><time>2007-08-03T13:59:28Z</time></trkpt>
<trkpt lat="46.25521724" lon="7.52992622"><ele>1327.237549</ele><time>2007-08-03T13:59:39Z</time></trkpt>
<trkpt lat="46.25518564" lon="7.52998699"><ele>1328.679443</ele><time>2007-08-03T13:59:42Z</time></trkpt>
<trkpt lat="46.25510392" lon="7.53016569"><ele>1330.121338</ele><time>2007-08-03T13:59:51Z</time></trkpt>
<trkpt lat="46.25505815" lon="7.53023199"><ele>1331.082764</ele><time>2007-08-03T13:59:55Z</time></trkpt>
<trkpt lat="46.25496813" lon="7.53028907"><ele>1333.48584</ele><time>2007-08-03T14:00:01Z</time></trkpt>
<trkpt lat="46.25482555" lon="7.53025286"><ele>1335.408447</ele><time>2007-08-03T14:00:10Z</time></trkpt>
<trkpt lat="46.25470259" lon="7.53014934"><ele>1336.850342</ele><time>2007-08-03T14:00:19Z</time></trkpt>
<trkpt lat="46.25458826" lon="7.53003962"><ele>1338.29248</ele><time>2007-08-03T14:00:28Z</time></trkpt>
<trkpt lat="46.25443705" lon="7.52990124"><ele>1340.695801</ele><time>2007-08-03T14:00:39Z</time></trkpt>
<trkpt lat="46.25433354" lon="7.52979236"><ele>1342.137939</ele><time>2007-08-03T14:00:47Z</time></trkpt>
<trkpt lat="46.25423798" lon="7.52967627"><ele>1342.618652</ele><time>2007-08-03T14:00:55Z</time></trkpt>
<trkpt lat="46.25409960" lon="7.52951450"><ele>1345.983154</ele><time>2007-08-03T14:01:06Z</time></trkpt>
<trkpt lat="46.25401419" lon="7.52937544"><ele>1347.905762</ele><time>2007-08-03T14:01:14Z</time></trkpt>
<trkpt lat="46.25395912" lon="7.52917595"><ele>1349.828369</ele><time>2007-08-03T14:01:23Z</time></trkpt>
<trkpt lat="46.25393213" lon="7.52898443"><ele>1350.309082</ele><time>2007-08-03T14:01:32Z</time></trkpt>
<trkpt lat="46.25389718" lon="7.52879784"><ele>1352.231445</ele><time>2007-08-03T14:01:41Z</time></trkpt>
<trkpt lat="46.25384093" lon="7.52864487"><ele>1354.154297</ele><time>2007-08-03T14:01:49Z</time></trkpt>
<trkpt lat="46.25370875" lon="7.52856592"><ele>1355.596191</ele><time>2007-08-03T14:01:58Z</time></trkpt>
<trkpt lat="46.25353675" lon="7.52856265"><ele>1357.519043</ele><time>2007-08-03T14:02:08Z</time></trkpt>
<trkpt lat="46.25335646" lon="7.52853935"><ele>1359.922119</ele><time>2007-08-03T14:02:19Z</time></trkpt>
<trkpt lat="46.25332528" lon="7.52853742"><ele>1360.402832</ele><time>2007-08-03T14:02:21Z</time></trkpt>
<trkpt lat="46.25317725" lon="7.52848545"><ele>1362.806152</ele><time>2007-08-03T14:02:31Z</time></trkpt>
<trkpt lat="46.25309075" lon="7.52836576"><ele>1365.209473</ele><time>2007-08-03T14:02:38Z</time></trkpt>
<trkpt lat="46.25305689" lon="7.52827833"><ele>1365.209473</ele><time>2007-08-03T14:02:42Z</time></trkpt>
<trkpt lat="46.25305345" lon="7.52808253"><ele>1366.170654</ele><time>2007-08-03T14:02:50Z</time></trkpt>
<trkpt lat="46.25306737" lon="7.52789059"><ele>1367.13208</ele><time>2007-08-03T14:02:58Z</time></trkpt>
<trkpt lat="46.25300040" lon="7.52771574"><ele>1368.093262</ele><time>2007-08-03T14:03:07Z</time></trkpt>
<trkpt lat="46.25286193" lon="7.52761038"><ele>1370.015869</ele><time>2007-08-03T14:03:16Z</time></trkpt>
<trkpt lat="46.25270158" lon="7.52757015"><ele>1370.977295</ele><time>2007-08-03T14:03:25Z</time></trkpt>
<trkpt lat="46.25252933" lon="7.52754517"><ele>1372.900146</ele><time>2007-08-03T14:03:35Z</time></trkpt>
<trkpt lat="46.25237946" lon="7.52748608"><ele>1374.822754</ele><time>2007-08-03T14:03:45Z</time></trkpt>
<trkpt lat="46.25232507" lon="7.52737476"><ele>1375.783936</ele><time>2007-08-03T14:03:51Z</time></trkpt>
<trkpt lat="46.25232012" lon="7.52728944"><ele>1377.226074</ele><time>2007-08-03T14:03:55Z</time></trkpt>
<trkpt lat="46.25229732" lon="7.52709498"><ele>1379.148438</ele><time>2007-08-03T14:04:04Z</time></trkpt>
<trkpt lat="46.25226304" lon="7.52689700"><ele>1381.551758</ele><time>2007-08-03T14:04:13Z</time></trkpt>
<trkpt lat="46.25221987" lon="7.52665719"><ele>1382.993652</ele><time>2007-08-03T14:04:24Z</time></trkpt>
<trkpt lat="46.25218467" lon="7.52645804"><ele>1384.916504</ele><time>2007-08-03T14:04:33Z</time></trkpt>
<trkpt lat="46.25215768" lon="7.52625746"><ele>1386.358398</ele><time>2007-08-03T14:04:42Z</time></trkpt>
<trkpt lat="46.25210848" lon="7.52601623"><ele>1388.761963</ele><time>2007-08-03T14:04:53Z</time></trkpt>
<trkpt lat="46.25206456" lon="7.52575899"><ele>1390.203857</ele><time>2007-08-03T14:05:05Z</time></trkpt>
<trkpt lat="46.25203388" lon="7.52560518"><ele>1391.645752</ele><time>2007-08-03T14:05:13Z</time></trkpt>
<trkpt lat="46.25199272" lon="7.52548649"><ele>1393.568359</ele><time>2007-08-03T14:05:19Z</time></trkpt>
<trkpt lat="46.25196657" lon="7.52534794"><ele>1394.529541</ele><time>2007-08-03T14:05:26Z</time></trkpt>
<trkpt lat="46.25194478" lon="7.52519798"><ele>1396.932861</ele><time>2007-08-03T14:05:33Z</time></trkpt>
<trkpt lat="46.25194008" lon="7.52502683"><ele>1398.374756</ele><time>2007-08-03T14:05:41Z</time></trkpt>
<trkpt lat="46.25193598" lon="7.52483480"><ele>1400.778076</ele><time>2007-08-03T14:05:50Z</time></trkpt>
<trkpt lat="46.25190547" lon="7.52461326"><ele>1402.219971</ele><time>2007-08-03T14:06:00Z</time></trkpt>
<trkpt lat="46.25186649" lon="7.52451964"><ele>1403.662109</ele><time>2007-08-03T14:06:05Z</time></trkpt>
<trkpt lat="46.25178225" lon="7.52436809"><ele>1405.584961</ele><time>2007-08-03T14:06:15Z</time></trkpt>
<trkpt lat="46.25170950" lon="7.52421537"><ele>1407.988281</ele><time>2007-08-03T14:06:24Z</time></trkpt>
<trkpt lat="46.25166918" lon="7.52409099"><ele>1409.910645</ele><time>2007-08-03T14:06:30Z</time></trkpt>
<trkpt lat="46.25160514" lon="7.52396559"><ele>1411.352783</ele><time>2007-08-03T14:06:38Z</time></trkpt>
<trkpt lat="46.25153524" lon="7.52381749"><ele>1412.794678</ele><time>2007-08-03T14:06:47Z</time></trkpt>
<trkpt lat="46.25151638" lon="7.52376200"><ele>1413.275391</ele><time>2007-08-03T14:06:50Z</time></trkpt>
<trkpt lat="46.25145368" lon="7.52362730"><ele>1415.197998</ele><time>2007-08-03T14:06:58Z</time></trkpt>
<trkpt lat="46.25144547" lon="7.52360903"><ele>1415.678711</ele><time>2007-08-03T14:06:59Z</time></trkpt>
<trkpt lat="46.25137447" lon="7.52347022"><ele>1416.15918</ele><time>2007-08-03T14:07:07Z</time></trkpt>
<trkpt lat="46.25130205" lon="7.52332547"><ele>1418.5625</ele><time>2007-08-03T14:07:15Z</time></trkpt>
<trkpt lat="46.25127565" lon="7.52319178"><ele>1420.485352</ele><time>2007-08-03T14:07:22Z</time></trkpt>
<trkpt lat="46.25123148" lon="7.52303009"><ele>1421.927246</ele><time>2007-08-03T14:07:31Z</time></trkpt>
<trkpt lat="46.25113433" lon="7.52295088"><ele>1422.888672</ele><time>2007-08-03T14:07:39Z</time></trkpt>
<trkpt lat="46.25107080" lon="7.52290553"><ele>1424.811279</ele><time>2007-08-03T14:07:44Z</time></trkpt>
<trkpt lat="46.25098337" lon="7.52283898"><ele>1426.253174</ele><time>2007-08-03T14:07:52Z</time></trkpt>
<trkpt lat="46.25083535" lon="7.52273723"><ele>1428.656494</ele><time>2007-08-03T14:08:04Z</time></trkpt>
<trkpt lat="46.25074566" lon="7.52266078"><ele>1429.617676</ele><time>2007-08-03T14:08:12Z</time></trkpt>
<trkpt lat="46.25070216" lon="7.52262935"><ele>1430.579102</ele><time>2007-08-03T14:08:17Z</time></trkpt>
<trkpt lat="46.25061315" lon="7.52257805"><ele>1433.943604</ele><time>2007-08-03T14:08:26Z</time></trkpt>
<trkpt lat="46.25060082" lon="7.52257235"><ele>1433.462891</ele><time>2007-08-03T14:08:27Z</time></trkpt>
<trkpt lat="46.25053964" lon="7.52257386"><ele>1435.385498</ele><time>2007-08-03T14:08:32Z</time></trkpt>
<trkpt lat="46.25051533" lon="7.52256506"><ele>1435.866211</ele><time>2007-08-03T14:08:34Z</time></trkpt>
<trkpt lat="46.25045230" lon="7.52255945"><ele>1436.347168</ele><time>2007-08-03T14:08:39Z</time></trkpt>
<trkpt lat="46.25036546" lon="7.52254176"><ele>1437.30835</ele><time>2007-08-03T14:08:45Z</time></trkpt>
<trkpt lat="46.25033177" lon="7.52252533"><ele>1437.789063</ele><time>2007-08-03T14:08:48Z</time></trkpt>
<trkpt lat="46.25024023" lon="7.52250035"><ele>1439.71167</ele><time>2007-08-03T14:08:56Z</time></trkpt>
<trkpt lat="46.25020143" lon="7.52248384"><ele>1440.192383</ele><time>2007-08-03T14:09:00Z</time></trkpt>
<trkpt lat="46.25016622" lon="7.52247487"><ele>1440.672852</ele><time>2007-08-03T14:09:03Z</time></trkpt>
<trkpt lat="46.25007126" lon="7.52246096"><ele>1442.595703</ele><time>2007-08-03T14:09:11Z</time></trkpt>
<trkpt lat="46.24994243" lon="7.52245207"><ele>1444.037598</ele><time>2007-08-03T14:09:21Z</time></trkpt>
<trkpt lat="46.24978778" lon="7.52245115"><ele>1446.440918</ele><time>2007-08-03T14:09:31Z</time></trkpt>
<trkpt lat="46.24963858" lon="7.52244956"><ele>1448.363281</ele><time>2007-08-03T14:09:41Z</time></trkpt>
<trkpt lat="46.24951495" lon="7.52245476"><ele>1449.80542</ele><time>2007-08-03T14:09:50Z</time></trkpt>
<trkpt lat="46.24941822" lon="7.52248694"><ele>1450.766602</ele><time>2007-08-03T14:09:57Z</time></trkpt>
<trkpt lat="46.24935192" lon="7.52251234"><ele>1451.728027</ele><time>2007-08-03T14:10:02Z</time></trkpt>
<trkpt lat="46.24926332" lon="7.52253522"><ele>1453.170166</ele><time>2007-08-03T14:10:09Z</time></trkpt>
<trkpt lat="46.24915805" lon="7.52256523"><ele>1454.612061</ele><time>2007-08-03T14:10:17Z</time></trkpt>
<trkpt lat="46.24903978" lon="7.52255006"><ele>1456.053955</ele><time>2007-08-03T14:10:25Z</time></trkpt>
<trkpt lat="46.24893366" lon="7.52244746"><ele>1459.418701</ele><time>2007-08-03T14:10:38Z</time></trkpt>
<trkpt lat="46.24888538" lon="7.52237286"><ele>1460.379883</ele><time>2007-08-03T14:10:45Z</time></trkpt>
<trkpt lat="46.24881078" lon="7.52233355"><ele>1461.341309</ele><time>2007-08-03T14:10:50Z</time></trkpt>
<trkpt lat="46.24874172" lon="7.52229215"><ele>1462.783203</ele><time>2007-08-03T14:10:55Z</time></trkpt>
<trkpt lat="46.24858397" lon="7.52219886"><ele>1464.705811</ele><time>2007-08-03T14:11:09Z</time></trkpt>
<trkpt lat="46.24850426" lon="7.52216717"><ele>1466.147705</ele><time>2007-08-03T14:11:15Z</time></trkpt>
<trkpt lat="46.24844332" lon="7.52215385"><ele>1467.109131</ele><time>2007-08-03T14:11:20Z</time></trkpt>
<trkpt lat="46.24834567" lon="7.52210825"><ele>1469.512695</ele><time>2007-08-03T14:11:27Z</time></trkpt>
<trkpt lat="46.24827518" lon="7.52207573"><ele>1469.993164</ele><time>2007-08-03T14:11:32Z</time></trkpt>
<trkpt lat="46.24824006" lon="7.52208134"><ele>1469.993164</ele><time>2007-08-03T14:11:35Z</time></trkpt>
<trkpt lat="46.24821223" lon="7.52208436"><ele>1471.435059</ele><time>2007-08-03T14:11:37Z</time></trkpt>
<trkpt lat="46.24811626" lon="7.52210238"><ele>1472.396484</ele><time>2007-08-03T14:11:44Z</time></trkpt>
<trkpt lat="46.24808952" lon="7.52210707"><ele>1473.35791</ele><time>2007-08-03T14:11:46Z</time></trkpt>
<trkpt lat="46.24806463" lon="7.52210422"><ele>1473.838379</ele><time>2007-08-03T14:11:48Z</time></trkpt>
<trkpt lat="46.24801777" lon="7.52207422"><ele>1475.280273</ele><time>2007-08-03T14:11:51Z</time></trkpt>
<trkpt lat="46.24792096" lon="7.52200616"><ele>1476.241699</ele><time>2007-08-03T14:11:58Z</time></trkpt>
<trkpt lat="46.24776992" lon="7.52194673"><ele>1478.164307</ele><time>2007-08-03T14:12:08Z</time></trkpt>
<trkpt lat="46.24775592" lon="7.52195318"><ele>1478.164307</ele><time>2007-08-03T14:12:09Z</time></trkpt>
<trkpt lat="46.24774947" lon="7.52201663"><ele>1478.64502</ele><time>2007-08-03T14:12:14Z</time></trkpt>
<trkpt lat="46.24776992" lon="7.52204094"><ele>1479.125488</ele><time>2007-08-03T14:12:16Z</time></trkpt>
<trkpt lat="46.24787520" lon="7.52212099"><ele>1480.086914</ele><time>2007-08-03T14:12:23Z</time></trkpt>
<trkpt lat="46.24801585" lon="7.52222409"><ele>1481.04834</ele><time>2007-08-03T14:12:31Z</time></trkpt>
<trkpt lat="46.24811039" lon="7.52229977"><ele>1482.490234</ele><time>2007-08-03T14:12:37Z</time></trkpt>
<trkpt lat="46.24819354" lon="7.52237337"><ele>1483.451416</ele><time>2007-08-03T14:12:42Z</time></trkpt>
<trkpt lat="46.24822447" lon="7.52241083"><ele>1484.413086</ele><time>2007-08-03T14:12:44Z</time></trkpt>
<trkpt lat="46.24829614" lon="7.52259817"><ele>1484.893799</ele><time>2007-08-03T14:12:52Z</time></trkpt>
<trkpt lat="46.24833084" lon="7.52274167"><ele>1485.374268</ele><time>2007-08-03T14:12:58Z</time></trkpt>
<trkpt lat="46.24831550" lon="7.52290604"><ele>1487.777588</ele><time>2007-08-03T14:13:04Z</time></trkpt>
<trkpt lat="46.24829572" lon="7.52301592"><ele>1487.777588</ele><time>2007-08-03T14:13:08Z</time></trkpt>
<trkpt lat="46.24831416" lon="7.52312506"><ele>1488.258301</ele><time>2007-08-03T14:13:13Z</time></trkpt>
<trkpt lat="46.24843678" lon="7.52323109"><ele>1489.219482</ele><time>2007-08-03T14:13:20Z</time></trkpt>
<trkpt lat="46.24852572" lon="7.52329915"><ele>1490.661377</ele><time>2007-08-03T14:13:25Z</time></trkpt>
<trkpt lat="46.24859512" lon="7.52333670"><ele>1491.14209</ele><time>2007-08-03T14:13:30Z</time></trkpt>
<trkpt lat="46.24872965" lon="7.52339219"><ele>1492.584229</ele><time>2007-08-03T14:13:38Z</time></trkpt>
<trkpt lat="46.24885546" lon="7.52339277"><ele>1493.54541</ele><time>2007-08-03T14:13:43Z</time></trkpt>
<trkpt lat="46.24898748" lon="7.52344868"><ele>1494.506592</ele><time>2007-08-03T14:13:49Z</time></trkpt>
<trkpt lat="46.24905679" lon="7.52351859"><ele>1494.987305</ele><time>2007-08-03T14:13:52Z</time></trkpt>
<trkpt lat="46.24917850" lon="7.52375345"><ele>1495.468018</ele><time>2007-08-03T14:13:59Z</time></trkpt>
<trkpt lat="46.24930959" lon="7.52404975"><ele>1495.468018</ele><time>2007-08-03T14:14:07Z</time></trkpt>
<trkpt lat="46.24934957" lon="7.52431252"><ele>1495.94873</ele><time>2007-08-03T14:14:13Z</time></trkpt>
<trkpt lat="46.24933792" lon="7.52459516"><ele>1496.909912</ele><time>2007-08-03T14:14:20Z</time></trkpt>
<trkpt lat="46.24930624" lon="7.52486363"><ele>1498.351807</ele><time>2007-08-03T14:14:27Z</time></trkpt>
<trkpt lat="46.24925938" lon="7.52511065"><ele>1498.83252</ele><time>2007-08-03T14:14:33Z</time></trkpt>
<trkpt lat="46.24925419" lon="7.52529086"><ele>1499.313232</ele><time>2007-08-03T14:14:38Z</time></trkpt>
<trkpt lat="46.24922150" lon="7.52557525"><ele>1499.313232</ele><time>2007-08-03T14:14:45Z</time></trkpt>
<trkpt lat="46.24921446" lon="7.52581246"><ele>1500.274902</ele><time>2007-08-03T14:14:51Z</time></trkpt>
<trkpt lat="46.24920876" lon="7.52599938"><ele>1500.755371</ele><time>2007-08-03T14:14:56Z</time></trkpt>
<trkpt lat="46.24920859" lon="7.52621328"><ele>1501.716797</ele><time>2007-08-03T14:15:02Z</time></trkpt>
<trkpt lat="46.24920364" lon="7.52636106"><ele>1503.158691</ele><time>2007-08-03T14:15:06Z</time></trkpt>
<trkpt lat="46.24919987" lon="7.52665183"><ele>1504.120117</ele><time>2007-08-03T14:15:14Z</time></trkpt>
<trkpt lat="46.24919225" lon="7.52683187"><ele>1504.600586</ele><time>2007-08-03T14:15:19Z</time></trkpt>
<trkpt lat="46.24924337" lon="7.52707897"><ele>1506.04248</ele><time>2007-08-03T14:15:26Z</time></trkpt>
<trkpt lat="46.24924379" lon="7.52728189"><ele>1506.523193</ele><time>2007-08-03T14:15:32Z</time></trkpt>
<trkpt lat="46.24925142" lon="7.52754299"><ele>1507.484619</ele><time>2007-08-03T14:15:40Z</time></trkpt>
<trkpt lat="46.24926047" lon="7.52773049"><ele>1508.445801</ele><time>2007-08-03T14:15:46Z</time></trkpt>
<trkpt lat="46.24923206" lon="7.52792956"><ele>1509.407227</ele><time>2007-08-03T14:15:52Z</time></trkpt>
<trkpt lat="46.24914765" lon="7.52821807"><ele>1510.368408</ele><time>2007-08-03T14:16:00Z</time></trkpt>
<trkpt lat="46.24911069" lon="7.52840532"><ele>1510.368408</ele><time>2007-08-03T14:16:05Z</time></trkpt>
<trkpt lat="46.24908295" lon="7.52858302"><ele>1510.849121</ele><time>2007-08-03T14:16:10Z</time></trkpt>
<trkpt lat="46.24905713" lon="7.52882894"><ele>1511.810547</ele><time>2007-08-03T14:16:16Z</time></trkpt>
<trkpt lat="46.24905034" lon="7.52889742"><ele>1511.810547</ele><time>2007-08-03T14:16:18Z</time></trkpt>
<trkpt lat="46.24907180" lon="7.52903178"><ele>1512.771729</ele><time>2007-08-03T14:16:22Z</time></trkpt>
<trkpt lat="46.24908035" lon="7.52924955"><ele>1514.213623</ele><time>2007-08-03T14:16:28Z</time></trkpt>
<trkpt lat="46.24908244" lon="7.52928919"><ele>1513.73291</ele><time>2007-08-03T14:16:29Z</time></trkpt>
<trkpt lat="46.24907004" lon="7.52938877"><ele>1514.694336</ele><time>2007-08-03T14:16:32Z</time></trkpt>
<trkpt lat="46.24906350" lon="7.52947276"><ele>1515.175049</ele><time>2007-08-03T14:16:36Z</time></trkpt>
<trkpt lat="46.24904858" lon="7.52955599"><ele>1516.136475</ele><time>2007-08-03T14:16:38Z</time></trkpt>
<trkpt lat="46.24904397" lon="7.52968909"><ele>1516.136475</ele><time>2007-08-03T14:16:42Z</time></trkpt>
<trkpt lat="46.24901715" lon="7.52996704"><ele>1517.578369</ele><time>2007-08-03T14:16:50Z</time></trkpt>
<trkpt lat="46.24903969" lon="7.53018714"><ele>1519.020508</ele><time>2007-08-03T14:16:57Z</time></trkpt>
<trkpt lat="46.24903106" lon="7.53041337"><ele>1520.462402</ele><time>2007-08-03T14:17:04Z</time></trkpt>
<trkpt lat="46.24901773" lon="7.53062032"><ele>1520.943115</ele><time>2007-08-03T14:17:10Z</time></trkpt>
<trkpt lat="46.24897105" lon="7.53086683"><ele>1521.904297</ele><time>2007-08-03T14:17:17Z</time></trkpt>
<trkpt lat="46.24888656" lon="7.53112969"><ele>1522.38501</ele><time>2007-08-03T14:17:24Z</time></trkpt>
<trkpt lat="46.24882512" lon="7.53136623"><ele>1522.865723</ele><time>2007-08-03T14:17:30Z</time></trkpt>
<trkpt lat="46.24878170" lon="7.53160377"><ele>1523.826904</ele><time>2007-08-03T14:17:36Z</time></trkpt>
<trkpt lat="46.24875530" lon="7.53185129"><ele>1524.78833</ele><time>2007-08-03T14:17:43Z</time></trkpt>
<trkpt lat="46.24869076" lon="7.53210559"><ele>1526.710938</ele><time>2007-08-03T14:17:52Z</time></trkpt>
<trkpt lat="46.24865874" lon="7.53230995"><ele>1527.672119</ele><time>2007-08-03T14:17:58Z</time></trkpt>
<trkpt lat="46.24858967" lon="7.53254816"><ele>1528.633545</ele><time>2007-08-03T14:18:04Z</time></trkpt>
<trkpt lat="46.24856385" lon="7.53277472"><ele>1529.114014</ele><time>2007-08-03T14:18:11Z</time></trkpt>
<trkpt lat="46.24856997" lon="7.53292149"><ele>1529.114014</ele><time>2007-08-03T14:18:16Z</time></trkpt>
<trkpt lat="46.24855782" lon="7.53310975"><ele>1530.556152</ele><time>2007-08-03T14:18:22Z</time></trkpt>
<trkpt lat="46.24852739" lon="7.53330027"><ele>1531.036865</ele><time>2007-08-03T14:18:27Z</time></trkpt>
<trkpt lat="46.24850200" lon="7.53346799"><ele>1531.998047</ele><time>2007-08-03T14:18:32Z</time></trkpt>
<trkpt lat="46.24846394" lon="7.53366664"><ele>1533.920898</ele><time>2007-08-03T14:18:37Z</time></trkpt>
<trkpt lat="46.24838859" lon="7.53392539"><ele>1534.401611</ele><time>2007-08-03T14:18:45Z</time></trkpt>
<trkpt lat="46.24839965" lon="7.53419277"><ele>1534.882324</ele><time>2007-08-03T14:18:52Z</time></trkpt>
<trkpt lat="46.24838725" lon="7.53449117"><ele>1535.362793</ele><time>2007-08-03T14:18:59Z</time></trkpt>
<trkpt lat="46.24834509" lon="7.53475059"><ele>1536.324219</ele><time>2007-08-03T14:19:05Z</time></trkpt>
<trkpt lat="46.24827644" lon="7.53510213"><ele>1536.804688</ele><time>2007-08-03T14:19:14Z</time></trkpt>
<trkpt lat="46.24824316" lon="7.53530178"><ele>1537.2854</ele><time>2007-08-03T14:19:20Z</time></trkpt>
<trkpt lat="46.24818927" lon="7.53545844"><ele>1538.246826</ele><time>2007-08-03T14:19:25Z</time></trkpt>
<trkpt lat="46.24804744" lon="7.53568945"><ele>1539.688721</ele><time>2007-08-03T14:19:33Z</time></trkpt>
<trkpt lat="46.24801853" lon="7.53584669"><ele>1540.169434</ele><time>2007-08-03T14:19:38Z</time></trkpt>
<trkpt lat="46.24807628" lon="7.53606034"><ele>1541.611328</ele><time>2007-08-03T14:19:45Z</time></trkpt>
<trkpt lat="46.24808449" lon="7.53608909"><ele>1542.092041</ele><time>2007-08-03T14:19:46Z</time></trkpt>
<trkpt lat="46.24811375" lon="7.53620275"><ele>1542.572754</ele><time>2007-08-03T14:19:50Z</time></trkpt>
<trkpt lat="46.24806647" lon="7.53643443"><ele>1544.495117</ele><time>2007-08-03T14:19:57Z</time></trkpt>
<trkpt lat="46.24796648" lon="7.53657424"><ele>1544.97583</ele><time>2007-08-03T14:20:02Z</time></trkpt>
<trkpt lat="46.24782373" lon="7.53662218"><ele>1546.417969</ele><time>2007-08-03T14:20:08Z</time></trkpt>
<trkpt lat="46.24761318" lon="7.53669930"><ele>1548.340576</ele><time>2007-08-03T14:20:17Z</time></trkpt>
<trkpt lat="46.24754118" lon="7.53675554"><ele>1548.821289</ele><time>2007-08-03T14:20:23Z</time></trkpt>
<trkpt lat="46.24738108" lon="7.53694405"><ele>1550.263428</ele><time>2007-08-03T14:20:30Z</time></trkpt>
<trkpt lat="46.24716936" lon="7.53718846"><ele>1551.224609</ele><time>2007-08-03T14:20:39Z</time></trkpt>
<trkpt lat="46.24696492" lon="7.53740363"><ele>1552.666504</ele><time>2007-08-03T14:20:48Z</time></trkpt>
<trkpt lat="46.24678136" lon="7.53758912"><ele>1552.666504</ele><time>2007-08-03T14:20:56Z</time></trkpt>
<trkpt lat="46.24667834" lon="7.53757454"><ele>1553.62793</ele><time>2007-08-03T14:21:01Z</time></trkpt>
<trkpt lat="46.24655463" lon="7.53750999"><ele>1554.589111</ele><time>2007-08-03T14:21:07Z</time></trkpt>
<trkpt lat="46.24633804" lon="7.53762114"><ele>1556.031006</ele><time>2007-08-03T14:21:14Z</time></trkpt>
<trkpt lat="46.24617183" lon="7.53773899"><ele>1556.511719</ele><time>2007-08-03T14:21:20Z</time></trkpt>
<trkpt lat="46.24593370" lon="7.53787922"><ele>1557.953857</ele><time>2007-08-03T14:21:30Z</time></trkpt>
<trkpt lat="46.24575223" lon="7.53804945"><ele>1559.395752</ele><time>2007-08-03T14:21:37Z</time></trkpt>
<trkpt lat="46.24558325" lon="7.53822036"><ele>1559.876221</ele><time>2007-08-03T14:21:45Z</time></trkpt>
<trkpt lat="46.24549155" lon="7.53836252"><ele>1560.356934</ele><time>2007-08-03T14:21:50Z</time></trkpt>
<trkpt lat="46.24537865" lon="7.53847249"><ele>1561.799072</ele><time>2007-08-03T14:21:56Z</time></trkpt>
<trkpt lat="46.24531126" lon="7.53858229"><ele>1561.799072</ele><time>2007-08-03T14:22:01Z</time></trkpt>
<trkpt lat="46.24517874" lon="7.53872529"><ele>1563.240967</ele><time>2007-08-03T14:22:07Z</time></trkpt>
<trkpt lat="46.24493290" lon="7.53884624"><ele>1564.683105</ele><time>2007-08-03T14:22:15Z</time></trkpt>
<trkpt lat="46.24474129" lon="7.53898135"><ele>1564.202393</ele><time>2007-08-03T14:22:22Z</time></trkpt>
<trkpt lat="46.24459402" lon="7.53901396"><ele>1565.644531</ele><time>2007-08-03T14:22:27Z</time></trkpt>
<trkpt lat="46.24446829" lon="7.53901036"><ele>1566.605713</ele><time>2007-08-03T14:22:32Z</time></trkpt>
<trkpt lat="46.24431347" lon="7.53896685"><ele>1567.086426</ele><time>2007-08-03T14:22:38Z</time></trkpt>
<trkpt lat="46.24412069" lon="7.53895193"><ele>1567.086426</ele><time>2007-08-03T14:22:44Z</time></trkpt>
<trkpt lat="46.24396336" lon="7.53889007"><ele>1567.566895</ele><time>2007-08-03T14:22:49Z</time></trkpt>
<trkpt lat="46.24378919" lon="7.53880575"><ele>1569.009033</ele><time>2007-08-03T14:22:55Z</time></trkpt>
<trkpt lat="46.24366312" lon="7.53869729"><ele>1569.489746</ele><time>2007-08-03T14:23:00Z</time></trkpt>
<trkpt lat="46.24353605" lon="7.53865647"><ele>1570.450928</ele><time>2007-08-03T14:23:04Z</time></trkpt>
<trkpt lat="46.24339448" lon="7.53858975"><ele>1570.450928</ele><time>2007-08-03T14:23:08Z</time></trkpt>
<trkpt lat="46.24332156" lon="7.53850509"><ele>1570.931641</ele><time>2007-08-03T14:23:10Z</time></trkpt>
<trkpt lat="46.24311419" lon="7.53835070"><ele>1571.412109</ele><time>2007-08-03T14:23:15Z</time></trkpt>
<trkpt lat="46.24290456" lon="7.53820309"><ele>1570.931641</ele><time>2007-08-03T14:23:21Z</time></trkpt>
<trkpt lat="46.24274715" lon="7.53818993"><ele>1571.412109</ele><time>2007-08-03T14:23:26Z</time></trkpt>
<trkpt lat="46.24266660" lon="7.53816613"><ele>1571.412109</ele><time>2007-08-03T14:23:29Z</time></trkpt>
<trkpt lat="46.24247189" lon="7.53813067"><ele>1570.931641</ele><time>2007-08-03T14:23:35Z</time></trkpt>
<trkpt lat="46.24235932" lon="7.53804568"><ele>1571.412109</ele><time>2007-08-03T14:23:39Z</time></trkpt>
<trkpt lat="46.24221624" lon="7.53787687"><ele>1571.412109</ele><time>2007-08-03T14:23:44Z</time></trkpt>
<trkpt lat="46.24202597" lon="7.53776204"><ele>1571.412109</ele><time>2007-08-03T14:23:49Z</time></trkpt>
<trkpt lat="46.24198750" lon="7.53773052"><ele>1571.412109</ele><time>2007-08-03T14:23:51Z</time></trkpt>
<trkpt lat="46.24182916" lon="7.53778886"><ele>1572.373535</ele><time>2007-08-03T14:23:55Z</time></trkpt>
<trkpt lat="46.24181743" lon="7.53780940"><ele>1572.373535</ele><time>2007-08-03T14:23:56Z</time></trkpt>
<trkpt lat="46.24170008" lon="7.53807108"><ele>1572.373535</ele><time>2007-08-03T14:24:02Z</time></trkpt>
<trkpt lat="46.24153672" lon="7.53818038"><ele>1572.854248</ele><time>2007-08-03T14:24:06Z</time></trkpt>
<trkpt lat="46.24136422" lon="7.53826043"><ele>1572.373535</ele><time>2007-08-03T14:24:11Z</time></trkpt>
<trkpt lat="46.24124838" lon="7.53833402"><ele>1572.373535</ele><time>2007-08-03T14:24:14Z</time></trkpt>
<trkpt lat="46.24100857" lon="7.53846528"><ele>1573.81543</ele><time>2007-08-03T14:24:21Z</time></trkpt>
<trkpt lat="46.24098184" lon="7.53840820"><ele>1573.81543</ele><time>2007-08-03T14:24:23Z</time></trkpt>
<trkpt lat="46.24088419" lon="7.53832002"><ele>1573.81543</ele><time>2007-08-03T14:24:27Z</time></trkpt>
<trkpt lat="46.24068847" lon="7.53816152"><ele>1572.854248</ele><time>2007-08-03T14:24:33Z</time></trkpt>
<trkpt lat="46.24048814" lon="7.53818985"><ele>1572.373535</ele><time>2007-08-03T14:24:37Z</time></trkpt>
<trkpt lat="46.24040323" lon="7.53816806"><ele>1572.854248</ele><time>2007-08-03T14:24:39Z</time></trkpt>
<trkpt lat="46.24029729" lon="7.53816839"><ele>1572.854248</ele><time>2007-08-03T14:24:41Z</time></trkpt>
<trkpt lat="46.23994994" lon="7.53825808"><ele>1573.81543</ele><time>2007-08-03T14:24:48Z</time></trkpt>
<trkpt lat="46.23971047" lon="7.53831508"><ele>1574.296143</ele><time>2007-08-03T14:24:54Z</time></trkpt>
<trkpt lat="46.23966848" lon="7.53839504"><ele>1574.296143</ele><time>2007-08-03T14:24:58Z</time></trkpt>
<trkpt lat="46.23947762" lon="7.53882947"><ele>1575.257324</ele><time>2007-08-03T14:25:15Z</time></trkpt>
<trkpt lat="46.23924645" lon="7.53920163"><ele>1575.738037</ele><time>2007-08-03T14:25:19Z</time></trkpt>
<trkpt lat="46.23878360" lon="7.53994980"><ele>1577.180176</ele><time>2007-08-03T14:25:29Z</time></trkpt>
<trkpt lat="46.23863339" lon="7.54010637"><ele>1578.141357</ele><time>2007-08-03T14:25:32Z</time></trkpt>
<trkpt lat="46.23844103" lon="7.54042329"><ele>1578.62207</ele><time>2007-08-03T14:25:37Z</time></trkpt>
<trkpt lat="46.23814842" lon="7.54100248"><ele>1580.064209</ele><time>2007-08-03T14:25:44Z</time></trkpt>
<trkpt lat="46.23816124" lon="7.54104473"><ele>1579.583252</ele><time>2007-08-03T14:25:45Z</time></trkpt>
<trkpt lat="46.23831689" lon="7.54120532"><ele>1580.064209</ele><time>2007-08-03T14:25:51Z</time></trkpt>
<trkpt lat="46.23861026" lon="7.54122779"><ele>1580.544922</ele><time>2007-08-03T14:25:55Z</time></trkpt>
<trkpt lat="46.23867866" lon="7.54128629"><ele>1580.064209</ele><time>2007-08-03T14:25:57Z</time></trkpt>
<trkpt lat="46.23874152" lon="7.54162249"><ele>1580.544922</ele><time>2007-08-03T14:26:03Z</time></trkpt>
<trkpt lat="46.23868746" lon="7.54178812"><ele>1581.506104</ele><time>2007-08-03T14:26:07Z</time></trkpt>
<trkpt lat="46.23859727" lon="7.54188577"><ele>1581.986816</ele><time>2007-08-03T14:26:11Z</time></trkpt>
<trkpt lat="46.23847296" lon="7.54211828"><ele>1583.428711</ele><time>2007-08-03T14:26:17Z</time></trkpt>
<trkpt lat="46.23842360" lon="7.54236194"><ele>1585.351318</ele><time>2007-08-03T14:26:23Z</time></trkpt>
<trkpt lat="46.23849082" lon="7.54259052"><ele>1585.832031</ele><time>2007-08-03T14:26:29Z</time></trkpt>
<trkpt lat="46.23854924" lon="7.54286528"><ele>1586.793213</ele><time>2007-08-03T14:26:36Z</time></trkpt>
<trkpt lat="46.23864932" lon="7.54320977"><ele>1589.196533</ele><time>2007-08-03T14:26:45Z</time></trkpt>
<trkpt lat="46.23867329" lon="7.54345964"><ele>1589.196533</ele><time>2007-08-03T14:26:52Z</time></trkpt>
<trkpt lat="46.23871596" lon="7.54366633"><ele>1590.157959</ele><time>2007-08-03T14:26:58Z</time></trkpt>
<trkpt lat="46.23876725" lon="7.54391997"><ele>1591.119141</ele><time>2007-08-03T14:27:05Z</time></trkpt>
<trkpt lat="46.23881143" lon="7.54420680"><ele>1591.599854</ele><time>2007-08-03T14:27:13Z</time></trkpt>
<trkpt lat="46.23885769" lon="7.54453386"><ele>1593.522461</ele><time>2007-08-03T14:27:22Z</time></trkpt>
<trkpt lat="46.23893355" lon="7.54490417"><ele>1596.406738</ele><time>2007-08-03T14:27:32Z</time></trkpt>
<trkpt lat="46.23900614" lon="7.54520508"><ele>1597.36792</ele><time>2007-08-03T14:27:40Z</time></trkpt>
<trkpt lat="46.23916129" lon="7.54548613"><ele>1598.329102</ele><time>2007-08-03T14:27:49Z</time></trkpt>
<trkpt lat="46.23933739" lon="7.54558990"><ele>1598.809814</ele><time>2007-08-03T14:27:56Z</time></trkpt>
<trkpt lat="46.23950075" lon="7.54555243"><ele>1599.290527</ele><time>2007-08-03T14:28:01Z</time></trkpt>
<trkpt lat="46.23968205" lon="7.54562058"><ele>1600.732422</ele><time>2007-08-03T14:28:08Z</time></trkpt>
<trkpt lat="46.23987006" lon="7.54581202"><ele>1602.655029</ele><time>2007-08-03T14:28:17Z</time></trkpt>
<trkpt lat="46.24000836" lon="7.54592517"><ele>1604.097168</ele><time>2007-08-03T14:28:23Z</time></trkpt>
<trkpt lat="46.24020215" lon="7.54598829"><ele>1605.05835</ele><time>2007-08-03T14:28:30Z</time></trkpt>
<trkpt lat="46.24046316" lon="7.54606406"><ele>1606.019531</ele><time>2007-08-03T14:28:38Z</time></trkpt>
<trkpt lat="46.24066249" lon="7.54608166"><ele>1606.500244</ele><time>2007-08-03T14:28:44Z</time></trkpt>
<trkpt lat="46.24081847" lon="7.54607286"><ele>1607.46167</ele><time>2007-08-03T14:28:50Z</time></trkpt>
<trkpt lat="46.24094755" lon="7.54617353"><ele>1607.46167</ele><time>2007-08-03T14:28:56Z</time></trkpt>
<trkpt lat="46.24104445" lon="7.54626414"><ele>1607.942383</ele><time>2007-08-03T14:29:00Z</time></trkpt>
<trkpt lat="46.24114084" lon="7.54643613"><ele>1607.942383</ele><time>2007-08-03T14:29:05Z</time></trkpt>
<trkpt lat="46.24126179" lon="7.54661266"><ele>1608.903564</ele><time>2007-08-03T14:29:11Z</time></trkpt>
<trkpt lat="46.24131552" lon="7.54670285"><ele>1610.345459</ele><time>2007-08-03T14:29:14Z</time></trkpt>
<trkpt lat="46.24139565" lon="7.54685305"><ele>1612.268311</ele><time>2007-08-03T14:29:20Z</time></trkpt>
<trkpt lat="46.24144720" lon="7.54701080"><ele>1612.268311</ele><time>2007-08-03T14:29:25Z</time></trkpt>
<trkpt lat="46.24150202" lon="7.54727458"><ele>1613.710205</ele><time>2007-08-03T14:29:32Z</time></trkpt>
<trkpt lat="46.24154233" lon="7.54755076"><ele>1615.633057</ele><time>2007-08-03T14:29:39Z</time></trkpt>
<trkpt lat="46.24162003" lon="7.54785930"><ele>1617.074951</ele><time>2007-08-03T14:29:47Z</time></trkpt>
<trkpt lat="46.24168047" lon="7.54808812"><ele>1618.036133</ele><time>2007-08-03T14:29:53Z</time></trkpt>
<trkpt lat="46.24174719" lon="7.54826247"><ele>1618.997559</ele><time>2007-08-03T14:29:58Z</time></trkpt>
<trkpt lat="46.24182715" lon="7.54854385"><ele>1618.997559</ele><time>2007-08-03T14:30:06Z</time></trkpt>
<trkpt lat="46.24179748" lon="7.54874057"><ele>1618.516846</ele><time>2007-08-03T14:30:11Z</time></trkpt>
<trkpt lat="46.24179748" lon="7.54899605"><ele>1619.95874</ele><time>2007-08-03T14:30:18Z</time></trkpt>
<trkpt lat="46.24176429" lon="7.54922722"><ele>1621.400635</ele><time>2007-08-03T14:30:24Z</time></trkpt>
<trkpt lat="46.24176035" lon="7.54951305"><ele>1622.842773</ele><time>2007-08-03T14:30:31Z</time></trkpt>
<trkpt lat="46.24190527" lon="7.54973534"><ele>1625.24585</ele><time>2007-08-03T14:30:38Z</time></trkpt>
<trkpt lat="46.24199202" lon="7.54984874"><ele>1625.726563</ele><time>2007-08-03T14:30:43Z</time></trkpt>
<trkpt lat="46.24209437" lon="7.54999425"><ele>1626.207275</ele><time>2007-08-03T14:30:49Z</time></trkpt>
<trkpt lat="46.24221615" lon="7.55010414"><ele>1627.168701</ele><time>2007-08-03T14:30:55Z</time></trkpt>
<trkpt lat="46.24237684" lon="7.55025359"><ele>1628.61084</ele><time>2007-08-03T14:31:02Z</time></trkpt>
<trkpt lat="46.24248245" lon="7.55042005"><ele>1629.572021</ele><time>2007-08-03T14:31:08Z</time></trkpt>
<trkpt lat="46.24255420" lon="7.55064469"><ele>1630.533447</ele><time>2007-08-03T14:31:14Z</time></trkpt>
<trkpt lat="46.24256115" lon="7.55084812"><ele>1632.456055</ele><time>2007-08-03T14:31:19Z</time></trkpt>
<trkpt lat="46.24253408" lon="7.55105113"><ele>1631.975342</ele><time>2007-08-03T14:31:24Z</time></trkpt>
<trkpt lat="46.24247398" lon="7.55130200"><ele>1633.897949</ele><time>2007-08-03T14:31:31Z</time></trkpt>
<trkpt lat="46.24244263" lon="7.55143426"><ele>1634.859375</ele><time>2007-08-03T14:31:35Z</time></trkpt>
<trkpt lat="46.24238153" lon="7.55165119"><ele>1635.339844</ele><time>2007-08-03T14:31:41Z</time></trkpt>
<trkpt lat="46.24233954" lon="7.55178488"><ele>1636.781738</ele><time>2007-08-03T14:31:46Z</time></trkpt>
<trkpt lat="46.24228723" lon="7.55194036"><ele>1637.262451</ele><time>2007-08-03T14:31:52Z</time></trkpt>
<trkpt lat="46.24225396" lon="7.55210037"><ele>1637.262451</ele><time>2007-08-03T14:31:57Z</time></trkpt>
<trkpt lat="46.24224675" lon="7.55223197"><ele>1638.223877</ele><time>2007-08-03T14:32:01Z</time></trkpt>
<trkpt lat="46.24230492" lon="7.55247077"><ele>1639.185059</ele><time>2007-08-03T14:32:07Z</time></trkpt>
<trkpt lat="46.24234674" lon="7.55268853"><ele>1640.146484</ele><time>2007-08-03T14:32:13Z</time></trkpt>
<trkpt lat="46.24231297" lon="7.55280688"><ele>1641.107666</ele><time>2007-08-03T14:32:18Z</time></trkpt>
<trkpt lat="46.24221238" lon="7.55285324"><ele>1641.107666</ele><time>2007-08-03T14:32:23Z</time></trkpt>
<trkpt lat="46.24211473" lon="7.55284125"><ele>1642.069092</ele><time>2007-08-03T14:32:28Z</time></trkpt>
<trkpt lat="46.24194693" lon="7.55285072"><ele>1643.030273</ele><time>2007-08-03T14:32:34Z</time></trkpt>
<trkpt lat="46.24182992" lon="7.55289850"><ele>1643.991699</ele><time>2007-08-03T14:32:39Z</time></trkpt>
<trkpt lat="46.24173378" lon="7.55299858"><ele>1644.472412</ele><time>2007-08-03T14:32:44Z</time></trkpt>
<trkpt lat="46.24154988" lon="7.55318264"><ele>1644.953125</ele><time>2007-08-03T14:32:50Z</time></trkpt>
<trkpt lat="46.24135223" lon="7.55335037"><ele>1645.433838</ele><time>2007-08-03T14:32:57Z</time></trkpt>
<trkpt lat="46.24120144" lon="7.55344768"><ele>1645.914551</ele><time>2007-08-03T14:33:03Z</time></trkpt>
<trkpt lat="46.24105677" lon="7.55358766"><ele>1646.875732</ele><time>2007-08-03T14:33:09Z</time></trkpt>
<trkpt lat="46.24088469" lon="7.55375236"><ele>1646.875732</ele><time>2007-08-03T14:33:16Z</time></trkpt>
<trkpt lat="46.24069626" lon="7.55394883"><ele>1645.914551</ele><time>2007-08-03T14:33:23Z</time></trkpt>
<trkpt lat="46.24051354" lon="7.55412066"><ele>1646.875732</ele><time>2007-08-03T14:33:30Z</time></trkpt>
<trkpt lat="46.24038287" lon="7.55427053"><ele>1646.875732</ele><time>2007-08-03T14:33:36Z</time></trkpt>
<trkpt lat="46.24030516" lon="7.55443666"><ele>1647.356445</ele><time>2007-08-03T14:33:40Z</time></trkpt>
<trkpt lat="46.24014817" lon="7.55473129"><ele>1647.356445</ele><time>2007-08-03T14:33:47Z</time></trkpt>
<trkpt lat="46.24008782" lon="7.55484637"><ele>1648.317627</ele><time>2007-08-03T14:33:52Z</time></trkpt>
<trkpt lat="46.23996394" lon="7.55499112"><ele>1649.759766</ele><time>2007-08-03T14:33:57Z</time></trkpt>
<trkpt lat="46.23981549" lon="7.55513798"><ele>1649.759766</ele><time>2007-08-03T14:34:03Z</time></trkpt>
<trkpt lat="46.23966722" lon="7.55529866"><ele>1651.20166</ele><time>2007-08-03T14:34:08Z</time></trkpt>
<trkpt lat="46.23946999" lon="7.55556369"><ele>1650.720947</ele><time>2007-08-03T14:34:16Z</time></trkpt>
<trkpt lat="46.23929238" lon="7.55577332"><ele>1650.720947</ele><time>2007-08-03T14:34:23Z</time></trkpt>
<trkpt lat="46.23917663" lon="7.55591506"><ele>1652.162842</ele><time>2007-08-03T14:34:28Z</time></trkpt>
<trkpt lat="46.23900413" lon="7.55606015"><ele>1653.60498</ele><time>2007-08-03T14:34:34Z</time></trkpt>
<trkpt lat="46.23870313" lon="7.55623525"><ele>1654.085693</ele><time>2007-08-03T14:34:44Z</time></trkpt>
<trkpt lat="46.23848344" lon="7.55629359"><ele>1653.60498</ele><time>2007-08-03T14:34:50Z</time></trkpt>
<trkpt lat="46.23834053" lon="7.55633617"><ele>1652.643555</ele><time>2007-08-03T14:34:53Z</time></trkpt>
<trkpt lat="46.23803677" lon="7.55627959"><ele>1653.124268</ele><time>2007-08-03T14:34:58Z</time></trkpt>
<trkpt lat="46.23780116" lon="7.55624598"><ele>1651.682373</ele><time>2007-08-03T14:35:02Z</time></trkpt>
<trkpt lat="46.23774642" lon="7.55626534"><ele>1652.162842</ele><time>2007-08-03T14:35:03Z</time></trkpt>
<trkpt lat="46.23749379" lon="7.55631438"><ele>1652.162842</ele><time>2007-08-03T14:35:09Z</time></trkpt>
<trkpt lat="46.23728927" lon="7.55639560"><ele>1651.682373</ele><time>2007-08-03T14:35:15Z</time></trkpt>
<trkpt lat="46.23708400" lon="7.55647640"><ele>1652.643555</ele><time>2007-08-03T14:35:21Z</time></trkpt>
<trkpt lat="46.23693774" lon="7.55663104"><ele>1653.124268</ele><time>2007-08-03T14:35:26Z</time></trkpt>
<trkpt lat="46.23672919" lon="7.55669584"><ele>1653.60498</ele><time>2007-08-03T14:35:32Z</time></trkpt>
<trkpt lat="46.23667094" lon="7.55668628"><ele>1653.60498</ele><time>2007-08-03T14:35:34Z</time></trkpt>
<trkpt lat="46.23666239" lon="7.55659048"><ele>1653.60498</ele><time>2007-08-03T14:35:38Z</time></trkpt>
<trkpt lat="46.23674990" lon="7.55659626"><ele>1653.60498</ele><time>2007-08-03T14:35:42Z</time></trkpt>
<trkpt lat="46.23686196" lon="7.55655837"><ele>1655.527588</ele><time>2007-08-03T14:35:49Z</time></trkpt>
<trkpt lat="46.23694704" lon="7.55646307"><ele>1656.008057</ele><time>2007-08-03T14:35:55Z</time></trkpt>
<trkpt lat="46.23702625" lon="7.55631429"><ele>1657.450195</ele><time>2007-08-03T14:36:00Z</time></trkpt>
<trkpt lat="46.23712054" lon="7.55616250"><ele>1659.853271</ele><time>2007-08-03T14:36:06Z</time></trkpt>
<trkpt lat="46.23723102" lon="7.55603232"><ele>1661.776367</ele><time>2007-08-03T14:36:13Z</time></trkpt>
<trkpt lat="46.23734996" lon="7.55591087"><ele>1663.218262</ele><time>2007-08-03T14:36:20Z</time></trkpt>
<trkpt lat="46.23744769" lon="7.55578598"><ele>1664.660156</ele><time>2007-08-03T14:36:26Z</time></trkpt>
<trkpt lat="46.23760116" lon="7.55557828"><ele>1666.582764</ele><time>2007-08-03T14:36:37Z</time></trkpt>
<trkpt lat="46.23775204" lon="7.55545087"><ele>1668.505371</ele><time>2007-08-03T14:36:47Z</time></trkpt>
<trkpt lat="46.23786679" lon="7.55536772"><ele>1669.947266</ele><time>2007-08-03T14:36:55Z</time></trkpt>
<trkpt lat="46.23799587" lon="7.55524962"><ele>1671.38916</ele><time>2007-08-03T14:37:03Z</time></trkpt>
<trkpt lat="46.23810919" lon="7.55513663"><ele>1672.350586</ele><time>2007-08-03T14:37:10Z</time></trkpt>
<trkpt lat="46.23823433" lon="7.55500915"><ele>1674.273193</ele><time>2007-08-03T14:37:19Z</time></trkpt>
<trkpt lat="46.23833123" lon="7.55495039"><ele>1675.715088</ele><time>2007-08-03T14:37:25Z</time></trkpt>
<trkpt lat="46.23848855" lon="7.55479272"><ele>1678.118652</ele><time>2007-08-03T14:37:35Z</time></trkpt>
<trkpt lat="46.23861328" lon="7.55459516"><ele>1679.560547</ele><time>2007-08-03T14:37:45Z</time></trkpt>
<trkpt lat="46.23870539" lon="7.55439769"><ele>1681.483154</ele><time>2007-08-03T14:37:54Z</time></trkpt>
<trkpt lat="46.23876667" lon="7.55426408"><ele>1683.405762</ele><time>2007-08-03T14:38:01Z</time></trkpt>
<trkpt lat="46.23884479" lon="7.55411295"><ele>1684.367188</ele><time>2007-08-03T14:38:09Z</time></trkpt>
<trkpt lat="46.23889692" lon="7.55401463"><ele>1686.770264</ele><time>2007-08-03T14:38:15Z</time></trkpt>
<trkpt lat="46.23895593" lon="7.55392863"><ele>1687.250977</ele><time>2007-08-03T14:38:20Z</time></trkpt>
<trkpt lat="46.23902743" lon="7.55380869"><ele>1688.693115</ele><time>2007-08-03T14:38:26Z</time></trkpt>
<trkpt lat="46.23913363" lon="7.55367617"><ele>1689.654297</ele><time>2007-08-03T14:38:34Z</time></trkpt>
<trkpt lat="46.23919263" lon="7.55356737"><ele>1691.096191</ele><time>2007-08-03T14:38:39Z</time></trkpt>
<trkpt lat="46.23931048" lon="7.55337317"><ele>1693.499756</ele><time>2007-08-03T14:38:51Z</time></trkpt>
<trkpt lat="46.23934619" lon="7.55332572"><ele>1693.980469</ele><time>2007-08-03T14:38:54Z</time></trkpt>
<trkpt lat="46.23947578" lon="7.55311794"><ele>1695.422363</ele><time>2007-08-03T14:39:04Z</time></trkpt>
<trkpt lat="46.23950059" lon="7.55307469"><ele>1695.903076</ele><time>2007-08-03T14:39:06Z</time></trkpt>
<trkpt lat="46.23957887" lon="7.55292038"><ele>1698.306152</ele><time>2007-08-03T14:39:13Z</time></trkpt>
<trkpt lat="46.23963025" lon="7.55278266"><ele>1699.748291</ele><time>2007-08-03T14:39:18Z</time></trkpt>
<trkpt lat="46.23963780" lon="7.55276187"><ele>1699.748291</ele><time>2007-08-03T14:39:19Z</time></trkpt>
<trkpt lat="46.23964853" lon="7.55271636"><ele>1700.229004</ele><time>2007-08-03T14:39:21Z</time></trkpt>
<trkpt lat="46.23971038" lon="7.55258812"><ele>1700.709473</ele><time>2007-08-03T14:39:26Z</time></trkpt>
<trkpt lat="46.23974173" lon="7.55253263"><ele>1701.670898</ele><time>2007-08-03T14:39:28Z</time></trkpt>
<trkpt lat="46.23974685" lon="7.55244495"><ele>1702.151367</ele><time>2007-08-03T14:39:31Z</time></trkpt>
<trkpt lat="46.23982622" lon="7.55226005"><ele>1703.593506</ele><time>2007-08-03T14:39:39Z</time></trkpt>
<trkpt lat="46.23988364" lon="7.55206458"><ele>1705.0354</ele><time>2007-08-03T14:39:48Z</time></trkpt>
<trkpt lat="46.23992094" lon="7.55193810"><ele>1706.477295</ele><time>2007-08-03T14:39:55Z</time></trkpt>
<trkpt lat="46.23997006" lon="7.55179477"><ele>1707.438721</ele><time>2007-08-03T14:40:00Z</time></trkpt>
<trkpt lat="46.24002362" lon="7.55162286"><ele>1708.400146</ele><time>2007-08-03T14:40:08Z</time></trkpt>
<trkpt lat="46.24002982" lon="7.55157474"><ele>1708.880859</ele><time>2007-08-03T14:40:10Z</time></trkpt>
<trkpt lat="46.24007366" lon="7.55146444"><ele>1710.322754</ele><time>2007-08-03T14:40:15Z</time></trkpt>
<trkpt lat="46.24016443" lon="7.55127568"><ele>1711.764893</ele><time>2007-08-03T14:40:23Z</time></trkpt>
<trkpt lat="46.24025839" lon="7.55106999"><ele>1713.206787</ele><time>2007-08-03T14:40:32Z</time></trkpt>
<trkpt lat="46.24037465" lon="7.55087268"><ele>1715.129395</ele><time>2007-08-03T14:40:41Z</time></trkpt>
<trkpt lat="46.24050633" lon="7.55065156"><ele>1716.571289</ele><time>2007-08-03T14:40:52Z</time></trkpt>
<trkpt lat="46.24058495" lon="7.55047244"><ele>1718.493896</ele><time>2007-08-03T14:41:01Z</time></trkpt>
<trkpt lat="46.24062326" lon="7.55033095"><ele>1720.897217</ele><time>2007-08-03T14:41:08Z</time></trkpt>
<trkpt lat="46.24062519" lon="7.55030824"><ele>1721.377686</ele><time>2007-08-03T14:41:09Z</time></trkpt>
<trkpt lat="46.24057883" lon="7.55025015"><ele>1721.858398</ele><time>2007-08-03T14:41:14Z</time></trkpt>
<trkpt lat="46.24051756" lon="7.55034763"><ele>1723.781006</ele><time>2007-08-03T14:41:21Z</time></trkpt>
<trkpt lat="46.24041857" lon="7.55042223"><ele>1724.261963</ele><time>2007-08-03T14:41:29Z</time></trkpt>
<trkpt lat="46.24023727" lon="7.55047412"><ele>1726.665283</ele><time>2007-08-03T14:41:40Z</time></trkpt>
<trkpt lat="46.24014507" lon="7.55050496"><ele>1728.107178</ele><time>2007-08-03T14:41:47Z</time></trkpt>
<trkpt lat="46.24006519" lon="7.55055307"><ele>1730.029785</ele><time>2007-08-03T14:41:51Z</time></trkpt>
<trkpt lat="46.23999185" lon="7.55063597"><ele>1731.952393</ele><time>2007-08-03T14:41:58Z</time></trkpt>
<trkpt lat="46.23991314" lon="7.55073144"><ele>1731.952393</ele><time>2007-08-03T14:42:04Z</time></trkpt>
<trkpt lat="46.23989353" lon="7.55076078"><ele>1731.952393</ele><time>2007-08-03T14:42:06Z</time></trkpt>
<trkpt lat="46.23979764" lon="7.55091148"><ele>1733.875</ele><time>2007-08-03T14:42:17Z</time></trkpt>
<trkpt lat="46.23978926" lon="7.55092305"><ele>1734.355713</ele><time>2007-08-03T14:42:18Z</time></trkpt>
<trkpt lat="46.23975556" lon="7.55098265"><ele>1735.316895</ele><time>2007-08-03T14:42:23Z</time></trkpt>
<trkpt lat="46.23974685" lon="7.55099924"><ele>1735.316895</ele><time>2007-08-03T14:42:24Z</time></trkpt>
<trkpt lat="46.23973955" lon="7.55101802"><ele>1735.797607</ele><time>2007-08-03T14:42:25Z</time></trkpt>
<trkpt lat="46.23932976" lon="7.55154457"><ele>1743.007568</ele><time>2007-08-03T14:43:08Z</time></trkpt>
<trkpt lat="46.23892148" lon="7.55192016"><ele>1750.697998</ele><time>2007-08-03T14:43:42Z</time></trkpt>
<trkpt lat="46.23882199" lon="7.55197783"><ele>1751.659424</ele><time>2007-08-03T14:43:48Z</time></trkpt>
<trkpt lat="46.23880070" lon="7.55199015"><ele>1751.659424</ele><time>2007-08-03T14:43:49Z</time></trkpt>
<trkpt lat="46.23875728" lon="7.55201027"><ele>1753.101318</ele><time>2007-08-03T14:43:51Z</time></trkpt>
<trkpt lat="46.23860808" lon="7.55209358"><ele>1754.543213</ele><time>2007-08-03T14:43:58Z</time></trkpt>
<trkpt lat="46.23851605" lon="7.55214354"><ele>1755.985107</ele><time>2007-08-03T14:44:03Z</time></trkpt>
<trkpt lat="46.23840407" lon="7.55218159"><ele>1757.42749</ele><time>2007-08-03T14:44:09Z</time></trkpt>
<trkpt lat="46.23828026" lon="7.55221386"><ele>1758.869385</ele><time>2007-08-03T14:44:16Z</time></trkpt>
<trkpt lat="46.23821489" lon="7.55221789"><ele>1759.830566</ele><time>2007-08-03T14:44:20Z</time></trkpt>
<trkpt lat="46.23819645" lon="7.55221487"><ele>1759.350098</ele><time>2007-08-03T14:44:21Z</time></trkpt>
<trkpt lat="46.23806410" lon="7.55215083"><ele>1761.272705</ele><time>2007-08-03T14:44:30Z</time></trkpt>
<trkpt lat="46.23796175" lon="7.55212275"><ele>1761.753418</ele><time>2007-08-03T14:44:37Z</time></trkpt>
<trkpt lat="46.23778389" lon="7.55220850"><ele>1763.675781</ele><time>2007-08-03T14:44:49Z</time></trkpt>
<trkpt lat="46.23744509" lon="7.55232610"><ele>1770.405029</ele><time>2007-08-03T14:45:17Z</time></trkpt>
<trkpt lat="46.23740855" lon="7.55235963"><ele>1770.885742</ele><time>2007-08-03T14:45:20Z</time></trkpt>
<trkpt lat="46.23734149" lon="7.55241905"><ele>1771.366211</ele><time>2007-08-03T14:45:26Z</time></trkpt>
<trkpt lat="46.23721023" lon="7.55249734"><ele>1772.327881</ele><time>2007-08-03T14:45:33Z</time></trkpt>
<trkpt lat="46.23698794" lon="7.55259742"><ele>1774.731201</ele><time>2007-08-03T14:45:45Z</time></trkpt>
<trkpt lat="46.23687018" lon="7.55269197"><ele>1776.173096</ele><time>2007-08-03T14:45:53Z</time></trkpt>
<trkpt lat="46.23669826" lon="7.55279917"><ele>1777.61499</ele><time>2007-08-03T14:46:00Z</time></trkpt>
<trkpt lat="46.23651009" lon="7.55290914"><ele>1779.537598</ele><time>2007-08-03T14:46:06Z</time></trkpt>
<trkpt lat="46.23637548" lon="7.55297008"><ele>1781.460205</ele><time>2007-08-03T14:46:13Z</time></trkpt>
<trkpt lat="46.23626634" lon="7.55303236"><ele>1781.460205</ele><time>2007-08-03T14:46:19Z</time></trkpt>
<trkpt lat="46.23618429" lon="7.55309824"><ele>1783.382813</ele><time>2007-08-03T14:46:24Z</time></trkpt>
<trkpt lat="46.23606593" lon="7.55320435"><ele>1785.30542</ele><time>2007-08-03T14:46:31Z</time></trkpt>
<trkpt lat="46.23596493" lon="7.55325967"><ele>1786.266846</ele><time>2007-08-03T14:46:37Z</time></trkpt>
<trkpt lat="46.23584985" lon="7.55330594"><ele>1787.228027</ele><time>2007-08-03T14:46:44Z</time></trkpt>
<trkpt lat="46.23571767" lon="7.55333126"><ele>1788.189697</ele><time>2007-08-03T14:46:52Z</time></trkpt>
<trkpt lat="46.23559847" lon="7.55336302"><ele>1789.631592</ele><time>2007-08-03T14:46:59Z</time></trkpt>
<trkpt lat="46.23545883" lon="7.55333880"><ele>1790.592773</ele><time>2007-08-03T14:47:08Z</time></trkpt>
<trkpt lat="46.23534249" lon="7.55329840"><ele>1792.996094</ele><time>2007-08-03T14:47:16Z</time></trkpt>
<trkpt lat="46.23524208" lon="7.55332245"><ele>1794.437988</ele><time>2007-08-03T14:47:27Z</time></trkpt>
<trkpt lat="46.23523713" lon="7.55329714"><ele>1794.437988</ele><time>2007-08-03T14:49:51Z</time></trkpt>
<trkpt lat="46.23518617" lon="7.55320746"><ele>1794.918701</ele><time>2007-08-03T14:49:56Z</time></trkpt>
<trkpt lat="46.23515122" lon="7.55314643"><ele>1795.880127</ele><time>2007-08-03T14:49:59Z</time></trkpt>
<trkpt lat="46.23510118" lon="7.55305507"><ele>1797.802734</ele><time>2007-08-03T14:50:04Z</time></trkpt>
<trkpt lat="46.23507033" lon="7.55298274"><ele>1797.802734</ele><time>2007-08-03T14:50:08Z</time></trkpt>
<trkpt lat="46.23500235" lon="7.55280705"><ele>1798.763916</ele><time>2007-08-03T14:50:16Z</time></trkpt>
<trkpt lat="46.23494888" lon="7.55263858"><ele>1799.725342</ele><time>2007-08-03T14:50:23Z</time></trkpt>
<trkpt lat="46.23490940" lon="7.55247287"><ele>1802.128418</ele><time>2007-08-03T14:50:29Z</time></trkpt>
<trkpt lat="46.23486045" lon="7.55217162"><ele>1803.570557</ele><time>2007-08-03T14:50:39Z</time></trkpt>
<trkpt lat="46.23488056" lon="7.55193709"><ele>1803.570557</ele><time>2007-08-03T14:50:47Z</time></trkpt>
<trkpt lat="46.23478577" lon="7.55171657"><ele>1805.493408</ele><time>2007-08-03T14:50:56Z</time></trkpt>
<trkpt lat="46.23463900" lon="7.55153954"><ele>1807.416016</ele><time>2007-08-03T14:51:05Z</time></trkpt>
<trkpt lat="46.23451780" lon="7.55146494"><ele>1807.896729</ele><time>2007-08-03T14:51:13Z</time></trkpt>
<trkpt lat="46.23444194" lon="7.55142404"><ele>1809.819092</ele><time>2007-08-03T14:51:18Z</time></trkpt>
<trkpt lat="46.23433884" lon="7.55134684"><ele>1810.780518</ele><time>2007-08-03T14:51:24Z</time></trkpt>
<trkpt lat="46.23426483" lon="7.55129043"><ele>1812.703125</ele><time>2007-08-03T14:51:29Z</time></trkpt>
<trkpt lat="46.23414430" lon="7.55121726"><ele>1813.183838</ele><time>2007-08-03T14:51:37Z</time></trkpt>
<trkpt lat="46.23406408" lon="7.55115540"><ele>1814.14502</ele><time>2007-08-03T14:51:43Z</time></trkpt>
<trkpt lat="46.23400139" lon="7.55112648"><ele>1815.106445</ele><time>2007-08-03T14:51:47Z</time></trkpt>
<trkpt lat="46.23392469" lon="7.55105859"><ele>1816.54834</ele><time>2007-08-03T14:51:53Z</time></trkpt>
<trkpt lat="46.23386535" lon="7.55097066"><ele>1817.509521</ele><time>2007-08-03T14:51:58Z</time></trkpt>
<trkpt lat="46.23390977" lon="7.55092297"><ele>1817.990234</ele><time>2007-08-03T14:52:05Z</time></trkpt>
<trkpt lat="46.23400432" lon="7.55093688"><ele>1820.874512</ele><time>2007-08-03T14:52:13Z</time></trkpt>
<trkpt lat="46.23402972" lon="7.55094032"><ele>1820.393799</ele><time>2007-08-03T14:52:15Z</time></trkpt>
<trkpt lat="46.23407003" lon="7.55094476"><ele>1821.35498</ele><time>2007-08-03T14:52:18Z</time></trkpt>
<trkpt lat="46.23410792" lon="7.55094359"><ele>1821.835693</ele><time>2007-08-03T14:52:21Z</time></trkpt>
<trkpt lat="46.23412100" lon="7.55093537"><ele>1822.316406</ele><time>2007-08-03T14:52:22Z</time></trkpt>
<trkpt lat="46.23427254" lon="7.55076589"><ele>1824.239014</ele><time>2007-08-03T14:52:35Z</time></trkpt>
<trkpt lat="46.23434555" lon="7.55068006"><ele>1826.161621</ele><time>2007-08-03T14:52:41Z</time></trkpt>
<trkpt lat="46.23441554" lon="7.55055416"><ele>1827.123047</ele><time>2007-08-03T14:52:47Z</time></trkpt>
<trkpt lat="46.23444026" lon="7.55051175"><ele>1827.603516</ele><time>2007-08-03T14:52:50Z</time></trkpt>
<trkpt lat="46.23446289" lon="7.55048979"><ele>1828.084229</ele><time>2007-08-03T14:52:52Z</time></trkpt>
<trkpt lat="46.23457203" lon="7.55034202"><ele>1830.006836</ele><time>2007-08-03T14:53:00Z</time></trkpt>
<trkpt lat="46.23459298" lon="7.55029525"><ele>1830.006836</ele><time>2007-08-03T14:53:03Z</time></trkpt>
<trkpt lat="46.23462953" lon="7.55023884"><ele>1831.929443</ele><time>2007-08-03T14:53:06Z</time></trkpt>
<trkpt lat="46.23469977" lon="7.55009157"><ele>1832.410156</ele><time>2007-08-03T14:53:13Z</time></trkpt>
<trkpt lat="46.23471578" lon="7.55005963"><ele>1832.410156</ele><time>2007-08-03T14:53:15Z</time></trkpt>
<trkpt lat="46.23473279" lon="7.55002677"><ele>1833.371338</ele><time>2007-08-03T14:53:17Z</time></trkpt>
<trkpt lat="46.23478233" lon="7.54992628"><ele>1835.293945</ele><time>2007-08-03T14:53:22Z</time></trkpt>
<trkpt lat="46.23479448" lon="7.54987984"><ele>1835.293945</ele><time>2007-08-03T14:53:25Z</time></trkpt>
<trkpt lat="46.23483899" lon="7.54977825"><ele>1836.736084</ele><time>2007-08-03T14:53:30Z</time></trkpt>
<trkpt lat="46.23484804" lon="7.54975428"><ele>1836.736084</ele><time>2007-08-03T14:53:31Z</time></trkpt>
<trkpt lat="46.23491284" lon="7.54958723"><ele>1838.178223</ele><time>2007-08-03T14:53:38Z</time></trkpt>
<trkpt lat="46.23500076" lon="7.54945102"><ele>1839.620117</ele><time>2007-08-03T14:53:45Z</time></trkpt>
<trkpt lat="46.23512976" lon="7.54935714"><ele>1842.023438</ele><time>2007-08-03T14:53:53Z</time></trkpt>
<trkpt lat="46.23532254" lon="7.54922479"><ele>1843.946045</ele><time>2007-08-03T14:54:05Z</time></trkpt>
<trkpt lat="46.23547518" lon="7.54912228"><ele>1845.387939</ele><time>2007-08-03T14:54:14Z</time></trkpt>
<trkpt lat="46.23557308" lon="7.54905816"><ele>1846.349365</ele><time>2007-08-03T14:54:20Z</time></trkpt>
<trkpt lat="46.23566276" lon="7.54895607"><ele>1847.310547</ele><time>2007-08-03T14:54:27Z</time></trkpt>
<trkpt lat="46.23573468" lon="7.54883369"><ele>1849.233154</ele><time>2007-08-03T14:54:34Z</time></trkpt>
<trkpt lat="46.23571632" lon="7.54869036"><ele>1850.19458</ele><time>2007-08-03T14:54:40Z</time></trkpt>
<trkpt lat="46.23560853" lon="7.54863328"><ele>1851.155762</ele><time>2007-08-03T14:54:47Z</time></trkpt>
<trkpt lat="46.23545975" lon="7.54861048"><ele>1852.117188</ele><time>2007-08-03T14:54:56Z</time></trkpt>
<trkpt lat="46.23532112" lon="7.54856614"><ele>1854.520508</ele><time>2007-08-03T14:55:04Z</time></trkpt>
<trkpt lat="46.23511618" lon="7.54849724"><ele>1856.443115</ele><time>2007-08-03T14:55:16Z</time></trkpt>
<trkpt lat="46.23500420" lon="7.54843723"><ele>1857.885254</ele><time>2007-08-03T14:55:23Z</time></trkpt>
<trkpt lat="46.23489347" lon="7.54837604"><ele>1858.846436</ele><time>2007-08-03T14:55:30Z</time></trkpt>
<trkpt lat="46.23475173" lon="7.54830983"><ele>1861.249756</ele><time>2007-08-03T14:55:39Z</time></trkpt>
<trkpt lat="46.23458074" lon="7.54830044"><ele>1862.69165</ele><time>2007-08-03T14:55:49Z</time></trkpt>
<trkpt lat="46.23440338" lon="7.54830295"><ele>1864.614258</ele><time>2007-08-03T14:55:59Z</time></trkpt>
<trkpt lat="46.23427422" lon="7.54830186"><ele>1866.056152</ele><time>2007-08-03T14:56:07Z</time></trkpt>
<trkpt lat="46.23415084" lon="7.54830496"><ele>1867.017578</ele><time>2007-08-03T14:56:14Z</time></trkpt>
<trkpt lat="46.23409325" lon="7.54816390"><ele>1867.97876</ele><time>2007-08-03T14:56:21Z</time></trkpt>
<trkpt lat="46.23409225" lon="7.54800112"><ele>1869.421143</ele><time>2007-08-03T14:56:28Z</time></trkpt>
<trkpt lat="46.23405386" lon="7.54783264"><ele>1870.863037</ele><time>2007-08-03T14:56:35Z</time></trkpt>
<trkpt lat="46.23400063" lon="7.54756467"><ele>1872.304932</ele><time>2007-08-03T14:56:46Z</time></trkpt>
<trkpt lat="46.23399988" lon="7.54739829"><ele>1873.746826</ele><time>2007-08-03T14:56:53Z</time></trkpt>
<trkpt lat="46.23404824" lon="7.54720903"><ele>1875.669434</ele><time>2007-08-03T14:57:01Z</time></trkpt>
<trkpt lat="46.23411639" lon="7.54701038"><ele>1876.630859</ele><time>2007-08-03T14:57:10Z</time></trkpt>
<trkpt lat="46.23417749" lon="7.54686629"><ele>1878.072754</ele><time>2007-08-03T14:57:17Z</time></trkpt>
<trkpt lat="46.23421873" lon="7.54676236"><ele>1878.553467</ele><time>2007-08-03T14:57:22Z</time></trkpt>
<trkpt lat="46.23429358" lon="7.54655776"><ele>1880.956787</ele><time>2007-08-03T14:57:32Z</time></trkpt>
<trkpt lat="46.23437849" lon="7.54640562"><ele>1882.398682</ele><time>2007-08-03T14:57:40Z</time></trkpt>
<trkpt lat="46.23448594" lon="7.54626238"><ele>1883.359863</ele><time>2007-08-03T14:57:48Z</time></trkpt>
<trkpt lat="46.23453205" lon="7.54619725"><ele>1884.802246</ele><time>2007-08-03T14:57:51Z</time></trkpt>
<trkpt lat="46.23460522" lon="7.54606716"><ele>1885.763428</ele><time>2007-08-03T14:57:57Z</time></trkpt>
<trkpt lat="46.23457488" lon="7.54597773"><ele>1885.282715</ele><time>2007-08-03T14:58:01Z</time></trkpt>
<trkpt lat="46.23453774" lon="7.54596130"><ele>1886.244141</ele><time>2007-08-03T14:58:03Z</time></trkpt>
<trkpt lat="46.23439760" lon="7.54603280"><ele>1887.686035</ele><time>2007-08-03T14:58:11Z</time></trkpt>
<trkpt lat="46.23429467" lon="7.54603590"><ele>1888.166748</ele><time>2007-08-03T14:58:17Z</time></trkpt>
<trkpt lat="46.23421085" lon="7.54602844"><ele>1889.608643</ele><time>2007-08-03T14:58:22Z</time></trkpt>
<trkpt lat="46.23406417" lon="7.54601209"><ele>1891.53125</ele><time>2007-08-03T14:58:31Z</time></trkpt>
<trkpt lat="46.23394825" lon="7.54599734"><ele>1892.492676</ele><time>2007-08-03T14:58:38Z</time></trkpt>
<trkpt lat="46.23382009" lon="7.54598242"><ele>1893.93457</ele><time>2007-08-03T14:58:46Z</time></trkpt>
<trkpt lat="46.23365672" lon="7.54596918"><ele>1895.857178</ele><time>2007-08-03T14:58:56Z</time></trkpt>
<trkpt lat="46.23349277" lon="7.54592207"><ele>1897.779785</ele><time>2007-08-03T14:59:06Z</time></trkpt>
<trkpt lat="46.23337350" lon="7.54584253"><ele>1899.702393</ele><time>2007-08-03T14:59:14Z</time></trkpt>
<trkpt lat="46.23326638" lon="7.54572468"><ele>1899.702393</ele><time>2007-08-03T14:59:22Z</time></trkpt>
<trkpt lat="46.23312808" lon="7.54563223"><ele>1901.144531</ele><time>2007-08-03T14:59:31Z</time></trkpt>
<trkpt lat="46.23301852" lon="7.54545956"><ele>1902.586426</ele><time>2007-08-03T14:59:40Z</time></trkpt>
<trkpt lat="46.23301090" lon="7.54541413"><ele>1902.586426</ele><time>2007-08-03T14:59:42Z</time></trkpt>
<trkpt lat="46.23301693" lon="7.54536116"><ele>1902.586426</ele><time>2007-08-03T14:59:45Z</time></trkpt>
<trkpt lat="46.23300847" lon="7.54531908"><ele>1902.586426</ele><time>2007-08-03T14:59:47Z</time></trkpt>
<trkpt lat="46.23289933" lon="7.54515898"><ele>1902.586426</ele><time>2007-08-03T14:59:56Z</time></trkpt>
<trkpt lat="46.23280018" lon="7.54505916"><ele>1903.547852</ele><time>2007-08-03T15:00:03Z</time></trkpt>
<trkpt lat="46.23270194" lon="7.54496058"><ele>1904.509033</ele><time>2007-08-03T15:00:10Z</time></trkpt>
<trkpt lat="46.23256112" lon="7.54484064"><ele>1905.950928</ele><time>2007-08-03T15:00:19Z</time></trkpt>
<trkpt lat="46.23240547" lon="7.54470494"><ele>1908.354248</ele><time>2007-08-03T15:00:28Z</time></trkpt>
<trkpt lat="46.23225225" lon="7.54450243"><ele>1909.315674</ele><time>2007-08-03T15:00:38Z</time></trkpt>
<trkpt lat="46.23227019" lon="7.54433538"><ele>1909.796143</ele><time>2007-08-03T15:00:44Z</time></trkpt>
<trkpt lat="46.23236876" lon="7.54419867"><ele>1910.757568</ele><time>2007-08-03T15:00:51Z</time></trkpt>
<trkpt lat="46.23249784" lon="7.54403547"><ele>1913.641357</ele><time>2007-08-03T15:01:00Z</time></trkpt>
<trkpt lat="46.23259583" lon="7.54387915"><ele>1916.044922</ele><time>2007-08-03T15:01:09Z</time></trkpt>
<trkpt lat="46.23265986" lon="7.54373792"><ele>1917.967529</ele><time>2007-08-03T15:01:17Z</time></trkpt>
<trkpt lat="46.23272046" lon="7.54356852"><ele>1919.409668</ele><time>2007-08-03T15:01:26Z</time></trkpt>
<trkpt lat="46.23276288" lon="7.54344212"><ele>1920.37085</ele><time>2007-08-03T15:01:33Z</time></trkpt>
<trkpt lat="46.23285206" lon="7.54331488"><ele>1923.254883</ele><time>2007-08-03T15:01:42Z</time></trkpt>
<trkpt lat="46.23298885" lon="7.54320893"><ele>1925.177246</ele><time>2007-08-03T15:01:52Z</time></trkpt>
<trkpt lat="46.23314107" lon="7.54312973"><ele>1926.138672</ele><time>2007-08-03T15:02:01Z</time></trkpt>
<trkpt lat="46.23331063" lon="7.54300022"><ele>1928.541992</ele><time>2007-08-03T15:02:11Z</time></trkpt>
<trkpt lat="46.23343050" lon="7.54289612"><ele>1929.022461</ele><time>2007-08-03T15:02:18Z</time></trkpt>
<trkpt lat="46.23364138" lon="7.54276813"><ele>1929.983887</ele><time>2007-08-03T15:02:28Z</time></trkpt>
<trkpt lat="46.23384238" lon="7.54266579"><ele>1929.983887</ele><time>2007-08-03T15:02:37Z</time></trkpt>
<trkpt lat="46.23391673" lon="7.54247518"><ele>1930.945313</ele><time>2007-08-03T15:02:43Z</time></trkpt>
<trkpt lat="46.23392746" lon="7.54242363"><ele>1930.945313</ele><time>2007-08-03T15:02:44Z</time></trkpt>
<trkpt lat="46.23393324" lon="7.54224200"><ele>1928.061279</ele><time>2007-08-03T15:02:47Z</time></trkpt>
<trkpt lat="46.23393425" lon="7.54216866"><ele>1929.022461</ele><time>2007-08-03T15:02:48Z</time></trkpt>
<trkpt lat="46.23397289" lon="7.54191024"><ele>1928.061279</ele><time>2007-08-03T15:02:51Z</time></trkpt>
<trkpt lat="46.23400860" lon="7.54174235"><ele>1928.061279</ele><time>2007-08-03T15:02:53Z</time></trkpt>
<trkpt lat="46.23401186" lon="7.54158754"><ele>1926.619385</ele><time>2007-08-03T15:02:55Z</time></trkpt>
<trkpt lat="46.23400424" lon="7.54121949"><ele>1926.619385</ele><time>2007-08-03T15:03:00Z</time></trkpt>
<trkpt lat="46.23398194" lon="7.54115327"><ele>1926.619385</ele><time>2007-08-03T15:03:01Z</time></trkpt>
<trkpt lat="46.23394288" lon="7.54102184"><ele>1926.138672</ele><time>2007-08-03T15:03:03Z</time></trkpt>
<trkpt lat="46.23390835" lon="7.54089226"><ele>1926.138672</ele><time>2007-08-03T15:03:05Z</time></trkpt>
<trkpt lat="46.23388094" lon="7.54052673"><ele>1925.657959</ele><time>2007-08-03T15:03:10Z</time></trkpt>
<trkpt lat="46.23387574" lon="7.54038633"><ele>1925.657959</ele><time>2007-08-03T15:03:12Z</time></trkpt>
<trkpt lat="46.23392168" lon="7.54013269"><ele>1925.177246</ele><time>2007-08-03T15:03:16Z</time></trkpt>
<trkpt lat="46.23396300" lon="7.54000898"><ele>1924.696777</ele><time>2007-08-03T15:03:18Z</time></trkpt>
<trkpt lat="46.23398714" lon="7.53961444"><ele>1925.657959</ele><time>2007-08-03T15:03:25Z</time></trkpt>
<trkpt lat="46.23393718" lon="7.53939022"><ele>1926.138672</ele><time>2007-08-03T15:03:30Z</time></trkpt>
<trkpt lat="46.23408630" lon="7.53923885"><ele>1928.541992</ele><time>2007-08-03T15:07:05Z</time></trkpt>
<trkpt lat="46.23400927" lon="7.53913927"><ele>1928.541992</ele><time>2007-08-03T15:07:10Z</time></trkpt>
<trkpt lat="46.23397649" lon="7.53907649"><ele>1929.983887</ele><time>2007-08-03T15:07:13Z</time></trkpt>
<trkpt lat="46.23392452" lon="7.53885345"><ele>1932.86792</ele><time>2007-08-03T15:07:22Z</time></trkpt>
<trkpt lat="46.23393123" lon="7.53874968"><ele>1933.348633</ele><time>2007-08-03T15:07:26Z</time></trkpt>
<trkpt lat="46.23389494" lon="7.53859453"><ele>1934.790771</ele><time>2007-08-03T15:07:32Z</time></trkpt>
<trkpt lat="46.23389913" lon="7.53856913"><ele>1934.790771</ele><time>2007-08-03T15:07:33Z</time></trkpt>
<trkpt lat="46.23390818" lon="7.53838875"><ele>1934.790771</ele><time>2007-08-03T15:07:40Z</time></trkpt>
<trkpt lat="46.23386677" lon="7.53824718"><ele>1936.232666</ele><time>2007-08-03T15:07:46Z</time></trkpt>
<trkpt lat="46.23381925" lon="7.53812506"><ele>1937.674561</ele><time>2007-08-03T15:07:51Z</time></trkpt>
<trkpt lat="46.23381665" lon="7.53794032"><ele>1940.55835</ele><time>2007-08-03T15:07:59Z</time></trkpt>
<trkpt lat="46.23382444" lon="7.53791350"><ele>1940.55835</ele><time>2007-08-03T15:08:00Z</time></trkpt>
<trkpt lat="46.23380735" lon="7.53776137"><ele>1941.519775</ele><time>2007-08-03T15:08:06Z</time></trkpt>
<trkpt lat="46.23379452" lon="7.53765609"><ele>1942.481201</ele><time>2007-08-03T15:08:10Z</time></trkpt>
<trkpt lat="46.23374976" lon="7.53747974"><ele>1943.442383</ele><time>2007-08-03T15:08:17Z</time></trkpt>
<trkpt lat="46.23374029" lon="7.53730439"><ele>1945.845703</ele><time>2007-08-03T15:08:24Z</time></trkpt>
<trkpt lat="46.23373526" lon="7.53720749"><ele>1946.806885</ele><time>2007-08-03T15:08:28Z</time></trkpt>
<trkpt lat="46.23376518" lon="7.53709442"><ele>1947.287598</ele><time>2007-08-03T15:08:33Z</time></trkpt>
<trkpt lat="46.23379117" lon="7.53699736"><ele>1947.768311</ele><time>2007-08-03T15:08:37Z</time></trkpt>
<trkpt lat="46.23377826" lon="7.53690834"><ele>1948.249023</ele><time>2007-08-03T15:08:41Z</time></trkpt>
<trkpt lat="46.23378798" lon="7.53676903"><ele>1948.729736</ele><time>2007-08-03T15:08:47Z</time></trkpt>
<trkpt lat="46.23380022" lon="7.53659343"><ele>1949.691162</ele><time>2007-08-03T15:08:55Z</time></trkpt>
<trkpt lat="46.23385596" lon="7.53639596"><ele>1950.652344</ele><time>2007-08-03T15:09:03Z</time></trkpt>
<trkpt lat="46.23390298" lon="7.53623184"><ele>1952.094238</ele><time>2007-08-03T15:09:10Z</time></trkpt>
<trkpt lat="46.23391086" lon="7.53603838"><ele>1953.055664</ele><time>2007-08-03T15:09:18Z</time></trkpt>
<trkpt lat="46.23390617" lon="7.53592238"><ele>1954.497559</ele><time>2007-08-03T15:09:23Z</time></trkpt>
<trkpt lat="46.23390935" lon="7.53587385"><ele>1955.458984</ele><time>2007-08-03T15:09:25Z</time></trkpt>
<trkpt lat="46.23391212" lon="7.53567964"><ele>1957.381592</ele><time>2007-08-03T15:09:33Z</time></trkpt>
<trkpt lat="46.23390759" lon="7.53562767"><ele>1957.862305</ele><time>2007-08-03T15:09:35Z</time></trkpt>
<trkpt lat="46.23392478" lon="7.53542726"><ele>1959.304199</ele><time>2007-08-03T15:09:43Z</time></trkpt>
<trkpt lat="46.23395436" lon="7.53535744"><ele>1960.265381</ele><time>2007-08-03T15:09:46Z</time></trkpt>
<trkpt lat="46.23399602" lon="7.53528879"><ele>1961.226807</ele><time>2007-08-03T15:09:49Z</time></trkpt>
<trkpt lat="46.23403659" lon="7.53512895"><ele>1962.668701</ele><time>2007-08-03T15:09:56Z</time></trkpt>
<trkpt lat="46.23400340" lon="7.53500347"><ele>1963.149414</ele><time>2007-08-03T15:10:01Z</time></trkpt>
<trkpt lat="46.23399904" lon="7.53494874"><ele>1964.591553</ele><time>2007-08-03T15:10:03Z</time></trkpt>
<trkpt lat="46.23401790" lon="7.53482133"><ele>1965.072266</ele><time>2007-08-03T15:10:08Z</time></trkpt>
<trkpt lat="46.23408076" lon="7.53464925"><ele>1966.994873</ele><time>2007-08-03T15:10:16Z</time></trkpt>
<trkpt lat="46.23411639" lon="7.53448999"><ele>1966.994873</ele><time>2007-08-03T15:10:22Z</time></trkpt>
<trkpt lat="46.23419342" lon="7.53424139"><ele>1966.994873</ele><time>2007-08-03T15:10:31Z</time></trkpt>
<trkpt lat="46.23431143" lon="7.53411097"><ele>1968.436768</ele><time>2007-08-03T15:10:38Z</time></trkpt>
<trkpt lat="46.23442484" lon="7.53396487"><ele>1969.878662</ele><time>2007-08-03T15:10:46Z</time></trkpt>
<trkpt lat="46.23456105" lon="7.53389136"><ele>1971.320557</ele><time>2007-08-03T15:10:53Z</time></trkpt>
<trkpt lat="46.23469516" lon="7.53387954"><ele>1972.762695</ele><time>2007-08-03T15:10:59Z</time></trkpt>
<trkpt lat="46.23482013" lon="7.53383713"><ele>1973.723877</ele><time>2007-08-03T15:11:05Z</time></trkpt>
<trkpt lat="46.23489398" lon="7.53378885"><ele>1974.685303</ele><time>2007-08-03T15:11:09Z</time></trkpt>
<trkpt lat="46.23503035" lon="7.53370428"><ele>1975.165771</ele><time>2007-08-03T15:11:14Z</time></trkpt>
<trkpt lat="46.23513646" lon="7.53356002"><ele>1975.646484</ele><time>2007-08-03T15:11:19Z</time></trkpt>
<trkpt lat="46.23530285" lon="7.53336397"><ele>1975.165771</ele><time>2007-08-03T15:11:26Z</time></trkpt>
<trkpt lat="46.23545908" lon="7.53317580"><ele>1976.127197</ele><time>2007-08-03T15:11:32Z</time></trkpt>
<trkpt lat="46.23547308" lon="7.53311075"><ele>1975.646484</ele><time>2007-08-03T15:11:34Z</time></trkpt>
<trkpt lat="46.23555657" lon="7.53301084"><ele>1977.088623</ele><time>2007-08-03T15:11:38Z</time></trkpt>
<trkpt lat="46.23562806" lon="7.53288553"><ele>1977.569092</ele><time>2007-08-03T15:11:43Z</time></trkpt>
<trkpt lat="46.23574088" lon="7.53277028"><ele>1978.049805</ele><time>2007-08-03T15:11:48Z</time></trkpt>
<trkpt lat="46.23583644" lon="7.53261915"><ele>1980.453369</ele><time>2007-08-03T15:11:54Z</time></trkpt>
<trkpt lat="46.23588866" lon="7.53247255"><ele>1982.856445</ele><time>2007-08-03T15:12:00Z</time></trkpt>
<trkpt lat="46.23596963" lon="7.53226619"><ele>1983.817871</ele><time>2007-08-03T15:12:07Z</time></trkpt>
<trkpt lat="46.23602897" lon="7.53207693"><ele>1983.817871</ele><time>2007-08-03T15:12:13Z</time></trkpt>
<trkpt lat="46.23610449" lon="7.53191583"><ele>1985.259766</ele><time>2007-08-03T15:12:19Z</time></trkpt>
<trkpt lat="46.23619216" lon="7.53170779"><ele>1986.70166</ele><time>2007-08-03T15:12:27Z</time></trkpt>
<trkpt lat="46.23630398" lon="7.53148659"><ele>1988.143799</ele><time>2007-08-03T15:12:35Z</time></trkpt>
<trkpt lat="46.23640976" lon="7.53128978"><ele>1989.585693</ele><time>2007-08-03T15:12:43Z</time></trkpt>
<trkpt lat="46.23653138" lon="7.53113472"><ele>1991.508301</ele><time>2007-08-03T15:12:50Z</time></trkpt>
<trkpt lat="46.23663188" lon="7.53094738"><ele>1991.989014</ele><time>2007-08-03T15:12:57Z</time></trkpt>
<trkpt lat="46.23672844" lon="7.53069299"><ele>1993.430908</ele><time>2007-08-03T15:13:05Z</time></trkpt>
<trkpt lat="46.23682433" lon="7.53051789"><ele>1994.872803</ele><time>2007-08-03T15:13:11Z</time></trkpt>
<trkpt lat="46.23695433" lon="7.53035629"><ele>1996.795654</ele><time>2007-08-03T15:13:19Z</time></trkpt>
<trkpt lat="46.23696657" lon="7.53020324"><ele>1997.276367</ele><time>2007-08-03T15:13:24Z</time></trkpt>
<trkpt lat="46.23694167" lon="7.52993125"><ele>1998.718262</ele><time>2007-08-03T15:13:33Z</time></trkpt>
<trkpt lat="46.23696288" lon="7.52984055"><ele>2000.1604</ele><time>2007-08-03T15:13:36Z</time></trkpt>
<trkpt lat="46.23695970" lon="7.52963629"><ele>2000.640869</ele><time>2007-08-03T15:13:43Z</time></trkpt>
<trkpt lat="46.23695877" lon="7.52960284"><ele>2001.602295</ele><time>2007-08-03T15:13:44Z</time></trkpt>
<trkpt lat="46.23693069" lon="7.52941609"><ele>2002.082764</ele><time>2007-08-03T15:13:50Z</time></trkpt>
<trkpt lat="46.23689859" lon="7.52912725"><ele>2002.563477</ele><time>2007-08-03T15:13:59Z</time></trkpt>
<trkpt lat="46.23687789" lon="7.52884713"><ele>2003.044189</ele><time>2007-08-03T15:14:08Z</time></trkpt>
<trkpt lat="46.23691980" lon="7.52864077"><ele>2004.966797</ele><time>2007-08-03T15:14:15Z</time></trkpt>
<trkpt lat="46.23692240" lon="7.52858763"><ele>2005.927979</ele><time>2007-08-03T15:14:17Z</time></trkpt>
<trkpt lat="46.23697369" lon="7.52844128"><ele>2008.331299</ele><time>2007-08-03T15:14:23Z</time></trkpt>
<trkpt lat="46.23706698" lon="7.52828253"><ele>2009.773193</ele><time>2007-08-03T15:14:30Z</time></trkpt>
<trkpt lat="46.23708165" lon="7.52810307"><ele>2010.734619</ele><time>2007-08-03T15:14:37Z</time></trkpt>
<trkpt lat="46.23707947" lon="7.52794138"><ele>2013.138184</ele><time>2007-08-03T15:14:43Z</time></trkpt>
<trkpt lat="46.23708174" lon="7.52776327"><ele>2015.060791</ele><time>2007-08-03T15:14:50Z</time></trkpt>
<trkpt lat="46.23709213" lon="7.52760669"><ele>2016.021973</ele><time>2007-08-03T15:14:56Z</time></trkpt>
<trkpt lat="46.23708894" lon="7.52745708"><ele>2016.983398</ele><time>2007-08-03T15:15:02Z</time></trkpt>
<trkpt lat="46.23708702" lon="7.52727695"><ele>2017.94458</ele><time>2007-08-03T15:15:09Z</time></trkpt>
<trkpt lat="46.23710353" lon="7.52710403"><ele>2019.386719</ele><time>2007-08-03T15:15:16Z</time></trkpt>
<trkpt lat="46.23712733" lon="7.52703329"><ele>2020.828613</ele><time>2007-08-03T15:15:19Z</time></trkpt>
<trkpt lat="46.23710194" lon="7.52690337"><ele>2021.789795</ele><time>2007-08-03T15:15:25Z</time></trkpt>
<trkpt lat="46.23715986" lon="7.52674294"><ele>2022.751221</ele><time>2007-08-03T15:15:32Z</time></trkpt>
<trkpt lat="46.23721953" lon="7.52660296"><ele>2023.712402</ele><time>2007-08-03T15:15:38Z</time></trkpt>
<trkpt lat="46.23724342" lon="7.52653196"><ele>2024.193115</ele><time>2007-08-03T15:15:41Z</time></trkpt>
<trkpt lat="46.23727519" lon="7.52637908"><ele>2025.154297</ele><time>2007-08-03T15:15:47Z</time></trkpt>
<trkpt lat="46.23724292" lon="7.52616718"><ele>2026.115723</ele><time>2007-08-03T15:15:55Z</time></trkpt>
<trkpt lat="46.23723269" lon="7.52614003"><ele>2026.115723</ele><time>2007-08-03T15:15:56Z</time></trkpt>
<trkpt lat="46.23725692" lon="7.52603567"><ele>2026.596436</ele><time>2007-08-03T15:16:00Z</time></trkpt>
<trkpt lat="46.23726807" lon="7.52593777"><ele>2027.557617</ele><time>2007-08-03T15:16:04Z</time></trkpt>
<trkpt lat="46.23728349" lon="7.52582202"><ele>2028.038574</ele><time>2007-08-03T15:16:09Z</time></trkpt>
<trkpt lat="46.23730687" lon="7.52569939"><ele>2028.519287</ele><time>2007-08-03T15:16:14Z</time></trkpt>
<trkpt lat="46.23728190" lon="7.52550988"><ele>2029.961182</ele><time>2007-08-03T15:16:21Z</time></trkpt>
<trkpt lat="46.23728156" lon="7.52548146"><ele>2029.961182</ele><time>2007-08-03T15:16:22Z</time></trkpt>
<trkpt lat="46.23725105" lon="7.52525087"><ele>2030.922607</ele><time>2007-08-03T15:16:30Z</time></trkpt>
<trkpt lat="46.23722180" lon="7.52498399"><ele>2031.883789</ele><time>2007-08-03T15:16:39Z</time></trkpt>
<trkpt lat="46.23721928" lon="7.52493756"><ele>2031.883789</ele><time>2007-08-03T15:16:41Z</time></trkpt>
<trkpt lat="46.23718835" lon="7.52486288"><ele>2032.364502</ele><time>2007-08-03T15:16:45Z</time></trkpt>
<trkpt lat="46.23702432" lon="7.52470169"><ele>2032.364502</ele><time>2007-08-03T15:16:53Z</time></trkpt>
<trkpt lat="46.23693002" lon="7.52458334"><ele>2032.844971</ele><time>2007-08-03T15:16:58Z</time></trkpt>
<trkpt lat="46.23682223" lon="7.52443817"><ele>2034.287109</ele><time>2007-08-03T15:17:05Z</time></trkpt>
<trkpt lat="46.23672039" lon="7.52425276"><ele>2032.844971</ele><time>2007-08-03T15:17:11Z</time></trkpt>
<trkpt lat="46.23661445" lon="7.52399166"><ele>2032.364502</ele><time>2007-08-03T15:17:17Z</time></trkpt>
<trkpt lat="46.23656063" lon="7.52390675"><ele>2032.364502</ele><time>2007-08-03T15:17:19Z</time></trkpt>
<trkpt lat="46.23626869" lon="7.52360970"><ele>2030.922607</ele><time>2007-08-03T15:17:26Z</time></trkpt>
<trkpt lat="46.23622066" lon="7.52356192"><ele>2030.441895</ele><time>2007-08-03T15:17:27Z</time></trkpt>
<trkpt lat="46.23611916" lon="7.52347517"><ele>2030.441895</ele><time>2007-08-03T15:17:29Z</time></trkpt>
<trkpt lat="46.23590156" lon="7.52336008"><ele>2030.922607</ele><time>2007-08-03T15:17:33Z</time></trkpt>
<trkpt lat="46.23557475" lon="7.52322815"><ele>2029.961182</ele><time>2007-08-03T15:17:40Z</time></trkpt>
<trkpt lat="46.23537702" lon="7.52320175"><ele>2029.961182</ele><time>2007-08-03T15:17:46Z</time></trkpt>
<trkpt lat="46.23520754" lon="7.52322086"><ele>2029.961182</ele><time>2007-08-03T15:17:52Z</time></trkpt>
<trkpt lat="46.23507243" lon="7.52320292"><ele>2030.922607</ele><time>2007-08-03T15:17:57Z</time></trkpt>
<trkpt lat="46.23497318" lon="7.52306638"><ele>2031.883789</ele><time>2007-08-03T15:18:02Z</time></trkpt>
<trkpt lat="46.23488920" lon="7.52285792"><ele>2033.806396</ele><time>2007-08-03T15:18:08Z</time></trkpt>
<trkpt lat="46.23479255" lon="7.52265223"><ele>2035.729004</ele><time>2007-08-03T15:18:14Z</time></trkpt>
<trkpt lat="46.23477705" lon="7.52262197"><ele>2036.209717</ele><time>2007-08-03T15:18:15Z</time></trkpt>
<trkpt lat="46.23465836" lon="7.52252374"><ele>2037.170898</ele><time>2007-08-03T15:18:21Z</time></trkpt>
<trkpt lat="46.23448050" lon="7.52255257"><ele>2037.651611</ele><time>2007-08-03T15:18:28Z</time></trkpt>
<trkpt lat="46.23430246" lon="7.52260580"><ele>2039.093506</ele><time>2007-08-03T15:18:35Z</time></trkpt>
<trkpt lat="46.23415545" lon="7.52260043"><ele>2040.054932</ele><time>2007-08-03T15:18:41Z</time></trkpt>
<trkpt lat="46.23400943" lon="7.52256338"><ele>2041.496826</ele><time>2007-08-03T15:18:47Z</time></trkpt>
<trkpt lat="46.23398580" lon="7.52255039"><ele>2041.496826</ele><time>2007-08-03T15:18:48Z</time></trkpt>
<trkpt lat="46.23382973" lon="7.52245266"><ele>2042.938721</ele><time>2007-08-03T15:18:55Z</time></trkpt>
<trkpt lat="46.23370919" lon="7.52235635"><ele>2043.419434</ele><time>2007-08-03T15:19:01Z</time></trkpt>
<trkpt lat="46.23370249" lon="7.52229139"><ele>2043.900146</ele><time>2007-08-03T15:19:04Z</time></trkpt>
<trkpt lat="46.23352890" lon="7.52212962"><ele>2044.861572</ele><time>2007-08-03T15:19:12Z</time></trkpt>
<trkpt lat="46.23340937" lon="7.52206852"><ele>2045.822998</ele><time>2007-08-03T15:19:17Z</time></trkpt>
<trkpt lat="46.23328415" lon="7.52202887"><ele>2046.303711</ele><time>2007-08-03T15:19:22Z</time></trkpt>
<trkpt lat="46.23314216" lon="7.52203826"><ele>2047.264893</ele><time>2007-08-03T15:19:28Z</time></trkpt>
<trkpt lat="46.23298542" lon="7.52204245"><ele>2047.745605</ele><time>2007-08-03T15:19:34Z</time></trkpt>
<trkpt lat="46.23285675" lon="7.52203449"><ele>2048.706787</ele><time>2007-08-03T15:19:39Z</time></trkpt>
<trkpt lat="46.23272809" lon="7.52200440"><ele>2048.706787</ele><time>2007-08-03T15:19:44Z</time></trkpt>
<trkpt lat="46.23257043" lon="7.52194187"><ele>2050.148926</ele><time>2007-08-03T15:19:51Z</time></trkpt>
<trkpt lat="46.23240614" lon="7.52188378"><ele>2051.59082</ele><time>2007-08-03T15:19:57Z</time></trkpt>
<trkpt lat="46.23226256" lon="7.52186526"><ele>2052.071289</ele><time>2007-08-03T15:20:03Z</time></trkpt>
<trkpt lat="46.23209987" lon="7.52176275"><ele>2053.032715</ele><time>2007-08-03T15:20:09Z</time></trkpt>
<trkpt lat="46.23198026" lon="7.52163802"><ele>2054.474609</ele><time>2007-08-03T15:20:15Z</time></trkpt>
<trkpt lat="46.23184590" lon="7.52157566"><ele>2054.955322</ele><time>2007-08-03T15:20:21Z</time></trkpt>
<trkpt lat="46.23170123" lon="7.52147625"><ele>2056.397217</ele><time>2007-08-03T15:20:27Z</time></trkpt>
<trkpt lat="46.23153904" lon="7.52129747"><ele>2057.839355</ele><time>2007-08-03T15:20:34Z</time></trkpt>
<trkpt lat="46.23144717" lon="7.52121390"><ele>2058.800537</ele><time>2007-08-03T15:20:39Z</time></trkpt>
<trkpt lat="46.23131004" lon="7.52113486"><ele>2059.761719</ele><time>2007-08-03T15:20:46Z</time></trkpt>
<trkpt lat="46.23119772" lon="7.52107476"><ele>2060.242676</ele><time>2007-08-03T15:20:50Z</time></trkpt>
<trkpt lat="46.23102967" lon="7.52096999"><ele>2061.204102</ele><time>2007-08-03T15:20:57Z</time></trkpt>
<trkpt lat="46.23089313" lon="7.52082665"><ele>2062.165283</ele><time>2007-08-03T15:21:03Z</time></trkpt>
<trkpt lat="46.23079129" lon="7.52071652"><ele>2063.126709</ele><time>2007-08-03T15:21:08Z</time></trkpt>
<trkpt lat="46.23067302" lon="7.52074510"><ele>2063.126709</ele><time>2007-08-03T15:21:12Z</time></trkpt>
<trkpt lat="46.23054712" lon="7.52086228"><ele>2063.607178</ele><time>2007-08-03T15:21:18Z</time></trkpt>
<trkpt lat="46.23050488" lon="7.52090645"><ele>2064.087891</ele><time>2007-08-03T15:21:20Z</time></trkpt>
<trkpt lat="46.23042550" lon="7.52104224"><ele>2065.049316</ele><time>2007-08-03T15:21:26Z</time></trkpt>
<trkpt lat="46.23040915" lon="7.52106235"><ele>2065.049316</ele><time>2007-08-03T15:21:27Z</time></trkpt>
<trkpt lat="46.23026524" lon="7.52121616"><ele>2066.010498</ele><time>2007-08-03T15:21:34Z</time></trkpt>
<trkpt lat="46.23017698" lon="7.52136184"><ele>2066.491211</ele><time>2007-08-03T15:21:40Z</time></trkpt>
<trkpt lat="46.23003817" lon="7.52154926"><ele>2067.933105</ele><time>2007-08-03T15:21:48Z</time></trkpt>
<trkpt lat="46.22992468" lon="7.52170474"><ele>2068.894531</ele><time>2007-08-03T15:21:54Z</time></trkpt>
<trkpt lat="46.22980868" lon="7.52189158"><ele>2069.855713</ele><time>2007-08-03T15:22:01Z</time></trkpt>
<trkpt lat="46.22969376" lon="7.52208226"><ele>2070.817139</ele><time>2007-08-03T15:22:08Z</time></trkpt>
<trkpt lat="46.22959100" lon="7.52220707"><ele>2071.297607</ele><time>2007-08-03T15:22:13Z</time></trkpt>
<trkpt lat="46.22949293" lon="7.52227656"><ele>2071.297607</ele><time>2007-08-03T15:22:18Z</time></trkpt>
<trkpt lat="46.22934457" lon="7.52229935"><ele>2072.259033</ele><time>2007-08-03T15:22:24Z</time></trkpt>
<trkpt lat="46.22915690" lon="7.52228837"><ele>2074.181641</ele><time>2007-08-03T15:22:32Z</time></trkpt>
<trkpt lat="46.22900535" lon="7.52235644"><ele>2075.142822</ele><time>2007-08-03T15:22:38Z</time></trkpt>
<trkpt lat="46.22893134" lon="7.52239357"><ele>2075.623535</ele><time>2007-08-03T15:22:41Z</time></trkpt>
<trkpt lat="46.22881668" lon="7.52237789"><ele>2075.623535</ele><time>2007-08-03T15:22:45Z</time></trkpt>
<trkpt lat="46.22866463" lon="7.52238653"><ele>2078.507813</ele><time>2007-08-03T15:22:53Z</time></trkpt>
<trkpt lat="46.22864669" lon="7.52238133"><ele>2078.507813</ele><time>2007-08-03T15:22:54Z</time></trkpt>
<trkpt lat="46.22854929" lon="7.52239248"><ele>2078.988281</ele><time>2007-08-03T15:22:58Z</time></trkpt>
<trkpt lat="46.22842097" lon="7.52235333"><ele>2080.911133</ele><time>2007-08-03T15:23:03Z</time></trkpt>
<trkpt lat="46.22827705" lon="7.52233112"><ele>2081.872314</ele><time>2007-08-03T15:23:09Z</time></trkpt>
<trkpt lat="46.22814344" lon="7.52227639"><ele>2082.353027</ele><time>2007-08-03T15:23:15Z</time></trkpt>
<trkpt lat="46.22798335" lon="7.52218092"><ele>2082.833496</ele><time>2007-08-03T15:23:21Z</time></trkpt>
<trkpt lat="46.22781462" lon="7.52205703"><ele>2083.794922</ele><time>2007-08-03T15:23:28Z</time></trkpt>
<trkpt lat="46.22763919" lon="7.52193055"><ele>2084.756348</ele><time>2007-08-03T15:23:35Z</time></trkpt>
<trkpt lat="46.22747364" lon="7.52182737"><ele>2086.198242</ele><time>2007-08-03T15:23:42Z</time></trkpt>
<trkpt lat="46.22735345" lon="7.52184330"><ele>2086.198242</ele><time>2007-08-03T15:23:47Z</time></trkpt>
<trkpt lat="46.22720702" lon="7.52181924"><ele>2087.640137</ele><time>2007-08-03T15:23:53Z</time></trkpt>
<trkpt lat="46.22710937" lon="7.52164062"><ele>2088.12085</ele><time>2007-08-03T15:23:59Z</time></trkpt>
<trkpt lat="46.22697199" lon="7.52134399"><ele>2089.082031</ele><time>2007-08-03T15:24:08Z</time></trkpt>
<trkpt lat="46.22689563" lon="7.52117224"><ele>2090.043457</ele><time>2007-08-03T15:24:13Z</time></trkpt>
<trkpt lat="46.22683637" lon="7.52107878"><ele>2091.485352</ele><time>2007-08-03T15:24:16Z</time></trkpt>
<trkpt lat="46.22673344" lon="7.52088466"><ele>2091.966064</ele><time>2007-08-03T15:24:22Z</time></trkpt>
<trkpt lat="46.22663713" lon="7.52072766"><ele>2091.966064</ele><time>2007-08-03T15:24:28Z</time></trkpt>
<trkpt lat="46.22651802" lon="7.52073479"><ele>2093.408203</ele><time>2007-08-03T15:24:33Z</time></trkpt>
<trkpt lat="46.22639917" lon="7.52088466"><ele>2094.850098</ele><time>2007-08-03T15:24:38Z</time></trkpt>
<trkpt lat="46.22633656" lon="7.52105129"><ele>2095.330811</ele><time>2007-08-03T15:24:43Z</time></trkpt>
<trkpt lat="46.22624947" lon="7.52125128"><ele>2096.292236</ele><time>2007-08-03T15:24:49Z</time></trkpt>
<trkpt lat="46.22614142" lon="7.52145622"><ele>2099.176025</ele><time>2007-08-03T15:24:57Z</time></trkpt>
<trkpt lat="46.22603095" lon="7.52158027"><ele>2099.656738</ele><time>2007-08-03T15:25:03Z</time></trkpt>
<trkpt lat="46.22596893" lon="7.52178797"><ele>2100.61792</ele><time>2007-08-03T15:25:09Z</time></trkpt>
<trkpt lat="46.22596088" lon="7.52208763"><ele>2101.098633</ele><time>2007-08-03T15:25:17Z</time></trkpt>
<trkpt lat="46.22594403" lon="7.52236733"><ele>2101.579346</ele><time>2007-08-03T15:25:24Z</time></trkpt>
<trkpt lat="46.22581084" lon="7.52261644"><ele>2102.059814</ele><time>2007-08-03T15:25:31Z</time></trkpt>
<trkpt lat="46.22565418" lon="7.52285499"><ele>2102.059814</ele><time>2007-08-03T15:25:38Z</time></trkpt>
<trkpt lat="46.22557766" lon="7.52301148"><ele>2103.02124</ele><time>2007-08-03T15:25:42Z</time></trkpt>
<trkpt lat="46.22544087" lon="7.52320033"><ele>2103.02124</ele><time>2007-08-03T15:25:47Z</time></trkpt>
<trkpt lat="46.22532813" lon="7.52337559"><ele>2103.982666</ele><time>2007-08-03T15:25:53Z</time></trkpt>
<trkpt lat="46.22516460" lon="7.52349168"><ele>2104.463135</ele><time>2007-08-03T15:25:59Z</time></trkpt>
<trkpt lat="46.22500836" lon="7.52367457"><ele>2105.424561</ele><time>2007-08-03T15:26:05Z</time></trkpt>
<trkpt lat="46.22486469" lon="7.52386937"><ele>2105.424561</ele><time>2007-08-03T15:26:11Z</time></trkpt>
<trkpt lat="46.22472748" lon="7.52408378"><ele>2105.905029</ele><time>2007-08-03T15:26:17Z</time></trkpt>
<trkpt lat="46.22463444" lon="7.52420708"><ele>2106.385742</ele><time>2007-08-03T15:26:21Z</time></trkpt>
<trkpt lat="46.22447024" lon="7.52424245"><ele>2106.385742</ele><time>2007-08-03T15:26:26Z</time></trkpt>
<trkpt lat="46.22427972" lon="7.52432585"><ele>2107.347168</ele><time>2007-08-03T15:26:32Z</time></trkpt>
<trkpt lat="46.22407604" lon="7.52449332"><ele>2107.347168</ele><time>2007-08-03T15:26:38Z</time></trkpt>
<trkpt lat="46.22390647" lon="7.52456867"><ele>2108.789307</ele><time>2007-08-03T15:26:44Z</time></trkpt>
<trkpt lat="46.22369584" lon="7.52464612"><ele>2109.750488</ele><time>2007-08-03T15:26:51Z</time></trkpt>
<trkpt lat="46.22348336" lon="7.52474779"><ele>2110.711914</ele><time>2007-08-03T15:26:58Z</time></trkpt>
<trkpt lat="46.22331262" lon="7.52486975"><ele>2111.67334</ele><time>2007-08-03T15:27:04Z</time></trkpt>
<trkpt lat="46.22315990" lon="7.52477327"><ele>2111.67334</ele><time>2007-08-03T15:27:09Z</time></trkpt>
<trkpt lat="46.22301095" lon="7.52471980"><ele>2112.153809</ele><time>2007-08-03T15:27:14Z</time></trkpt>
<trkpt lat="46.22286100" lon="7.52477034"><ele>2113.595703</ele><time>2007-08-03T15:27:19Z</time></trkpt>
<trkpt lat="46.22283418" lon="7.52478534"><ele>2113.595703</ele><time>2007-08-03T15:27:20Z</time></trkpt>
<trkpt lat="46.22262228" lon="7.52487897"><ele>2114.076416</ele><time>2007-08-03T15:27:28Z</time></trkpt>
<trkpt lat="46.22250494" lon="7.52483848"><ele>2114.557129</ele><time>2007-08-03T15:27:32Z</time></trkpt>
<trkpt lat="46.22235079" lon="7.52470446"><ele>2115.518555</ele><time>2007-08-03T15:27:38Z</time></trkpt>
<trkpt lat="46.22219103" lon="7.52459583"><ele>2117.921631</ele><time>2007-08-03T15:27:44Z</time></trkpt>
<trkpt lat="46.22203907" lon="7.52460916"><ele>2118.402344</ele><time>2007-08-03T15:27:50Z</time></trkpt>
<trkpt lat="46.22183849" lon="7.52464578"><ele>2119.36377</ele><time>2007-08-03T15:27:58Z</time></trkpt>
<trkpt lat="46.22172927" lon="7.52461335"><ele>2119.844238</ele><time>2007-08-03T15:28:03Z</time></trkpt>
<trkpt lat="46.22161335" lon="7.52444386"><ele>2120.805664</ele><time>2007-08-03T15:28:10Z</time></trkpt>
<trkpt lat="46.22145695" lon="7.52420557"><ele>2121.286133</ele><time>2007-08-03T15:28:19Z</time></trkpt>
<trkpt lat="46.22126768" lon="7.52413600"><ele>2122.247559</ele><time>2007-08-03T15:28:27Z</time></trkpt>
<trkpt lat="46.22112419" lon="7.52405318"><ele>2122.247559</ele><time>2007-08-03T15:28:35Z</time></trkpt>
<trkpt lat="46.22110776" lon="7.52403424"><ele>2122.728271</ele><time>2007-08-03T15:28:37Z</time></trkpt>
<trkpt lat="46.22102696" lon="7.52396987"><ele>2123.689453</ele><time>2007-08-03T15:28:44Z</time></trkpt>
<trkpt lat="46.22094062" lon="7.52394472"><ele>2124.651123</ele><time>2007-08-03T15:28:50Z</time></trkpt>
<trkpt lat="46.22083987" lon="7.52388186"><ele>2126.57373</ele><time>2007-08-03T15:28:57Z</time></trkpt>
<trkpt lat="46.22075312" lon="7.52382947"><ele>2128.015625</ele><time>2007-08-03T15:29:03Z</time></trkpt>
<trkpt lat="46.22065128" lon="7.52375538"><ele>2129.45752</ele><time>2007-08-03T15:29:11Z</time></trkpt>
<trkpt lat="46.22055447" lon="7.52367047"><ele>2130.899658</ele><time>2007-08-03T15:29:18Z</time></trkpt>
<trkpt lat="46.22047702" lon="7.52358288"><ele>2132.341553</ele><time>2007-08-03T15:29:24Z</time></trkpt>
<trkpt lat="46.22037887" lon="7.52349470"><ele>2134.744873</ele><time>2007-08-03T15:29:31Z</time></trkpt>
<trkpt lat="46.22036462" lon="7.52348657"><ele>2134.744873</ele><time>2007-08-03T15:29:32Z</time></trkpt>
<trkpt lat="46.22027996" lon="7.52343359"><ele>2135.706055</ele><time>2007-08-03T15:29:39Z</time></trkpt>
<trkpt lat="46.22016672" lon="7.52340317"><ele>2137.628662</ele><time>2007-08-03T15:29:46Z</time></trkpt>
<trkpt lat="46.22004678" lon="7.52337492"><ele>2140.032227</ele><time>2007-08-03T15:29:55Z</time></trkpt>
<trkpt lat="46.21994577" lon="7.52336017"><ele>2140.993408</ele><time>2007-08-03T15:30:03Z</time></trkpt>
<trkpt lat="46.21982910" lon="7.52330703"><ele>2143.396729</ele><time>2007-08-03T15:30:12Z</time></trkpt>
<trkpt lat="46.21968158" lon="7.52323268"><ele>2145.800049</ele><time>2007-08-03T15:30:23Z</time></trkpt>
<trkpt lat="46.21958946" lon="7.52318985"><ele>2146.76123</ele><time>2007-08-03T15:30:30Z</time></trkpt>
<trkpt lat="46.21950639" lon="7.52316923"><ele>2147.722656</ele><time>2007-08-03T15:30:37Z</time></trkpt>
<trkpt lat="46.21938477" lon="7.52313964"><ele>2149.645264</ele><time>2007-08-03T15:30:45Z</time></trkpt>
<trkpt lat="46.21924236" lon="7.52315188"><ele>2152.04834</ele><time>2007-08-03T15:30:55Z</time></trkpt>
<trkpt lat="46.21916248" lon="7.52319798"><ele>2153.490479</ele><time>2007-08-03T15:31:01Z</time></trkpt>
<trkpt lat="46.21908227" lon="7.52321675"><ele>2153.490479</ele><time>2007-08-03T15:31:07Z</time></trkpt>
<trkpt lat="46.21896124" lon="7.52325372"><ele>2154.932373</ele><time>2007-08-03T15:31:15Z</time></trkpt>
<trkpt lat="46.21881807" lon="7.52325422"><ele>2156.374512</ele><time>2007-08-03T15:31:25Z</time></trkpt>
<trkpt lat="46.21869586" lon="7.52325816"><ele>2158.777832</ele><time>2007-08-03T15:31:33Z</time></trkpt>
<trkpt lat="46.21855563" lon="7.52328716"><ele>2159.258545</ele><time>2007-08-03T15:31:42Z</time></trkpt>
<trkpt lat="46.21841775" lon="7.52326906"><ele>2161.181152</ele><time>2007-08-03T15:31:51Z</time></trkpt>
<trkpt lat="46.21829085" lon="7.52321315"><ele>2162.623047</ele><time>2007-08-03T15:32:00Z</time></trkpt>
<trkpt lat="46.21814484" lon="7.52306764"><ele>2165.026367</ele><time>2007-08-03T15:32:12Z</time></trkpt>
<trkpt lat="46.21803889" lon="7.52291182"><ele>2166.948975</ele><time>2007-08-03T15:32:22Z</time></trkpt>
<trkpt lat="46.21792339" lon="7.52277905"><ele>2168.390869</ele><time>2007-08-03T15:32:31Z</time></trkpt>
<trkpt lat="46.21779850" lon="7.52267545"><ele>2169.832764</ele><time>2007-08-03T15:32:40Z</time></trkpt>
<trkpt lat="46.21769833" lon="7.52257135"><ele>2171.755371</ele><time>2007-08-03T15:32:48Z</time></trkpt>
<trkpt lat="46.21763396" lon="7.52245333"><ele>2173.197754</ele><time>2007-08-03T15:33:09Z</time></trkpt>
<trkpt lat="46.21762139" lon="7.52244512"><ele>2173.197754</ele><time>2007-08-03T15:33:10Z</time></trkpt>
<trkpt lat="46.21754872" lon="7.52233909"><ele>2174.158936</ele><time>2007-08-03T15:33:17Z</time></trkpt>
<trkpt lat="46.21752298" lon="7.52216415"><ele>2175.120117</ele><time>2007-08-03T15:33:25Z</time></trkpt>
<trkpt lat="46.21749289" lon="7.52196399"><ele>2175.60083</ele><time>2007-08-03T15:33:32Z</time></trkpt>
<trkpt lat="46.21739868" lon="7.52180977"><ele>2176.562256</ele><time>2007-08-03T15:33:38Z</time></trkpt>
<trkpt lat="46.21727069" lon="7.52165856"><ele>2177.523438</ele><time>2007-08-03T15:33:44Z</time></trkpt>
<trkpt lat="46.21708268" lon="7.52156309"><ele>2178.00415</ele><time>2007-08-03T15:33:50Z</time></trkpt>
<trkpt lat="46.21688889" lon="7.52145505"><ele>2178.965332</ele><time>2007-08-03T15:33:56Z</time></trkpt>
<trkpt lat="46.21674665" lon="7.52124039"><ele>2179.446045</ele><time>2007-08-03T15:34:02Z</time></trkpt>
<trkpt lat="46.21664414" lon="7.52097568"><ele>2179.446045</ele><time>2007-08-03T15:34:08Z</time></trkpt>
<trkpt lat="46.21650693" lon="7.52073697"><ele>2179.446045</ele><time>2007-08-03T15:34:14Z</time></trkpt>
<trkpt lat="46.21631264" lon="7.52054796"><ele>2180.407471</ele><time>2007-08-03T15:34:21Z</time></trkpt>
<trkpt lat="46.21619822" lon="7.52040538"><ele>2179.926758</ele><time>2007-08-03T15:34:25Z</time></trkpt>
<trkpt lat="46.21603830" lon="7.52018552"><ele>2180.888184</ele><time>2007-08-03T15:34:31Z</time></trkpt>
<trkpt lat="46.21590377" lon="7.52001654"><ele>2180.888184</ele><time>2007-08-03T15:34:36Z</time></trkpt>
<trkpt lat="46.21579522" lon="7.52011302"><ele>2181.368652</ele><time>2007-08-03T15:34:40Z</time></trkpt>
<trkpt lat="46.21574812" lon="7.52020564"><ele>2181.368652</ele><time>2007-08-03T15:34:42Z</time></trkpt>
<trkpt lat="46.21549423" lon="7.52054628"><ele>2182.330078</ele><time>2007-08-03T15:34:51Z</time></trkpt>
<trkpt lat="46.21523104" lon="7.52065189"><ele>2182.330078</ele><time>2007-08-03T15:34:58Z</time></trkpt>
<trkpt lat="46.21516138" lon="7.52069925"><ele>2182.330078</ele><time>2007-08-03T15:35:00Z</time></trkpt>
<trkpt lat="46.21492862" lon="7.52088072"><ele>2182.330078</ele><time>2007-08-03T15:35:06Z</time></trkpt>
<trkpt lat="46.21482669" lon="7.52091483"><ele>2182.810547</ele><time>2007-08-03T15:35:09Z</time></trkpt>
<trkpt lat="46.21455554" lon="7.52093378"><ele>2184.252686</ele><time>2007-08-03T15:35:16Z</time></trkpt>
<trkpt lat="46.21428925" lon="7.52086504"><ele>2184.252686</ele><time>2007-08-03T15:35:23Z</time></trkpt>
<trkpt lat="46.21414533" lon="7.52085297"><ele>2184.733398</ele><time>2007-08-03T15:35:27Z</time></trkpt>
<trkpt lat="46.21401465" lon="7.52090762"><ele>2185.213867</ele><time>2007-08-03T15:35:31Z</time></trkpt>
<trkpt lat="46.21378776" lon="7.52093738"><ele>2185.213867</ele><time>2007-08-03T15:35:37Z</time></trkpt>
<trkpt lat="46.21374912" lon="7.52092808"><ele>2186.175293</ele><time>2007-08-03T15:35:38Z</time></trkpt>
<trkpt lat="46.21345743" lon="7.52075465"><ele>2186.175293</ele><time>2007-08-03T15:35:46Z</time></trkpt>
<trkpt lat="46.21322265" lon="7.52051409"><ele>2186.655762</ele><time>2007-08-03T15:35:53Z</time></trkpt>
<trkpt lat="46.21297689" lon="7.52021084"><ele>2186.655762</ele><time>2007-08-03T15:36:01Z</time></trkpt>
<trkpt lat="46.21286399" lon="7.52000984"><ele>2187.136475</ele><time>2007-08-03T15:36:06Z</time></trkpt>
<trkpt lat="46.21275276" lon="7.51979853"><ele>2187.136475</ele><time>2007-08-03T15:36:11Z</time></trkpt>
<trkpt lat="46.21259694" lon="7.51951246"><ele>2187.617188</ele><time>2007-08-03T15:36:18Z</time></trkpt>
<trkpt lat="46.21241748" lon="7.51910845"><ele>2188.578857</ele><time>2007-08-03T15:36:27Z</time></trkpt>
<trkpt lat="46.21233199" lon="7.51874082"><ele>2189.059326</ele><time>2007-08-03T15:36:34Z</time></trkpt>
<trkpt lat="46.21221473" lon="7.51860654"><ele>2189.540039</ele><time>2007-08-03T15:36:38Z</time></trkpt>
<trkpt lat="46.21200778" lon="7.51833614"><ele>2189.540039</ele><time>2007-08-03T15:36:45Z</time></trkpt>
<trkpt lat="46.21188892" lon="7.51809818"><ele>2190.020752</ele><time>2007-08-03T15:36:51Z</time></trkpt>
<trkpt lat="46.21177912" lon="7.51797647"><ele>2190.501221</ele><time>2007-08-03T15:36:55Z</time></trkpt>
<trkpt lat="46.21156094" lon="7.51791093"><ele>2190.020752</ele><time>2007-08-03T15:37:01Z</time></trkpt>
<trkpt lat="46.21136623" lon="7.51774807"><ele>2191.462646</ele><time>2007-08-03T15:37:07Z</time></trkpt>
<trkpt lat="46.21112466" lon="7.51756065"><ele>2191.462646</ele><time>2007-08-03T15:37:14Z</time></trkpt>
<trkpt lat="46.21095995" lon="7.51744439"><ele>2191.943359</ele><time>2007-08-03T15:37:19Z</time></trkpt>
<trkpt lat="46.21066919" lon="7.51726845"><ele>2192.904541</ele><time>2007-08-03T15:37:27Z</time></trkpt>
<trkpt lat="46.21063164" lon="7.51725286"><ele>2193.385254</ele><time>2007-08-03T15:37:28Z</time></trkpt>
<trkpt lat="46.21034246" lon="7.51719905"><ele>2193.385254</ele><time>2007-08-03T15:37:35Z</time></trkpt>
<trkpt lat="46.21001934" lon="7.51711255"><ele>2194.346436</ele><time>2007-08-03T15:37:43Z</time></trkpt>
<trkpt lat="46.20964349" lon="7.51709319"><ele>2195.307861</ele><time>2007-08-03T15:37:52Z</time></trkpt>
<trkpt lat="46.20950796" lon="7.51708589"><ele>2194.827148</ele><time>2007-08-03T15:37:55Z</time></trkpt>
<trkpt lat="46.20925055" lon="7.51712085"><ele>2194.827148</ele><time>2007-08-03T15:38:01Z</time></trkpt>
<trkpt lat="46.20894595" lon="7.51718028"><ele>2195.307861</ele><time>2007-08-03T15:38:08Z</time></trkpt>
<trkpt lat="46.20881352" lon="7.51720944"><ele>2195.788574</ele><time>2007-08-03T15:38:11Z</time></trkpt>
<trkpt lat="46.20872425" lon="7.51722990"><ele>2195.788574</ele><time>2007-08-03T15:38:13Z</time></trkpt>
<trkpt lat="46.20836467" lon="7.51722202"><ele>2196.269287</ele><time>2007-08-03T15:38:21Z</time></trkpt>
<trkpt lat="46.20815193" lon="7.51727516"><ele>2196.269287</ele><time>2007-08-03T15:38:27Z</time></trkpt>
<trkpt lat="46.20798555" lon="7.51739385"><ele>2196.749756</ele><time>2007-08-03T15:38:32Z</time></trkpt>
<trkpt lat="46.20779369" lon="7.51757079"><ele>2196.749756</ele><time>2007-08-03T15:38:38Z</time></trkpt>
<trkpt lat="46.20760309" lon="7.51762276"><ele>2198.19165</ele><time>2007-08-03T15:38:43Z</time></trkpt>
<trkpt lat="46.20739404" lon="7.51761538"><ele>2198.19165</ele><time>2007-08-03T15:38:49Z</time></trkpt>
<trkpt lat="46.20719329" lon="7.51763416"><ele>2198.672363</ele><time>2007-08-03T15:38:55Z</time></trkpt>
<trkpt lat="46.20699867" lon="7.51751195"><ele>2199.153076</ele><time>2007-08-03T15:39:19Z</time></trkpt>
<trkpt lat="46.20693429" lon="7.51745118"><ele>2199.153076</ele><time>2007-08-03T15:39:24Z</time></trkpt>
<trkpt lat="46.20684134" lon="7.51740323"><ele>2199.153076</ele><time>2007-08-03T15:39:42Z</time></trkpt>
<trkpt lat="46.20674754" lon="7.51736225"><ele>2200.114502</ele><time>2007-08-03T15:39:47Z</time></trkpt>
<trkpt lat="46.20656365" lon="7.51727784"><ele>2199.633789</ele><time>2007-08-03T15:39:53Z</time></trkpt>
<trkpt lat="46.20639383" lon="7.51710928"><ele>2201.075684</ele><time>2007-08-03T15:39:59Z</time></trkpt>
<trkpt lat="46.20624647" lon="7.51697953"><ele>2201.075684</ele><time>2007-08-03T15:40:04Z</time></trkpt>
<trkpt lat="46.20620557" lon="7.51677342"><ele>2202.036865</ele><time>2007-08-03T15:40:08Z</time></trkpt>
<trkpt lat="46.20605478" lon="7.51661542"><ele>2201.556396</ele><time>2007-08-03T15:40:13Z</time></trkpt>
<trkpt lat="46.20581514" lon="7.51657778"><ele>2202.036865</ele><time>2007-08-03T15:40:19Z</time></trkpt>
<trkpt lat="46.20552815" lon="7.51662296"><ele>2202.517578</ele><time>2007-08-03T15:40:26Z</time></trkpt>
<trkpt lat="46.20525607" lon="7.51652682"><ele>2202.998291</ele><time>2007-08-03T15:40:33Z</time></trkpt>
<trkpt lat="46.20511148" lon="7.51642364"><ele>2204.44043</ele><time>2007-08-03T15:40:37Z</time></trkpt>
<trkpt lat="46.20495415" lon="7.51614922"><ele>2203.959717</ele><time>2007-08-03T15:40:43Z</time></trkpt>
<trkpt lat="46.20488366" lon="7.51600128"><ele>2203.959717</ele><time>2007-08-03T15:40:46Z</time></trkpt>
<trkpt lat="46.20458342" lon="7.51566290"><ele>2204.921143</ele><time>2007-08-03T15:40:55Z</time></trkpt>
<trkpt lat="46.20444185" lon="7.51539753"><ele>2204.921143</ele><time>2007-08-03T15:41:01Z</time></trkpt>
<trkpt lat="46.20428142" lon="7.51510559"><ele>2204.921143</ele><time>2007-08-03T15:41:08Z</time></trkpt>
<trkpt lat="46.20420892" lon="7.51496125"><ele>2205.882324</ele><time>2007-08-03T15:41:14Z</time></trkpt>
<trkpt lat="46.20415804" lon="7.51489780"><ele>2205.882324</ele><time>2007-08-03T15:41:30Z</time></trkpt>
<trkpt lat="46.20402443" lon="7.51491465"><ele>2206.363037</ele><time>2007-08-03T15:41:35Z</time></trkpt>
<trkpt lat="46.20385705" lon="7.51482689"><ele>2206.363037</ele><time>2007-08-03T15:41:41Z</time></trkpt>
<trkpt lat="46.20371422" lon="7.51469546"><ele>2206.363037</ele><time>2007-08-03T15:41:47Z</time></trkpt>
<trkpt lat="46.20370299" lon="7.51467769"><ele>2208.285645</ele><time>2007-08-03T15:43:43Z</time></trkpt>
<trkpt lat="46.20361992" lon="7.51452874"><ele>2202.998291</ele><time>2007-08-03T15:44:10Z</time></trkpt>
<trkpt lat="46.20361364" lon="7.51450494"><ele>2202.998291</ele><time>2007-08-03T15:44:11Z</time></trkpt>
<trkpt lat="46.20360542" lon="7.51439438"><ele>2201.556396</ele><time>2007-08-03T15:44:14Z</time></trkpt>
<trkpt lat="46.20359587" lon="7.51425826"><ele>2199.633789</ele><time>2007-08-03T15:44:17Z</time></trkpt>
<trkpt lat="46.20353887" lon="7.51394679"><ele>2199.153076</ele><time>2007-08-03T15:44:23Z</time></trkpt>
<trkpt lat="46.20352495" lon="7.51387403"><ele>2198.19165</ele><time>2007-08-03T15:44:24Z</time></trkpt>
<trkpt lat="46.20344197" lon="7.51362249"><ele>2197.711182</ele><time>2007-08-03T15:44:29Z</time></trkpt>
<trkpt lat="46.20342228" lon="7.51358637"><ele>2197.230469</ele><time>2007-08-03T15:44:30Z</time></trkpt>
<trkpt lat="46.20331859" lon="7.51328604"><ele>2197.711182</ele><time>2007-08-03T15:44:36Z</time></trkpt>
<trkpt lat="46.20325556" lon="7.51314816"><ele>2198.19165</ele><time>2007-08-03T15:44:42Z</time></trkpt>
<trkpt lat="46.20318834" lon="7.51302042"><ele>2198.19165</ele><time>2007-08-03T15:44:47Z</time></trkpt>
<trkpt lat="46.20315347" lon="7.51293006"><ele>2196.749756</ele><time>2007-08-03T15:44:49Z</time></trkpt>
<trkpt lat="46.20310234" lon="7.51272756"><ele>2196.749756</ele><time>2007-08-03T15:44:53Z</time></trkpt>
<trkpt lat="46.20303637" lon="7.51253108"><ele>2197.711182</ele><time>2007-08-03T15:44:58Z</time></trkpt>
<trkpt lat="46.20294769" lon="7.51224375"><ele>2198.19165</ele><time>2007-08-03T15:45:04Z</time></trkpt>
<trkpt lat="46.20288667" lon="7.51209112"><ele>2198.19165</ele><time>2007-08-03T15:45:09Z</time></trkpt>
<trkpt lat="46.20285164" lon="7.51201325"><ele>2197.230469</ele><time>2007-08-03T15:45:12Z</time></trkpt>
<trkpt lat="46.20283186" lon="7.51191099"><ele>2195.307861</ele><time>2007-08-03T15:45:16Z</time></trkpt>
<trkpt lat="46.20275047" lon="7.51180463"><ele>2192.424072</ele><time>2007-08-03T15:45:21Z</time></trkpt>
<trkpt lat="46.20269204" lon="7.51174545"><ele>2190.020752</ele><time>2007-08-03T15:45:29Z</time></trkpt>
<trkpt lat="46.20268299" lon="7.51172458"><ele>2190.981934</ele><time>2007-08-03T15:45:31Z</time></trkpt>
<trkpt lat="46.20263304" lon="7.51163053"><ele>2191.943359</ele><time>2007-08-03T15:45:39Z</time></trkpt>
<trkpt lat="46.20257336" lon="7.51146264"><ele>2192.424072</ele><time>2007-08-03T15:45:59Z</time></trkpt>
<trkpt lat="46.20252047" lon="7.51131403"><ele>2192.904541</ele><time>2007-08-03T15:46:08Z</time></trkpt>
<trkpt lat="46.20249197" lon="7.51122938"><ele>2192.904541</ele><time>2007-08-03T15:46:14Z</time></trkpt>
<trkpt lat="46.20247965" lon="7.51118696"><ele>2192.904541</ele><time>2007-08-03T15:46:19Z</time></trkpt>
<trkpt lat="46.20247177" lon="7.51114120"><ele>2192.904541</ele><time>2007-08-03T15:46:21Z</time></trkpt>
<trkpt lat="46.20250924" lon="7.51092863"><ele>2189.059326</ele><time>2007-08-03T15:46:26Z</time></trkpt>
<trkpt lat="46.20254109" lon="7.51079142"><ele>2187.617188</ele><time>2007-08-03T15:46:29Z</time></trkpt>
<trkpt lat="46.20253916" lon="7.51074725"><ele>2188.098145</ele><time>2007-08-03T15:46:30Z</time></trkpt>
<trkpt lat="46.20241016" lon="7.51055832"><ele>2186.655762</ele><time>2007-08-03T15:46:39Z</time></trkpt>
<trkpt lat="46.20234646" lon="7.51043796"><ele>2186.175293</ele><time>2007-08-03T15:46:43Z</time></trkpt>
<trkpt lat="46.20227949" lon="7.51033444"><ele>2186.655762</ele><time>2007-08-03T15:46:49Z</time></trkpt>
<trkpt lat="46.20225619" lon="7.51025347"><ele>2186.655762</ele><time>2007-08-03T15:46:56Z</time></trkpt>
<trkpt lat="46.20226683" lon="7.51020100"><ele>2187.136475</ele><time>2007-08-03T15:47:03Z</time></trkpt>
<trkpt lat="46.20233665" lon="7.51012908"><ele>2188.098145</ele><time>2007-08-03T15:47:19Z</time></trkpt>
<trkpt lat="46.20236859" lon="7.51016219"><ele>2188.578857</ele><time>2007-08-03T15:47:25Z</time></trkpt>
<trkpt lat="46.20244377" lon="7.51021273"><ele>2190.020752</ele><time>2007-08-03T15:47:33Z</time></trkpt>
<trkpt lat="46.20245408" lon="7.51019195"><ele>2190.501221</ele><time>2007-08-03T15:47:35Z</time></trkpt>
<trkpt lat="46.20241360" lon="7.50963606"><ele>2201.556396</ele><time>2007-08-03T15:48:42Z</time></trkpt>
<trkpt lat="46.20241687" lon="7.50960924"><ele>2201.075684</ele><time>2007-08-03T15:48:44Z</time></trkpt>
<trkpt lat="46.20241846" lon="7.50955668"><ele>2202.998291</ele><time>2007-08-03T15:48:48Z</time></trkpt>
<trkpt lat="46.20242508" lon="7.50933339"><ele>2207.805176</ele><time>2007-08-03T15:49:13Z</time></trkpt>
<trkpt lat="46.20242206" lon="7.50931964"><ele>2207.805176</ele><time>2007-08-03T15:49:14Z</time></trkpt>
<trkpt lat="46.20242382" lon="7.50926265"><ele>2207.805176</ele><time>2007-08-03T15:49:18Z</time></trkpt>
<trkpt lat="46.20237177" lon="7.50850132"><ele>2223.186279</ele><time>2007-08-03T15:51:52Z</time></trkpt>
<trkpt lat="46.20237043" lon="7.50848765"><ele>2223.186279</ele><time>2007-08-03T15:51:53Z</time></trkpt>
<trkpt lat="46.20245827" lon="7.50686953"><ele>2273.174805</ele><time>2007-08-03T15:57:39Z</time></trkpt>
<trkpt lat="46.20245794" lon="7.50685947"><ele>2273.174805</ele><time>2007-08-03T15:57:40Z</time></trkpt>
<trkpt lat="46.20243464" lon="7.50679317"><ele>2274.616699</ele><time>2007-08-03T15:57:48Z</time></trkpt>
<trkpt lat="46.20240639" lon="7.50672637"><ele>2274.616699</ele><time>2007-08-03T15:57:56Z</time></trkpt>
<trkpt lat="46.20237890" lon="7.50667758"><ele>2275.097168</ele><time>2007-08-03T15:58:02Z</time></trkpt>
<trkpt lat="46.20235132" lon="7.50665110"><ele>2275.577881</ele><time>2007-08-03T15:58:08Z</time></trkpt>
<trkpt lat="46.20233363" lon="7.50659930"><ele>2276.058594</ele><time>2007-08-03T15:58:13Z</time></trkpt>
<trkpt lat="46.20231176" lon="7.50654532"><ele>2276.539307</ele><time>2007-08-03T15:58:19Z</time></trkpt>
<trkpt lat="46.20220548" lon="7.50624575"><ele>2281.345703</ele><time>2007-08-03T15:58:51Z</time></trkpt>
<trkpt lat="46.20212199" lon="7.50598733"><ele>2284.22998</ele><time>2007-08-03T15:59:16Z</time></trkpt>
<trkpt lat="46.20205343" lon="7.50569380"><ele>2289.036377</ele><time>2007-08-03T15:59:43Z</time></trkpt>
<trkpt lat="46.20201227" lon="7.50556338"><ele>2289.997803</ele><time>2007-08-03T15:59:56Z</time></trkpt>
<trkpt lat="46.20200825" lon="7.50554980"><ele>2290.478271</ele><time>2007-08-03T15:59:57Z</time></trkpt>
<trkpt lat="46.20196952" lon="7.50540219"><ele>2289.997803</ele><time>2007-08-03T16:00:07Z</time></trkpt>
<trkpt lat="46.20194907" lon="7.50531360"><ele>2290.958984</ele><time>2007-08-03T16:00:14Z</time></trkpt>
<trkpt lat="46.20193533" lon="7.50526490"><ele>2291.92041</ele><time>2007-08-03T16:00:18Z</time></trkpt>
<trkpt lat="46.20191479" lon="7.50520170"><ele>2291.92041</ele><time>2007-08-03T16:00:23Z</time></trkpt>
<trkpt lat="46.20189719" lon="7.50517085"><ele>2292.401123</ele><time>2007-08-03T16:00:26Z</time></trkpt>
<trkpt lat="46.20187758" lon="7.50514344"><ele>2292.401123</ele><time>2007-08-03T16:00:29Z</time></trkpt>
<trkpt lat="46.20185905" lon="7.50509047"><ele>2292.881592</ele><time>2007-08-03T16:00:34Z</time></trkpt>
<trkpt lat="46.20184162" lon="7.50503800"><ele>2293.362305</ele><time>2007-08-03T16:00:39Z</time></trkpt>
<trkpt lat="46.20174858" lon="7.50489542"><ele>2295.284912</ele><time>2007-08-03T16:00:58Z</time></trkpt>
<trkpt lat="46.20170088" lon="7.50484756"><ele>2296.246338</ele><time>2007-08-03T16:01:06Z</time></trkpt>
<trkpt lat="46.20165185" lon="7.50481169"><ele>2297.688232</ele><time>2007-08-03T16:01:17Z</time></trkpt>
<trkpt lat="46.20162318" lon="7.50478118"><ele>2298.649414</ele><time>2007-08-03T16:02:00Z</time></trkpt>
<trkpt lat="46.20161698" lon="7.50477145"><ele>2298.649414</ele><time>2007-08-03T16:02:01Z</time></trkpt>
<trkpt lat="46.20159519" lon="7.50472502"><ele>2300.091797</ele><time>2007-08-03T16:02:05Z</time></trkpt>
<trkpt lat="46.20157516" lon="7.50467959"><ele>2300.572266</ele><time>2007-08-03T16:02:10Z</time></trkpt>
<trkpt lat="46.20153752" lon="7.50461505"><ele>2301.052979</ele><time>2007-08-03T16:02:16Z</time></trkpt>
<trkpt lat="46.20151975" lon="7.50458814"><ele>2302.01416</ele><time>2007-08-03T16:02:19Z</time></trkpt>
<trkpt lat="46.20150567" lon="7.50456903"><ele>2302.01416</ele><time>2007-08-03T16:02:21Z</time></trkpt>
<trkpt lat="46.20145588" lon="7.50448094"><ele>2303.456299</ele><time>2007-08-03T16:02:31Z</time></trkpt>
<trkpt lat="46.20141707" lon="7.50434943"><ele>2304.898193</ele><time>2007-08-03T16:02:45Z</time></trkpt>
<trkpt lat="46.20140106" lon="7.50427173"><ele>2306.820801</ele><time>2007-08-03T16:02:52Z</time></trkpt>
<trkpt lat="46.20134608" lon="7.50380469"><ele>2313.069336</ele><time>2007-08-03T16:03:56Z</time></trkpt>
<trkpt lat="46.20134046" lon="7.50378834"><ele>2312.588623</ele><time>2007-08-03T16:03:57Z</time></trkpt>
<trkpt lat="46.20131532" lon="7.50370125"><ele>2313.069336</ele><time>2007-08-03T16:04:03Z</time></trkpt>
<trkpt lat="46.20130149" lon="7.50366806"><ele>2314.030518</ele><time>2007-08-03T16:04:06Z</time></trkpt>
<trkpt lat="46.20129545" lon="7.50365700"><ele>2314.030518</ele><time>2007-08-03T16:04:07Z</time></trkpt>
<trkpt lat="46.20125807" lon="7.50358005"><ele>2314.991943</ele><time>2007-08-03T16:04:14Z</time></trkpt>
<trkpt lat="46.20125128" lon="7.50355499"><ele>2314.991943</ele><time>2007-08-03T16:04:16Z</time></trkpt>
<trkpt lat="46.20124566" lon="7.50352892"><ele>2314.991943</ele><time>2007-08-03T16:04:18Z</time></trkpt>
<trkpt lat="46.20127366" lon="7.50322768"><ele>2319.798584</ele><time>2007-08-03T16:04:47Z</time></trkpt>
<trkpt lat="46.20051493" lon="7.50291520"><ele>2346.715332</ele><time>2007-08-03T16:07:44Z</time></trkpt>
<trkpt lat="46.20052264" lon="7.50290774"><ele>2346.715332</ele><time>2007-08-03T16:07:45Z</time></trkpt>
<trkpt lat="46.20056874" lon="7.50286239"><ele>2346.715332</ele><time>2007-08-03T16:07:51Z</time></trkpt>
<trkpt lat="46.20059992" lon="7.50283649"><ele>2347.676758</ele><time>2007-08-03T16:07:55Z</time></trkpt>
<trkpt lat="46.20062289" lon="7.50281420"><ele>2348.157471</ele><time>2007-08-03T16:07:58Z</time></trkpt>
<trkpt lat="46.20064485" lon="7.50278637"><ele>2348.638184</ele><time>2007-08-03T16:08:01Z</time></trkpt>
<trkpt lat="46.20066916" lon="7.50274387"><ele>2348.638184</ele><time>2007-08-03T16:08:05Z</time></trkpt>
<trkpt lat="46.20068818" lon="7.50268889"><ele>2349.599609</ele><time>2007-08-03T16:08:10Z</time></trkpt>
<trkpt lat="46.20073562" lon="7.50257833"><ele>2350.560791</ele><time>2007-08-03T16:08:21Z</time></trkpt>
<trkpt lat="46.20080067" lon="7.50249183"><ele>2353.444824</ele><time>2007-08-03T16:08:32Z</time></trkpt>
<trkpt lat="46.20084526" lon="7.50246702"><ele>2353.444824</ele><time>2007-08-03T16:08:37Z</time></trkpt>
<trkpt lat="46.20086219" lon="7.50245947"><ele>2353.925537</ele><time>2007-08-03T16:08:39Z</time></trkpt>
<trkpt lat="46.20087912" lon="7.50245243"><ele>2353.925537</ele><time>2007-08-03T16:08:41Z</time></trkpt>
<trkpt lat="46.20093503" lon="7.50242008"><ele>2354.886719</ele><time>2007-08-03T16:08:48Z</time></trkpt>
<trkpt lat="46.20096579" lon="7.50237473"><ele>2355.367432</ele><time>2007-08-03T16:08:53Z</time></trkpt>
<trkpt lat="46.20097334" lon="7.50231732"><ele>2355.8479</ele><time>2007-08-03T16:08:58Z</time></trkpt>
<trkpt lat="46.20105900" lon="7.50210534"><ele>2360.173828</ele><time>2007-08-03T16:09:22Z</time></trkpt>
<trkpt lat="46.20106420" lon="7.50209344"><ele>2360.173828</ele><time>2007-08-03T16:09:23Z</time></trkpt>
<trkpt lat="46.20110787" lon="7.50176579"><ele>2365.941895</ele><time>2007-08-03T16:09:58Z</time></trkpt>
<trkpt lat="46.20119663" lon="7.50092592"><ele>2397.184814</ele><time>2007-08-03T16:14:46Z</time></trkpt>
<trkpt lat="46.20136452" lon="7.50011656"><ele>2413.046631</ele><time>2007-08-03T16:16:49Z</time></trkpt>
<trkpt lat="46.20139796" lon="7.50009486"><ele>2413.5271</ele><time>2007-08-03T16:16:54Z</time></trkpt>
<trkpt lat="46.20166434" lon="7.49993702"><ele>2419.295166</ele><time>2007-08-03T16:17:39Z</time></trkpt>
<trkpt lat="46.20168823" lon="7.49968540"><ele>2424.101563</ele><time>2007-08-03T16:18:12Z</time></trkpt>
<trkpt lat="46.20161807" lon="7.49956864"><ele>2427.946777</ele><time>2007-08-03T16:18:36Z</time></trkpt>
<trkpt lat="46.20155982" lon="7.49938893"><ele>2431.311523</ele><time>2007-08-03T16:19:04Z</time></trkpt>
<trkpt lat="46.20155688" lon="7.49937527"><ele>2430.831055</ele><time>2007-08-03T16:19:05Z</time></trkpt>
<trkpt lat="46.20155185" lon="7.49934954"><ele>2431.792236</ele><time>2007-08-03T16:19:07Z</time></trkpt>
<trkpt lat="46.20153844" lon="7.49929723"><ele>2432.272949</ele><time>2007-08-03T16:19:11Z</time></trkpt>
<trkpt lat="46.20153308" lon="7.49922356"><ele>2433.234131</ele><time>2007-08-03T16:19:17Z</time></trkpt>
<trkpt lat="46.20153048" lon="7.49919640"><ele>2433.234131</ele><time>2007-08-03T16:19:19Z</time></trkpt>
<trkpt lat="46.20151933" lon="7.49912993"><ele>2434.195557</ele><time>2007-08-03T16:19:24Z</time></trkpt>
<trkpt lat="46.20150869" lon="7.49898618"><ele>2434.67627</ele><time>2007-08-03T16:19:34Z</time></trkpt>
<trkpt lat="46.20150676" lon="7.49886967"><ele>2436.118164</ele><time>2007-08-03T16:19:43Z</time></trkpt>
<trkpt lat="46.20150466" lon="7.49877839"><ele>2437.079346</ele><time>2007-08-03T16:19:50Z</time></trkpt>
<trkpt lat="46.20148589" lon="7.49859424"><ele>2440.924561</ele><time>2007-08-03T16:20:05Z</time></trkpt>
<trkpt lat="46.20149075" lon="7.49851998"><ele>2441.885986</ele><time>2007-08-03T16:20:17Z</time></trkpt>
<trkpt lat="46.20149687" lon="7.49848033"><ele>2441.885986</ele><time>2007-08-03T16:20:20Z</time></trkpt>
<trkpt lat="46.20151254" lon="7.49834907"><ele>2443.327881</ele><time>2007-08-03T16:20:31Z</time></trkpt>
<trkpt lat="46.20153023" lon="7.49830046"><ele>2443.808594</ele><time>2007-08-03T16:20:37Z</time></trkpt>
<trkpt lat="46.20154507" lon="7.49824539"><ele>2443.808594</ele><time>2007-08-03T16:20:45Z</time></trkpt>
<trkpt lat="46.20156233" lon="7.49811673"><ele>2444.289307</ele><time>2007-08-03T16:21:04Z</time></trkpt>
<trkpt lat="46.20156233" lon="7.49809829"><ele>2444.77002</ele><time>2007-08-03T16:21:06Z</time></trkpt>
<trkpt lat="46.20154548" lon="7.49783895"><ele>2447.17334</ele><time>2007-08-03T16:21:31Z</time></trkpt>
<trkpt lat="46.20153962" lon="7.49779838"><ele>2447.654053</ele><time>2007-08-03T16:21:34Z</time></trkpt>
<trkpt lat="46.20152612" lon="7.49775899"><ele>2448.134521</ele><time>2007-08-03T16:21:37Z</time></trkpt>
<trkpt lat="46.20152134" lon="7.49773468"><ele>2448.134521</ele><time>2007-08-03T16:21:39Z</time></trkpt>
<trkpt lat="46.20153635" lon="7.49719807"><ele>2457.747803</ele><time>2007-08-03T16:23:32Z</time></trkpt>
<trkpt lat="46.20154607" lon="7.49713998"><ele>2458.228271</ele><time>2007-08-03T16:23:37Z</time></trkpt>
<trkpt lat="46.20150710" lon="7.49666959"><ele>2467.841553</ele><time>2007-08-03T16:24:42Z</time></trkpt>
<trkpt lat="46.20145655" lon="7.49645309"><ele>2472.16748</ele><time>2007-08-03T16:25:04Z</time></trkpt>
<trkpt lat="46.20145027" lon="7.49641914"><ele>2472.16748</ele><time>2007-08-03T16:25:07Z</time></trkpt>
<trkpt lat="46.20143895" lon="7.49638419"><ele>2471.686768</ele><time>2007-08-03T16:25:10Z</time></trkpt>
<trkpt lat="46.20141733" lon="7.49632937"><ele>2472.648193</ele><time>2007-08-03T16:25:15Z</time></trkpt>
<trkpt lat="46.20141154" lon="7.49628159"><ele>2473.609375</ele><time>2007-08-03T16:25:19Z</time></trkpt>
<trkpt lat="46.20140735" lon="7.49625586"><ele>2473.609375</ele><time>2007-08-03T16:25:21Z</time></trkpt>
<trkpt lat="46.20137190" lon="7.49618453"><ele>2474.090088</ele><time>2007-08-03T16:25:29Z</time></trkpt>
<trkpt lat="46.20132152" lon="7.49615402"><ele>2475.05127</ele><time>2007-08-03T16:25:35Z</time></trkpt>
<trkpt lat="46.20128850" lon="7.49613759"><ele>2476.493652</ele><time>2007-08-03T16:25:39Z</time></trkpt>
<trkpt lat="46.20128053" lon="7.49612938"><ele>2476.012939</ele><time>2007-08-03T16:25:40Z</time></trkpt>
<trkpt lat="46.20119655" lon="7.49606936"><ele>2475.531982</ele><time>2007-08-03T16:25:50Z</time></trkpt>
<trkpt lat="46.20118615" lon="7.49604782"><ele>2475.05127</ele><time>2007-08-03T16:25:52Z</time></trkpt>
<trkpt lat="46.20114139" lon="7.49597289"><ele>2475.531982</ele><time>2007-08-03T16:25:59Z</time></trkpt>
<trkpt lat="46.20112605" lon="7.49594313"><ele>2476.012939</ele><time>2007-08-03T16:26:02Z</time></trkpt>
<trkpt lat="46.20111600" lon="7.49590013"><ele>2476.493652</ele><time>2007-08-03T16:26:06Z</time></trkpt>
<trkpt lat="46.20076178" lon="7.49538733"><ele>2489.471191</ele><time>2007-08-03T16:28:13Z</time></trkpt>
<trkpt lat="46.20077644" lon="7.49537517"><ele>2489.471191</ele><time>2007-08-03T16:28:15Z</time></trkpt>
<trkpt lat="46.20083529" lon="7.49534374"><ele>2490.432373</ele><time>2007-08-03T16:28:22Z</time></trkpt>
<trkpt lat="46.20086722" lon="7.49532195"><ele>2491.393799</ele><time>2007-08-03T16:28:26Z</time></trkpt>
<trkpt lat="46.20093956" lon="7.49523469"><ele>2492.835938</ele><time>2007-08-03T16:28:38Z</time></trkpt>
<trkpt lat="46.20095867" lon="7.49520804"><ele>2494.277832</ele><time>2007-08-03T16:28:41Z</time></trkpt>
<trkpt lat="46.20104684" lon="7.49506772"><ele>2497.642578</ele><time>2007-08-03T16:29:07Z</time></trkpt>
<trkpt lat="46.20105330" lon="7.49506052"><ele>2496.681152</ele><time>2007-08-03T16:29:08Z</time></trkpt>
<trkpt lat="46.20122655" lon="7.49495432"><ele>2501.968262</ele><time>2007-08-03T16:29:44Z</time></trkpt>
<trkpt lat="46.20162352" lon="7.49460563"><ele>2517.830078</ele><time>2007-08-03T16:32:47Z</time></trkpt>
<trkpt lat="46.20187540" lon="7.49444797"><ele>2525.520752</ele><time>2007-08-03T16:33:37Z</time></trkpt>
<trkpt lat="46.20190063" lon="7.49427639"><ele>2528.885254</ele><time>2007-08-03T16:33:54Z</time></trkpt>
<trkpt lat="46.20190599" lon="7.49419408"><ele>2529.84668</ele><time>2007-08-03T16:34:02Z</time></trkpt>
<trkpt lat="46.20191982" lon="7.49406156"><ele>2531.288574</ele><time>2007-08-03T16:34:12Z</time></trkpt>
<trkpt lat="46.20191454" lon="7.49403524"><ele>2531.769287</ele><time>2007-08-03T16:34:14Z</time></trkpt>
<trkpt lat="46.20190180" lon="7.49398378"><ele>2531.288574</ele><time>2007-08-03T16:34:18Z</time></trkpt>
<trkpt lat="46.20189853" lon="7.49389459"><ele>2530.808105</ele><time>2007-08-03T16:35:13Z</time></trkpt>
<trkpt lat="46.20190088" lon="7.49388118"><ele>2531.288574</ele><time>2007-08-03T16:35:14Z</time></trkpt>
<trkpt lat="46.20192946" lon="7.49378898"><ele>2530.327393</ele><time>2007-08-03T16:35:20Z</time></trkpt>
<trkpt lat="46.20194396" lon="7.49369259"><ele>2527.443359</ele><time>2007-08-03T16:35:25Z</time></trkpt>
<trkpt lat="46.20191068" lon="7.49357583"><ele>2524.078857</ele><time>2007-08-03T16:35:32Z</time></trkpt>
<trkpt lat="46.20189300" lon="7.49351179"><ele>2523.5979</ele><time>2007-08-03T16:35:37Z</time></trkpt>
<trkpt lat="46.20194765" lon="7.49344759"><ele>2521.19458</ele><time>2007-08-03T16:35:42Z</time></trkpt>
<trkpt lat="46.20196148" lon="7.49340274"><ele>2519.272217</ele><time>2007-08-03T16:35:44Z</time></trkpt>
<trkpt lat="46.20196994" lon="7.49333845"><ele>2517.349365</ele><time>2007-08-03T16:35:47Z</time></trkpt>
<trkpt lat="46.20194589" lon="7.49325128"><ele>2516.388184</ele><time>2007-08-03T16:35:57Z</time></trkpt>
<trkpt lat="46.20193499" lon="7.49323335"><ele>2516.388184</ele><time>2007-08-03T16:35:58Z</time></trkpt>
<trkpt lat="46.20189224" lon="7.49309773"><ele>2513.984863</ele><time>2007-08-03T16:36:04Z</time></trkpt>
<trkpt lat="46.20185142" lon="7.49296102"><ele>2509.178467</ele><time>2007-08-03T16:36:10Z</time></trkpt>
<trkpt lat="46.20184447" lon="7.49294358"><ele>2509.178467</ele><time>2007-08-03T16:36:11Z</time></trkpt>
<trkpt lat="46.20183416" lon="7.49290628"><ele>2506.774902</ele><time>2007-08-03T16:36:13Z</time></trkpt>
<trkpt lat="46.20179418" lon="7.49279489"><ele>2502.929688</ele><time>2007-08-03T16:36:18Z</time></trkpt>
<trkpt lat="46.20177599" lon="7.49259263"><ele>2500.526367</ele><time>2007-08-03T16:36:22Z</time></trkpt>
<trkpt lat="46.20174472" lon="7.49247386"><ele>2497.642578</ele><time>2007-08-03T16:36:25Z</time></trkpt>
<trkpt lat="46.20173793" lon="7.49240496"><ele>2496.681152</ele><time>2007-08-03T16:36:27Z</time></trkpt>
<trkpt lat="46.20172888" lon="7.49231134"><ele>2493.31665</ele><time>2007-08-03T16:36:30Z</time></trkpt>
<trkpt lat="46.20172394" lon="7.49224143"><ele>2492.355469</ele><time>2007-08-03T16:36:32Z</time></trkpt>
<trkpt lat="46.20172142" lon="7.49220489"><ele>2491.874512</ele><time>2007-08-03T16:36:33Z</time></trkpt>
<trkpt lat="46.20170549" lon="7.49213129"><ele>2489.951904</ele><time>2007-08-03T16:36:36Z</time></trkpt>
<trkpt lat="46.20171832" lon="7.49206239"><ele>2488.029297</ele><time>2007-08-03T16:36:39Z</time></trkpt>
<trkpt lat="46.20170524" lon="7.49186944"><ele>2484.664795</ele><time>2007-08-03T16:36:44Z</time></trkpt>
<trkpt lat="46.20165034" lon="7.49173265"><ele>2482.261475</ele><time>2007-08-03T16:36:48Z</time></trkpt>
<trkpt lat="46.20161086" lon="7.49168982"><ele>2479.858154</ele><time>2007-08-03T16:36:50Z</time></trkpt>
<trkpt lat="46.20160533" lon="7.49163835"><ele>2479.377441</ele><time>2007-08-03T16:36:52Z</time></trkpt>
<trkpt lat="46.20161656" lon="7.49158043"><ele>2477.935547</ele><time>2007-08-03T16:36:54Z</time></trkpt>
<trkpt lat="46.20162285" lon="7.49139679"><ele>2473.609375</ele><time>2007-08-03T16:37:00Z</time></trkpt>
<trkpt lat="46.20163232" lon="7.49135278"><ele>2473.609375</ele><time>2007-08-03T16:37:01Z</time></trkpt>
<trkpt lat="46.20166233" lon="7.49113544"><ele>2470.244873</ele><time>2007-08-03T16:37:06Z</time></trkpt>
<trkpt lat="46.20166794" lon="7.49104944"><ele>2467.36084</ele><time>2007-08-03T16:37:09Z</time></trkpt>
<trkpt lat="46.20160307" lon="7.49085724"><ele>2463.035156</ele><time>2007-08-03T16:37:17Z</time></trkpt>
<trkpt lat="46.20159678" lon="7.49083453"><ele>2463.035156</ele><time>2007-08-03T16:37:18Z</time></trkpt>
<trkpt lat="46.20158069" lon="7.49077468"><ele>2462.07373</ele><time>2007-08-03T16:37:21Z</time></trkpt>
<trkpt lat="46.20163576" lon="7.49061467"><ele>2460.151123</ele><time>2007-08-03T16:37:28Z</time></trkpt>
<trkpt lat="46.20164439" lon="7.49052306"><ele>2459.670166</ele><time>2007-08-03T16:37:32Z</time></trkpt>
<trkpt lat="46.20168529" lon="7.49042658"><ele>2457.26709</ele><time>2007-08-03T16:37:42Z</time></trkpt>
<trkpt lat="46.20171002" lon="7.49040060"><ele>2457.26709</ele><time>2007-08-03T16:37:45Z</time></trkpt>
<trkpt lat="46.20172863" lon="7.49037386"><ele>2457.26709</ele><time>2007-08-03T16:37:48Z</time></trkpt>
<trkpt lat="46.20179635" lon="7.49016347"><ele>2450.057373</ele><time>2007-08-03T16:38:18Z</time></trkpt>
<trkpt lat="46.20184933" lon="7.49005803"><ele>2447.654053</ele><time>2007-08-03T16:38:22Z</time></trkpt>
<trkpt lat="46.20191932" lon="7.48997647"><ele>2446.212158</ele><time>2007-08-03T16:38:27Z</time></trkpt>
<trkpt lat="46.20199769" lon="7.48975016"><ele>2442.847168</ele><time>2007-08-03T16:38:48Z</time></trkpt>
<trkpt lat="46.20202845" lon="7.48970255"><ele>2442.366699</ele><time>2007-08-03T16:38:55Z</time></trkpt>
<trkpt lat="46.20208184" lon="7.48962728"><ele>2440.924561</ele><time>2007-08-03T16:38:59Z</time></trkpt>
<trkpt lat="46.20216834" lon="7.48946786"><ele>2437.560059</ele><time>2007-08-03T16:39:03Z</time></trkpt>
<trkpt lat="46.20226038" lon="7.48926074"><ele>2435.156738</ele><time>2007-08-03T16:39:08Z</time></trkpt>
<trkpt lat="46.20231419" lon="7.48917583"><ele>2432.272949</ele><time>2007-08-03T16:39:12Z</time></trkpt>
<trkpt lat="46.20240488" lon="7.48903049"><ele>2429.869629</ele><time>2007-08-03T16:39:17Z</time></trkpt>
<trkpt lat="46.20244478" lon="7.48893653"><ele>2428.427734</ele><time>2007-08-03T16:39:19Z</time></trkpt>
<trkpt lat="46.20246414" lon="7.48865347"><ele>2426.02417</ele><time>2007-08-03T16:39:24Z</time></trkpt>
<trkpt lat="46.20251728" lon="7.48833647"><ele>2425.062744</ele><time>2007-08-03T16:39:30Z</time></trkpt>
<trkpt lat="46.20252508" lon="7.48817679"><ele>2426.504883</ele><time>2007-08-03T16:39:34Z</time></trkpt>
<trkpt lat="46.20255140" lon="7.48803958"><ele>2425.543457</ele><time>2007-08-03T16:39:39Z</time></trkpt>
<trkpt lat="46.20255416" lon="7.48797613"><ele>2424.101563</ele><time>2007-08-03T16:39:57Z</time></trkpt>
<trkpt lat="46.20257847" lon="7.48785929"><ele>2424.101563</ele><time>2007-08-03T16:40:01Z</time></trkpt>
<trkpt lat="46.20260353" lon="7.48772183"><ele>2422.659668</ele><time>2007-08-03T16:40:04Z</time></trkpt>
<trkpt lat="46.20260923" lon="7.48767606"><ele>2422.659668</ele><time>2007-08-03T16:40:05Z</time></trkpt>
<trkpt lat="46.20268693" lon="7.48747800"><ele>2419.295166</ele><time>2007-08-03T16:40:11Z</time></trkpt>
<trkpt lat="46.20271250" lon="7.48744422"><ele>2418.814453</ele><time>2007-08-03T16:40:12Z</time></trkpt>
<trkpt lat="46.20277653" lon="7.48724355"><ele>2417.372314</ele><time>2007-08-03T16:40:17Z</time></trkpt>
<trkpt lat="46.20288005" lon="7.48707063"><ele>2415.93042</ele><time>2007-08-03T16:40:23Z</time></trkpt>
<trkpt lat="46.20293227" lon="7.48690652"><ele>2415.449951</ele><time>2007-08-03T16:40:26Z</time></trkpt>
<trkpt lat="46.20304945" lon="7.48647837"><ele>2412.565918</ele><time>2007-08-03T16:40:32Z</time></trkpt>
<trkpt lat="46.20308256" lon="7.48626715"><ele>2408.720459</ele><time>2007-08-03T16:40:35Z</time></trkpt>
<trkpt lat="46.20310896" lon="7.48605022"><ele>2405.836426</ele><time>2007-08-03T16:40:38Z</time></trkpt>
<trkpt lat="46.20318993" lon="7.48573439"><ele>2403.43335</ele><time>2007-08-03T16:40:43Z</time></trkpt>
<trkpt lat="46.20323813" lon="7.48536416"><ele>2399.588135</ele><time>2007-08-03T16:40:48Z</time></trkpt>
<trkpt lat="46.20324869" lon="7.48527003"><ele>2398.626709</ele><time>2007-08-03T16:40:49Z</time></trkpt>
<trkpt lat="46.20321868" lon="7.48497013"><ele>2397.184814</ele><time>2007-08-03T16:40:52Z</time></trkpt>
<trkpt lat="46.20311298" lon="7.48463066"><ele>2397.184814</ele><time>2007-08-03T16:40:56Z</time></trkpt>
<trkpt lat="46.20313855" lon="7.48426622"><ele>2394.300537</ele><time>2007-08-03T16:41:00Z</time></trkpt>
<trkpt lat="46.20321684" lon="7.48397285"><ele>2392.378174</ele><time>2007-08-03T16:41:03Z</time></trkpt>
<trkpt lat="46.20326419" lon="7.48380044"><ele>2389.974854</ele><time>2007-08-03T16:41:05Z</time></trkpt>
<trkpt lat="46.20330049" lon="7.48361528"><ele>2388.052246</ele><time>2007-08-03T16:41:07Z</time></trkpt>
<trkpt lat="46.20334055" lon="7.48343406"><ele>2384.687744</ele><time>2007-08-03T16:41:09Z</time></trkpt>
<trkpt lat="46.20336964" lon="7.48316743"><ele>2378.919434</ele><time>2007-08-03T16:41:12Z</time></trkpt>
<trkpt lat="46.20335648" lon="7.48274239"><ele>2375.554932</ele><time>2007-08-03T16:41:16Z</time></trkpt>
<trkpt lat="46.20334868" lon="7.48246419"><ele>2372.19043</ele><time>2007-08-03T16:41:19Z</time></trkpt>
<trkpt lat="46.20334768" lon="7.48231114"><ele>2371.229004</ele><time>2007-08-03T16:41:21Z</time></trkpt>
<trkpt lat="46.20334583" lon="7.48194845"><ele>2366.90332</ele><time>2007-08-03T16:41:26Z</time></trkpt>
<trkpt lat="46.20334307" lon="7.48177947"><ele>2364.980713</ele><time>2007-08-03T16:41:30Z</time></trkpt>
<trkpt lat="46.20333477" lon="7.48167956"><ele>2361.615967</ele><time>2007-08-03T16:41:33Z</time></trkpt>
<trkpt lat="46.20331390" lon="7.48156146"><ele>2359.693115</ele><time>2007-08-03T16:41:37Z</time></trkpt>
<trkpt lat="46.20329219" lon="7.48147245"><ele>2357.770752</ele><time>2007-08-03T16:41:40Z</time></trkpt>
<trkpt lat="46.20326092" lon="7.48130699"><ele>2354.886719</ele><time>2007-08-03T16:41:47Z</time></trkpt>
<trkpt lat="46.20323435" lon="7.48122686"><ele>2354.406006</ele><time>2007-08-03T16:41:51Z</time></trkpt>
<trkpt lat="46.20321357" lon="7.48115066"><ele>2352.483398</ele><time>2007-08-03T16:41:55Z</time></trkpt>
<trkpt lat="46.20320376" lon="7.48106416"><ele>2351.522217</ele><time>2007-08-03T16:41:58Z</time></trkpt>
<trkpt lat="46.20319362" lon="7.48103759"><ele>2349.599609</ele><time>2007-08-03T16:41:59Z</time></trkpt>
<trkpt lat="46.20318498" lon="7.48101085"><ele>2349.599609</ele><time>2007-08-03T16:42:00Z</time></trkpt>
<trkpt lat="46.20316369" lon="7.48094212"><ele>2347.676758</ele><time>2007-08-03T16:42:03Z</time></trkpt>
<trkpt lat="46.20315397" lon="7.48081958"><ele>2345.273438</ele><time>2007-08-03T16:42:07Z</time></trkpt>
<trkpt lat="46.20314224" lon="7.48068463"><ele>2342.389648</ele><time>2007-08-03T16:42:11Z</time></trkpt>
<trkpt lat="46.20310318" lon="7.48054725"><ele>2339.024902</ele><time>2007-08-03T16:42:15Z</time></trkpt>
<trkpt lat="46.20308457" lon="7.48047215"><ele>2337.583008</ele><time>2007-08-03T16:42:17Z</time></trkpt>
<trkpt lat="46.20306982" lon="7.48041758"><ele>2335.179688</ele><time>2007-08-03T16:42:19Z</time></trkpt>
<trkpt lat="46.20304677" lon="7.48039135"><ele>2334.218506</ele><time>2007-08-03T16:42:21Z</time></trkpt>
<trkpt lat="46.20302363" lon="7.48034676"><ele>2332.776367</ele><time>2007-08-03T16:42:42Z</time></trkpt>
<trkpt lat="46.20301969" lon="7.48032069"><ele>2332.295898</ele><time>2007-08-03T16:42:45Z</time></trkpt>
<trkpt lat="46.20309446" lon="7.48022513"><ele>2332.776367</ele><time>2007-08-03T16:42:51Z</time></trkpt>
<trkpt lat="46.20319429" lon="7.47997753"><ele>2332.776367</ele><time>2007-08-03T16:43:00Z</time></trkpt>
<trkpt lat="46.20327626" lon="7.47978056"><ele>2332.776367</ele><time>2007-08-03T16:43:06Z</time></trkpt>
<trkpt lat="46.20327769" lon="7.47962088"><ele>2332.295898</ele><time>2007-08-03T16:43:09Z</time></trkpt>
<trkpt lat="46.20335296" lon="7.47931059"><ele>2330.85376</ele><time>2007-08-03T16:43:15Z</time></trkpt>
<trkpt lat="46.20346125" lon="7.47923456"><ele>2330.373047</ele><time>2007-08-03T16:43:19Z</time></trkpt>
<trkpt lat="46.20357189" lon="7.47907463"><ele>2330.85376</ele><time>2007-08-03T16:43:24Z</time></trkpt>
<trkpt lat="46.20369016" lon="7.47875604"><ele>2330.373047</ele><time>2007-08-03T16:43:30Z</time></trkpt>
<trkpt lat="46.20386668" lon="7.47818884"><ele>2329.411621</ele><time>2007-08-03T16:43:39Z</time></trkpt>
<trkpt lat="46.20400356" lon="7.47778474"><ele>2327.489014</ele><time>2007-08-03T16:43:45Z</time></trkpt>
<trkpt lat="46.20412376" lon="7.47720882"><ele>2327.008545</ele><time>2007-08-03T16:43:52Z</time></trkpt>
<trkpt lat="46.20414664" lon="7.47705652"><ele>2325.566406</ele><time>2007-08-03T16:43:54Z</time></trkpt>
<trkpt lat="46.20418067" lon="7.47685452"><ele>2324.605225</ele><time>2007-08-03T16:43:57Z</time></trkpt>
<trkpt lat="46.20421009" lon="7.47657029"><ele>2324.605225</ele><time>2007-08-03T16:44:01Z</time></trkpt>
<trkpt lat="46.20430824" lon="7.47609738"><ele>2323.16333</ele><time>2007-08-03T16:44:08Z</time></trkpt>
<trkpt lat="46.20434504" lon="7.47598180"><ele>2322.201904</ele><time>2007-08-03T16:44:10Z</time></trkpt>
<trkpt lat="46.20446683" lon="7.47569966"><ele>2320.279297</ele><time>2007-08-03T16:44:15Z</time></trkpt>
<trkpt lat="46.20458476" lon="7.47541049"><ele>2319.318115</ele><time>2007-08-03T16:44:21Z</time></trkpt>
<trkpt lat="46.20464402" lon="7.47525165"><ele>2318.356689</ele><time>2007-08-03T16:44:26Z</time></trkpt>
<trkpt lat="46.20465006" lon="7.47511913"><ele>2316.914795</ele><time>2007-08-03T16:44:38Z</time></trkpt>
<trkpt lat="46.20468618" lon="7.47495485"><ele>2316.434082</ele><time>2007-08-03T16:44:43Z</time></trkpt>
<trkpt lat="46.20471309" lon="7.47476952"><ele>2315.472656</ele><time>2007-08-03T16:44:46Z</time></trkpt>
<trkpt lat="46.20472617" lon="7.47464279"><ele>2314.991943</ele><time>2007-08-03T16:44:48Z</time></trkpt>
<trkpt lat="46.20479984" lon="7.47425948"><ele>2314.030518</ele><time>2007-08-03T16:44:54Z</time></trkpt>
<trkpt lat="46.20489263" lon="7.47399864"><ele>2312.588623</ele><time>2007-08-03T16:44:58Z</time></trkpt>
<trkpt lat="46.20491954" lon="7.47387928"><ele>2311.627441</ele><time>2007-08-03T16:45:00Z</time></trkpt>
<trkpt lat="46.20494384" lon="7.47376487"><ele>2309.70459</ele><time>2007-08-03T16:45:02Z</time></trkpt>
<trkpt lat="46.20500335" lon="7.47342062"><ele>2308.262695</ele><time>2007-08-03T16:45:08Z</time></trkpt>
<trkpt lat="46.20514375" lon="7.47301955"><ele>2307.301514</ele><time>2007-08-03T16:45:15Z</time></trkpt>
<trkpt lat="46.20528775" lon="7.47255276"><ele>2305.378906</ele><time>2007-08-03T16:45:22Z</time></trkpt>
<trkpt lat="46.20544986" lon="7.47211137"><ele>2304.898193</ele><time>2007-08-03T16:45:28Z</time></trkpt>
<trkpt lat="46.20558866" lon="7.47181297"><ele>2302.975586</ele><time>2007-08-03T16:45:33Z</time></trkpt>
<trkpt lat="46.20573375" lon="7.47151273"><ele>2302.494873</ele><time>2007-08-03T16:45:38Z</time></trkpt>
<trkpt lat="46.20584750" lon="7.47137175"><ele>2302.01416</ele><time>2007-08-03T16:45:41Z</time></trkpt>
<trkpt lat="46.20604824" lon="7.47113580"><ele>2300.091797</ele><time>2007-08-03T16:45:47Z</time></trkpt>
<trkpt lat="46.20608479" lon="7.47109758"><ele>2299.130127</ele><time>2007-08-03T16:45:48Z</time></trkpt>
<trkpt lat="46.20627782" lon="7.47078703"><ele>2299.130127</ele><time>2007-08-03T16:45:55Z</time></trkpt>
<trkpt lat="46.20641730" lon="7.47047137"><ele>2299.130127</ele><time>2007-08-03T16:46:01Z</time></trkpt>
<trkpt lat="46.20649592" lon="7.47033164"><ele>2298.168701</ele><time>2007-08-03T16:46:04Z</time></trkpt>
<trkpt lat="46.20656407" lon="7.47013886"><ele>2296.726807</ele><time>2007-08-03T16:46:07Z</time></trkpt>
<trkpt lat="46.20658862" lon="7.47006987"><ele>2296.246338</ele><time>2007-08-03T16:46:08Z</time></trkpt>
<trkpt lat="46.20669172" lon="7.46983434"><ele>2294.323486</ele><time>2007-08-03T16:46:13Z</time></trkpt>
<trkpt lat="46.20670656" lon="7.46978799"><ele>2293.843018</ele><time>2007-08-03T16:46:14Z</time></trkpt>
<trkpt lat="46.20679029" lon="7.46956545"><ele>2291.439697</ele><time>2007-08-03T16:46:19Z</time></trkpt>
<trkpt lat="46.20679440" lon="7.46952714"><ele>2290.958984</ele><time>2007-08-03T16:46:20Z</time></trkpt>
<trkpt lat="46.20681904" lon="7.46932254"><ele>2289.036377</ele><time>2007-08-03T16:46:25Z</time></trkpt>
<trkpt lat="46.20685467" lon="7.46914929"><ele>2288.555908</ele><time>2007-08-03T16:46:28Z</time></trkpt>
<trkpt lat="46.20691510" lon="7.46895047"><ele>2287.11377</ele><time>2007-08-03T16:46:31Z</time></trkpt>
<trkpt lat="46.20695114" lon="7.46881359"><ele>2286.633057</ele><time>2007-08-03T16:46:33Z</time></trkpt>
<trkpt lat="46.20700906" lon="7.46850086"><ele>2284.710693</ele><time>2007-08-03T16:46:39Z</time></trkpt>
<trkpt lat="46.20708886" lon="7.46831814"><ele>2284.710693</ele><time>2007-08-03T16:46:45Z</time></trkpt>
<trkpt lat="46.20719472" lon="7.46813893"><ele>2284.22998</ele><time>2007-08-03T16:46:50Z</time></trkpt>
<trkpt lat="46.20728466" lon="7.46807557"><ele>2284.22998</ele><time>2007-08-03T16:46:54Z</time></trkpt>
<trkpt lat="46.20742925" lon="7.46791405"><ele>2281.345703</ele><time>2007-08-03T16:47:01Z</time></trkpt>
<trkpt lat="46.20750208" lon="7.46784967"><ele>2279.423096</ele><time>2007-08-03T16:47:05Z</time></trkpt>
<trkpt lat="46.20752765" lon="7.46784749"><ele>2279.423096</ele><time>2007-08-03T16:47:40Z</time></trkpt>
<trkpt lat="46.20754265" lon="7.46784138"><ele>2279.423096</ele><time>2007-08-03T16:47:41Z</time></trkpt>
<trkpt lat="46.20762127" lon="7.46778170"><ele>2277.02002</ele><time>2007-08-03T16:47:46Z</time></trkpt>
<trkpt lat="46.20767215" lon="7.46772545"><ele>2273.174805</ele><time>2007-08-03T16:47:49Z</time></trkpt>
<trkpt lat="46.20774306" lon="7.46765932"><ele>2271.251953</ele><time>2007-08-03T16:47:52Z</time></trkpt>
<trkpt lat="46.20776880" lon="7.46763124"><ele>2270.290771</ele><time>2007-08-03T16:47:53Z</time></trkpt>
<trkpt lat="46.20779797" lon="7.46760610"><ele>2269.810059</ele><time>2007-08-03T16:47:54Z</time></trkpt>
<trkpt lat="46.20782554" lon="7.46757944"><ele>2269.810059</ele><time>2007-08-03T16:47:55Z</time></trkpt>
<trkpt lat="46.20797977" lon="7.46748850"><ele>2267.406494</ele><time>2007-08-03T16:48:00Z</time></trkpt>
<trkpt lat="46.20800835" lon="7.46749135"><ele>2267.406494</ele><time>2007-08-03T16:48:01Z</time></trkpt>
<trkpt lat="46.20815512" lon="7.46739596"><ele>2265.484131</ele><time>2007-08-03T16:48:06Z</time></trkpt>
<trkpt lat="46.20831756" lon="7.46726319"><ele>2263.080811</ele><time>2007-08-03T16:48:12Z</time></trkpt>
<trkpt lat="46.20842476" lon="7.46714199"><ele>2258.754883</ele><time>2007-08-03T16:48:16Z</time></trkpt>
<trkpt lat="46.20850942" lon="7.46696027"><ele>2255.87085</ele><time>2007-08-03T16:48:20Z</time></trkpt>
<trkpt lat="46.20857958" lon="7.46683496"><ele>2253.467773</ele><time>2007-08-03T16:48:23Z</time></trkpt>
<trkpt lat="46.20863037" lon="7.46665475"><ele>2252.025635</ele><time>2007-08-03T16:48:26Z</time></trkpt>
<trkpt lat="46.20865962" lon="7.46652240"><ele>2251.064209</ele><time>2007-08-03T16:48:28Z</time></trkpt>
<trkpt lat="46.20871788" lon="7.46632165"><ele>2249.622314</ele><time>2007-08-03T16:48:32Z</time></trkpt>
<trkpt lat="46.20878535" lon="7.46608780"><ele>2243.854492</ele><time>2007-08-03T16:48:36Z</time></trkpt>
<trkpt lat="46.20880572" lon="7.46601638"><ele>2241.931885</ele><time>2007-08-03T16:48:37Z</time></trkpt>
<trkpt lat="46.20892592" lon="7.46569469"><ele>2237.125244</ele><time>2007-08-03T16:48:41Z</time></trkpt>
<trkpt lat="46.20899264" lon="7.46548757"><ele>2232.799072</ele><time>2007-08-03T16:48:44Z</time></trkpt>
<trkpt lat="46.20906313" lon="7.46530065"><ele>2227.992676</ele><time>2007-08-03T16:48:47Z</time></trkpt>
<trkpt lat="46.20914175" lon="7.46512472"><ele>2224.628174</ele><time>2007-08-03T16:48:51Z</time></trkpt>
<trkpt lat="46.20914988" lon="7.46507602"><ele>2224.628174</ele><time>2007-08-03T16:48:52Z</time></trkpt>
<trkpt lat="46.20913857" lon="7.46490939"><ele>2222.705566</ele><time>2007-08-03T16:48:55Z</time></trkpt>
<trkpt lat="46.20915416" lon="7.46463018"><ele>2218.860107</ele><time>2007-08-03T16:49:00Z</time></trkpt>
<trkpt lat="46.20917008" lon="7.46452516"><ele>2215.495605</ele><time>2007-08-03T16:49:02Z</time></trkpt>
<trkpt lat="46.20918567" lon="7.46442684"><ele>2214.53418</ele><time>2007-08-03T16:49:05Z</time></trkpt>
<trkpt lat="46.20923974" lon="7.46426549"><ele>2212.130859</ele><time>2007-08-03T16:49:13Z</time></trkpt>
<trkpt lat="46.20927083" lon="7.46419173"><ele>2211.169678</ele><time>2007-08-03T16:49:16Z</time></trkpt>
<trkpt lat="46.20933646" lon="7.46412518"><ele>2209.727539</ele><time>2007-08-03T16:49:18Z</time></trkpt>
<trkpt lat="46.20942749" lon="7.46403859"><ele>2205.401855</ele><time>2007-08-03T16:49:20Z</time></trkpt>
<trkpt lat="46.20947569" lon="7.46398369"><ele>2203.479004</ele><time>2007-08-03T16:49:21Z</time></trkpt>
<trkpt lat="46.20967073" lon="7.46375754"><ele>2199.153076</ele><time>2007-08-03T16:49:25Z</time></trkpt>
<trkpt lat="46.20973318" lon="7.46373399"><ele>2199.153076</ele><time>2007-08-03T16:49:26Z</time></trkpt>
<trkpt lat="46.20989478" lon="7.46367674"><ele>2196.749756</ele><time>2007-08-03T16:49:29Z</time></trkpt>
<trkpt lat="46.21000425" lon="7.46361522"><ele>2195.788574</ele><time>2007-08-03T16:49:31Z</time></trkpt>
<trkpt lat="46.21010693" lon="7.46354012"><ele>2192.424072</ele><time>2007-08-03T16:49:33Z</time></trkpt>
<trkpt lat="46.21029703" lon="7.46347013"><ele>2186.655762</ele><time>2007-08-03T16:49:36Z</time></trkpt>
<trkpt lat="46.21036350" lon="7.46345244"><ele>2186.175293</ele><time>2007-08-03T16:49:37Z</time></trkpt>
<trkpt lat="46.21048068" lon="7.46340416"><ele>2181.849365</ele><time>2007-08-03T16:49:39Z</time></trkpt>
<trkpt lat="46.21053524" lon="7.46337919"><ele>2181.849365</ele><time>2007-08-03T16:49:40Z</time></trkpt>
<trkpt lat="46.21063977" lon="7.46332982"><ele>2178.965332</ele><time>2007-08-03T16:49:42Z</time></trkpt>
<trkpt lat="46.21080028" lon="7.46324072"><ele>2173.678223</ele><time>2007-08-03T16:49:46Z</time></trkpt>
<trkpt lat="46.21091746" lon="7.46317777"><ele>2169.352295</ele><time>2007-08-03T16:49:49Z</time></trkpt>
<trkpt lat="46.21099675" lon="7.46312773"><ele>2165.50708</ele><time>2007-08-03T16:49:51Z</time></trkpt>
<trkpt lat="46.21106003" lon="7.46308322"><ele>2161.181152</ele><time>2007-08-03T16:49:53Z</time></trkpt>
<trkpt lat="46.21114804" lon="7.46298825"><ele>2157.81665</ele><time>2007-08-03T16:49:57Z</time></trkpt>
<trkpt lat="46.21120848" lon="7.46291642"><ele>2153.971191</ele><time>2007-08-03T16:50:00Z</time></trkpt>
<trkpt lat="46.21127637" lon="7.46287426"><ele>2151.567871</ele><time>2007-08-03T16:50:02Z</time></trkpt>
<trkpt lat="46.21135768" lon="7.46280796"><ele>2148.683838</ele><time>2007-08-03T16:50:04Z</time></trkpt>
<trkpt lat="46.21153613" lon="7.46259824"><ele>2143.877441</ele><time>2007-08-03T16:50:08Z</time></trkpt>
<trkpt lat="46.21168088" lon="7.46237855"><ele>2140.512695</ele><time>2007-08-03T16:50:12Z</time></trkpt>
<trkpt lat="46.21175515" lon="7.46227378"><ele>2135.706055</ele><time>2007-08-03T16:50:14Z</time></trkpt>
<trkpt lat="46.21183905" lon="7.46216322"><ele>2131.86084</ele><time>2007-08-03T16:50:16Z</time></trkpt>
<trkpt lat="46.21187987" lon="7.46211142"><ele>2131.380127</ele><time>2007-08-03T16:50:17Z</time></trkpt>
<trkpt lat="46.21199043" lon="7.46202073"><ele>2127.054443</ele><time>2007-08-03T16:50:20Z</time></trkpt>
<trkpt lat="46.21208967" lon="7.46197036"><ele>2123.208984</ele><time>2007-08-03T16:50:23Z</time></trkpt>
<trkpt lat="46.21215815" lon="7.46194060"><ele>2119.36377</ele><time>2007-08-03T16:50:25Z</time></trkpt>
<trkpt lat="46.21223694" lon="7.46190053"><ele>2116.960449</ele><time>2007-08-03T16:50:27Z</time></trkpt>
<trkpt lat="46.21237666" lon="7.46180230"><ele>2113.115234</ele><time>2007-08-03T16:50:30Z</time></trkpt>
<trkpt lat="46.21257305" lon="7.46170222"><ele>2108.789307</ele><time>2007-08-03T16:50:34Z</time></trkpt>
<trkpt lat="46.21271596" lon="7.46161412"><ele>2104.463135</ele><time>2007-08-03T16:50:37Z</time></trkpt>
<trkpt lat="46.21282233" lon="7.46156836"><ele>2101.098633</ele><time>2007-08-03T16:50:40Z</time></trkpt>
<trkpt lat="46.21289710" lon="7.46155989"><ele>2097.253418</ele><time>2007-08-03T16:50:42Z</time></trkpt>
<trkpt lat="46.21309692" lon="7.46141489"><ele>2090.523926</ele><time>2007-08-03T16:50:46Z</time></trkpt>
<trkpt lat="46.21314947" lon="7.46132906"><ele>2090.523926</ele><time>2007-08-03T16:50:47Z</time></trkpt>
<trkpt lat="46.21328593" lon="7.46111389"><ele>2083.794922</ele><time>2007-08-03T16:50:50Z</time></trkpt>
<trkpt lat="46.21336657" lon="7.46100568"><ele>2079.468994</ele><time>2007-08-03T16:50:52Z</time></trkpt>
<trkpt lat="46.21344904" lon="7.46088322"><ele>2075.623535</ele><time>2007-08-03T16:50:54Z</time></trkpt>
<trkpt lat="46.21354158" lon="7.46062129"><ele>2072.739746</ele><time>2007-08-03T16:50:58Z</time></trkpt>
<trkpt lat="46.21357536" lon="7.46034452"><ele>2068.413818</ele><time>2007-08-03T16:51:01Z</time></trkpt>
<trkpt lat="46.21361274" lon="7.46009172"><ele>2063.607178</ele><time>2007-08-03T16:51:04Z</time></trkpt>
<trkpt lat="46.21364845" lon="7.45992182"><ele>2061.204102</ele><time>2007-08-03T16:51:06Z</time></trkpt>
<trkpt lat="46.21369832" lon="7.45978067"><ele>2059.761719</ele><time>2007-08-03T16:51:08Z</time></trkpt>
<trkpt lat="46.21376839" lon="7.45965393"><ele>2056.397217</ele><time>2007-08-03T16:51:11Z</time></trkpt>
<trkpt lat="46.21382053" lon="7.45957238"><ele>2053.513428</ele><time>2007-08-03T16:51:14Z</time></trkpt>
<trkpt lat="46.21383067" lon="7.45955712"><ele>2053.513428</ele><time>2007-08-03T16:51:15Z</time></trkpt>
<trkpt lat="46.21385045" lon="7.45952577"><ele>2051.59082</ele><time>2007-08-03T16:52:06Z</time></trkpt>
<trkpt lat="46.21386236" lon="7.45950507"><ele>2051.59082</ele><time>2007-08-03T16:52:07Z</time></trkpt>
<trkpt lat="46.21391474" lon="7.45939694"><ele>2048.226074</ele><time>2007-08-03T16:52:11Z</time></trkpt>
<trkpt lat="46.21396864" lon="7.45923350"><ele>2045.342285</ele><time>2007-08-03T16:52:16Z</time></trkpt>
<trkpt lat="46.21399362" lon="7.45911154"><ele>2042.458252</ele><time>2007-08-03T16:52:21Z</time></trkpt>
<trkpt lat="46.21401088" lon="7.45894717"><ele>2039.574219</ele><time>2007-08-03T16:52:49Z</time></trkpt>
<trkpt lat="46.21404148" lon="7.45891448"><ele>2039.093506</ele><time>2007-08-03T16:52:51Z</time></trkpt>
<trkpt lat="46.21413292" lon="7.45879135"><ele>2034.767822</ele><time>2007-08-03T16:52:57Z</time></trkpt>
<trkpt lat="46.21415782" lon="7.45869135"><ele>2031.403076</ele><time>2007-08-03T16:53:02Z</time></trkpt>
<trkpt lat="46.21422219" lon="7.45864090"><ele>2029.480469</ele><time>2007-08-03T16:53:24Z</time></trkpt>
<trkpt lat="46.21427676" lon="7.45857342"><ele>2028.038574</ele><time>2007-08-03T16:53:26Z</time></trkpt>
<trkpt lat="46.21439436" lon="7.45841676"><ele>2026.115723</ele><time>2007-08-03T16:53:29Z</time></trkpt>
<trkpt lat="46.21446258" lon="7.45832364"><ele>2024.673828</ele><time>2007-08-03T16:53:31Z</time></trkpt>
<trkpt lat="46.21455143" lon="7.45817604"><ele>2021.789795</ele><time>2007-08-03T16:53:34Z</time></trkpt>
<trkpt lat="46.21463014" lon="7.45797303"><ele>2016.502686</ele><time>2007-08-03T16:53:37Z</time></trkpt>
<trkpt lat="46.21470189" lon="7.45784470"><ele>2015.060791</ele><time>2007-08-03T16:53:39Z</time></trkpt>
<trkpt lat="46.21475629" lon="7.45775468"><ele>2012.176758</ele><time>2007-08-03T16:53:41Z</time></trkpt>
<trkpt lat="46.21481253" lon="7.45770606"><ele>2008.331299</ele><time>2007-08-03T16:53:44Z</time></trkpt>
<trkpt lat="46.21483147" lon="7.45767698"><ele>2008.331299</ele><time>2007-08-03T16:53:45Z</time></trkpt>
<trkpt lat="46.21489358" lon="7.45755016"><ele>2004.486084</ele><time>2007-08-03T16:53:48Z</time></trkpt>
<trkpt lat="46.21492426" lon="7.45751395"><ele>2004.486084</ele><time>2007-08-03T16:53:49Z</time></trkpt>
<trkpt lat="46.21500758" lon="7.45744597"><ele>2000.640869</ele><time>2007-08-03T16:53:52Z</time></trkpt>
<trkpt lat="46.21502786" lon="7.45742435"><ele>2000.640869</ele><time>2007-08-03T16:53:53Z</time></trkpt>
<trkpt lat="46.21504672" lon="7.45741052"><ele>2000.1604</ele><time>2007-08-03T16:53:54Z</time></trkpt>
<trkpt lat="46.21509114" lon="7.45735897"><ele>1999.198975</ele><time>2007-08-03T16:53:57Z</time></trkpt>
<trkpt lat="46.21520572" lon="7.45730029"><ele>1995.834229</ele><time>2007-08-03T16:54:01Z</time></trkpt>
<trkpt lat="46.21528217" lon="7.45728068"><ele>1992.950195</ele><time>2007-08-03T16:54:04Z</time></trkpt>
<trkpt lat="46.21534059" lon="7.45720214"><ele>1991.508301</ele><time>2007-08-03T16:54:07Z</time></trkpt>
<trkpt lat="46.21536557" lon="7.45716057"><ele>1989.585693</ele><time>2007-08-03T16:54:08Z</time></trkpt>
<trkpt lat="46.21542013" lon="7.45708396"><ele>1985.740479</ele><time>2007-08-03T16:54:13Z</time></trkpt>
<trkpt lat="46.21546607" lon="7.45694289"><ele>1984.779297</ele><time>2007-08-03T16:54:16Z</time></trkpt>
<trkpt lat="46.21548459" lon="7.45687240"><ele>1984.298584</ele><time>2007-08-03T16:54:17Z</time></trkpt>
<trkpt lat="46.21559976" lon="7.45670669"><ele>1983.337158</ele><time>2007-08-03T16:54:21Z</time></trkpt>
<trkpt lat="46.21567913" lon="7.45659856"><ele>1979.491699</ele><time>2007-08-03T16:54:24Z</time></trkpt>
<trkpt lat="46.21572666" lon="7.45643780"><ele>1976.60791</ele><time>2007-08-03T16:54:27Z</time></trkpt>
<trkpt lat="46.21578835" lon="7.45632280"><ele>1972.281982</ele><time>2007-08-03T16:54:29Z</time></trkpt>
<trkpt lat="46.21592648" lon="7.45613236"><ele>1969.398193</ele><time>2007-08-03T16:54:34Z</time></trkpt>
<trkpt lat="46.21606026" lon="7.45605592"><ele>1965.072266</ele><time>2007-08-03T16:54:38Z</time></trkpt>
<trkpt lat="46.21616679" lon="7.45589088"><ele>1961.226807</ele><time>2007-08-03T16:54:43Z</time></trkpt>
<trkpt lat="46.21620795" lon="7.45582692"><ele>1960.265381</ele><time>2007-08-03T16:54:45Z</time></trkpt>
<trkpt lat="46.21622186" lon="7.45580195"><ele>1959.304199</ele><time>2007-08-03T16:54:46Z</time></trkpt>
<trkpt lat="46.21632270" lon="7.45570899"><ele>1954.497559</ele><time>2007-08-03T16:55:15Z</time></trkpt>
<trkpt lat="46.21633292" lon="7.45570019"><ele>1954.497559</ele><time>2007-08-03T16:55:16Z</time></trkpt>
<trkpt lat="46.21634549" lon="7.45568904"><ele>1954.497559</ele><time>2007-08-03T16:55:17Z</time></trkpt>
<trkpt lat="46.21645077" lon="7.45575392"><ele>1953.055664</ele><time>2007-08-03T16:55:22Z</time></trkpt>
<trkpt lat="46.21647047" lon="7.45595835"><ele>1951.61377</ele><time>2007-08-03T16:55:26Z</time></trkpt>
<trkpt lat="46.21642848" lon="7.45610286"><ele>1950.652344</ele><time>2007-08-03T16:55:28Z</time></trkpt>
<trkpt lat="46.21640936" lon="7.45630503"><ele>1949.210449</ele><time>2007-08-03T16:55:30Z</time></trkpt>
<trkpt lat="46.21643962" lon="7.45654684"><ele>1946.806885</ele><time>2007-08-03T16:55:32Z</time></trkpt>
<trkpt lat="46.21651498" lon="7.45689746"><ele>1943.442383</ele><time>2007-08-03T16:55:35Z</time></trkpt>
<trkpt lat="46.21661263" lon="7.45723575"><ele>1939.116455</ele><time>2007-08-03T16:55:38Z</time></trkpt>
<trkpt lat="46.21664867" lon="7.45733868"><ele>1939.116455</ele><time>2007-08-03T16:55:39Z</time></trkpt>
<trkpt lat="46.21668278" lon="7.45745536"><ele>1937.193848</ele><time>2007-08-03T16:55:40Z</time></trkpt>
<trkpt lat="46.21677406" lon="7.45787546"><ele>1934.310059</ele><time>2007-08-03T16:55:43Z</time></trkpt>
<trkpt lat="46.21681019" lon="7.45803254"><ele>1933.829346</ele><time>2007-08-03T16:55:44Z</time></trkpt>
<trkpt lat="46.21700632" lon="7.45867836"><ele>1926.138672</ele><time>2007-08-03T16:55:48Z</time></trkpt>
<trkpt lat="46.21714907" lon="7.45910182"><ele>1921.812744</ele><time>2007-08-03T16:55:51Z</time></trkpt>
<trkpt lat="46.21719668" lon="7.45922076"><ele>1920.851563</ele><time>2007-08-03T16:55:52Z</time></trkpt>
<trkpt lat="46.21726608" lon="7.45944799"><ele>1917.006348</ele><time>2007-08-03T16:55:54Z</time></trkpt>
<trkpt lat="46.21727119" lon="7.45976097"><ele>1913.641357</ele><time>2007-08-03T16:55:57Z</time></trkpt>
<trkpt lat="46.21730673" lon="7.45999122"><ele>1910.757568</ele><time>2007-08-03T16:55:59Z</time></trkpt>
<trkpt lat="46.21745316" lon="7.46034854"><ele>1907.393066</ele><time>2007-08-03T16:56:02Z</time></trkpt>
<trkpt lat="46.21750622" lon="7.46046673"><ele>1904.989746</ele><time>2007-08-03T16:56:03Z</time></trkpt>
<trkpt lat="46.21760856" lon="7.46068952"><ele>1902.105713</ele><time>2007-08-03T16:56:05Z</time></trkpt>
<trkpt lat="46.21773245" lon="7.46123744"><ele>1896.337891</ele><time>2007-08-03T16:56:09Z</time></trkpt>
<trkpt lat="46.21782239" lon="7.46150030"><ele>1892.973145</ele><time>2007-08-03T16:56:11Z</time></trkpt>
<trkpt lat="46.21791978" lon="7.46174572"><ele>1889.608643</ele><time>2007-08-03T16:56:13Z</time></trkpt>
<trkpt lat="46.21796924" lon="7.46187950"><ele>1887.686035</ele><time>2007-08-03T16:56:14Z</time></trkpt>
<trkpt lat="46.21801634" lon="7.46217697"><ele>1884.802246</ele><time>2007-08-03T16:56:16Z</time></trkpt>
<trkpt lat="46.21807083" lon="7.46262423"><ele>1881.917969</ele><time>2007-08-03T16:56:19Z</time></trkpt>
<trkpt lat="46.21813553" lon="7.46309219"><ele>1878.553467</ele><time>2007-08-03T16:56:22Z</time></trkpt>
<trkpt lat="46.21817208" lon="7.46342403"><ele>1876.630859</ele><time>2007-08-03T16:56:24Z</time></trkpt>
<trkpt lat="46.21826470" lon="7.46392652"><ele>1872.304932</ele><time>2007-08-03T16:56:27Z</time></trkpt>
<trkpt lat="46.21835615" lon="7.46426373"><ele>1868.94043</ele><time>2007-08-03T16:56:29Z</time></trkpt>
<trkpt lat="46.21844365" lon="7.46455793"><ele>1865.094971</ele><time>2007-08-03T16:56:31Z</time></trkpt>
<trkpt lat="46.21853602" lon="7.46480629"><ele>1862.69165</ele><time>2007-08-03T16:56:33Z</time></trkpt>
<trkpt lat="46.21872688" lon="7.46527299"><ele>1857.885254</ele><time>2007-08-03T16:56:37Z</time></trkpt>
<trkpt lat="46.21876409" lon="7.46571564"><ele>1855.001221</ele><time>2007-08-03T16:56:40Z</time></trkpt>
<trkpt lat="46.21877725" lon="7.46632509"><ele>1848.752441</ele><time>2007-08-03T16:56:44Z</time></trkpt>
<trkpt lat="46.21870458" lon="7.46676707"><ele>1845.387939</ele><time>2007-08-03T16:56:47Z</time></trkpt>
<trkpt lat="46.21867659" lon="7.46688408"><ele>1843.946045</ele><time>2007-08-03T16:56:48Z</time></trkpt>
<trkpt lat="46.21862168" lon="7.46708122"><ele>1842.023438</ele><time>2007-08-03T16:56:50Z</time></trkpt>
<trkpt lat="46.21874322" lon="7.46733226"><ele>1838.658936</ele><time>2007-08-03T16:56:54Z</time></trkpt>
<trkpt lat="46.21892754" lon="7.46721349"><ele>1836.255615</ele><time>2007-08-03T16:56:57Z</time></trkpt>
<trkpt lat="46.21915863" lon="7.46698692"><ele>1833.852051</ele><time>2007-08-03T16:57:01Z</time></trkpt>
<trkpt lat="46.21938092" lon="7.46703143"><ele>1830.006836</ele><time>2007-08-03T16:57:05Z</time></trkpt>
<trkpt lat="46.21941344" lon="7.46701567"><ele>1830.006836</ele><time>2007-08-03T16:57:06Z</time></trkpt>
<trkpt lat="46.21944319" lon="7.46690042"><ele>1830.006836</ele><time>2007-08-03T16:57:09Z</time></trkpt>
<trkpt lat="46.21936239" lon="7.46677092"><ele>1828.564941</ele><time>2007-08-03T16:58:32Z</time></trkpt>
<trkpt lat="46.21934328" lon="7.46676916"><ele>1829.04541</ele><time>2007-08-03T16:58:33Z</time></trkpt>
<trkpt lat="46.21913097" lon="7.46672692"><ele>1828.564941</ele><time>2007-08-03T16:58:39Z</time></trkpt>
<trkpt lat="46.21892125" lon="7.46649466"><ele>1826.161621</ele><time>2007-08-03T16:58:44Z</time></trkpt>
<trkpt lat="46.21899015" lon="7.46605134"><ele>1824.719727</ele><time>2007-08-03T16:58:49Z</time></trkpt>
<trkpt lat="46.21904103" lon="7.46594950"><ele>1823.758301</ele><time>2007-08-03T16:58:50Z</time></trkpt>
<trkpt lat="46.21914446" lon="7.46574967"><ele>1822.316406</ele><time>2007-08-03T16:58:52Z</time></trkpt>
<trkpt lat="46.21930146" lon="7.46525816"><ele>1818.95166</ele><time>2007-08-03T16:58:56Z</time></trkpt>
<trkpt lat="46.21938134" lon="7.46502975"><ele>1816.067627</ele><time>2007-08-03T16:58:58Z</time></trkpt>
<trkpt lat="46.21945032" lon="7.46478382"><ele>1814.625732</ele><time>2007-08-03T16:59:00Z</time></trkpt>
<trkpt lat="46.21951243" lon="7.46435015"><ele>1809.819092</ele><time>2007-08-03T16:59:03Z</time></trkpt>
<trkpt lat="46.21951662" lon="7.46421327"><ele>1809.819092</ele><time>2007-08-03T16:59:04Z</time></trkpt>
<trkpt lat="46.21952249" lon="7.46407639"><ele>1807.896729</ele><time>2007-08-03T16:59:05Z</time></trkpt>
<trkpt lat="46.21963833" lon="7.46354062"><ele>1802.128418</ele><time>2007-08-03T16:59:09Z</time></trkpt>
<trkpt lat="46.21965987" lon="7.46312957"><ele>1800.206055</ele><time>2007-08-03T16:59:12Z</time></trkpt>
<trkpt lat="46.21972877" lon="7.46272992"><ele>1794.437988</ele><time>2007-08-03T16:59:15Z</time></trkpt>
<trkpt lat="46.21975894" lon="7.46260704"><ele>1794.437988</ele><time>2007-08-03T16:59:16Z</time></trkpt>
<trkpt lat="46.21983664" lon="7.46221854"><ele>1790.592773</ele><time>2007-08-03T16:59:20Z</time></trkpt>
<trkpt lat="46.21982759" lon="7.46211444"><ele>1789.631592</ele><time>2007-08-03T16:59:21Z</time></trkpt>
<trkpt lat="46.21980303" lon="7.46188327"><ele>1786.747314</ele><time>2007-08-03T16:59:23Z</time></trkpt>
<trkpt lat="46.21980010" lon="7.46175134"><ele>1784.344238</ele><time>2007-08-03T16:59:24Z</time></trkpt>
<trkpt lat="46.21982859" lon="7.46147566"><ele>1783.382813</ele><time>2007-08-03T16:59:26Z</time></trkpt>
<trkpt lat="46.21999137" lon="7.46110677"><ele>1778.095703</ele><time>2007-08-03T16:59:29Z</time></trkpt>
<trkpt lat="46.22006337" lon="7.46099562"><ele>1778.095703</ele><time>2007-08-03T16:59:30Z</time></trkpt>
<trkpt lat="46.22012456" lon="7.46087836"><ele>1778.095703</ele><time>2007-08-03T16:59:31Z</time></trkpt>
<trkpt lat="46.22028566" lon="7.46032289"><ele>1773.289307</ele><time>2007-08-03T16:59:35Z</time></trkpt>
<trkpt lat="46.22031349" lon="7.46017763"><ele>1772.808594</ele><time>2007-08-03T16:59:36Z</time></trkpt>
<trkpt lat="46.22037308" lon="7.45974018"><ele>1767.040527</ele><time>2007-08-03T16:59:39Z</time></trkpt>
<trkpt lat="46.22041466" lon="7.45959744"><ele>1767.040527</ele><time>2007-08-03T16:59:40Z</time></trkpt>
<trkpt lat="46.22051910" lon="7.45936987"><ele>1763.195313</ele><time>2007-08-03T16:59:42Z</time></trkpt>
<trkpt lat="46.22059017" lon="7.45914867"><ele>1760.791992</ele><time>2007-08-03T16:59:44Z</time></trkpt>
<trkpt lat="46.22059135" lon="7.45902412"><ele>1759.830566</ele><time>2007-08-03T16:59:45Z</time></trkpt>
<trkpt lat="46.22064969" lon="7.45850268"><ele>1755.985107</ele><time>2007-08-03T16:59:49Z</time></trkpt>
<trkpt lat="46.22065715" lon="7.45822339"><ele>1755.504639</ele><time>2007-08-03T16:59:51Z</time></trkpt>
<trkpt lat="46.22064508" lon="7.45790899"><ele>1751.659424</ele><time>2007-08-03T16:59:53Z</time></trkpt>
<trkpt lat="46.22065807" lon="7.45760757"><ele>1749.256104</ele><time>2007-08-03T16:59:55Z</time></trkpt>
<trkpt lat="46.22068279" lon="7.45731396"><ele>1746.372314</ele><time>2007-08-03T16:59:57Z</time></trkpt>
<trkpt lat="46.22072713" lon="7.45702025"><ele>1742.046387</ele><time>2007-08-03T16:59:59Z</time></trkpt>
<trkpt lat="46.22078338" lon="7.45669705"><ele>1739.162109</ele><time>2007-08-03T17:00:01Z</time></trkpt>
<trkpt lat="46.22093249" lon="7.45621945"><ele>1735.797607</ele><time>2007-08-03T17:00:04Z</time></trkpt>
<trkpt lat="46.22102587" lon="7.45592910"><ele>1734.355713</ele><time>2007-08-03T17:00:06Z</time></trkpt>
<trkpt lat="46.22117942" lon="7.45536919"><ele>1729.068359</ele><time>2007-08-03T17:00:10Z</time></trkpt>
<trkpt lat="46.22146348" lon="7.45492444"><ele>1724.742676</ele><time>2007-08-03T17:00:14Z</time></trkpt>
<trkpt lat="46.22154345" lon="7.45480408"><ele>1724.742676</ele><time>2007-08-03T17:00:15Z</time></trkpt>
<trkpt lat="46.22180496" lon="7.45445137"><ele>1721.377686</ele><time>2007-08-03T17:00:18Z</time></trkpt>
<trkpt lat="46.22188300" lon="7.45434919"><ele>1719.935791</ele><time>2007-08-03T17:00:19Z</time></trkpt>
<trkpt lat="46.22206715" lon="7.45404443"><ele>1717.532471</ele><time>2007-08-03T17:00:22Z</time></trkpt>
<trkpt lat="46.22211585" lon="7.45394284"><ele>1716.090576</ele><time>2007-08-03T17:00:23Z</time></trkpt>
<trkpt lat="46.22230587" lon="7.45376908"><ele>1714.167969</ele><time>2007-08-03T17:00:26Z</time></trkpt>
<trkpt lat="46.22237083" lon="7.45374352"><ele>1713.206787</ele><time>2007-08-03T17:00:27Z</time></trkpt>
<trkpt lat="46.22255372" lon="7.45354738"><ele>1711.28418</ele><time>2007-08-03T17:00:30Z</time></trkpt>
<trkpt lat="46.22271448" lon="7.45326173"><ele>1707.919434</ele><time>2007-08-03T17:00:33Z</time></trkpt>
<trkpt lat="46.22276913" lon="7.45316642"><ele>1707.438721</ele><time>2007-08-03T17:00:34Z</time></trkpt>
<trkpt lat="46.22293786" lon="7.45267340"><ele>1704.074219</ele><time>2007-08-03T17:00:39Z</time></trkpt>
<trkpt lat="46.22293166" lon="7.45248640"><ele>1703.593506</ele><time>2007-08-03T17:00:41Z</time></trkpt>
<trkpt lat="46.22291012" lon="7.45238406"><ele>1702.151367</ele><time>2007-08-03T17:00:42Z</time></trkpt>
<trkpt lat="46.22276327" lon="7.45177796"><ele>1698.306152</ele><time>2007-08-03T17:00:47Z</time></trkpt>
<trkpt lat="46.22278975" lon="7.45140329"><ele>1696.383789</ele><time>2007-08-03T17:00:50Z</time></trkpt>
<trkpt lat="46.22282093" lon="7.45129399"><ele>1695.422363</ele><time>2007-08-03T17:00:51Z</time></trkpt>
<trkpt lat="46.22283007" lon="7.45091412"><ele>1692.538574</ele><time>2007-08-03T17:00:54Z</time></trkpt>
<trkpt lat="46.22281465" lon="7.45078286"><ele>1691.096191</ele><time>2007-08-03T17:00:55Z</time></trkpt>
<trkpt lat="46.22281238" lon="7.45050316"><ele>1690.13501</ele><time>2007-08-03T17:00:57Z</time></trkpt>
<trkpt lat="46.22284935" lon="7.45026235"><ele>1688.693115</ele><time>2007-08-03T17:00:59Z</time></trkpt>
<trkpt lat="46.22287617" lon="7.45011382"><ele>1685.809082</ele><time>2007-08-03T17:01:01Z</time></trkpt>
<trkpt lat="46.22289998" lon="7.45002044"><ele>1684.367188</ele><time>2007-08-03T17:01:03Z</time></trkpt>
<trkpt lat="46.22298849" lon="7.45000963"><ele>1681.963867</ele><time>2007-08-03T17:01:06Z</time></trkpt>
<trkpt lat="46.22301833" lon="7.45001676"><ele>1680.04126</ele><time>2007-08-03T17:01:13Z</time></trkpt>
<trkpt lat="46.22302168" lon="7.45003947"><ele>1681.002686</ele><time>2007-08-03T17:01:17Z</time></trkpt>
<trkpt lat="46.22302713" lon="7.45006403"><ele>1680.04126</ele><time>2007-08-03T17:01:18Z</time></trkpt>
<trkpt lat="46.22310843" lon="7.45027995"><ele>1676.676758</ele><time>2007-08-03T17:01:24Z</time></trkpt>
<trkpt lat="46.22312327" lon="7.45032362"><ele>1676.676758</ele><time>2007-08-03T17:01:25Z</time></trkpt>
<trkpt lat="46.22320835" lon="7.45052797"><ele>1672.831299</ele><time>2007-08-03T17:01:29Z</time></trkpt>
<trkpt lat="46.22336257" lon="7.45080088"><ele>1669.466797</ele><time>2007-08-03T17:01:34Z</time></trkpt>
<trkpt lat="46.22346156" lon="7.45103725"><ele>1663.69873</ele><time>2007-08-03T17:01:38Z</time></trkpt>
<trkpt lat="46.22350766" lon="7.45115376"><ele>1660.334229</ele><time>2007-08-03T17:01:40Z</time></trkpt>
<trkpt lat="46.22355435" lon="7.45127697"><ele>1657.930908</ele><time>2007-08-03T17:01:42Z</time></trkpt>
<trkpt lat="46.22364177" lon="7.45146138"><ele>1656.48877</ele><time>2007-08-03T17:01:45Z</time></trkpt>
<trkpt lat="46.22371755" lon="7.45156213"><ele>1652.162842</ele><time>2007-08-03T17:01:47Z</time></trkpt>
<trkpt lat="46.22379717" lon="7.45165885"><ele>1646.875732</ele><time>2007-08-03T17:01:49Z</time></trkpt>
<trkpt lat="46.22383498" lon="7.45170328"><ele>1644.472412</ele><time>2007-08-03T17:01:50Z</time></trkpt>
<trkpt lat="46.22394084" lon="7.45184233"><ele>1641.107666</ele><time>2007-08-03T17:01:53Z</time></trkpt>
<trkpt lat="46.22398166" lon="7.45188483"><ele>1637.743164</ele><time>2007-08-03T17:01:54Z</time></trkpt>
<trkpt lat="46.22412197" lon="7.45201383"><ele>1632.936523</ele><time>2007-08-03T17:01:57Z</time></trkpt>
<trkpt lat="46.22417428" lon="7.45205306"><ele>1631.975342</ele><time>2007-08-03T17:01:58Z</time></trkpt>
<trkpt lat="46.22426924" lon="7.45230485"><ele>1628.61084</ele><time>2007-08-03T17:02:02Z</time></trkpt>
<trkpt lat="46.22428886" lon="7.45259888"><ele>1626.687988</ele><time>2007-08-03T17:02:05Z</time></trkpt>
<trkpt lat="46.22431325" lon="7.45291480"><ele>1623.323486</ele><time>2007-08-03T17:02:08Z</time></trkpt>
<trkpt lat="46.22431559" lon="7.45310733"><ele>1620.439453</ele><time>2007-08-03T17:02:10Z</time></trkpt>
<trkpt lat="46.22431928" lon="7.45339223"><ele>1615.633057</ele><time>2007-08-03T17:02:13Z</time></trkpt>
<trkpt lat="46.22437703" lon="7.45372994"><ele>1610.345459</ele><time>2007-08-03T17:02:16Z</time></trkpt>
<trkpt lat="46.22438827" lon="7.45398626"><ele>1605.539063</ele><time>2007-08-03T17:02:18Z</time></trkpt>
<trkpt lat="46.22439153" lon="7.45423185"><ele>1604.097168</ele><time>2007-08-03T17:02:20Z</time></trkpt>
<trkpt lat="46.22439145" lon="7.45435313"><ele>1600.732422</ele><time>2007-08-03T17:02:21Z</time></trkpt>
<trkpt lat="46.22426924" lon="7.45481783"><ele>1598.329102</ele><time>2007-08-03T17:02:25Z</time></trkpt>
<trkpt lat="46.22408149" lon="7.45507892"><ele>1595.925781</ele><time>2007-08-03T17:02:28Z</time></trkpt>
<trkpt lat="46.22389558" lon="7.45538838"><ele>1592.080566</ele><time>2007-08-03T17:02:31Z</time></trkpt>
<trkpt lat="46.22378586" lon="7.45562517"><ele>1591.119141</ele><time>2007-08-03T17:02:33Z</time></trkpt>
<trkpt lat="46.22367170" lon="7.45595760"><ele>1589.196533</ele><time>2007-08-03T17:02:36Z</time></trkpt>
<trkpt lat="46.22357262" lon="7.45637233"><ele>1587.273926</ele><time>2007-08-03T17:02:40Z</time></trkpt>
<trkpt lat="46.22358293" lon="7.45685086"><ele>1584.87085</ele><time>2007-08-03T17:02:44Z</time></trkpt>
<trkpt lat="46.22356659" lon="7.45770866"><ele>1582.947998</ele><time>2007-08-03T17:02:51Z</time></trkpt>
<trkpt lat="46.22355678" lon="7.45795492"><ele>1582.467529</ele><time>2007-08-03T17:02:53Z</time></trkpt>
<trkpt lat="46.22353407" lon="7.45829028"><ele>1580.544922</ele><time>2007-08-03T17:02:56Z</time></trkpt>
<trkpt lat="46.22353834" lon="7.45848348"><ele>1578.62207</ele><time>2007-08-03T17:02:58Z</time></trkpt>
<trkpt lat="46.22360984" lon="7.45862874"><ele>1578.141357</ele><time>2007-08-03T17:03:02Z</time></trkpt>
<trkpt lat="46.22367706" lon="7.45856035"><ele>1577.660645</ele><time>2007-08-03T17:03:06Z</time></trkpt>
<trkpt lat="46.22369986" lon="7.45849782"><ele>1575.257324</ele><time>2007-08-03T17:04:31Z</time></trkpt>
<trkpt lat="46.22364823" lon="7.45851466"><ele>1575.738037</ele><time>2007-08-03T17:04:37Z</time></trkpt>
<trkpt lat="46.22366147" lon="7.45857962"><ele>1575.738037</ele><time>2007-08-03T17:04:40Z</time></trkpt>
<trkpt lat="46.22369223" lon="7.45866613"><ele>1575.738037</ele><time>2007-08-03T17:04:44Z</time></trkpt>
<trkpt lat="46.22368134" lon="7.45875858"><ele>1575.738037</ele><time>2007-08-03T17:04:49Z</time></trkpt>
<trkpt lat="46.22369366" lon="7.45881205"><ele>1574.776855</ele><time>2007-08-03T17:04:53Z</time></trkpt>
<trkpt lat="46.22370129" lon="7.45875900"><ele>1574.776855</ele><time>2007-08-03T17:04:57Z</time></trkpt>
<trkpt lat="46.22371889" lon="7.45855498"><ele>1574.776855</ele><time>2007-08-03T17:05:04Z</time></trkpt>
<trkpt lat="46.22374370" lon="7.45828643"><ele>1573.81543</ele><time>2007-08-03T17:05:09Z</time></trkpt>
<trkpt lat="46.22375283" lon="7.45816070"><ele>1571.892822</ele><time>2007-08-03T17:05:57Z</time></trkpt>
<trkpt lat="46.22376055" lon="7.45813765"><ele>1571.892822</ele><time>2007-08-03T17:05:58Z</time></trkpt>
<trkpt lat="46.22379407" lon="7.45794696"><ele>1570.931641</ele><time>2007-08-03T17:06:03Z</time></trkpt>
<trkpt lat="46.22384713" lon="7.45763062"><ele>1569.970215</ele><time>2007-08-03T17:06:09Z</time></trkpt>
<trkpt lat="46.22388259" lon="7.45715814"><ele>1568.52832</ele><time>2007-08-03T17:06:16Z</time></trkpt>
<trkpt lat="46.22389566" lon="7.45688262"><ele>1568.047607</ele><time>2007-08-03T17:06:20Z</time></trkpt>
<trkpt lat="46.22401334" lon="7.45673569"><ele>1567.086426</ele><time>2007-08-03T17:06:24Z</time></trkpt>
<trkpt lat="46.22406020" lon="7.45674793"><ele>1566.605713</ele><time>2007-08-03T17:06:25Z</time></trkpt>
<trkpt lat="46.22417562" lon="7.45692043"><ele>1565.644531</ele><time>2007-08-03T17:06:28Z</time></trkpt>
<trkpt lat="46.22422775" lon="7.45708765"><ele>1565.644531</ele><time>2007-08-03T17:06:30Z</time></trkpt>
<trkpt lat="46.22426438" lon="7.45727154"><ele>1564.683105</ele><time>2007-08-03T17:06:32Z</time></trkpt>
<trkpt lat="46.22425868" lon="7.45780547"><ele>1561.799072</ele><time>2007-08-03T17:06:37Z</time></trkpt>
<trkpt lat="46.22424225" lon="7.45790966"><ele>1562.279541</ele><time>2007-08-03T17:06:38Z</time></trkpt>
<trkpt lat="46.22410839" lon="7.45835030"><ele>1560.356934</ele><time>2007-08-03T17:06:42Z</time></trkpt>
<trkpt lat="46.22402776" lon="7.45886276"><ele>1558.915039</ele><time>2007-08-03T17:06:46Z</time></trkpt>
<trkpt lat="46.22402114" lon="7.45912026"><ele>1558.915039</ele><time>2007-08-03T17:06:48Z</time></trkpt>
<trkpt lat="46.22411837" lon="7.45976156"><ele>1557.473145</ele><time>2007-08-03T17:06:53Z</time></trkpt>
<trkpt lat="46.22413547" lon="7.45989357"><ele>1556.992432</ele><time>2007-08-03T17:06:54Z</time></trkpt>
<trkpt lat="46.22415190" lon="7.46015509"><ele>1555.069824</ele><time>2007-08-03T17:06:56Z</time></trkpt>
<trkpt lat="46.22424494" lon="7.46061022"><ele>1550.743896</ele><time>2007-08-03T17:07:00Z</time></trkpt>
<trkpt lat="46.22431694" lon="7.46105203"><ele>1547.37915</ele><time>2007-08-03T17:07:04Z</time></trkpt>
<trkpt lat="46.22432146" lon="7.46141522"><ele>1543.533936</ele><time>2007-08-03T17:07:07Z</time></trkpt>
<trkpt lat="46.22440939" lon="7.46180112"><ele>1540.169434</ele><time>2007-08-03T17:07:11Z</time></trkpt>
<trkpt lat="46.22458222" lon="7.46189433"><ele>1536.804688</ele><time>2007-08-03T17:07:14Z</time></trkpt>
<trkpt lat="46.22464249" lon="7.46180029"><ele>1534.401611</ele><time>2007-08-03T17:07:16Z</time></trkpt>
<trkpt lat="46.22460276" lon="7.46158965"><ele>1533.920898</ele><time>2007-08-03T17:07:19Z</time></trkpt>
<trkpt lat="46.22467224" lon="7.46151765"><ele>1533.440186</ele><time>2007-08-03T17:07:21Z</time></trkpt>
<trkpt lat="46.22476730" lon="7.46156442"><ele>1533.440186</ele><time>2007-08-03T17:07:24Z</time></trkpt>
<trkpt lat="46.22484357" lon="7.46161848"><ele>1533.440186</ele><time>2007-08-03T17:07:26Z</time></trkpt>
<trkpt lat="46.22513677" lon="7.46178394"><ele>1530.556152</ele><time>2007-08-03T17:07:31Z</time></trkpt>
<trkpt lat="46.22529360" lon="7.46186793"><ele>1529.594727</ele><time>2007-08-03T17:07:33Z</time></trkpt>
<trkpt lat="46.22543768" lon="7.46200799"><ele>1528.633545</ele><time>2007-08-03T17:07:35Z</time></trkpt>
<trkpt lat="46.22561638" lon="7.46236783"><ele>1525.749512</ele><time>2007-08-03T17:07:38Z</time></trkpt>
<trkpt lat="46.22580187" lon="7.46272012"><ele>1521.904297</ele><time>2007-08-03T17:07:41Z</time></trkpt>
<trkpt lat="46.22598083" lon="7.46286060"><ele>1519.501221</ele><time>2007-08-03T17:07:44Z</time></trkpt>
<trkpt lat="46.22602953" lon="7.46280922"><ele>1519.501221</ele><time>2007-08-03T17:07:45Z</time></trkpt>
<trkpt lat="46.22602508" lon="7.46262875"><ele>1518.539795</ele><time>2007-08-03T17:07:47Z</time></trkpt>
<trkpt lat="46.22598577" lon="7.46253907"><ele>1518.539795</ele><time>2007-08-03T17:07:48Z</time></trkpt>
<trkpt lat="46.22577447" lon="7.46198972"><ele>1516.136475</ele><time>2007-08-03T17:07:53Z</time></trkpt>
<trkpt lat="46.22547632" lon="7.46155436"><ele>1514.213623</ele><time>2007-08-03T17:07:57Z</time></trkpt>
<trkpt lat="46.22528563" lon="7.46138915"><ele>1513.252441</ele><time>2007-08-03T17:07:59Z</time></trkpt>
<trkpt lat="46.22510534" lon="7.46106578"><ele>1506.04248</ele><time>2007-08-03T17:08:03Z</time></trkpt>
<trkpt lat="46.22515395" lon="7.46100619"><ele>1506.04248</ele><time>2007-08-03T17:08:04Z</time></trkpt>
<trkpt lat="46.22527725" lon="7.46106075"><ele>1505.562012</ele><time>2007-08-03T17:08:06Z</time></trkpt>
<trkpt lat="46.22544070" lon="7.46132403"><ele>1504.600586</ele><time>2007-08-03T17:08:09Z</time></trkpt>
<trkpt lat="46.22561957" lon="7.46141388"><ele>1504.120117</ele><time>2007-08-03T17:08:11Z</time></trkpt>
<trkpt lat="46.22605484" lon="7.46173499"><ele>1501.716797</ele><time>2007-08-03T17:08:16Z</time></trkpt>
<trkpt lat="46.22617923" lon="7.46184723"><ele>1498.351807</ele><time>2007-08-03T17:08:18Z</time></trkpt>
<trkpt lat="46.22627495" lon="7.46174832"><ele>1496.909912</ele><time>2007-08-03T17:08:20Z</time></trkpt>
<trkpt lat="46.22626782" lon="7.46155176"><ele>1496.429443</ele><time>2007-08-03T17:08:22Z</time></trkpt>
<trkpt lat="46.22614226" lon="7.46125747"><ele>1495.94873</ele><time>2007-08-03T17:08:25Z</time></trkpt>
<trkpt lat="46.22601964" lon="7.46107073"><ele>1494.987305</ele><time>2007-08-03T17:08:27Z</time></trkpt>
<trkpt lat="46.22588242" lon="7.46088373"><ele>1494.506592</ele><time>2007-08-03T17:08:29Z</time></trkpt>
<trkpt lat="46.22567380" lon="7.46038827"><ele>1492.584229</ele><time>2007-08-03T17:08:33Z</time></trkpt>
<trkpt lat="46.22563583" lon="7.46023983"><ele>1492.103516</ele><time>2007-08-03T17:08:34Z</time></trkpt>
<trkpt lat="46.22561387" lon="7.45958646"><ele>1489.219482</ele><time>2007-08-03T17:08:38Z</time></trkpt>
<trkpt lat="46.22567204" lon="7.45906443"><ele>1485.85498</ele><time>2007-08-03T17:08:41Z</time></trkpt>
<trkpt lat="46.22577405" lon="7.45873435"><ele>1485.374268</ele><time>2007-08-03T17:08:43Z</time></trkpt>
<trkpt lat="46.22604235" lon="7.45835507"><ele>1482.970703</ele><time>2007-08-03T17:08:46Z</time></trkpt>
<trkpt lat="46.22623036" lon="7.45790203"><ele>1480.567627</ele><time>2007-08-03T17:08:49Z</time></trkpt>
<trkpt lat="46.22628325" lon="7.45736735"><ele>1476.722412</ele><time>2007-08-03T17:08:52Z</time></trkpt>
<trkpt lat="46.22630755" lon="7.45652899"><ele>1474.799805</ele><time>2007-08-03T17:08:57Z</time></trkpt>
<trkpt lat="46.22634930" lon="7.45621375"><ele>1474.319092</ele><time>2007-08-03T17:08:59Z</time></trkpt>
<trkpt lat="46.22656303" lon="7.45549584"><ele>1473.838379</ele><time>2007-08-03T17:09:04Z</time></trkpt>
<trkpt lat="46.22696402" lon="7.45442078"><ele>1470.95459</ele><time>2007-08-03T17:09:12Z</time></trkpt>
<trkpt lat="46.22700233" lon="7.45427644"><ele>1470.473877</ele><time>2007-08-03T17:09:13Z</time></trkpt>
<trkpt lat="46.22706586" lon="7.45397653"><ele>1469.993164</ele><time>2007-08-03T17:09:15Z</time></trkpt>
<trkpt lat="46.22703083" lon="7.45350782"><ele>1469.031982</ele><time>2007-08-03T17:09:18Z</time></trkpt>
<trkpt lat="46.22706167" lon="7.45302804"><ele>1465.186523</ele><time>2007-08-03T17:09:21Z</time></trkpt>
<trkpt lat="46.22718296" lon="7.45275328"><ele>1464.225098</ele><time>2007-08-03T17:09:23Z</time></trkpt>
<trkpt lat="46.22737482" lon="7.45231264"><ele>1462.30249</ele><time>2007-08-03T17:09:26Z</time></trkpt>
<trkpt lat="46.22758672" lon="7.45166925"><ele>1460.860596</ele><time>2007-08-03T17:09:30Z</time></trkpt>
<trkpt lat="46.22777103" lon="7.45120489"><ele>1457.496094</ele><time>2007-08-03T17:09:33Z</time></trkpt>
<trkpt lat="46.22790246" lon="7.45090893"><ele>1457.015381</ele><time>2007-08-03T17:09:35Z</time></trkpt>
<trkpt lat="46.22801713" lon="7.45025346"><ele>1452.20874</ele><time>2007-08-03T17:09:39Z</time></trkpt>
<trkpt lat="46.22809223" lon="7.44992279"><ele>1451.728027</ele><time>2007-08-03T17:09:41Z</time></trkpt>
<trkpt lat="46.22815258" lon="7.44957176"><ele>1449.324707</ele><time>2007-08-03T17:09:43Z</time></trkpt>
<trkpt lat="46.22825216" lon="7.44882376"><ele>1444.998779</ele><time>2007-08-03T17:09:47Z</time></trkpt>
<trkpt lat="46.22821167" lon="7.44807576"><ele>1443.076172</ele><time>2007-08-03T17:09:51Z</time></trkpt>
<trkpt lat="46.22803297" lon="7.44728962"><ele>1437.789063</ele><time>2007-08-03T17:09:55Z</time></trkpt>
<trkpt lat="46.22799776" lon="7.44708644"><ele>1435.385498</ele><time>2007-08-03T17:09:56Z</time></trkpt>
<trkpt lat="46.22795435" lon="7.44668872"><ele>1434.424316</ele><time>2007-08-03T17:09:58Z</time></trkpt>
<trkpt lat="46.22786667" lon="7.44611783"><ele>1428.656494</ele><time>2007-08-03T17:10:01Z</time></trkpt>
<trkpt lat="46.22788318" lon="7.44554912"><ele>1423.369385</ele><time>2007-08-03T17:10:04Z</time></trkpt>
<trkpt lat="46.22793482" lon="7.44535977"><ele>1421.927246</ele><time>2007-08-03T17:10:05Z</time></trkpt>
<trkpt lat="46.22810556" lon="7.44476725"><ele>1420.004639</ele><time>2007-08-03T17:10:08Z</time></trkpt>
<trkpt lat="46.22814906" lon="7.44455645"><ele>1416.15918</ele><time>2007-08-03T17:10:09Z</time></trkpt>
<trkpt lat="46.22822106" lon="7.44387592"><ele>1411.833496</ele><time>2007-08-03T17:10:12Z</time></trkpt>
<trkpt lat="46.22824084" lon="7.44364056"><ele>1408.46875</ele><time>2007-08-03T17:10:13Z</time></trkpt>
<trkpt lat="46.22827395" lon="7.44317972"><ele>1406.546143</ele><time>2007-08-03T17:10:15Z</time></trkpt>
<trkpt lat="46.22829063" lon="7.44295785"><ele>1403.181396</ele><time>2007-08-03T17:10:16Z</time></trkpt>
<trkpt lat="46.22832835" lon="7.44251948"><ele>1399.816895</ele><time>2007-08-03T17:10:18Z</time></trkpt>
<trkpt lat="46.22835224" lon="7.44230222"><ele>1396.932861</ele><time>2007-08-03T17:10:19Z</time></trkpt>
<trkpt lat="46.22836942" lon="7.44208328"><ele>1396.932861</ele><time>2007-08-03T17:10:20Z</time></trkpt>
<trkpt lat="46.22835249" lon="7.44163955"><ele>1390.684326</ele><time>2007-08-03T17:10:22Z</time></trkpt>
<trkpt lat="46.22832868" lon="7.44141684"><ele>1389.242432</ele><time>2007-08-03T17:10:23Z</time></trkpt>
<trkpt lat="46.22834369" lon="7.44073455"><ele>1385.396973</ele><time>2007-08-03T17:10:26Z</time></trkpt>
<trkpt lat="46.22835777" lon="7.44050237"><ele>1385.396973</ele><time>2007-08-03T17:10:27Z</time></trkpt>
<trkpt lat="46.22837042" lon="7.44027028"><ele>1381.551758</ele><time>2007-08-03T17:10:28Z</time></trkpt>
<trkpt lat="46.22840093" lon="7.43982646"><ele>1378.667969</ele><time>2007-08-03T17:10:30Z</time></trkpt>
<trkpt lat="46.22847830" lon="7.43940703"><ele>1377.226074</ele><time>2007-08-03T17:10:32Z</time></trkpt>
<trkpt lat="46.22853345" lon="7.43921500"><ele>1373.380859</ele><time>2007-08-03T17:10:33Z</time></trkpt>
<trkpt lat="46.22862373" lon="7.43882700"><ele>1370.015869</ele><time>2007-08-03T17:10:35Z</time></trkpt>
<trkpt lat="46.22866186" lon="7.43840547"><ele>1366.651367</ele><time>2007-08-03T17:10:37Z</time></trkpt>
<trkpt lat="46.22875289" lon="7.43753845"><ele>1361.844971</ele><time>2007-08-03T17:10:41Z</time></trkpt>
<trkpt lat="46.22879170" lon="7.43732479"><ele>1359.922119</ele><time>2007-08-03T17:10:42Z</time></trkpt>
<trkpt lat="46.22880695" lon="7.43645157"><ele>1354.154297</ele><time>2007-08-03T17:10:46Z</time></trkpt>
<trkpt lat="46.22875658" lon="7.43601177"><ele>1348.866943</ele><time>2007-08-03T17:10:48Z</time></trkpt>
<trkpt lat="46.22874250" lon="7.43556510"><ele>1347.425049</ele><time>2007-08-03T17:10:50Z</time></trkpt>
<trkpt lat="46.22874769" lon="7.43511767"><ele>1344.060547</ele><time>2007-08-03T17:10:52Z</time></trkpt>
<trkpt lat="46.22874929" lon="7.43489748"><ele>1341.176514</ele><time>2007-08-03T17:10:53Z</time></trkpt>
<trkpt lat="46.22873219" lon="7.43447176"><ele>1336.850342</ele><time>2007-08-03T17:10:55Z</time></trkpt>
<trkpt lat="46.22871316" lon="7.43426825"><ele>1336.850342</ele><time>2007-08-03T17:10:56Z</time></trkpt>
<trkpt lat="46.22865868" lon="7.43387975"><ele>1333.005127</ele><time>2007-08-03T17:10:58Z</time></trkpt>
<trkpt lat="46.22858508" lon="7.43330324"><ele>1329.640625</ele><time>2007-08-03T17:11:01Z</time></trkpt>
<trkpt lat="46.22855466" lon="7.43272447"><ele>1326.276123</ele><time>2007-08-03T17:11:04Z</time></trkpt>
<trkpt lat="46.22852046" lon="7.43217126"><ele>1324.353516</ele><time>2007-08-03T17:11:07Z</time></trkpt>
<trkpt lat="46.22842994" lon="7.43166659"><ele>1321.949951</ele><time>2007-08-03T17:11:10Z</time></trkpt>
<trkpt lat="46.22828124" lon="7.43109846"><ele>1320.98877</ele><time>2007-08-03T17:11:14Z</time></trkpt>
<trkpt lat="46.22805954" lon="7.43066814"><ele>1320.98877</ele><time>2007-08-03T17:11:19Z</time></trkpt>
<trkpt lat="46.22802132" lon="7.43059932"><ele>1321.469238</ele><time>2007-08-03T17:11:20Z</time></trkpt>
<trkpt lat="46.22790355" lon="7.43031300"><ele>1323.872559</ele><time>2007-08-03T17:11:24Z</time></trkpt>
<trkpt lat="46.22787698" lon="7.43024443"><ele>1323.872559</ele><time>2007-08-03T17:11:25Z</time></trkpt>
<trkpt lat="46.22782443" lon="7.43011116"><ele>1324.834229</ele><time>2007-08-03T17:11:27Z</time></trkpt>
<trkpt lat="46.22776835" lon="7.42997856"><ele>1325.314697</ele><time>2007-08-03T17:11:29Z</time></trkpt>
<trkpt lat="46.22764505" lon="7.42971805"><ele>1327.237549</ele><time>2007-08-03T17:11:33Z</time></trkpt>
<trkpt lat="46.22755210" lon="7.42954840"><ele>1327.718018</ele><time>2007-08-03T17:11:36Z</time></trkpt>
<trkpt lat="46.22738899" lon="7.42920122"><ele>1328.679443</ele><time>2007-08-03T17:11:42Z</time></trkpt>
<trkpt lat="46.22722705" lon="7.42863989"><ele>1327.718018</ele><time>2007-08-03T17:11:50Z</time></trkpt>
<trkpt lat="46.22718145" lon="7.42847619"><ele>1327.718018</ele><time>2007-08-03T17:11:52Z</time></trkpt>
<trkpt lat="46.22688767" lon="7.42779893"><ele>1327.237549</ele><time>2007-08-03T17:12:01Z</time></trkpt>
<trkpt lat="46.22660796" lon="7.42727707"><ele>1328.19873</ele><time>2007-08-03T17:12:09Z</time></trkpt>
<trkpt lat="46.22642574" lon="7.42699083"><ele>1328.19873</ele><time>2007-08-03T17:12:15Z</time></trkpt>
<trkpt lat="46.22634125" lon="7.42684079"><ele>1328.19873</ele><time>2007-08-03T17:12:18Z</time></trkpt>
<trkpt lat="46.22633899" lon="7.42666737"><ele>1327.237549</ele><time>2007-08-03T17:12:21Z</time></trkpt>
<trkpt lat="46.22637084" lon="7.42661507"><ele>1327.718018</ele><time>2007-08-03T17:12:22Z</time></trkpt>
<trkpt lat="46.22653546" lon="7.42633578"><ele>1326.756836</ele><time>2007-08-03T17:12:27Z</time></trkpt>
<trkpt lat="46.22660377" lon="7.42598064"><ele>1326.756836</ele><time>2007-08-03T17:12:32Z</time></trkpt>
<trkpt lat="46.22657502" lon="7.42584536"><ele>1327.718018</ele><time>2007-08-03T17:12:34Z</time></trkpt>
<trkpt lat="46.22651618" lon="7.42567504"><ele>1326.756836</ele><time>2007-08-03T17:12:37Z</time></trkpt>
<trkpt lat="46.22650587" lon="7.42541679"><ele>1326.276123</ele><time>2007-08-03T17:12:41Z</time></trkpt>
<trkpt lat="46.22653965" lon="7.42534772"><ele>1326.276123</ele><time>2007-08-03T17:12:42Z</time></trkpt>
<trkpt lat="46.22666219" lon="7.42499694"><ele>1323.39209</ele><time>2007-08-03T17:12:47Z</time></trkpt>
<trkpt lat="46.22654837" lon="7.42486887"><ele>1322.911377</ele><time>2007-08-03T17:12:50Z</time></trkpt>
<trkpt lat="46.22638375" lon="7.42492729"><ele>1322.430664</ele><time>2007-08-03T17:12:54Z</time></trkpt>
<trkpt lat="46.22630487" lon="7.42507615"><ele>1322.430664</ele><time>2007-08-03T17:12:58Z</time></trkpt>
<trkpt lat="46.22627554" lon="7.42524236"><ele>1321.469238</ele><time>2007-08-03T17:13:02Z</time></trkpt>
<trkpt lat="46.22622583" lon="7.42555115"><ele>1320.98877</ele><time>2007-08-03T17:13:07Z</time></trkpt>
<trkpt lat="46.22617059" lon="7.42578233"><ele>1320.508057</ele><time>2007-08-03T17:13:10Z</time></trkpt>
<trkpt lat="46.22601813" lon="7.42607368"><ele>1319.546875</ele><time>2007-08-03T17:13:14Z</time></trkpt>
<trkpt lat="46.22575527" lon="7.42640602"><ele>1317.624023</ele><time>2007-08-03T17:13:19Z</time></trkpt>
<trkpt lat="46.22546727" lon="7.42658858"><ele>1314.259521</ele><time>2007-08-03T17:13:23Z</time></trkpt>
<trkpt lat="46.22530508" lon="7.42664382"><ele>1314.259521</ele><time>2007-08-03T17:13:25Z</time></trkpt>
<trkpt lat="46.22496645" lon="7.42671104"><ele>1310.414307</ele><time>2007-08-03T17:13:29Z</time></trkpt>
<trkpt lat="46.22487626" lon="7.42672118"><ele>1311.375732</ele><time>2007-08-03T17:13:30Z</time></trkpt>
<trkpt lat="46.22453394" lon="7.42658716"><ele>1309.933594</ele><time>2007-08-03T17:13:34Z</time></trkpt>
<trkpt lat="46.22444384" lon="7.42655313"><ele>1309.453125</ele><time>2007-08-03T17:13:35Z</time></trkpt>
<trkpt lat="46.22424745" lon="7.42656352"><ele>1307.530273</ele><time>2007-08-03T17:13:37Z</time></trkpt>
<trkpt lat="46.22381830" lon="7.42665849"><ele>1303.204346</ele><time>2007-08-03T17:13:41Z</time></trkpt>
<trkpt lat="46.22322134" lon="7.42683576"><ele>1299.359131</ele><time>2007-08-03T17:13:46Z</time></trkpt>
<trkpt lat="46.22269889" lon="7.42696049"><ele>1296.475342</ele><time>2007-08-03T17:13:50Z</time></trkpt>
<trkpt lat="46.22256663" lon="7.42700097"><ele>1293.110596</ele><time>2007-08-03T17:13:51Z</time></trkpt>
<trkpt lat="46.22243595" lon="7.42705445"><ele>1293.591309</ele><time>2007-08-03T17:13:52Z</time></trkpt>
<trkpt lat="46.22205994" lon="7.42730406"><ele>1290.226563</ele><time>2007-08-03T17:13:55Z</time></trkpt>
<trkpt lat="46.22163833" lon="7.42746273"><ele>1285.900635</ele><time>2007-08-03T17:13:58Z</time></trkpt>
<trkpt lat="46.22133968" lon="7.42751990"><ele>1282.536133</ele><time>2007-08-03T17:14:00Z</time></trkpt>
<trkpt lat="46.22103509" lon="7.42757446"><ele>1281.094238</ele><time>2007-08-03T17:14:02Z</time></trkpt>
<trkpt lat="46.22056989" lon="7.42765493"><ele>1278.210205</ele><time>2007-08-03T17:14:05Z</time></trkpt>
<trkpt lat="46.22041399" lon="7.42768175"><ele>1278.210205</ele><time>2007-08-03T17:14:06Z</time></trkpt>
<trkpt lat="46.21995047" lon="7.42769516"><ele>1271.000244</ele><time>2007-08-03T17:14:09Z</time></trkpt>
<trkpt lat="46.21964905" lon="7.42778057"><ele>1269.55835</ele><time>2007-08-03T17:14:11Z</time></trkpt>
<trkpt lat="46.21923532" lon="7.42800789"><ele>1264.751709</ele><time>2007-08-03T17:14:14Z</time></trkpt>
<trkpt lat="46.21909115" lon="7.42801476"><ele>1261.387207</ele><time>2007-08-03T17:14:15Z</time></trkpt>
<trkpt lat="46.21894749" lon="7.42797822"><ele>1261.387207</ele><time>2007-08-03T17:14:16Z</time></trkpt>
<trkpt lat="46.21850149" lon="7.42786347"><ele>1256.580322</ele><time>2007-08-03T17:14:19Z</time></trkpt>
<trkpt lat="46.21787653" lon="7.42775165"><ele>1251.293213</ele><time>2007-08-03T17:14:23Z</time></trkpt>
<trkpt lat="46.21771652" lon="7.42772726"><ele>1251.293213</ele><time>2007-08-03T17:14:24Z</time></trkpt>
<trkpt lat="46.21739767" lon="7.42769550"><ele>1246.967285</ele><time>2007-08-03T17:14:26Z</time></trkpt>
<trkpt lat="46.21694514" lon="7.42748645"><ele>1243.121826</ele><time>2007-08-03T17:14:29Z</time></trkpt>
<trkpt lat="46.21665428" lon="7.42728562"><ele>1242.160645</ele><time>2007-08-03T17:14:31Z</time></trkpt>
<trkpt lat="46.21634482" lon="7.42714145"><ele>1238.796143</ele><time>2007-08-03T17:14:33Z</time></trkpt>
<trkpt lat="46.21619546" lon="7.42704565"><ele>1235.431396</ele><time>2007-08-03T17:14:34Z</time></trkpt>
<trkpt lat="46.21593076" lon="7.42677634"><ele>1233.028076</ele><time>2007-08-03T17:14:36Z</time></trkpt>
<trkpt lat="46.21581542" lon="7.42661339"><ele>1233.028076</ele><time>2007-08-03T17:14:37Z</time></trkpt>
<trkpt lat="46.21561359" lon="7.42623922"><ele>1231.586182</ele><time>2007-08-03T17:14:39Z</time></trkpt>
<trkpt lat="46.21533045" lon="7.42564796"><ele>1225.337402</ele><time>2007-08-03T17:14:42Z</time></trkpt>
<trkpt lat="46.21499819" lon="7.42482939"><ele>1219.569824</ele><time>2007-08-03T17:14:46Z</time></trkpt>
<trkpt lat="46.21492116" lon="7.42465454"><ele>1217.166504</ele><time>2007-08-03T17:14:47Z</time></trkpt>
<trkpt lat="46.21460139" lon="7.42430619"><ele>1215.243896</ele><time>2007-08-03T17:14:50Z</time></trkpt>
<trkpt lat="46.21417886" lon="7.42418264"><ele>1211.87915</ele><time>2007-08-03T17:14:53Z</time></trkpt>
<trkpt lat="46.21378114" lon="7.42389003"><ele>1208.033936</ele><time>2007-08-03T17:14:56Z</time></trkpt>
<trkpt lat="46.21353353" lon="7.42362223"><ele>1204.188721</ele><time>2007-08-03T17:14:58Z</time></trkpt>
<trkpt lat="46.21323925" lon="7.42319140"><ele>1199.38208</ele><time>2007-08-03T17:15:01Z</time></trkpt>
<trkpt lat="46.21298293" lon="7.42303315"><ele>1195.055908</ele><time>2007-08-03T17:15:04Z</time></trkpt>
<trkpt lat="46.21282216" lon="7.42322174"><ele>1192.652832</ele><time>2007-08-03T17:15:06Z</time></trkpt>
<trkpt lat="46.21256618" lon="7.42357747"><ele>1191.691406</ele><time>2007-08-03T17:15:09Z</time></trkpt>
<trkpt lat="46.21242042" lon="7.42387854"><ele>1188.807617</ele><time>2007-08-03T17:15:11Z</time></trkpt>
<trkpt lat="46.21229628" lon="7.42422254"><ele>1187.846191</ele><time>2007-08-03T17:15:13Z</time></trkpt>
<trkpt lat="46.21189546" lon="7.42477767"><ele>1182.559082</ele><time>2007-08-03T17:15:17Z</time></trkpt>
<trkpt lat="46.21162598" lon="7.42493986"><ele>1182.078369</ele><time>2007-08-03T17:15:19Z</time></trkpt>
<trkpt lat="46.21147980" lon="7.42498328"><ele>1180.155762</ele><time>2007-08-03T17:15:20Z</time></trkpt>
<trkpt lat="46.21104117" lon="7.42514882"><ele>1174.387695</ele><time>2007-08-03T17:15:23Z</time></trkpt>
<trkpt lat="46.21062543" lon="7.42530003"><ele>1169.100586</ele><time>2007-08-03T17:15:26Z</time></trkpt>
<trkpt lat="46.21042829" lon="7.42542702"><ele>1164.774658</ele><time>2007-08-03T17:15:28Z</time></trkpt>
<trkpt lat="46.21030935" lon="7.42554579"><ele>1161.890625</ele><time>2007-08-03T17:15:30Z</time></trkpt>
<trkpt lat="46.21026778" lon="7.42555585"><ele>1161.890625</ele><time>2007-08-03T17:15:31Z</time></trkpt>
<trkpt lat="46.21023836" lon="7.42546583"><ele>1161.890625</ele><time>2007-08-03T17:15:33Z</time></trkpt>
<trkpt lat="46.21029980" lon="7.42535410"><ele>1161.409912</ele><time>2007-08-03T17:15:35Z</time></trkpt>
<trkpt lat="46.21054924" lon="7.42514497"><ele>1160.929199</ele><time>2007-08-03T17:15:39Z</time></trkpt>
<trkpt lat="46.21062166" lon="7.42507732"><ele>1160.448486</ele><time>2007-08-03T17:15:40Z</time></trkpt>
<trkpt lat="46.21077656" lon="7.42491555"><ele>1159.006592</ele><time>2007-08-03T17:15:42Z</time></trkpt>
<trkpt lat="46.21116648" lon="7.42462370"><ele>1152.758057</ele><time>2007-08-03T17:15:46Z</time></trkpt>
<trkpt lat="46.21127092" lon="7.42454155"><ele>1152.758057</ele><time>2007-08-03T17:15:47Z</time></trkpt>
<trkpt lat="46.21147905" lon="7.42434542"><ele>1150.35498</ele><time>2007-08-03T17:15:49Z</time></trkpt>
<trkpt lat="46.21173914" lon="7.42392054"><ele>1147.470703</ele><time>2007-08-03T17:15:52Z</time></trkpt>
<trkpt lat="46.21179345" lon="7.42374217"><ele>1146.509521</ele><time>2007-08-03T17:15:53Z</time></trkpt>
<trkpt lat="46.21188859" lon="7.42336675"><ele>1145.067383</ele><time>2007-08-03T17:15:55Z</time></trkpt>
<trkpt lat="46.21219595" lon="7.42266602"><ele>1140.260986</ele><time>2007-08-03T17:15:59Z</time></trkpt>
<trkpt lat="46.21245160" lon="7.42216906"><ele>1137.857666</ele><time>2007-08-03T17:16:02Z</time></trkpt>
<trkpt lat="46.21274865" lon="7.42181542"><ele>1134.012451</ele><time>2007-08-03T17:16:05Z</time></trkpt>
<trkpt lat="46.21300162" lon="7.42172406"><ele>1131.608887</ele><time>2007-08-03T17:16:07Z</time></trkpt>
<trkpt lat="46.21351107" lon="7.42161334"><ele>1129.686279</ele><time>2007-08-03T17:16:11Z</time></trkpt>
<trkpt lat="46.21383478" lon="7.42166379"><ele>1122.957275</ele><time>2007-08-03T17:16:14Z</time></trkpt>
<trkpt lat="46.21393067" lon="7.42174946"><ele>1122.957275</ele><time>2007-08-03T17:16:15Z</time></trkpt>
<trkpt lat="46.21402178" lon="7.42185633"><ele>1120.553955</ele><time>2007-08-03T17:16:16Z</time></trkpt>
<trkpt lat="46.21432705" lon="7.42216126"><ele>1118.631348</ele><time>2007-08-03T17:16:19Z</time></trkpt>
<trkpt lat="46.21469703" lon="7.42235312"><ele>1115.266602</ele><time>2007-08-03T17:16:22Z</time></trkpt>
<trkpt lat="46.21496927" lon="7.42231440"><ele>1113.824463</ele><time>2007-08-03T17:16:24Z</time></trkpt>
<trkpt lat="46.21538107" lon="7.42214299"><ele>1109.498779</ele><time>2007-08-03T17:16:27Z</time></trkpt>
<trkpt lat="46.21552499" lon="7.42210108"><ele>1109.498779</ele><time>2007-08-03T17:16:28Z</time></trkpt>
<trkpt lat="46.21592053" lon="7.42186655"><ele>1103.730957</ele><time>2007-08-03T17:16:31Z</time></trkpt>
<trkpt lat="46.21624977" lon="7.42184962"><ele>1099.885498</ele><time>2007-08-03T17:16:34Z</time></trkpt>
<trkpt lat="46.21641498" lon="7.42208633"><ele>1098.443359</ele><time>2007-08-03T17:16:36Z</time></trkpt>
<trkpt lat="46.21670474" lon="7.42266275"><ele>1094.117676</ele><time>2007-08-03T17:16:40Z</time></trkpt>
<trkpt lat="46.21687079" lon="7.42294287"><ele>1092.675781</ele><time>2007-08-03T17:16:42Z</time></trkpt>
<trkpt lat="46.21721009" lon="7.42308453"><ele>1087.869141</ele><time>2007-08-03T17:16:45Z</time></trkpt>
<trkpt lat="46.21746582" lon="7.42302929"><ele>1084.504639</ele><time>2007-08-03T17:16:47Z</time></trkpt>
<trkpt lat="46.21800813" lon="7.42299878"><ele>1081.620361</ele><time>2007-08-03T17:16:51Z</time></trkpt>
<trkpt lat="46.21829077" lon="7.42302326"><ele>1078.736572</ele><time>2007-08-03T17:16:53Z</time></trkpt>
<trkpt lat="46.21857869" lon="7.42308813"><ele>1075.371826</ele><time>2007-08-03T17:16:55Z</time></trkpt>
<trkpt lat="46.21902376" lon="7.42302225"><ele>1073.449463</ele><time>2007-08-03T17:16:58Z</time></trkpt>
<trkpt lat="46.21945124" lon="7.42283123"><ele>1068.162109</ele><time>2007-08-03T17:17:01Z</time></trkpt>
<trkpt lat="46.21976766" lon="7.42244700"><ele>1064.797363</ele><time>2007-08-03T17:17:04Z</time></trkpt>
<trkpt lat="46.22005826" lon="7.42199639"><ele>1061.432861</ele><time>2007-08-03T17:17:07Z</time></trkpt>
<trkpt lat="46.22029119" lon="7.42173563"><ele>1056.145508</ele><time>2007-08-03T17:17:09Z</time></trkpt>
<trkpt lat="46.22066243" lon="7.42106306"><ele>1053.261719</ele><time>2007-08-03T17:17:13Z</time></trkpt>
<trkpt lat="46.22079235" lon="7.42067289"><ele>1050.858154</ele><time>2007-08-03T17:17:15Z</time></trkpt>
<trkpt lat="46.22118453" lon="7.42003402"><ele>1046.532471</ele><time>2007-08-03T17:17:19Z</time></trkpt>
<trkpt lat="46.22145443" lon="7.41986906"><ele>1045.090332</ele><time>2007-08-03T17:17:21Z</time></trkpt>
<trkpt lat="46.22172793" lon="7.41972682"><ele>1041.72583</ele><time>2007-08-03T17:17:23Z</time></trkpt>
<trkpt lat="46.22225306" lon="7.41955876"><ele>1032.112549</ele><time>2007-08-03T17:17:27Z</time></trkpt>
<trkpt lat="46.22235264" lon="7.41956027"><ele>1031.151367</ele><time>2007-08-03T17:17:28Z</time></trkpt>
<trkpt lat="46.22248532" lon="7.41950705"><ele>1030.189941</ele><time>2007-08-03T17:17:30Z</time></trkpt>
<trkpt lat="46.22247753" lon="7.41934989"><ele>1029.709229</ele><time>2007-08-03T17:17:32Z</time></trkpt>
<trkpt lat="46.22234828" lon="7.41931326"><ele>1028.267334</ele><time>2007-08-03T17:17:34Z</time></trkpt>
<trkpt lat="46.22199926" lon="7.41935718"><ele>1028.748047</ele><time>2007-08-03T17:17:38Z</time></trkpt>
<trkpt lat="46.22179759" lon="7.41939615"><ele>1026.825439</ele><time>2007-08-03T17:17:40Z</time></trkpt>
<trkpt lat="46.22157857" lon="7.41945768"><ele>1023.941406</ele><time>2007-08-03T17:17:42Z</time></trkpt>
<trkpt lat="46.22121446" lon="7.41947226"><ele>1022.018799</ele><time>2007-08-03T17:17:45Z</time></trkpt>
<trkpt lat="46.22097633" lon="7.41960403"><ele>1021.057617</ele><time>2007-08-03T17:17:47Z</time></trkpt>
<trkpt lat="46.22075035" lon="7.41980377"><ele>1019.615479</ele><time>2007-08-03T17:17:49Z</time></trkpt>
<trkpt lat="46.22049345" lon="7.41995682"><ele>1016.731445</ele><time>2007-08-03T17:17:51Z</time></trkpt>
<trkpt lat="46.22011542" lon="7.42026008"><ele>1014.328125</ele><time>2007-08-03T17:17:54Z</time></trkpt>
<trkpt lat="46.21970798" lon="7.42052092"><ele>1010.963623</ele><time>2007-08-03T17:17:57Z</time></trkpt>
<trkpt lat="46.21955903" lon="7.42057440"><ele>1008.079834</ele><time>2007-08-03T17:17:58Z</time></trkpt>
<trkpt lat="46.21910825" lon="7.42071706"><ele>1005.195801</ele><time>2007-08-03T17:18:01Z</time></trkpt>
<trkpt lat="46.21865144" lon="7.42087808"><ele>1000.869629</ele><time>2007-08-03T17:18:04Z</time></trkpt>
<trkpt lat="46.21819580" lon="7.42090984"><ele>995.101807</ele><time>2007-08-03T17:18:07Z</time></trkpt>
<trkpt lat="46.21807099" lon="7.42090959"><ele>993.659912</ele><time>2007-08-03T17:18:08Z</time></trkpt>
<trkpt lat="46.21778903" lon="7.42069527"><ele>987.891846</ele><time>2007-08-03T17:18:11Z</time></trkpt>
<trkpt lat="46.21769867" lon="7.42036519"><ele>987.891846</ele><time>2007-08-03T17:18:13Z</time></trkpt>
<trkpt lat="46.21763664" lon="7.42003134"><ele>982.604736</ele><time>2007-08-03T17:18:15Z</time></trkpt>
<trkpt lat="46.21743036" lon="7.41971735"><ele>979.23999</ele><time>2007-08-03T17:18:18Z</time></trkpt>
<trkpt lat="46.21732526" lon="7.41967762"><ele>978.759521</ele><time>2007-08-03T17:18:19Z</time></trkpt>
<trkpt lat="46.21680943" lon="7.41926976"><ele>975.875488</ele><time>2007-08-03T17:18:24Z</time></trkpt>
<trkpt lat="46.21672788" lon="7.41913816"><ele>974.914307</ele><time>2007-08-03T17:18:25Z</time></trkpt>
<trkpt lat="46.21649578" lon="7.41886508"><ele>969.14624</ele><time>2007-08-03T17:18:28Z</time></trkpt>
<trkpt lat="46.21630928" lon="7.41896340"><ele>967.704102</ele><time>2007-08-03T17:18:30Z</time></trkpt>
<trkpt lat="46.21622513" lon="7.41907077"><ele>967.223633</ele><time>2007-08-03T17:18:31Z</time></trkpt>
<trkpt lat="46.21570420" lon="7.41946095"><ele>964.3396</ele><time>2007-08-03T17:18:36Z</time></trkpt>
<trkpt lat="46.21533413" lon="7.41952674"><ele>960.494385</ele><time>2007-08-03T17:18:39Z</time></trkpt>
<trkpt lat="46.21521964" lon="7.41955105"><ele>960.494385</ele><time>2007-08-03T17:18:40Z</time></trkpt>
<trkpt lat="46.21500825" lon="7.41946966"><ele>955.207031</ele><time>2007-08-03T17:18:42Z</time></trkpt>
<trkpt lat="46.21490096" lon="7.41919138"><ele>953.284424</ele><time>2007-08-03T17:18:44Z</time></trkpt>
<trkpt lat="46.21468102" lon="7.41869643"><ele>949.439209</ele><time>2007-08-03T17:18:48Z</time></trkpt>
<trkpt lat="46.21431808" lon="7.41857548"><ele>947.035889</ele><time>2007-08-03T17:18:51Z</time></trkpt>
<trkpt lat="46.21418556" lon="7.41857540"><ele>947.035889</ele><time>2007-08-03T17:18:52Z</time></trkpt>
<trkpt lat="46.21381282" lon="7.41872057"><ele>942.710205</ele><time>2007-08-03T17:18:55Z</time></trkpt>
<trkpt lat="46.21341585" lon="7.41889173"><ele>940.787354</ele><time>2007-08-03T17:18:58Z</time></trkpt>
<trkpt lat="46.21326758" lon="7.41889969"><ele>938.864746</ele><time>2007-08-03T17:18:59Z</time></trkpt>
<trkpt lat="46.21296214" lon="7.41889265"><ele>937.90332</ele><time>2007-08-03T17:19:01Z</time></trkpt>
<trkpt lat="46.21265419" lon="7.41886214"><ele>935.019531</ele><time>2007-08-03T17:19:03Z</time></trkpt>
<trkpt lat="46.21237256" lon="7.41881604"><ele>930.693604</ele><time>2007-08-03T17:19:05Z</time></trkpt>
<trkpt lat="46.21226334" lon="7.41880372"><ele>928.290283</ele><time>2007-08-03T17:19:06Z</time></trkpt>
<trkpt lat="46.21211565" lon="7.41870549"><ele>923.964111</ele><time>2007-08-03T17:19:09Z</time></trkpt>
<trkpt lat="46.21213719" lon="7.41865737"><ele>923.964111</ele><time>2007-08-03T17:19:10Z</time></trkpt>
<trkpt lat="46.21223744" lon="7.41864078"><ele>923.00293</ele><time>2007-08-03T17:19:12Z</time></trkpt>
<trkpt lat="46.21258428" lon="7.41868135"><ele>923.483643</ele><time>2007-08-03T17:19:16Z</time></trkpt>
<trkpt lat="46.21269258" lon="7.41867824"><ele>922.041504</ele><time>2007-08-03T17:19:17Z</time></trkpt>
<trkpt lat="46.21327336" lon="7.41847297"><ele>918.677002</ele><time>2007-08-03T17:19:22Z</time></trkpt>
<trkpt lat="46.21339129" lon="7.41839980"><ele>918.196289</ele><time>2007-08-03T17:19:23Z</time></trkpt>
<trkpt lat="46.21383855" lon="7.41798397"><ele>912.428467</ele><time>2007-08-03T17:19:27Z</time></trkpt>
<trkpt lat="46.21410828" lon="7.41789982"><ele>910.505859</ele><time>2007-08-03T17:19:29Z</time></trkpt>
<trkpt lat="46.21438723" lon="7.41795556"><ele>908.583252</ele><time>2007-08-03T17:19:31Z</time></trkpt>
<trkpt lat="46.21494169" lon="7.41819796"><ele>901.854004</ele><time>2007-08-03T17:19:35Z</time></trkpt>
<trkpt lat="46.21507388" lon="7.41825504"><ele>899.931396</ele><time>2007-08-03T17:19:36Z</time></trkpt>
<trkpt lat="46.21543606" lon="7.41818866"><ele>895.124756</ele><time>2007-08-03T17:19:39Z</time></trkpt>
<trkpt lat="46.21561233" lon="7.41790686"><ele>894.163574</ele><time>2007-08-03T17:19:41Z</time></trkpt>
<trkpt lat="46.21599823" lon="7.41707386"><ele>888.395508</ele><time>2007-08-03T17:19:46Z</time></trkpt>
<trkpt lat="46.21606822" lon="7.41691218"><ele>887.434082</ele><time>2007-08-03T17:19:47Z</time></trkpt>
<trkpt lat="46.21632035" lon="7.41659274"><ele>883.108154</ele><time>2007-08-03T17:19:50Z</time></trkpt>
<trkpt lat="46.21653610" lon="7.41662619"><ele>878.782471</ele><time>2007-08-03T17:19:52Z</time></trkpt>
<trkpt lat="46.21714429" lon="7.41664656"><ele>874.456299</ele><time>2007-08-03T17:19:57Z</time></trkpt>
<trkpt lat="46.21739306" lon="7.41651353"><ele>872.533691</ele><time>2007-08-03T17:19:59Z</time></trkpt>
<trkpt lat="46.21772474" lon="7.41643558"><ele>867.727051</ele><time>2007-08-03T17:20:02Z</time></trkpt>
<trkpt lat="46.21786698" lon="7.41664094"><ele>864.843262</ele><time>2007-08-03T17:20:04Z</time></trkpt>
<trkpt lat="46.21799706" lon="7.41710354"><ele>862.439941</ele><time>2007-08-03T17:20:07Z</time></trkpt>
<trkpt lat="46.21824676" lon="7.41748584"><ele>859.555908</ele><time>2007-08-03T17:20:10Z</time></trkpt>
<trkpt lat="46.21848020" lon="7.41758256"><ele>855.22998</ele><time>2007-08-03T17:20:12Z</time></trkpt>
<trkpt lat="46.21871975" lon="7.41746597"><ele>854.268799</ele><time>2007-08-03T17:20:14Z</time></trkpt>
<trkpt lat="46.21882796" lon="7.41735625"><ele>852.82666</ele><time>2007-08-03T17:20:15Z</time></trkpt>
<trkpt lat="46.21903902" lon="7.41710437"><ele>850.423584</ele><time>2007-08-03T17:20:17Z</time></trkpt>
<trkpt lat="46.21926248" lon="7.41658805"><ele>848.020264</ele><time>2007-08-03T17:20:20Z</time></trkpt>
<trkpt lat="46.21930498" lon="7.41638797"><ele>846.097656</ele><time>2007-08-03T17:20:21Z</time></trkpt>
<trkpt lat="46.21956993" lon="7.41543286"><ele>840.32959</ele><time>2007-08-03T17:20:26Z</time></trkpt>
<trkpt lat="46.21986522" lon="7.41505366"><ele>837.92627</ele><time>2007-08-03T17:20:29Z</time></trkpt>
<trkpt lat="46.22012607" lon="7.41493296"><ele>833.600342</ele><time>2007-08-03T17:20:31Z</time></trkpt>
<trkpt lat="46.22024979" lon="7.41484528"><ele>833.600342</ele><time>2007-08-03T17:20:32Z</time></trkpt>
<trkpt lat="46.22060543" lon="7.41453758"><ele>828.313232</ele><time>2007-08-03T17:20:35Z</time></trkpt>
<trkpt lat="46.22072848" lon="7.41444094"><ele>828.313232</ele><time>2007-08-03T17:20:36Z</time></trkpt>
<trkpt lat="46.22110876" lon="7.41417213"><ele>824.467773</ele><time>2007-08-03T17:20:39Z</time></trkpt>
<trkpt lat="46.22152518" lon="7.41408253"><ele>821.58374</ele><time>2007-08-03T17:20:42Z</time></trkpt>
<trkpt lat="46.22166658" lon="7.41411254"><ele>821.58374</ele><time>2007-08-03T17:20:43Z</time></trkpt>
<trkpt lat="46.22209288" lon="7.41416937"><ele>816.296631</ele><time>2007-08-03T17:20:46Z</time></trkpt>
<trkpt lat="46.22237493" lon="7.41424489"><ele>815.816162</ele><time>2007-08-03T17:20:48Z</time></trkpt>
<trkpt lat="46.22251634" lon="7.41428403"><ele>812.451416</ele><time>2007-08-03T17:20:49Z</time></trkpt>
<trkpt lat="46.22293903" lon="7.41422754"><ele>810.047852</ele><time>2007-08-03T17:20:52Z</time></trkpt>
<trkpt lat="46.22306694" lon="7.41413483"><ele>806.202637</ele><time>2007-08-03T17:20:53Z</time></trkpt>
<trkpt lat="46.22318664" lon="7.41401975"><ele>806.202637</ele><time>2007-08-03T17:20:54Z</time></trkpt>
<trkpt lat="46.22340415" lon="7.41376972"><ele>803.318848</ele><time>2007-08-03T17:20:56Z</time></trkpt>
<trkpt lat="46.22375677" lon="7.41363024"><ele>797.070313</ele><time>2007-08-03T17:20:59Z</time></trkpt>
<trkpt lat="46.22387823" lon="7.41368154"><ele>796.109131</ele><time>2007-08-03T17:21:00Z</time></trkpt>
<trkpt lat="46.22424276" lon="7.41389712"><ele>791.782959</ele><time>2007-08-03T17:21:03Z</time></trkpt>
<trkpt lat="46.22464023" lon="7.41397792"><ele>789.860352</ele><time>2007-08-03T17:21:06Z</time></trkpt>
<trkpt lat="46.22477350" lon="7.41394448"><ele>789.379639</ele><time>2007-08-03T17:21:07Z</time></trkpt>
<trkpt lat="46.22503635" lon="7.41385714"><ele>783.131104</ele><time>2007-08-03T17:21:09Z</time></trkpt>
<trkpt lat="46.22516569" lon="7.41381230"><ele>783.131104</ele><time>2007-08-03T17:21:10Z</time></trkpt>
<trkpt lat="46.22542125" lon="7.41372479"><ele>781.20874</ele><time>2007-08-03T17:21:12Z</time></trkpt>
<trkpt lat="46.22567606" lon="7.41363477"><ele>779.285645</ele><time>2007-08-03T17:21:14Z</time></trkpt>
<trkpt lat="46.22580464" lon="7.41359487"><ele>777.84375</ele><time>2007-08-03T17:21:15Z</time></trkpt>
<trkpt lat="46.22620136" lon="7.41355573"><ele>773.998535</ele><time>2007-08-03T17:21:18Z</time></trkpt>
<trkpt lat="46.22646463" lon="7.41350887"><ele>769.672852</ele><time>2007-08-03T17:21:20Z</time></trkpt>
<trkpt lat="46.22672858" lon="7.41340904"><ele>768.230713</ele><time>2007-08-03T17:21:22Z</time></trkpt>
<trkpt lat="46.22700283" lon="7.41335758"><ele>766.308105</ele><time>2007-08-03T17:21:24Z</time></trkpt>
<trkpt lat="46.22728027" lon="7.41342715"><ele>765.346924</ele><time>2007-08-03T17:21:26Z</time></trkpt>
<trkpt lat="46.22754405" lon="7.41358029"><ele>764.385498</ele><time>2007-08-03T17:21:28Z</time></trkpt>
<trkpt lat="46.22780163" lon="7.41374893"><ele>760.540039</ele><time>2007-08-03T17:21:30Z</time></trkpt>
<trkpt lat="46.22806063" lon="7.41390777"><ele>756.694824</ele><time>2007-08-03T17:21:32Z</time></trkpt>
<trkpt lat="46.22830706" lon="7.41405604"><ele>752.849609</ele><time>2007-08-03T17:21:34Z</time></trkpt>
<trkpt lat="46.22850319" lon="7.41417708"><ele>749.485107</ele><time>2007-08-03T17:21:36Z</time></trkpt>
<trkpt lat="46.22857763" lon="7.41422444"><ele>748.043213</ele><time>2007-08-03T17:21:37Z</time></trkpt>
<trkpt lat="46.22870176" lon="7.41422955"><ele>747.562256</ele><time>2007-08-03T17:21:39Z</time></trkpt>
<trkpt lat="46.22871777" lon="7.41407423"><ele>746.120361</ele><time>2007-08-03T17:21:41Z</time></trkpt>
<trkpt lat="46.22859682" lon="7.41395907"><ele>745.158936</ele><time>2007-08-03T17:21:43Z</time></trkpt>
<trkpt lat="46.22844025" lon="7.41384767"><ele>744.678223</ele><time>2007-08-03T17:21:45Z</time></trkpt>
<trkpt lat="46.22825425" lon="7.41369219"><ele>742.755859</ele><time>2007-08-03T17:21:47Z</time></trkpt>
<trkpt lat="46.22798318" lon="7.41336185"><ele>741.313721</ele><time>2007-08-03T17:21:50Z</time></trkpt>
<trkpt lat="46.22788738" lon="7.41324023"><ele>740.352539</ele><time>2007-08-03T17:21:51Z</time></trkpt>
<trkpt lat="46.22778562" lon="7.41312180"><ele>739.391113</ele><time>2007-08-03T17:21:52Z</time></trkpt>
<trkpt lat="46.22768646" lon="7.41299406"><ele>739.391113</ele><time>2007-08-03T17:21:53Z</time></trkpt>
<trkpt lat="46.22735144" lon="7.41237489"><ele>736.987793</ele><time>2007-08-03T17:21:57Z</time></trkpt>
<trkpt lat="46.22728262" lon="7.41220498"><ele>733.623291</ele><time>2007-08-03T17:21:58Z</time></trkpt>
<trkpt lat="46.22701549" lon="7.41177323"><ele>729.297119</ele><time>2007-08-03T17:22:01Z</time></trkpt>
<trkpt lat="46.22676604" lon="7.41159269"><ele>726.41333</ele><time>2007-08-03T17:22:03Z</time></trkpt>
<trkpt lat="46.22662808" lon="7.41153334"><ele>725.932617</ele><time>2007-08-03T17:22:04Z</time></trkpt>
<trkpt lat="46.22623170" lon="7.41127367"><ele>723.529541</ele><time>2007-08-03T17:22:07Z</time></trkpt>
<trkpt lat="46.22587019" lon="7.41090579"><ele>719.684326</ele><time>2007-08-03T17:22:10Z</time></trkpt>
<trkpt lat="46.22550532" lon="7.41054604"><ele>716.31958</ele><time>2007-08-03T17:22:13Z</time></trkpt>
<trkpt lat="46.22526594" lon="7.41036524"><ele>711.993652</ele><time>2007-08-03T17:22:15Z</time></trkpt>
<trkpt lat="46.22516946" lon="7.41029978"><ele>711.993652</ele><time>2007-08-03T17:22:16Z</time></trkpt>
<trkpt lat="46.22510534" lon="7.41022996"><ele>707.187012</ele><time>2007-08-03T17:22:17Z</time></trkpt>
<trkpt lat="46.22508346" lon="7.41014916"><ele>707.187012</ele><time>2007-08-03T17:22:18Z</time></trkpt>
<trkpt lat="46.22516007" lon="7.41004639"><ele>705.264404</ele><time>2007-08-03T17:22:20Z</time></trkpt>
<trkpt lat="46.22523308" lon="7.41005536"><ele>705.264404</ele><time>2007-08-03T17:22:21Z</time></trkpt>
<trkpt lat="46.22570883" lon="7.41013968"><ele>702.861084</ele><time>2007-08-03T17:22:26Z</time></trkpt>
<trkpt lat="46.22616297" lon="7.41014429"><ele>700.938477</ele><time>2007-08-03T17:22:30Z</time></trkpt>
<trkpt lat="46.22628308" lon="7.41014278"><ele>699.496338</ele><time>2007-08-03T17:22:31Z</time></trkpt>
<trkpt lat="46.22652884" lon="7.41013817"><ele>695.651123</ele><time>2007-08-03T17:22:33Z</time></trkpt>
<trkpt lat="46.22665348" lon="7.41013742"><ele>696.131836</ele><time>2007-08-03T17:22:34Z</time></trkpt>
<trkpt lat="46.22715949" lon="7.41012334"><ele>693.728516</ele><time>2007-08-03T17:22:38Z</time></trkpt>
<trkpt lat="46.22738639" lon="7.41019358"><ele>691.805908</ele><time>2007-08-03T17:22:40Z</time></trkpt>
<trkpt lat="46.22755277" lon="7.41043800"><ele>688.922119</ele><time>2007-08-03T17:22:42Z</time></trkpt>
<trkpt lat="46.22761756" lon="7.41059365"><ele>688.922119</ele><time>2007-08-03T17:22:43Z</time></trkpt>
<trkpt lat="46.22773508" lon="7.41092674"><ele>685.076904</ele><time>2007-08-03T17:22:45Z</time></trkpt>
<trkpt lat="46.22787547" lon="7.41124853"><ele>684.115479</ele><time>2007-08-03T17:22:47Z</time></trkpt>
<trkpt lat="46.22819088" lon="7.41162269"><ele>681.711914</ele><time>2007-08-03T17:22:50Z</time></trkpt>
<trkpt lat="46.22831150" lon="7.41171909"><ele>681.711914</ele><time>2007-08-03T17:22:51Z</time></trkpt>
<trkpt lat="46.22843874" lon="7.41179804"><ele>679.789307</ele><time>2007-08-03T17:22:52Z</time></trkpt>
<trkpt lat="46.22870352" lon="7.41192335"><ele>676.905518</ele><time>2007-08-03T17:22:54Z</time></trkpt>
<trkpt lat="46.22897769" lon="7.41199954"><ele>674.98291</ele><time>2007-08-03T17:22:56Z</time></trkpt>
<trkpt lat="46.22925907" lon="7.41197499"><ele>672.57959</ele><time>2007-08-03T17:22:58Z</time></trkpt>
<trkpt lat="46.22967616" lon="7.41209384"><ele>668.734375</ele><time>2007-08-03T17:23:01Z</time></trkpt>
<trkpt lat="46.23009508" lon="7.41217699"><ele>666.811523</ele><time>2007-08-03T17:23:04Z</time></trkpt>
<trkpt lat="46.23052985" lon="7.41216232"><ele>662.005127</ele><time>2007-08-03T17:23:07Z</time></trkpt>
<trkpt lat="46.23080067" lon="7.41234396"><ele>658.640381</ele><time>2007-08-03T17:23:09Z</time></trkpt>
<trkpt lat="46.23106445" lon="7.41256515"><ele>657.679199</ele><time>2007-08-03T17:23:11Z</time></trkpt>
<trkpt lat="46.23178982" lon="7.41296078"><ele>652.391846</ele><time>2007-08-03T17:23:16Z</time></trkpt>
<trkpt lat="46.23223566" lon="7.41319120"><ele>646.624023</ele><time>2007-08-03T17:23:19Z</time></trkpt>
<trkpt lat="46.23263924" lon="7.41355757"><ele>642.778809</ele><time>2007-08-03T17:23:22Z</time></trkpt>
<trkpt lat="46.23290093" lon="7.41383987"><ele>641.33667</ele><time>2007-08-03T17:23:24Z</time></trkpt>
<trkpt lat="46.23326948" lon="7.41423458"><ele>637.972168</ele><time>2007-08-03T17:23:27Z</time></trkpt>
<trkpt lat="46.23359218" lon="7.41446458"><ele>632.684814</ele><time>2007-08-03T17:23:30Z</time></trkpt>
<trkpt lat="46.23378614" lon="7.41443424"><ele>628.8396</ele><time>2007-08-03T17:23:33Z</time></trkpt>
<trkpt lat="46.23376703" lon="7.41427490"><ele>627.878174</ele><time>2007-08-03T17:23:35Z</time></trkpt>
<trkpt lat="46.23363795" lon="7.41419108"><ele>627.397705</ele><time>2007-08-03T17:23:37Z</time></trkpt>
<trkpt lat="46.23339328" lon="7.41404414"><ele>625.955566</ele><time>2007-08-03T17:23:40Z</time></trkpt>
<trkpt lat="46.23323847" lon="7.41384767"><ele>626.436279</ele><time>2007-08-03T17:23:42Z</time></trkpt>
<trkpt lat="46.23302397" lon="7.41348482"><ele>625.955566</ele><time>2007-08-03T17:23:45Z</time></trkpt>
<trkpt lat="46.23294904" lon="7.41335909"><ele>625.474854</ele><time>2007-08-03T17:23:46Z</time></trkpt>
<trkpt lat="46.23279666" lon="7.41310118"><ele>622.591064</ele><time>2007-08-03T17:23:48Z</time></trkpt>
<trkpt lat="46.23256573" lon="7.41268644"><ele>620.668457</ele><time>2007-08-03T17:23:51Z</time></trkpt>
<trkpt lat="46.23249114" lon="7.41254026"><ele>620.187744</ele><time>2007-08-03T17:23:52Z</time></trkpt>
<trkpt lat="46.23234412" lon="7.41224790"><ele>618.745605</ele><time>2007-08-03T17:23:54Z</time></trkpt>
<trkpt lat="46.23227212" lon="7.41210532"><ele>614.419678</ele><time>2007-08-03T17:23:55Z</time></trkpt>
<trkpt lat="46.23177473" lon="7.41112146"><ele>609.132568</ele><time>2007-08-03T17:24:02Z</time></trkpt>
<trkpt lat="46.23169913" lon="7.41098106"><ele>609.132568</ele><time>2007-08-03T17:24:03Z</time></trkpt>
<trkpt lat="46.23145413" lon="7.41057353"><ele>606.248535</ele><time>2007-08-03T17:24:06Z</time></trkpt>
<trkpt lat="46.23118507" lon="7.41018184"><ele>603.364502</ele><time>2007-08-03T17:24:09Z</time></trkpt>
<trkpt lat="46.23080034" lon="7.40967658"><ele>600</ele><time>2007-08-03T17:24:13Z</time></trkpt>
<trkpt lat="46.23050328" lon="7.40930317"><ele>595.193359</ele><time>2007-08-03T17:24:16Z</time></trkpt>
<trkpt lat="46.23010799" lon="7.40879187"><ele>591.828857</ele><time>2007-08-03T17:24:20Z</time></trkpt>
<trkpt lat="46.22982829" lon="7.40838334"><ele>588.945068</ele><time>2007-08-03T17:24:23Z</time></trkpt>
<trkpt lat="46.22958052" lon="7.40793197"><ele>585.099609</ele><time>2007-08-03T17:24:26Z</time></trkpt>
<trkpt lat="46.22938849" lon="7.40743065"><ele>581.734863</ele><time>2007-08-03T17:24:29Z</time></trkpt>
<trkpt lat="46.22926268" lon="7.40689237"><ele>579.331543</ele><time>2007-08-03T17:24:32Z</time></trkpt>
<trkpt lat="46.22921398" lon="7.40652096"><ele>575.967041</ele><time>2007-08-03T17:24:34Z</time></trkpt>
<trkpt lat="46.22914986" lon="7.40596290"><ele>573.083252</ele><time>2007-08-03T17:24:37Z</time></trkpt>
<trkpt lat="46.22909613" lon="7.40559359"><ele>571.640869</ele><time>2007-08-03T17:24:39Z</time></trkpt>
<trkpt lat="46.22906562" lon="7.40540776"><ele>570.679688</ele><time>2007-08-03T17:24:40Z</time></trkpt>
<trkpt lat="46.22903662" lon="7.40483779"><ele>565.873291</ele><time>2007-08-03T17:24:43Z</time></trkpt>
<trkpt lat="46.22904517" lon="7.40465465"><ele>565.873291</ele><time>2007-08-03T17:24:44Z</time></trkpt>
<trkpt lat="46.22905640" lon="7.40448467"><ele>563.469971</ele><time>2007-08-03T17:24:45Z</time></trkpt>
<trkpt lat="46.22917525" lon="7.40406875"><ele>560.105225</ele><time>2007-08-03T17:24:48Z</time></trkpt>
<trkpt lat="46.22924172" lon="7.40395510"><ele>558.66333</ele><time>2007-08-03T17:24:49Z</time></trkpt>
<trkpt lat="46.22947834" lon="7.40367539"><ele>557.221436</ele><time>2007-08-03T17:24:52Z</time></trkpt>
<trkpt lat="46.22986634" lon="7.40336325"><ele>555.298584</ele><time>2007-08-03T17:24:57Z</time></trkpt>
<trkpt lat="46.22999207" lon="7.40324465"><ele>554.337402</ele><time>2007-08-03T17:24:59Z</time></trkpt>
<trkpt lat="46.23023313" lon="7.40300769"><ele>553.375977</ele><time>2007-08-03T17:25:04Z</time></trkpt>
<trkpt lat="46.23032056" lon="7.40291297"><ele>552.414551</ele><time>2007-08-03T17:25:08Z</time></trkpt>
<trkpt lat="46.23033070" lon="7.40289729"><ele>552.387939</ele><time>2007-08-03T17:25:09Z</time></trkpt>
<trkpt lat="46.24168877" lon="7.38532682"><ele>522.613892</ele><time>2007-08-03T17:43:49Z</time></trkpt>
<trkpt lat="46.24180879" lon="7.38522096"><ele>522.613892</ele><time>2007-08-03T17:43:50Z</time></trkpt>
<trkpt lat="46.24224465" lon="7.38481670"><ele>522.613892</ele><time>2007-08-03T17:43:57Z</time></trkpt>
<trkpt lat="46.24281580" lon="7.38427414"><ele>522.133179</ele><time>2007-08-03T17:44:06Z</time></trkpt>
<trkpt lat="46.24329968" lon="7.38371775"><ele>520.691284</ele><time>2007-08-03T17:44:14Z</time></trkpt>
<trkpt lat="46.24335609" lon="7.38364197"><ele>521.171997</ele><time>2007-08-03T17:44:15Z</time></trkpt>
<trkpt lat="46.24353513" lon="7.38328373"><ele>521.171997</ele><time>2007-08-03T17:44:19Z</time></trkpt>
<trkpt lat="46.24366296" lon="7.38289263"><ele>520.691284</ele><time>2007-08-03T17:44:23Z</time></trkpt>
<trkpt lat="46.24370336" lon="7.38246348"><ele>521.171997</ele><time>2007-08-03T17:44:27Z</time></trkpt>
<trkpt lat="46.24365248" lon="7.38225468"><ele>519.729858</ele><time>2007-08-03T17:44:29Z</time></trkpt>
<trkpt lat="46.24361786" lon="7.38215494"><ele>519.729858</ele><time>2007-08-03T17:44:30Z</time></trkpt>
<trkpt lat="46.24349817" lon="7.38186987"><ele>520.210571</ele><time>2007-08-03T17:44:33Z</time></trkpt>
<trkpt lat="46.24311352" lon="7.38109396"><ele>520.691284</ele><time>2007-08-03T17:44:42Z</time></trkpt>
<trkpt lat="46.24275494" lon="7.38043346"><ele>520.691284</ele><time>2007-08-03T17:44:50Z</time></trkpt>
<trkpt lat="46.24235856" lon="7.37994866"><ele>521.171997</ele><time>2007-08-03T17:44:57Z</time></trkpt>
<trkpt lat="46.24203703" lon="7.37956736"><ele>520.210571</ele><time>2007-08-03T17:45:03Z</time></trkpt>
<trkpt lat="46.24146245" lon="7.37887954"><ele>520.210571</ele><time>2007-08-03T17:45:14Z</time></trkpt>
<trkpt lat="46.24096189" lon="7.37836942"><ele>519.249268</ele><time>2007-08-03T17:45:23Z</time></trkpt>
<trkpt lat="46.24050197" lon="7.37791562"><ele>519.249268</ele><time>2007-08-03T17:45:31Z</time></trkpt>
<trkpt lat="46.24027977" lon="7.37769367"><ele>519.249268</ele><time>2007-08-03T17:45:35Z</time></trkpt>
<trkpt lat="46.23983419" lon="7.37722336"><ele>518.768555</ele><time>2007-08-03T17:45:43Z</time></trkpt>
<trkpt lat="46.23925332" lon="7.37662540"><ele>519.249268</ele><time>2007-08-03T17:45:53Z</time></trkpt>
<trkpt lat="46.23875074" lon="7.37608502"><ele>518.287842</ele><time>2007-08-03T17:46:02Z</time></trkpt>
<trkpt lat="46.23825629" lon="7.37553692"><ele>518.768555</ele><time>2007-08-03T17:46:11Z</time></trkpt>
<trkpt lat="46.23809687" lon="7.37534733"><ele>519.249268</ele><time>2007-08-03T17:46:14Z</time></trkpt>
<trkpt lat="46.23770736" lon="7.37488490"><ele>516.845947</ele><time>2007-08-03T17:46:21Z</time></trkpt>
<trkpt lat="46.23765673" lon="7.37482446"><ele>518.287842</ele><time>2007-08-03T17:46:22Z</time></trkpt>
<trkpt lat="46.23749932" lon="7.37456840"><ele>518.768555</ele><time>2007-08-03T17:46:25Z</time></trkpt>
<trkpt lat="46.23715684" lon="7.37418719"><ele>517.807251</ele><time>2007-08-03T17:46:31Z</time></trkpt>
<trkpt lat="46.23670095" lon="7.37363742"><ele>517.807251</ele><time>2007-08-03T17:46:39Z</time></trkpt>
<trkpt lat="46.23619066" lon="7.37298648"><ele>517.32666</ele><time>2007-08-03T17:46:48Z</time></trkpt>
<trkpt lat="46.23587097" lon="7.37261348"><ele>516.845947</ele><time>2007-08-03T17:46:54Z</time></trkpt>
<trkpt lat="46.23550879" lon="7.37228709"><ele>517.807251</ele><time>2007-08-03T17:47:01Z</time></trkpt>
<trkpt lat="46.23502356" lon="7.37191854"><ele>517.32666</ele><time>2007-08-03T17:47:09Z</time></trkpt>
<trkpt lat="46.23445636" lon="7.37157857"><ele>517.32666</ele><time>2007-08-03T17:47:18Z</time></trkpt>
<trkpt lat="46.23392059" lon="7.37129535"><ele>516.845947</ele><time>2007-08-03T17:47:26Z</time></trkpt>
<trkpt lat="46.23337593" lon="7.37103852"><ele>517.32666</ele><time>2007-08-03T17:47:34Z</time></trkpt>
<trkpt lat="46.23292238" lon="7.37083225"><ele>516.365234</ele><time>2007-08-03T17:47:41Z</time></trkpt>
<trkpt lat="46.23260018" lon="7.37070987"><ele>517.807251</ele><time>2007-08-03T17:47:46Z</time></trkpt>
<trkpt lat="46.23244118" lon="7.37059588"><ele>516.845947</ele><time>2007-08-03T17:47:50Z</time></trkpt>
<trkpt lat="46.23246096" lon="7.37047467"><ele>516.845947</ele><time>2007-08-03T17:47:52Z</time></trkpt>
<trkpt lat="46.23255157" lon="7.36991535"><ele>516.845947</ele><time>2007-08-03T17:47:59Z</time></trkpt>
<trkpt lat="46.23250790" lon="7.36973665"><ele>516.845947</ele><time>2007-08-03T17:48:02Z</time></trkpt>
<trkpt lat="46.23245786" lon="7.36972190"><ele>516.845947</ele><time>2007-08-03T17:48:03Z</time></trkpt>
<trkpt lat="46.23200842" lon="7.36961888"><ele>516.845947</ele><time>2007-08-03T17:48:10Z</time></trkpt>
<trkpt lat="46.23139336" lon="7.36950288"><ele>516.845947</ele><time>2007-08-03T17:48:19Z</time></trkpt>
<trkpt lat="46.23073873" lon="7.36936214"><ele>516.845947</ele><time>2007-08-03T17:48:29Z</time></trkpt>
<trkpt lat="46.23030690" lon="7.36932359"><ele>516.845947</ele><time>2007-08-03T17:48:36Z</time></trkpt>
<trkpt lat="46.22983139" lon="7.36931663"><ele>516.365234</ele><time>2007-08-03T17:48:43Z</time></trkpt>
<trkpt lat="46.22969636" lon="7.36930707"><ele>516.845947</ele><time>2007-08-03T17:48:45Z</time></trkpt>
<trkpt lat="46.22956635" lon="7.36932652"><ele>515.884644</ele><time>2007-08-03T17:48:47Z</time></trkpt>
<trkpt lat="46.22925329" lon="7.36924589"><ele>515.884644</ele><time>2007-08-03T17:48:52Z</time></trkpt>
<trkpt lat="46.22919596" lon="7.36922326"><ele>515.884644</ele><time>2007-08-03T17:48:53Z</time></trkpt>
<trkpt lat="46.22891877" lon="7.36899829"><ele>515.884644</ele><time>2007-08-03T17:48:59Z</time></trkpt>
<trkpt lat="46.22887895" lon="7.36896266"><ele>515.884644</ele><time>2007-08-03T17:49:00Z</time></trkpt>
<trkpt lat="46.22876932" lon="7.36872612"><ele>516.365234</ele><time>2007-08-03T17:49:04Z</time></trkpt>
<trkpt lat="46.22871559" lon="7.36869972"><ele>514.442627</ele><time>2007-08-03T17:49:05Z</time></trkpt>
<trkpt lat="46.22822173" lon="7.36841172"><ele>514.442627</ele><time>2007-08-03T17:49:13Z</time></trkpt>
<trkpt lat="46.22809676" lon="7.36829815"><ele>514.92334</ele><time>2007-08-03T17:49:15Z</time></trkpt>
<trkpt lat="46.22783784" lon="7.36787939"><ele>514.442627</ele><time>2007-08-03T17:49:20Z</time></trkpt>
<trkpt lat="46.22774664" lon="7.36755735"><ele>513.962036</ele><time>2007-08-03T17:49:23Z</time></trkpt>
<trkpt lat="46.22757582" lon="7.36645044"><ele>514.442627</ele><time>2007-08-03T17:49:33Z</time></trkpt>
<trkpt lat="46.22740366" lon="7.36536004"><ele>513.481445</ele><time>2007-08-03T17:49:43Z</time></trkpt>
<trkpt lat="46.22720744" lon="7.36414676"><ele>513.481445</ele><time>2007-08-03T17:49:54Z</time></trkpt>
<trkpt lat="46.22697350" lon="7.36269183"><ele>511.558716</ele><time>2007-08-03T17:50:07Z</time></trkpt>
<trkpt lat="46.22691776" lon="7.36235772"><ele>512.039429</ele><time>2007-08-03T17:50:10Z</time></trkpt>
<trkpt lat="46.22679303" lon="7.36186160"><ele>510.59729</ele><time>2007-08-03T17:50:15Z</time></trkpt>
<trkpt lat="46.22672363" lon="7.36132700"><ele>512.039429</ele><time>2007-08-03T17:50:20Z</time></trkpt>
<trkpt lat="46.22656538" lon="7.36028488"><ele>512.039429</ele><time>2007-08-03T17:50:30Z</time></trkpt>
<trkpt lat="46.22651434" lon="7.35969529"><ele>511.558716</ele><time>2007-08-03T17:50:36Z</time></trkpt>
<trkpt lat="46.22658248" lon="7.35923412"><ele>510.59729</ele><time>2007-08-03T17:50:41Z</time></trkpt>
<trkpt lat="46.22671173" lon="7.35847229"><ele>511.078003</ele><time>2007-08-03T17:50:49Z</time></trkpt>
<trkpt lat="46.22671265" lon="7.35809108"><ele>510.59729</ele><time>2007-08-03T17:50:53Z</time></trkpt>
<trkpt lat="46.22679538" lon="7.35783108"><ele>508.194092</ele><time>2007-08-03T17:50:56Z</time></trkpt>
<trkpt lat="46.22720542" lon="7.35789495"><ele>507.713501</ele><time>2007-08-03T17:51:01Z</time></trkpt>
<trkpt lat="46.22723468" lon="7.35777735"><ele>508.194092</ele><time>2007-08-03T17:51:02Z</time></trkpt>
<trkpt lat="46.22776466" lon="7.35751566"><ele>510.59729</ele><time>2007-08-03T17:51:10Z</time></trkpt>
<trkpt lat="46.22785410" lon="7.35749597"><ele>511.558716</ele><time>2007-08-03T17:51:12Z</time></trkpt>
<trkpt lat="46.22788126" lon="7.35750049"><ele>511.078003</ele><time>2007-08-03T17:51:15Z</time></trkpt>
<trkpt lat="46.22802626" lon="7.35744702"><ele>511.558716</ele><time>2007-08-03T17:51:21Z</time></trkpt>
<trkpt lat="46.22809365" lon="7.35747158"><ele>511.078003</ele><time>2007-08-03T17:51:23Z</time></trkpt>
<trkpt lat="46.22818602" lon="7.35746537"><ele>511.558716</ele><time>2007-08-03T17:51:25Z</time></trkpt>
<trkpt lat="46.22845936" lon="7.35728567"><ele>512.039429</ele><time>2007-08-03T17:51:31Z</time></trkpt>
<trkpt lat="46.22849674" lon="7.35723898"><ele>512.52002</ele><time>2007-08-03T17:51:32Z</time></trkpt>
<trkpt lat="46.22871744" lon="7.35700496"><ele>513.481445</ele><time>2007-08-03T17:51:38Z</time></trkpt>
<trkpt lat="46.22884082" lon="7.35695760"><ele>514.92334</ele><time>2007-08-03T17:51:41Z</time></trkpt>
<trkpt lat="46.22893042" lon="7.35691099"><ele>514.92334</ele><time>2007-08-03T17:51:43Z</time></trkpt>
<trkpt lat="46.22902405" lon="7.35687453"><ele>514.92334</ele><time>2007-08-03T17:51:45Z</time></trkpt>
<trkpt lat="46.22908859" lon="7.35685802"><ele>513.481445</ele><time>2007-08-03T17:51:51Z</time></trkpt>
<trkpt lat="46.22910929" lon="7.35688367"><ele>511.078003</ele><time>2007-08-03T17:51:53Z</time></trkpt>
</trkseg></trk></gpx>